Site Date LOGGERID PROGID AIRTEMP_MEAN_150_0_04 AIRTEMP_MEAN_250_0_03 AIRTEMP_MEAN_350_0_02 AIRTEMP_MEAN_450_0_01 AIRTEMP_MEAN_350_0_08 RELHUM_MEAN_150_0_04 RELHUM_MEAN_450_0_01 DEWPT_MEAN_150_0_04 DEWPT_MEAN_450_0_01 SOILTEMP_MEAN_0_10_01 SOILTEMP_MEAN_0_20_02 SOILTEMP_MEAN_0_50_03 SOILTEMP_MEAN_0_100_04 SOILWC_MEAN_0_10_01 SOILWC_MEAN_0_20_02 SOILWC_MEAN_0_50_03 SOILWC_MEAN_0_100_04 SOLAR_MEAN_850_0_01 SNOWDEP_MED_0_0_01 SWE_MED_0_0_01 WSPD_PRO_MEAN_1000_0_01 WDIR_PRO_MEAN_1000_0_01 WDIR_PRO_STDDEV_1000_0_01 AIRTEMP_150_DIAG AIRTEMP_250_DIAG SNOW_DIAG AIRTEMP_MAX_150_0_04 AIRTEMP_MAX_250_0_03 AIRTEMP_MAX_350_0_02 AIRTEMP_MAX_350_0_08 AIRTEMP_MAX_450_0_01 DEWPT_MAX_150_0_04 DEWPT_MAX_450_0_01 AIRTEMP_MIN_150_0_04 AIRTEMP_MIN_250_0_03 AIRTEMP_MIN_350_0_02 AIRTEMP_MIN_350_0_08 AIRTEMP_MIN_450_0_01 DEWPT_MIN_150_0_04 DEWPT_MIN_450_0_01 WSPD_PRO_MAX_1000_0_01 SATVP_MEAN_150_0_04 VAP_MEAN_150_0_04 VPD_MEAN_150_0_04 SATVP_MEAN_450_0_01 VAP_MEAN_450_0_01 VPD_MEAN_450_0_01
VANMET_231 2016-10-01 00:00:00 231 53281.0 4.843 4.942 5.047 4.821 5.107 92.500 91.500 3.739 3.555 14.370 13.990 11.740 10.070 0.216 0.240 0.232 0.542 0.00 0.00 0.00 1.0970 236.80 20.00 1 1 1 4.861 4.963 5.067 5.193 4.838 3.829 3.649 4.818 4.917 5.024 5.032 4.808 3.675 3.490 2.1630 8.628 7.984 0.647 8.614 7.881 0.732
VANMET_231 2016-09-30 23:55:00 231 53281.0 4.870 4.954 5.059 4.851 5.087 92.600 91.500 3.780 3.585 14.390 13.990 11.740 10.070 0.216 0.240 0.232 0.542 0.00 0.00 0.00 0.7270 240.90 21.66 1 1 1 4.898 4.980 5.087 5.186 4.875 3.813 3.658 4.854 4.932 5.037 5.057 4.831 3.745 3.547 1.7250 8.644 8.007 0.640 8.632 7.898 0.734
VANMET_231 2016-09-30 23:50:00 231 53281.0 4.900 5.004 5.106 4.873 5.163 92.400 91.200 3.778 3.562 14.400 13.990 11.740 10.070 0.216 0.240 0.232 0.542 0.00 0.00 0.00 0.8250 234.30 24.54 1 1 1 4.924 5.021 5.130 5.238 4.891 3.873 3.588 4.881 4.980 5.084 5.088 4.855 3.709 3.497 1.8160 8.662 8.006 0.658 8.646 7.885 0.761
VANMET_231 2016-09-30 23:45:00 231 53281.0 4.906 4.979 5.073 4.854 5.112 91.300 90.400 3.609 3.422 14.420 13.990 11.740 10.070 0.216 0.240 0.232 0.542 0.00 0.00 0.00 0.6090 242.70 11.01 1 1 1 4.944 4.994 5.088 5.157 4.871 3.760 3.569 4.878 4.967 5.065 5.074 4.831 3.522 3.321 1.0130 8.666 7.911 0.754 8.634 7.807 0.829
VANMET_231 2016-09-30 23:40:00 231 53281.0 4.969 5.052 5.131 4.909 5.150 90.900 89.800 3.613 3.383 14.440 14.000 11.740 10.070 0.216 0.240 0.232 0.542 0.00 0.00 0.00 0.9590 233.00 17.64 1 1 1 5.007 5.103 5.182 5.246 4.941 3.753 3.416 4.921 4.996 5.079 5.096 4.878 3.500 3.334 1.8950 8.704 7.913 0.792 8.667 7.786 0.884
VANMET_231 2016-09-30 23:35:00 231 53281.0 4.967 5.076 5.169 4.920 5.250 90.900 90.000 3.603 3.422 14.450 14.000 11.740 10.070 0.216 0.240 0.232 0.542 0.00 0.00 0.00 0.6700 260.40 25.62 1 1 1 4.984 5.093 5.194 5.312 4.954 3.656 3.523 4.938 5.043 5.136 5.206 4.888 3.508 3.324 1.0710 8.703 7.908 0.792 8.674 7.807 0.867
VANMET_231 2016-09-30 23:30:00 231 53281.0 4.937 5.025 5.121 4.886 5.174 90.500 89.500 3.514 3.303 14.470 14.000 11.740 10.070 0.216 0.240 0.232 0.542 0.00 0.00 0.00 1.2670 231.40 21.34 1 1 1 4.961 5.041 5.136 5.214 4.905 3.576 3.345 4.921 5.017 5.113 5.142 4.872 3.434 3.267 2.0380 8.684 7.858 0.825 8.653 7.742 0.909
VANMET_231 2016-09-30 23:25:00 231 53281.0 4.927 5.041 5.141 4.896 5.197 90.300 89.200 3.470 3.265 14.480 14.000 11.740 10.070 0.216 0.240 0.232 0.542 0.00 0.00 0.00 1.1040 211.80 49.67 1 1 1 4.948 5.060 5.162 5.261 4.911 3.551 3.319 4.901 5.018 5.124 5.150 4.875 3.300 3.160 2.7110 8.678 7.834 0.842 8.660 7.721 0.935
VANMET_231 2016-09-30 23:20:00 231 53281.0 4.893 5.016 5.129 4.870 5.215 90.200 88.900 3.432 3.200 14.500 14.000 11.740 10.070 0.216 0.240 0.232 0.542 0.00 0.00 0.00 1.5410 238.20 19.45 1 1 1 4.925 5.035 5.147 5.252 4.905 3.583 3.264 4.819 4.971 5.088 5.171 4.828 3.346 3.147 2.4240 8.658 7.813 0.848 8.644 7.686 0.959
VANMET_231 2016-09-30 23:15:00 231 53281.0 4.825 4.933 5.048 4.808 5.138 91.100 89.900 3.493 3.293 14.520 14.000 11.740 10.070 0.216 0.240 0.232 0.542 0.00 0.00 0.00 0.7810 225.20 40.11 1 1 1 4.872 4.966 5.077 5.185 4.838 3.572 3.353 4.792 4.897 5.013 5.100 4.782 3.378 3.189 2.1950 8.617 7.847 0.767 8.606 7.736 0.869
VANMET_231 2016-09-30 23:10:00 231 53281.0 4.796 4.890 4.991 4.774 5.048 90.900 89.900 3.447 3.265 14.530 14.000 11.740 10.070 0.216 0.240 0.232 0.542 0.00 0.00 0.00 0.7050 222.10 24.03 1 1 1 4.822 4.895 5.007 5.116 4.792 3.515 3.308 4.785 4.887 4.984 4.995 4.762 3.361 3.215 1.9010 8.599 7.821 0.783 8.586 7.721 0.867
VANMET_231 2016-09-30 23:05:00 231 53281.0 4.855 4.946 5.040 4.813 5.055 90.200 89.400 3.388 3.226 14.550 14.000 11.740 10.070 0.216 0.240 0.232 0.542 0.00 0.00 0.00 0.5020 233.10 21.09 1 1 1 4.895 4.984 5.088 5.152 4.845 3.473 3.323 4.809 4.899 4.997 5.006 4.779 3.327 3.189 0.7510 8.635 7.789 0.846 8.609 7.700 0.913
VANMET_231 2016-09-30 23:00:00 231 53281.0 4.906 5.002 5.094 4.838 5.175 90.400 89.400 3.463 3.241 14.570 14.000 11.740 10.070 0.216 0.240 0.232 0.542 0.00 0.00 0.00 0.5740 257.70 28.79 1 1 1 4.932 5.034 5.122 5.277 4.859 3.566 3.311 4.882 4.977 5.073 5.092 4.815 3.358 3.167 0.9150 8.666 7.830 0.832 8.625 7.708 0.914
VANMET_231 2016-09-30 22:55:00 231 53281.0 4.940 5.016 5.105 4.861 5.116 89.500 88.900 3.367 3.187 14.580 14.000 11.740 10.070 0.216 0.240 0.232 0.542 0.00 0.00 0.00 0.2890 230.40 20.88 1 1 1 4.968 5.063 5.147 5.174 4.892 3.460 3.249 4.905 4.983 5.075 5.084 4.836 3.309 3.159 0.9020 8.686 7.777 0.912 8.638 7.678 0.959
VANMET_231 2016-09-30 22:50:00 231 53281.0 4.958 5.062 5.158 4.910 5.194 90.000 88.600 3.456 3.186 14.600 14.000 11.740 10.070 0.216 0.240 0.232 0.542 0.00 0.00 0.00 0.6510 264.70 12.26 1 1 1 4.978 5.078 5.177 5.240 4.945 3.517 3.239 4.935 5.053 5.141 5.162 4.885 3.395 3.147 0.9800 8.697 7.826 0.870 8.668 7.678 0.988
VANMET_231 2016-09-30 22:45:00 231 53281.0 4.958 5.079 5.190 4.946 5.264 90.600 88.900 3.554 3.271 14.620 14.000 11.740 10.070 0.216 0.240 0.232 0.542 0.00 0.00 0.00 0.7000 266.70 28.49 1 1 1 4.982 5.093 5.206 5.314 4.959 3.592 3.366 4.939 5.064 5.178 5.215 4.932 3.526 3.159 1.9340 8.697 7.880 0.818 8.690 7.724 0.965
VANMET_231 2016-09-30 22:40:00 231 53281.0 4.942 5.061 5.168 4.923 5.206 89.800 88.800 3.417 3.236 14.630 14.000 11.740 10.070 0.216 0.240 0.232 0.542 0.00 0.00 0.00 0.6620 245.80 29.55 1 1 1 4.962 5.089 5.190 5.273 4.939 3.551 3.389 4.919 5.043 5.147 5.168 4.899 3.318 3.143 1.3920 8.687 7.805 0.886 8.676 7.705 0.972
VANMET_231 2016-09-30 22:35:00 231 53281.0 4.935 5.058 5.172 4.933 5.261 90.400 88.800 3.495 3.245 14.650 13.990 11.740 10.070 0.216 0.240 0.232 0.542 0.00 0.00 0.00 0.7120 254.30 18.48 1 1 1 4.972 5.109 5.216 5.385 4.952 3.598 3.306 4.912 5.024 5.141 5.144 4.916 3.429 3.163 1.3590 8.683 7.848 0.834 8.682 7.710 0.972
VANMET_231 2016-09-30 22:30:00 231 53281.0 4.928 5.040 5.168 4.948 5.218 90.400 89.100 3.486 3.314 14.670 13.990 11.740 10.070 0.216 0.240 0.232 0.542 0.00 0.00 0.00 0.4400 228.50 24.17 1 1 1 4.945 5.048 5.178 5.276 4.972 3.548 3.395 4.909 5.029 5.153 5.178 4.922 3.374 3.230 0.9280 8.679 7.843 0.833 8.691 7.748 0.947
VANMET_231 2016-09-30 22:25:00 231 53281.0 4.935 5.032 5.144 4.913 5.196 89.800 88.700 3.407 3.209 14.680 13.990 11.740 10.070 0.216 0.240 0.232 0.542 0.00 0.00 0.00 0.6680 247.30 18.95 1 1 1 4.962 5.042 5.153 5.252 4.932 3.461 3.287 4.912 5.027 5.134 5.163 4.899 3.337 3.144 1.1370 8.683 7.799 0.886 8.670 7.690 0.980
VANMET_231 2016-09-30 22:20:00 231 53281.0 4.954 5.049 5.159 4.923 5.190 89.400 88.200 3.364 3.141 14.700 13.990 11.740 10.070 0.216 0.240 0.232 0.542 0.00 0.00 0.00 0.3610 202.00 21.69 1 1 1 4.979 5.067 5.174 5.205 4.946 3.450 3.191 4.932 5.036 5.148 5.169 4.909 3.265 3.091 1.1170 8.695 7.775 0.922 8.676 7.653 1.024
VANMET_231 2016-09-30 22:15:00 231 53281.0 4.961 5.082 5.186 4.933 5.270 89.700 88.200 3.419 3.147 14.710 13.990 11.740 10.070 0.216 0.240 0.232 0.542 0.00 0.00 0.00 0.9720 253.50 24.85 1 1 1 4.983 5.103 5.209 5.351 4.949 3.500 3.204 4.936 5.058 5.160 5.200 4.919 3.330 3.089 1.7120 8.699 7.806 0.896 8.682 7.657 1.024
VANMET_231 2016-09-30 22:10:00 231 53281.0 4.924 5.033 5.149 4.918 5.219 89.300 87.900 3.319 3.082 14.730 13.990 11.740 10.070 0.216 0.240 0.232 0.542 0.00 0.00 0.00 0.6360 246.80 22.23 1 1 1 4.936 5.046 5.158 5.270 4.939 3.472 3.181 4.906 5.023 5.140 5.188 4.900 3.190 3.014 0.9930 8.676 7.751 0.928 8.673 7.622 1.049
VANMET_231 2016-09-30 22:05:00 231 53281.0 4.918 5.036 5.147 4.902 5.211 89.700 88.200 3.368 3.113 14.750 13.980 11.740 10.070 0.216 0.240 0.232 0.542 0.00 0.00 0.00 0.6340 242.80 30.52 1 1 1 4.933 5.043 5.158 5.244 4.936 3.394 3.193 4.903 5.028 5.140 5.168 4.879 3.339 3.023 1.0060 8.673 7.778 0.893 8.663 7.638 1.022
VANMET_231 2016-09-30 22:00:00 231 53281.0 4.872 5.009 5.110 4.855 5.210 89.300 87.500 3.259 2.958 14.760 13.980 11.740 10.070 0.216 0.240 0.232 0.542 0.00 0.00 0.00 0.8320 248.30 28.65 1 1 1 4.913 5.034 5.141 5.257 4.893 3.360 3.073 4.833 4.975 5.078 5.149 4.826 3.078 2.825 2.0060 8.645 7.718 0.925 8.635 7.555 1.079
VANMET_231 2016-09-30 21:55:00 231 53281.0 4.788 4.929 5.041 4.798 5.150 88.600 87.200 3.073 2.847 14.780 13.980 11.740 10.070 0.216 0.240 0.232 0.542 0.00 0.00 0.00 1.0930 248.30 18.86 1 1 1 4.830 4.973 5.077 5.191 4.843 3.153 2.939 4.756 4.883 4.995 5.112 4.756 2.992 2.791 1.5750 8.594 7.617 0.980 8.600 7.495 1.101
VANMET_231 2016-09-30 21:50:00 231 53281.0 4.719 4.847 4.960 4.716 5.116 89.000 87.400 3.063 2.811 14.800 13.980 11.740 10.070 0.216 0.240 0.232 0.542 0.00 0.00 0.00 0.5270 249.70 19.06 1 1 1 4.756 4.883 4.992 5.155 4.766 3.151 2.911 4.683 4.791 4.904 5.054 4.663 2.957 2.740 1.1560 8.553 7.611 0.941 8.551 7.476 1.077
VANMET_231 2016-09-30 21:45:00 231 53281.0 4.644 4.745 4.859 4.642 4.959 88.700 87.100 2.949 2.684 14.810 13.980 11.740 10.070 0.216 0.240 0.232 0.542 0.00 0.00 0.00 0.7200 258.10 30.66 1 1 1 4.677 4.785 4.898 5.052 4.670 3.014 2.766 4.613 4.715 4.828 4.890 4.617 2.888 2.602 1.6010 8.508 7.550 0.961 8.507 7.409 1.097
VANMET_231 2016-09-30 21:40:00 231 53281.0 4.593 4.656 4.772 4.615 4.883 88.900 87.100 2.919 2.655 14.830 13.970 11.740 10.070 0.216 0.240 0.232 0.542 0.00 0.00 0.00 0.7910 256.30 26.70 1 1 1 4.617 4.710 4.826 4.949 4.634 2.992 2.722 4.570 4.616 4.735 4.773 4.600 2.854 2.577 2.2540 8.478 7.534 0.941 8.491 7.394 1.095
VANMET_231 2016-09-30 21:35:00 231 53281.0 4.656 4.668 4.790 4.696 4.768 87.000 85.900 2.689 2.536 14.840 13.970 11.740 10.070 0.216 0.240 0.232 0.542 0.00 0.00 0.00 0.2140 256.30 24.74 1 1 1 4.733 4.751 4.865 4.871 4.757 2.797 2.686 4.584 4.615 4.736 4.696 4.620 2.594 2.388 0.6270 8.515 7.412 1.107 8.539 7.331 1.204
VANMET_231 2016-09-30 21:30:00 231 53281.0 4.794 4.840 4.959 4.823 4.953 85.300 84.100 2.547 2.362 14.860 13.970 11.740 10.070 0.216 0.240 0.232 0.542 0.00 0.00 0.00 0.1340 215.70 17.81 1 1 1 4.840 4.921 5.043 5.055 4.893 2.599 2.390 4.743 4.761 4.874 4.857 4.753 2.470 2.326 0.6340 8.598 7.337 1.264 8.615 7.241 1.370
VANMET_231 2016-09-30 21:25:00 231 53281.0 4.864 4.976 5.104 4.907 5.144 85.800 83.900 2.694 2.417 14.870 13.960 11.740 10.070 0.216 0.240 0.232 0.542 0.00 0.00 0.00 0.7400 228.50 38.94 1 1 1 4.886 5.000 5.132 5.209 4.936 2.832 2.601 4.840 4.931 5.056 5.051 4.873 2.600 2.322 1.9670 8.640 7.414 1.227 8.666 7.269 1.395
VANMET_231 2016-09-30 21:20:00 231 53281.0 4.861 4.998 5.126 4.905 5.201 85.600 83.700 2.651 2.387 14.890 13.960 11.740 10.070 0.216 0.240 0.232 0.542 0.00 0.00 0.00 0.7810 245.80 14.55 1 1 1 4.883 5.003 5.135 5.221 4.929 2.791 2.622 4.819 4.983 5.109 5.178 4.869 2.547 2.179 1.8820 8.638 7.392 1.244 8.665 7.254 1.412
VANMET_231 2016-09-30 21:15:00 231 53281.0 4.827 4.965 5.081 4.865 5.195 86.200 83.600 2.726 2.333 14.900 13.960 11.740 10.070 0.216 0.240 0.232 0.542 0.00 0.00 0.00 0.8490 252.10 15.29 1 1 1 4.850 4.976 5.099 5.218 4.889 2.841 2.459 4.806 4.950 5.062 5.169 4.839 2.577 2.239 1.6860 8.618 7.431 1.189 8.641 7.226 1.417
VANMET_231 2016-09-30 21:10:00 231 53281.0 4.793 4.928 5.034 4.809 5.156 85.900 83.600 2.644 2.269 14.920 13.950 11.740 10.070 0.216 0.240 0.232 0.542 0.00 0.00 0.00 0.8510 252.20 13.65 1 1 1 4.819 4.946 5.058 5.183 4.833 2.753 2.364 4.763 4.899 5.005 5.118 4.770 2.499 2.180 1.5680 8.597 7.388 1.212 8.607 7.193 1.412
VANMET_231 2016-09-30 21:05:00 231 53281.0 4.744 4.886 4.992 4.777 5.102 87.200 85.000 2.804 2.466 14.930 13.950 11.740 10.070 0.216 0.240 0.232 0.542 0.00 0.00 0.00 0.5660 267.80 9.80 1 1 1 4.770 4.897 5.004 5.200 4.789 2.920 2.596 4.723 4.875 4.984 5.033 4.763 2.601 2.277 0.8230 8.568 7.473 1.097 8.588 7.295 1.288
VANMET_231 2016-09-30 21:00:00 231 53281.0 4.687 4.836 4.939 4.720 5.130 87.900 86.100 2.850 2.605 14.950 13.940 11.740 10.070 0.216 0.240 0.232 0.542 0.00 0.00 0.00 0.6760 254.90 18.32 1 1 1 4.726 4.887 4.991 5.188 4.760 2.910 2.750 4.640 4.786 4.894 5.021 4.673 2.706 2.357 1.4770 8.534 7.497 1.033 8.554 7.368 1.189
VANMET_231 2016-09-30 20:55:00 231 53281.0 4.623 4.729 4.843 4.660 5.031 88.300 86.200 2.854 2.560 14.960 13.940 11.740 10.070 0.216 0.240 0.232 0.542 0.00 0.00 0.00 0.4960 279.00 12.42 1 1 1 4.653 4.780 4.888 5.108 4.686 2.924 2.696 4.593 4.682 4.787 4.904 4.636 2.739 2.353 0.5810 8.496 7.499 0.994 8.518 7.344 1.175
VANMET_231 2016-09-30 20:50:00 231 53281.0 4.611 4.664 4.782 4.652 4.939 87.700 86.200 2.751 2.546 14.980 13.930 11.740 10.070 0.216 0.240 0.232 0.542 0.00 0.00 0.00 0.4280 309.50 27.55 1 1 1 4.626 4.682 4.791 4.985 4.673 2.837 2.668 4.600 4.646 4.763 4.881 4.629 2.652 2.377 0.7510 8.489 7.444 1.044 8.513 7.337 1.175
VANMET_231 2016-09-30 20:45:00 231 53281.0 4.639 4.658 4.783 4.683 4.852 87.100 85.400 2.674 2.454 14.990 13.930 11.740 10.070 0.216 0.240 0.232 0.542 0.00 0.00 0.00 0.3530 308.20 8.06 1 1 1 4.676 4.685 4.815 4.885 4.706 2.777 2.559 4.606 4.641 4.762 4.819 4.659 2.607 2.386 0.5100 8.505 7.404 1.097 8.532 7.289 1.246
VANMET_231 2016-09-30 20:40:00 231 53281.0 4.721 4.753 4.875 4.750 4.854 86.500 84.600 2.659 2.387 15.000 13.930 11.740 10.070 0.216 0.240 0.232 0.542 0.00 0.00 0.00 0.2430 325.90 21.91 1 1 1 4.772 4.823 4.942 4.912 4.799 2.769 2.484 4.676 4.692 4.820 4.819 4.706 2.587 2.287 0.4770 8.554 7.396 1.155 8.572 7.254 1.320
VANMET_231 2016-09-30 20:35:00 231 53281.0 4.785 4.876 4.997 4.821 5.036 86.000 83.800 2.650 2.316 15.010 13.920 11.740 10.070 0.216 0.240 0.232 0.542 0.00 0.00 0.00 0.4340 312.20 20.96 1 1 1 4.809 4.905 5.030 5.158 4.842 2.725 2.431 4.759 4.830 4.947 4.921 4.799 2.531 2.185 0.5810 8.593 7.391 1.203 8.614 7.217 1.396
VANMET_231 2016-09-30 20:30:00 231 53281.0 4.721 4.850 4.987 4.762 5.157 85.700 83.600 2.529 2.217 15.030 13.920 11.740 10.070 0.216 0.240 0.232 0.542 0.00 0.00 0.00 0.5070 292.80 41.38 1 1 1 4.772 4.905 5.034 5.257 4.815 2.700 2.388 4.662 4.808 4.943 5.060 4.705 2.322 2.063 0.8820 8.554 7.328 1.223 8.579 7.166 1.407
VANMET_231 2016-09-30 20:25:00 231 53281.0 4.615 4.746 4.881 4.659 5.080 86.800 84.600 2.609 2.289 15.040 13.910 11.740 10.070 0.216 0.240 0.232 0.542 0.00 0.00 0.00 0.2930 277.40 30.51 1 1 1 4.662 4.807 4.941 5.156 4.712 2.700 2.424 4.579 4.703 4.840 5.003 4.626 2.496 2.130 0.7970 8.491 7.370 1.121 8.517 7.203 1.312
VANMET_231 2016-09-30 20:20:00 231 53281.0 4.536 4.651 4.778 4.565 4.956 87.200 85.000 2.600 2.274 15.050 13.910 11.740 10.070 0.216 0.240 0.232 0.542 0.00 0.00 0.00 0.4230 275.70 39.73 1 1 1 4.579 4.700 4.839 5.023 4.615 2.715 2.369 4.499 4.611 4.729 4.868 4.526 2.449 2.156 0.7770 8.444 7.365 1.081 8.461 7.196 1.269
VANMET_231 2016-09-30 20:15:00 231 53281.0 4.476 4.591 4.702 4.513 4.861 87.000 85.500 2.500 2.302 15.060 13.900 11.740 10.060 0.216 0.240 0.232 0.542 0.00 0.00 0.00 0.3020 308.80 15.20 1 1 1 4.509 4.608 4.725 4.888 4.539 2.664 2.439 4.438 4.572 4.683 4.836 4.475 2.342 2.203 0.4180 8.409 7.313 1.093 8.431 7.210 1.222
VANMET_231 2016-09-30 20:10:00 231 53281.0 4.383 4.513 4.638 4.433 4.839 87.500 85.700 2.491 2.258 15.070 13.890 11.740 10.060 0.216 0.240 0.232 0.542 0.00 0.00 0.00 0.4740 297.20 13.03 1 1 1 4.445 4.568 4.679 4.890 4.492 2.557 2.374 4.325 4.451 4.576 4.790 4.375 2.370 2.133 0.8040 8.354 7.308 1.044 8.383 7.187 1.199
VANMET_231 2016-09-30 20:05:00 231 53281.0 4.277 4.377 4.510 4.330 4.741 87.700 85.800 2.421 2.159 15.080 13.890 11.740 10.060 0.216 0.240 0.232 0.542 0.00 0.00 0.00 0.3500 295.80 36.37 1 1 1 4.312 4.442 4.568 4.877 4.368 2.500 2.236 4.239 4.328 4.465 4.652 4.278 2.357 2.065 0.8490 8.292 7.272 1.020 8.323 7.137 1.182
VANMET_231 2016-09-30 20:00:00 231 53281.0 4.208 4.292 4.431 4.263 4.583 87.100 85.100 2.252 1.983 15.090 13.880 11.740 10.060 0.216 0.240 0.232 0.542 0.00 0.00 0.00 0.4340 308.40 18.94 1 1 1 4.248 4.323 4.460 4.657 4.305 2.373 2.101 4.178 4.269 4.406 4.514 4.231 2.094 1.895 0.9210 8.252 7.184 1.065 8.284 7.048 1.234
VANMET_231 2016-09-30 19:55:00 231 53281.0 4.156 4.250 4.390 4.205 4.529 86.200 84.300 2.057 1.803 15.100 13.880 11.740 10.060 0.216 0.240 0.232 0.542 0.00 0.00 0.00 0.2310 297.30 11.71 1 1 1 4.181 4.270 4.407 4.558 4.231 2.162 1.918 4.128 4.236 4.378 4.500 4.171 1.950 1.731 0.6400 8.222 7.085 1.135 8.250 6.957 1.295
VANMET_231 2016-09-30 19:50:00 231 53281.0 4.061 4.168 4.312 4.112 4.484 86.900 84.700 2.076 1.773 15.110 13.870 11.740 10.060 0.216 0.240 0.232 0.542 0.00 0.00 0.00 0.3410 297.40 39.79 1 1 1 4.131 4.229 4.375 4.580 4.164 2.187 1.894 4.004 4.107 4.254 4.373 4.071 1.995 1.695 0.7640 8.167 7.095 1.070 8.197 6.942 1.254
VANMET_231 2016-09-30 19:45:00 231 53281.0 3.958 4.042 4.198 4.052 4.347 86.600 84.600 1.931 1.691 15.110 13.860 11.740 10.060 0.216 0.240 0.232 0.542 0.00 0.00 0.00 0.3660 327.40 19.48 1 1 1 4.004 4.099 4.248 4.387 4.084 2.036 1.750 3.910 3.973 4.134 4.275 4.023 1.805 1.564 0.5880 8.108 7.021 1.086 8.162 6.902 1.257
VANMET_231 2016-09-30 19:40:00 231 53281.0 3.873 3.938 4.099 4.032 4.243 87.000 84.000 1.908 1.571 15.120 13.860 11.740 10.060 0.216 0.240 0.232 0.542 0.00 0.00 0.00 0.0750 267.20 17.37 1 1 1 3.917 3.969 4.130 4.286 4.046 2.017 1.627 3.830 3.907 4.060 4.172 4.016 1.785 1.530 0.4770 8.060 7.010 1.048 8.151 6.842 1.304
VANMET_231 2016-09-30 19:35:00 231 53281.0 3.865 3.904 4.077 4.086 4.139 86.600 83.600 1.840 1.557 15.120 13.850 11.730 10.060 0.216 0.240 0.232 0.542 0.00 0.00 0.00 0.2740 293.40 7.76 1 1 1 3.912 3.931 4.123 4.191 4.148 1.897 1.649 3.826 3.887 4.052 4.110 4.026 1.783 1.490 0.3590 8.055 6.976 1.079 8.182 6.836 1.342
VANMET_231 2016-09-30 19:30:00 231 53281.0 3.990 4.029 4.215 4.231 4.204 86.000 83.000 1.861 1.601 15.130 13.840 11.730 10.060 0.216 0.240 0.232 0.542 0.00 0.00 0.00 0.1890 330.00 27.52 1 1 1 4.054 4.121 4.305 4.273 4.330 1.919 1.734 3.919 3.939 4.130 4.128 4.125 1.774 1.458 0.6010 8.126 6.986 1.138 8.265 6.857 1.405
VANMET_231 2016-09-30 19:25:00 231 53281.0 4.093 4.227 4.422 4.423 4.486 85.700 81.900 1.919 1.610 15.130 13.840 11.730 10.060 0.216 0.240 0.232 0.542 0.00 0.00 0.00 0.1320 315.60 14.77 1 1 1 4.123 4.286 4.491 4.783 4.479 1.992 1.710 4.067 4.131 4.316 4.287 4.343 1.809 1.514 0.6600 8.186 7.015 1.171 8.378 6.862 1.516
VANMET_231 2016-09-30 19:20:00 231 53281.0 4.048 4.172 4.372 4.387 4.637 85.200 81.200 1.795 1.453 15.140 13.830 11.730 10.060 0.216 0.240 0.232 0.542 0.00 0.00 0.00 0.5490 264.80 41.59 1 1 1 4.080 4.285 4.494 4.945 4.465 1.978 1.519 4.010 4.137 4.332 4.403 4.346 1.601 1.398 1.7570 8.160 6.953 1.208 8.356 6.785 1.571
VANMET_231 2016-09-30 19:15:00 231 53281.0 4.133 4.228 4.445 4.461 4.515 85.700 81.600 1.957 1.600 15.140 13.830 11.730 10.060 0.216 0.240 0.232 0.542 0.00 0.00 0.00 0.1920 274.80 26.87 1 1 1 4.179 4.276 4.494 4.675 4.507 2.018 1.659 4.063 4.171 4.379 4.399 4.405 1.803 1.484 0.6080 8.209 7.034 1.174 8.400 6.857 1.546
VANMET_231 2016-09-30 19:10:00 231 53281.0 4.260 4.346 4.566 4.568 4.562 85.100 81.500 1.979 1.686 15.140 13.820 11.730 10.060 0.216 0.240 0.232 0.542 0.00 0.00 0.00 0.3610 332.10 46.19 1 1 1 4.337 4.432 4.641 4.661 4.636 2.073 1.783 4.188 4.267 4.484 4.467 4.504 1.852 1.572 0.6930 8.282 7.046 1.234 8.463 6.899 1.566
VANMET_231 2016-09-30 19:05:00 231 53281.0 4.378 4.503 4.694 4.680 4.712 84.100 80.700 1.937 1.644 15.150 13.810 11.730 10.060 0.216 0.240 0.232 0.542 0.00 0.00 0.00 0.4190 338.20 23.94 1 1 1 4.433 4.538 4.729 4.809 4.728 2.059 1.832 4.330 4.437 4.648 4.654 4.629 1.706 1.413 1.2350 8.351 7.024 1.328 8.530 6.878 1.646
VANMET_231 2016-09-30 19:00:00 231 53281.0 4.484 4.589 4.762 4.780 4.881 83.900 80.500 2.004 1.707 15.150 13.810 11.730 10.060 0.216 0.240 0.232 0.542 0.00 0.00 0.00 0.4860 333.90 30.60 1 1 1 4.555 4.638 4.788 5.153 4.824 2.155 1.886 4.429 4.544 4.727 4.669 4.742 1.837 1.455 1.2020 8.413 7.058 1.355 8.590 6.910 1.675
VANMET_231 2016-09-30 18:55:00 231 53281.0 4.642 4.697 4.894 4.932 4.912 84.100 79.510 2.199 1.690 15.150 13.800 11.730 10.060 0.216 0.240 0.232 0.542 0.00 0.00 0.00 0.3080 341.10 19.69 1 1 1 4.723 4.766 4.967 4.989 4.999 2.326 1.880 4.558 4.603 4.790 4.761 4.823 1.994 1.550 1.1300 8.507 7.157 1.353 8.681 6.901 1.779
VANMET_231 2016-09-30 18:50:00 231 53281.0 4.772 4.847 5.034 5.056 5.169 82.200 77.790 1.998 1.506 15.150 13.790 11.730 10.060 0.216 0.240 0.232 0.542 0.00 0.00 0.00 0.3370 298.60 36.31 1 1 1 4.819 4.908 5.104 5.244 5.118 2.303 1.754 4.736 4.774 4.976 4.975 5.005 1.768 1.296 0.7580 8.585 7.055 1.528 8.757 6.811 1.945
VANMET_231 2016-09-30 18:45:00 231 53281.0 4.863 5.003 5.198 5.184 5.362 81.400 78.090 1.943 1.685 15.140 13.780 11.730 10.060 0.216 0.240 0.232 0.542 0.00 0.00 0.00 0.4560 289.90 26.89 1 1 1 4.900 5.074 5.270 5.451 5.233 2.063 1.801 4.812 4.917 5.115 5.231 5.130 1.839 1.572 0.7190 8.640 7.027 1.607 8.835 6.899 1.936
VANMET_231 2016-09-30 18:40:00 231 53281.0 4.926 5.133 5.330 5.273 5.509 81.100 77.670 1.962 1.695 15.140 13.780 11.730 10.060 0.216 0.240 0.232 0.542 0.00 0.00 0.00 0.6410 282.50 18.22 1 1 1 4.940 5.174 5.376 5.596 5.311 2.006 1.773 4.903 5.083 5.277 5.439 5.226 1.896 1.598 1.1760 8.678 7.037 1.640 8.890 6.904 1.985
VANMET_231 2016-09-30 18:35:00 231 53281.0 4.949 5.188 5.390 5.305 5.558 80.300 76.730 1.853 1.555 15.140 13.770 11.730 10.060 0.216 0.240 0.232 0.542 0.00 0.00 0.00 0.6310 270.90 19.86 1 1 1 4.985 5.226 5.414 5.640 5.327 1.980 1.702 4.923 5.158 5.376 5.438 5.284 1.628 1.354 1.1300 8.692 6.982 1.712 8.910 6.835 2.073
VANMET_231 2016-09-30 18:30:00 231 53281.0 4.990 5.178 5.351 5.306 5.511 79.880 77.070 1.811 1.619 15.130 13.760 11.730 10.060 0.216 0.240 0.232 0.542 0.00 0.00 0.00 0.6360 265.80 17.86 1 1 1 5.030 5.197 5.374 5.579 5.333 1.932 1.803 4.958 5.163 5.332 5.473 5.277 1.707 1.469 0.7970 8.717 6.961 1.754 8.911 6.866 2.043
VANMET_231 2016-09-30 18:25:00 231 53281.0 5.048 5.152 5.322 5.296 5.562 79.660 76.050 1.829 1.424 15.130 13.760 11.730 10.060 0.216 0.240 0.232 0.542 0.00 0.00 0.00 0.6460 276.70 12.56 1 1 1 5.089 5.186 5.363 5.675 5.316 1.949 1.542 5.020 5.132 5.298 5.449 5.269 1.689 1.323 0.9150 8.752 6.970 1.780 8.905 6.771 2.133
VANMET_231 2016-09-30 18:20:00 231 53281.0 5.141 5.197 5.348 5.314 5.546 78.360 75.200 1.690 1.283 15.120 13.750 11.730 10.060 0.216 0.240 0.232 0.542 0.00 0.00 0.00 0.5840 272.40 24.98 1 1 1 5.191 5.212 5.361 5.616 5.350 1.831 1.475 5.098 5.167 5.324 5.448 5.288 1.561 1.101 0.7840 8.809 6.901 1.906 8.916 6.702 2.211
VANMET_231 2016-09-30 18:15:00 231 53281.0 5.236 5.228 5.390 5.377 5.522 76.620 74.600 1.468 1.232 15.120 13.740 11.730 10.060 0.216 0.240 0.232 0.542 0.00 0.00 0.00 0.6030 284.50 16.79 1 1 1 5.309 5.276 5.438 5.563 5.425 1.756 1.502 5.187 5.203 5.363 5.492 5.330 1.339 0.985 0.7640 8.867 6.792 2.073 8.955 6.678 2.275
VANMET_231 2016-09-30 18:10:00 231 53281.0 5.376 5.352 5.508 5.510 5.602 74.680 72.290 1.247 0.925 15.110 13.730 11.730 10.060 0.216 0.240 0.232 0.542 0.00 0.00 0.00 0.5380 294.10 12.35 1 1 1 5.444 5.415 5.575 5.674 5.587 1.515 1.067 5.315 5.286 5.447 5.542 5.432 1.033 0.847 0.7190 8.954 6.685 2.267 9.038 6.531 2.504
VANMET_231 2016-09-30 18:05:00 231 53281.0 5.552 5.525 5.678 5.690 5.688 73.710 71.080 1.234 0.863 15.100 13.730 11.730 10.060 0.216 0.240 0.232 0.542 0.00 0.00 0.00 0.5220 289.50 17.95 1 1 1 5.669 5.638 5.785 5.781 5.792 1.465 1.093 5.461 5.422 5.582 5.597 5.584 1.026 0.544 1.5610 9.064 6.679 2.383 9.152 6.502 2.647
VANMET_231 2016-09-30 18:00:00 231 53281.0 5.774 5.761 5.915 5.945 5.892 72.980 70.220 1.312 0.939 15.090 13.720 11.730 10.060 0.216 0.240 0.232 0.542 0.00 0.00 0.00 0.3940 278.20 22.40 1 1 1 5.890 5.882 6.042 5.974 6.090 1.445 1.074 5.662 5.648 5.798 5.809 5.815 1.151 0.699 0.5750 9.205 6.716 2.487 9.315 6.538 2.774
VANMET_231 2016-09-30 17:55:00 231 53281.0 6.039 6.040 6.206 6.244 6.123 71.280 67.910 1.238 0.759 15.080 13.710 11.730 10.060 0.216 0.240 0.232 0.542 0.72 0.00 0.00 0.5080 293.10 37.95 1 1 1 6.191 6.135 6.304 6.380 6.367 1.547 1.447 5.887 5.892 6.052 5.925 6.099 0.856 0.177 1.0260 9.376 6.680 2.693 9.510 6.454 3.052
VANMET_231 2016-09-30 17:50:00 231 53281.0 6.360 6.342 6.498 6.514 6.371 69.980 66.910 1.290 0.814 15.060 13.710 11.730 10.060 0.216 0.240 0.232 0.542 3.15 0.00 0.00 0.2700 282.00 65.07 1 1 1 6.496 6.520 6.688 6.636 6.652 1.511 1.180 6.208 6.166 6.314 6.163 6.374 1.019 0.349 0.8820 9.586 6.706 2.878 9.689 6.479 3.206
VANMET_231 2016-09-30 17:45:00 231 53281.0 6.597 6.653 6.806 6.758 6.815 68.040 64.380 1.125 0.512 15.050 13.700 11.730 10.060 0.216 0.240 0.232 0.542 6.51 0.00 0.00 0.9440 238.00 30.94 1 1 1 6.700 6.751 6.899 6.959 6.846 1.438 0.934 6.499 6.535 6.704 6.666 6.652 0.563 -0.003 2.0450 9.744 6.626 3.114 9.853 6.339 3.510
VANMET_231 2016-09-30 17:40:00 231 53281.0 6.800 6.835 6.990 6.963 6.963 66.180 62.690 0.935 0.340 15.040 13.690 11.730 10.060 0.216 0.240 0.232 0.542 10.78 0.00 0.00 0.9490 250.10 49.83 1 1 1 6.935 6.959 7.113 7.095 7.101 1.245 0.795 6.693 6.730 6.882 6.811 6.829 0.362 -0.037 2.0650 9.881 6.536 3.342 9.993 6.261 3.728
VANMET_231 2016-09-30 17:35:00 231 53281.0 7.073 7.096 7.258 7.250 7.209 64.870 60.240 0.919 0.062 15.020 13.690 11.730 10.060 0.216 0.240 0.232 0.542 14.47 0.00 0.00 0.7510 250.10 39.69 1 1 1 7.202 7.250 7.412 7.335 7.395 1.269 0.525 6.948 6.969 7.125 7.103 7.120 0.384 -0.276 1.3000 10.068 6.529 3.537 10.191 6.135 4.052
VANMET_231 2016-09-30 17:30:00 231 53281.0 7.362 7.390 7.549 7.534 7.480 61.780 57.650 0.515 -0.279 15.010 13.680 11.730 10.060 0.216 0.240 0.232 0.542 20.54 0.00 0.00 1.0600 239.30 34.38 1 1 1 7.543 7.536 7.695 7.583 7.669 1.188 0.258 7.232 7.269 7.426 7.381 7.411 -0.240 -0.863 2.0580 10.270 6.341 3.925 10.391 5.985 4.401
VANMET_231 2016-09-30 17:25:00 231 53281.0 7.665 7.691 7.839 7.802 7.761 60.060 56.200 0.410 -0.377 14.990 13.670 11.730 10.060 0.216 0.240 0.232 0.542 28.22 0.00 0.00 1.0120 235.20 35.84 1 1 1 7.798 7.820 7.963 7.873 7.927 0.722 0.298 7.550 7.553 7.708 7.603 7.672 0.084 -0.882 1.9730 10.485 6.292 4.188 10.583 5.942 4.635
VANMET_231 2016-09-30 17:20:00 231 53281.0 7.907 7.948 8.100 8.070 8.030 58.570 54.630 0.288 -0.519 14.970 13.670 11.720 10.060 0.216 0.240 0.232 0.542 42.70 0.00 0.00 1.4340 235.00 31.97 1 1 1 8.020 8.050 8.210 8.100 8.190 1.020 0.156 7.821 7.840 7.981 7.900 7.950 -0.567 -1.237 3.3060 10.659 6.237 4.416 10.778 5.881 4.890
VANMET_231 2016-09-30 17:15:00 231 53281.0 8.110 8.160 8.310 8.280 8.270 55.910 52.470 -0.166 -0.874 14.950 13.660 11.720 10.060 0.216 0.240 0.232 0.542 59.46 0.00 0.00 1.2070 249.80 37.15 1 1 1 8.200 8.250 8.380 8.350 8.370 0.679 -0.076 8.040 8.080 8.230 8.070 8.190 -0.788 -1.648 2.4300 10.808 6.034 4.765 10.933 5.730 5.197
VANMET_231 2016-09-30 17:10:00 231 53281.0 8.310 8.340 8.480 8.440 8.440 53.510 50.290 -0.574 -1.308 14.930 13.660 11.720 10.060 0.216 0.240 0.232 0.542 81.90 0.00 0.00 1.6430 236.40 30.62 1 1 1 8.430 8.430 8.570 8.490 8.520 0.092 -0.007 8.210 8.260 8.400 8.350 8.390 -1.386 -1.777 3.0380 10.956 5.857 5.093 11.053 5.550 5.494
VANMET_231 2016-09-30 17:05:00 231 53281.0 8.530 8.540 8.670 8.600 8.590 52.920 49.860 -0.530 -1.271 14.910 13.650 11.720 10.060 0.216 0.240 0.232 0.542 119.20 0.00 0.00 1.1650 231.90 22.70 1 1 1 8.610 8.600 8.740 8.710 8.660 0.208 -0.139 8.430 8.440 8.570 8.500 8.520 -1.467 -2.227 1.7770 11.120 5.876 5.235 11.173 5.565 5.602
VANMET_231 2016-09-30 17:00:00 231 53281.0 8.690 8.660 8.800 8.720 8.740 53.670 50.010 -0.187 -1.122 14.890 13.640 11.720 10.060 0.216 0.240 0.232 0.542 151.20 0.00 0.00 1.4270 239.10 47.81 1 1 1 8.770 8.730 8.870 8.780 8.800 0.829 -0.293 8.600 8.610 8.750 8.680 8.640 -1.572 -2.054 3.2990 11.242 6.025 5.208 11.264 5.627 5.631
VANMET_231 2016-09-30 16:55:00 231 53281.0 8.920 8.850 8.980 8.960 8.880 50.860 47.800 -0.709 -1.524 14.870 13.640 11.720 10.060 0.216 0.240 0.232 0.542 170.60 0.00 0.00 1.8360 238.70 29.03 1 1 1 9.020 8.990 9.150 9.020 9.170 0.258 -0.795 8.810 8.750 8.880 8.800 8.810 -1.739 -2.428 4.3320 11.418 5.800 5.611 11.449 5.463 5.976
VANMET_231 2016-09-30 16:50:00 231 53281.0 9.160 9.150 9.320 9.350 9.200 48.900 45.440 -1.031 -1.856 14.850 13.630 11.720 10.060 0.216 0.240 0.232 0.542 185.00 0.00 0.00 1.4340 243.30 44.37 1 1 1 9.250 9.260 9.410 9.300 9.480 0.100 -0.871 9.040 9.000 9.160 9.030 9.170 -2.070 -2.577 3.3970 11.604 5.664 5.930 11.754 5.330 6.413
VANMET_231 2016-09-30 16:45:00 231 53281.0 9.430 9.460 9.600 9.770 9.410 46.520 42.600 -1.471 -2.347 14.820 13.630 11.720 10.060 0.216 0.240 0.232 0.542 183.80 0.00 0.00 1.9890 248.20 24.51 1 1 1 9.620 9.700 9.860 9.540 10.020 0.170 -1.175 9.270 9.270 9.420 9.320 9.490 -2.757 -3.479 4.5860 11.818 5.484 6.320 12.091 5.140 6.940
VANMET_231 2016-09-30 16:40:00 231 53281.0 9.790 9.940 10.100 10.140 9.660 45.210 40.940 -1.537 -2.568 14.800 13.620 11.720 10.050 0.216 0.240 0.232 0.542 219.00 0.00 0.00 1.9170 233.50 38.92 1 1 1 10.020 10.310 10.460 9.940 10.350 0.023 0.176 9.610 9.710 9.890 9.510 10.030 -3.188 -4.015 3.8810 12.107 5.457 6.633 12.394 5.056 7.320
VANMET_231 2016-09-30 16:35:00 231 53281.0 10.060 10.350 10.510 10.410 10.020 47.440 42.610 -0.614 -1.764 14.780 13.620 11.720 10.050 0.216 0.240 0.232 0.542 238.70 0.00 0.00 1.7580 224.10 40.02 1 1 1 10.150 10.370 10.560 10.120 10.460 0.461 -0.772 10.000 10.310 10.460 9.960 10.350 -1.560 -2.715 2.7510 12.328 5.840 6.480 12.620 5.367 7.243
VANMET_231 2016-09-30 16:30:00 231 53281.0 10.190 10.320 10.470 10.400 10.110 48.010 43.590 -0.335 -1.471 14.750 13.610 11.720 10.050 0.216 0.240 0.232 0.542 246.60 0.00 0.00 1.7310 228.00 34.74 1 1 1 10.240 10.380 10.600 10.150 10.460 0.669 0.227 10.160 10.270 10.360 10.080 10.330 -2.049 -2.709 3.6060 12.436 5.960 6.465 12.612 5.484 7.114
VANMET_231 2016-09-30 16:25:00 231 53281.0 10.290 10.220 10.490 10.440 10.100 46.130 42.470 -0.799 -1.786 14.720 13.610 11.720 10.050 0.216 0.240 0.232 0.542 232.80 0.00 0.00 1.3280 220.60 30.53 1 1 1 10.430 10.290 10.620 10.150 10.470 0.999 -0.025 10.210 10.170 10.360 10.040 10.400 -2.077 -2.958 3.0250 12.519 5.762 6.744 12.645 5.358 7.275
VANMET_231 2016-09-30 16:20:00 231 53281.0 10.650 10.510 10.680 10.660 10.220 44.300 40.590 -1.011 -2.189 14.700 13.610 11.720 10.050 0.216 0.240 0.232 0.542 224.30 0.00 0.00 2.0170 228.50 36.96 1 1 1 10.910 10.830 11.040 10.320 10.850 0.423 -1.058 10.450 10.250 10.370 10.130 10.460 -1.749 -3.501 3.2010 12.824 5.673 7.143 12.832 5.201 7.624
VANMET_231 2016-09-30 16:15:00 231 53281.0 11.330 11.140 11.270 11.100 10.600 41.610 38.780 -1.277 -2.420 14.670 13.600 11.720 10.050 0.216 0.240 0.232 0.542 278.80 0.00 0.00 2.4430 225.60 30.90 1 1 1 11.770 11.640 11.740 10.990 11.460 0.424 -1.297 10.950 10.850 10.990 10.360 10.800 -3.013 -3.192 5.0240 13.417 5.563 7.834 13.214 5.112 8.089
VANMET_231 2016-09-30 16:10:00 231 53281.0 11.870 11.740 11.820 11.550 10.940 41.050 38.930 -0.984 -1.988 14.640 13.600 11.720 10.050 0.217 0.240 0.232 0.542 290.90 0.00 0.00 1.7110 243.40 29.72 1 1 1 12.000 11.880 11.980 11.040 11.640 1.584 0.576 11.770 11.650 11.750 10.790 11.480 -3.105 -3.774 3.1160 13.905 5.684 8.197 13.614 5.279 8.314
VANMET_231 2016-09-30 16:05:00 231 53281.0 12.150 11.920 11.970 11.680 11.080 43.690 40.950 0.129 -1.173 14.620 13.590 11.720 10.050 0.217 0.240 0.232 0.542 302.20 0.00 0.00 1.6400 241.80 26.00 1 1 1 12.350 12.050 12.080 11.220 11.790 1.697 0.266 11.960 11.740 11.800 10.970 11.580 -2.802 -3.241 3.7500 14.164 6.165 7.976 13.731 5.606 8.108
VANMET_231 2016-09-30 16:00:00 231 53281.0 12.430 12.150 12.230 11.930 11.310 43.320 39.860 0.289 -1.307 14.590 13.590 11.720 10.050 0.217 0.240 0.232 0.542 315.30 0.00 0.00 1.7480 241.30 40.33 1 1 1 12.530 12.230 12.320 11.540 12.000 1.992 0.753 12.340 12.060 12.050 11.070 11.800 -1.281 -2.760 2.9530 14.427 6.237 8.177 13.960 5.551 8.395
VANMET_231 2016-09-30 15:55:00 231 53281.0 12.380 12.130 12.220 11.970 11.440 44.090 41.860 0.447 -0.623 14.560 13.590 11.720 10.050 0.217 0.240 0.232 0.542 331.80 0.00 0.00 1.5700 234.40 29.30 1 1 1 12.530 12.190 12.290 11.540 12.000 2.327 1.129 12.280 12.040 12.120 11.330 11.940 -2.509 -3.011 2.8550 14.380 6.309 8.040 13.997 5.836 8.138
VANMET_231 2016-09-30 15:50:00 231 53281.0 12.780 12.420 12.530 12.290 11.670 44.680 42.670 1.016 -0.052 14.530 13.580 11.720 10.050 0.217 0.240 0.232 0.542 348.70 0.00 0.00 2.0750 222.70 44.58 1 1 1 13.050 12.610 12.750 11.800 12.500 3.268 1.361 12.560 12.250 12.290 11.530 12.020 -1.048 -1.830 3.3190 14.762 6.574 8.166 14.295 6.085 8.195
VANMET_231 2016-09-30 15:45:00 231 53281.0 13.530 12.980 12.980 12.690 11.810 45.660 44.620 2.006 0.932 14.500 13.580 11.720 10.050 0.217 0.241 0.232 0.542 369.00 0.00 0.00 1.4760 245.30 42.88 1 1 1 13.850 13.300 13.210 12.050 12.910 3.426 2.369 13.080 12.670 12.790 11.680 12.520 -0.020 -0.266 2.6980 15.504 7.059 8.425 14.675 6.535 8.127
VANMET_231 2016-09-30 15:40:00 231 53281.0 14.090 13.600 13.480 13.150 12.420 47.850 46.570 3.191 1.939 14.480 13.580 11.720 10.050 0.217 0.241 0.232 0.542 397.20 0.00 0.00 1.8460 243.90 35.87 1 1 1 14.320 13.900 13.860 12.720 13.370 4.919 3.882 13.790 13.260 13.180 12.040 12.940 1.348 0.404 3.7500 16.078 7.681 8.385 15.124 7.025 8.081
VANMET_231 2016-09-30 15:35:00 231 53281.0 13.970 13.610 13.620 13.130 12.600 50.970 49.060 3.961 2.665 14.450 13.570 11.720 10.050 0.217 0.241 0.232 0.542 418.00 0.00 0.00 0.9470 223.20 46.17 1 1 1 14.180 13.840 13.850 12.810 13.350 6.157 4.471 13.720 13.360 13.410 12.420 12.880 1.818 1.178 1.9860 15.954 8.110 7.822 15.104 7.399 7.694
VANMET_231 2016-09-30 15:30:00 231 53281.0 13.450 13.040 13.040 12.730 12.220 45.100 42.790 1.737 0.368 14.420 13.570 11.720 10.050 0.217 0.241 0.232 0.542 431.00 0.00 0.00 1.1800 225.60 48.17 1 1 1 13.670 13.300 13.330 12.790 12.820 3.609 2.689 13.310 12.870 12.870 11.910 12.610 -2.149 -2.279 2.4890 15.423 6.924 8.467 14.714 6.273 8.418
VANMET_231 2016-09-30 15:25:00 231 53281.0 13.910 13.380 13.360 13.060 12.450 45.610 44.850 2.324 1.310 14.390 13.570 11.720 10.050 0.217 0.241 0.232 0.542 457.90 0.00 0.00 2.1470 233.80 29.64 1 1 1 14.440 13.750 13.740 12.690 13.240 4.403 3.563 13.470 13.030 13.010 12.260 12.790 -1.888 -2.269 4.2860 15.892 7.221 8.643 15.035 6.715 8.292
VANMET_231 2016-09-30 15:20:00 231 53281.0 14.590 13.860 13.740 13.270 12.590 49.300 49.360 4.066 2.874 14.350 13.570 11.720 10.050 0.217 0.241 0.232 0.543 468.00 0.00 0.00 0.9770 187.20 67.69 1 1 1 14.650 14.060 13.870 12.890 13.370 5.946 4.115 14.460 13.680 13.600 12.370 13.160 2.401 1.537 2.2670 16.607 8.170 8.420 15.243 7.510 7.719
VANMET_231 2016-09-30 15:15:00 231 53281.0 14.730 14.210 14.120 13.790 13.050 46.600 44.960 3.388 2.039 14.320 13.570 11.720 10.050 0.217 0.241 0.232 0.543 469.60 0.00 0.00 1.7370 225.40 28.55 1 1 1 14.870 14.400 14.330 13.500 13.950 5.200 4.240 14.580 13.910 13.710 12.430 13.410 1.212 0.644 3.3190 16.758 7.789 8.949 15.768 7.076 8.679
VANMET_231 2016-09-30 15:10:00 231 53281.0 14.610 14.280 14.290 13.940 13.230 47.970 45.970 3.688 2.488 14.290 13.570 11.720 10.050 0.217 0.241 0.232 0.543 470.60 0.00 0.00 1.1440 213.20 47.22 1 1 1 14.690 14.360 14.380 13.330 14.010 6.193 4.538 14.520 14.210 14.180 13.090 13.890 1.972 1.023 2.0510 16.628 7.955 8.652 15.923 7.306 8.603
VANMET_231 2016-09-30 15:05:00 231 53281.0 14.880 14.530 14.630 14.090 13.500 48.260 47.210 4.010 2.977 14.260 13.560 11.720 10.050 0.217 0.241 0.232 0.543 499.10 0.00 0.00 1.0950 202.40 45.50 1 1 1 14.970 14.780 14.920 13.960 14.280 6.090 4.811 14.560 14.250 14.300 13.180 13.850 1.219 0.652 2.8420 16.921 8.138 8.755 16.078 7.565 8.488
VANMET_231 2016-09-30 15:00:00 231 53281.0 14.620 14.250 14.280 13.640 13.350 49.010 49.060 4.023 3.136 14.230 13.560 11.720 10.050 0.217 0.241 0.232 0.543 513.40 0.00 0.00 0.8490 205.20 38.95 1 1 1 14.930 14.440 14.530 13.560 13.910 5.618 3.989 14.140 13.830 13.760 13.010 13.220 2.614 1.946 1.7380 16.639 8.145 8.484 15.615 7.651 7.954
VANMET_231 2016-09-30 14:55:00 231 53281.0 14.120 13.610 13.580 13.250 12.800 45.060 44.310 2.372 1.355 14.200 13.560 11.720 10.050 0.217 0.241 0.232 0.543 543.70 0.00 0.00 1.6050 219.20 35.88 1 1 1 14.360 13.780 13.700 13.100 13.380 4.457 2.405 13.950 13.480 13.440 12.500 13.130 0.964 0.407 3.0510 16.110 7.246 8.851 15.223 6.737 8.478
VANMET_231 2016-09-30 14:50:00 231 53281.0 14.790 14.130 14.180 13.900 12.970 48.570 45.800 3.990 2.356 14.160 13.560 11.720 10.050 0.217 0.241 0.232 0.543 530.20 0.00 0.00 1.5740 194.90 56.68 1 1 1 15.300 14.860 14.940 13.710 14.320 6.395 4.893 14.320 13.550 13.550 12.650 13.370 1.040 0.135 2.9730 16.823 8.126 8.652 15.881 7.238 8.608
VANMET_231 2016-09-30 14:45:00 231 53281.0 14.900 14.550 14.580 13.950 13.790 53.410 51.660 5.513 4.161 14.130 13.560 11.720 10.050 0.217 0.241 0.232 0.543 576.20 0.00 0.00 0.9030 207.10 45.37 1 1 1 15.320 14.990 15.060 14.050 14.320 7.225 5.969 14.430 14.040 14.020 13.460 13.580 4.467 3.200 1.8360 16.942 9.040 7.893 15.933 8.225 7.702
VANMET_231 2016-09-30 14:40:00 231 53281.0 14.430 13.890 13.830 13.580 12.970 48.200 48.100 3.598 2.791 14.100 13.560 11.720 10.050 0.217 0.241 0.232 0.543 532.20 0.00 0.00 1.4310 206.20 42.09 1 1 1 14.650 14.120 14.070 13.410 13.850 5.030 4.135 14.180 13.590 13.510 12.520 13.350 1.821 1.024 3.0580 16.436 7.905 8.514 15.554 7.466 8.073
VANMET_231 2016-09-30 14:35:00 231 53281.0 15.030 14.580 14.550 14.120 13.690 50.290 49.480 4.723 3.669 14.070 13.560 11.710 10.050 0.217 0.241 0.232 0.543 516.50 0.00 0.00 1.4250 205.70 41.75 1 1 1 15.130 14.740 14.740 14.070 14.250 6.948 6.277 14.700 14.130 14.040 13.140 13.930 1.045 0.625 3.4690 17.085 8.555 8.493 16.110 7.945 8.139
VANMET_231 2016-09-30 14:30:00 231 53281.0 15.080 14.670 14.650 14.210 13.900 51.860 50.050 5.215 3.928 14.030 13.560 11.710 10.050 0.217 0.241 0.232 0.543 603.50 0.00 0.00 1.4900 197.80 38.88 1 1 1 15.240 14.830 14.830 14.330 14.360 7.260 5.750 14.950 14.450 14.430 13.420 14.050 1.934 1.671 2.9730 17.140 8.854 8.251 16.204 8.091 8.094
VANMET_231 2016-09-30 14:25:00 231 53281.0 14.800 14.440 14.490 13.940 13.900 53.930 52.190 5.543 4.281 14.000 13.560 11.710 10.050 0.217 0.241 0.232 0.543 560.70 0.00 0.00 1.3700 206.40 37.79 1 1 1 15.020 14.640 14.660 14.170 14.090 7.116 5.895 14.560 14.210 14.300 13.580 13.750 3.047 2.556 2.9660 16.834 9.059 7.755 15.923 8.294 7.613
VANMET_231 2016-09-30 14:20:00 231 53281.0 14.370 14.100 14.050 13.500 13.670 54.010 53.360 5.169 4.183 13.970 13.570 11.710 10.050 0.217 0.241 0.232 0.543 655.50 0.00 0.00 1.8390 228.20 36.91 1 1 1 14.660 14.440 14.370 14.040 13.680 7.459 6.300 13.920 13.570 13.560 13.330 13.180 3.669 2.984 5.3570 16.372 8.826 7.530 15.473 8.238 7.217
VANMET_231 2016-09-30 14:15:00 231 53281.0 13.890 13.560 13.510 13.220 13.170 56.380 56.070 5.353 4.656 13.940 13.570 11.710 10.050 0.217 0.241 0.232 0.543 450.60 0.00 0.00 1.6320 241.00 28.80 1 1 1 14.270 13.920 13.840 13.440 13.420 6.500 5.862 13.670 13.360 13.340 12.990 13.090 4.058 3.563 3.0770 15.871 8.940 6.923 15.193 8.515 6.674
VANMET_231 2016-09-30 14:10:00 231 53281.0 14.290 13.950 13.850 13.460 13.610 56.020 55.540 5.618 4.730 13.910 13.570 11.710 10.050 0.218 0.241 0.232 0.543 563.40 0.00 0.00 1.6750 244.90 43.42 1 1 1 14.590 14.370 14.240 14.160 13.740 7.525 6.271 13.870 13.440 13.380 13.130 13.100 4.144 3.418 4.0510 16.288 9.106 7.163 15.433 8.560 6.862
VANMET_231 2016-09-30 14:05:00 231 53281.0 13.840 13.420 13.380 13.240 12.710 57.010 56.830 5.469 4.867 13.880 13.570 11.710 10.050 0.218 0.241 0.232 0.543 539.10 0.00 0.00 1.6750 243.20 32.80 1 1 1 14.090 13.770 13.820 13.090 13.490 6.476 5.766 13.740 13.170 13.050 12.420 13.020 4.073 3.703 3.9200 15.819 9.012 6.801 15.213 8.642 6.568
VANMET_231 2016-09-30 14:00:00 231 53281.0 14.460 14.130 14.200 13.790 13.470 52.690 53.560 4.917 4.523 13.850 13.570 11.710 10.050 0.218 0.241 0.232 0.543 325.40 0.00 0.00 1.1510 215.90 46.97 1 1 1 14.670 14.480 14.570 14.260 13.990 6.272 5.657 14.120 13.780 13.830 12.860 13.510 3.682 3.422 3.2730 16.468 8.672 7.791 15.768 8.436 7.323
VANMET_231 2016-09-30 13:55:00 231 53281.0 14.210 13.940 13.960 13.530 13.660 58.310 58.240 6.123 5.485 13.820 13.570 11.710 10.050 0.218 0.241 0.232 0.543 572.30 0.00 0.00 1.4780 248.70 31.89 1 1 1 14.680 14.570 14.620 14.400 13.960 8.490 6.922 13.940 13.460 13.400 12.950 13.270 3.955 3.599 3.3650 16.204 9.430 6.755 15.504 9.022 6.474
VANMET_231 2016-09-30 13:50:00 231 53281.0 13.740 13.340 13.350 13.150 12.960 56.960 56.080 5.365 4.587 13.790 13.580 11.710 10.050 0.218 0.241 0.232 0.543 602.00 0.00 0.00 1.1730 260.00 24.77 1 1 1 14.250 13.980 13.940 13.710 13.480 6.586 5.945 13.460 12.910 12.980 12.310 12.980 4.098 3.504 1.9670 15.717 8.947 6.765 15.124 8.474 6.642
VANMET_231 2016-09-30 13:45:00 231 53281.0 14.380 13.870 13.950 13.820 13.240 52.780 51.870 4.833 4.072 13.760 13.580 11.710 10.050 0.218 0.241 0.232 0.543 244.10 0.00 0.00 1.5270 242.30 27.69 1 1 1 14.850 14.510 14.610 13.980 14.390 6.798 6.216 13.800 13.230 13.240 12.580 13.210 1.959 1.887 4.1880 16.383 8.621 7.736 15.799 8.174 7.604
VANMET_231 2016-09-30 13:40:00 231 53281.0 14.810 14.440 14.560 14.320 13.850 55.850 54.750 6.067 5.334 13.740 13.580 11.710 10.050 0.218 0.241 0.232 0.543 573.90 0.00 0.00 1.3480 234.10 28.73 1 1 1 15.080 14.800 14.910 14.470 14.470 8.130 6.504 14.580 14.080 14.230 13.180 14.170 4.741 4.023 2.6660 16.844 9.394 7.437 16.320 8.928 7.385
VANMET_231 2016-09-30 13:35:00 231 53281.0 15.220 14.830 14.960 14.800 14.160 54.320 53.240 6.041 5.353 13.710 13.590 11.710 10.050 0.218 0.241 0.232 0.543 646.60 0.00 0.00 1.5320 196.20 33.24 1 1 1 15.340 15.110 15.300 14.820 15.030 7.736 7.600 14.890 14.390 14.460 13.450 14.380 4.151 3.649 2.8620 17.295 9.377 7.900 16.834 8.940 7.871
VANMET_231 2016-09-30 13:30:00 231 53281.0 15.870 15.610 15.710 15.450 14.750 53.740 52.240 6.480 5.696 13.690 13.590 11.710 10.050 0.218 0.241 0.232 0.543 606.20 0.00 0.00 1.6900 198.30 35.80 1 1 1 16.230 16.310 16.430 15.910 15.930 9.220 7.877 15.370 14.800 14.810 13.530 14.770 4.521 3.965 3.0450 18.031 9.666 8.341 17.552 9.156 8.383
VANMET_231 2016-09-30 13:25:00 231 53281.0 15.630 15.640 15.810 15.340 15.390 59.210 57.860 7.694 7.101 13.660 13.590 11.710 10.050 0.218 0.241 0.232 0.543 689.20 0.00 0.00 1.2040 225.80 22.87 1 1 1 15.900 16.100 16.380 16.060 15.880 9.090 7.671 15.250 15.140 15.230 14.800 14.890 6.716 6.176 2.2540 17.756 10.505 7.243 17.429 10.088 7.344
VANMET_231 2016-09-30 13:20:00 231 53281.0 15.360 15.240 15.290 14.910 14.680 56.300 55.970 6.714 6.203 13.640 13.600 11.710 10.050 0.218 0.241 0.232 0.543 677.80 0.00 0.00 1.3300 210.50 35.53 1 1 1 15.550 15.450 15.550 15.070 15.110 7.717 7.272 15.130 15.000 15.020 14.150 14.670 5.850 5.116 3.9850 17.451 9.823 7.626 16.953 9.483 7.465
VANMET_231 2016-09-30 13:15:00 231 53281.0 14.960 14.720 14.750 14.460 13.870 54.570 54.320 5.884 5.358 13.610 13.600 11.710 10.050 0.218 0.241 0.232 0.543 654.80 0.00 0.00 1.0660 191.50 47.81 1 1 1 15.120 15.060 15.090 14.530 14.650 7.643 6.630 14.870 14.560 14.590 13.390 14.340 5.084 4.550 2.0380 17.008 9.276 7.727 16.468 8.943 7.523
VANMET_231 2016-09-30 13:10:00 231 53281.0 14.960 14.830 14.930 14.800 14.250 55.160 53.260 6.040 5.382 13.590 13.600 11.710 10.050 0.218 0.241 0.232 0.543 683.20 0.00 0.00 1.7620 214.10 34.91 1 1 1 15.060 15.040 15.190 14.730 14.960 7.232 6.369 14.870 14.660 14.590 13.730 14.550 4.982 4.143 3.1690 17.008 9.376 7.626 16.834 8.958 7.868
VANMET_231 2016-09-30 13:05:00 231 53281.0 14.870 14.940 15.060 14.900 14.410 55.790 52.760 6.104 5.336 13.570 13.610 11.710 10.050 0.218 0.241 0.232 0.543 691.50 0.00 0.00 1.7050 213.30 25.91 1 1 1 14.980 15.120 15.260 14.700 15.040 7.175 6.736 14.640 14.690 14.810 13.930 14.660 4.607 4.294 3.9330 16.910 9.418 7.476 16.942 8.929 8.004
VANMET_231 2016-09-30 13:00:00 231 53281.0 14.600 14.900 15.140 14.880 14.440 61.340 57.300 7.254 6.521 13.540 13.610 11.710 10.050 0.218 0.241 0.232 0.543 693.50 0.00 0.00 1.1180 197.20 24.22 1 1 1 14.670 14.950 15.240 14.590 15.030 7.800 7.103 14.560 14.820 15.040 14.260 14.670 6.472 5.545 2.2340 16.618 10.194 6.424 16.921 9.693 7.225
VANMET_231 2016-09-30 12:55:00 231 53281.0 14.450 14.490 14.610 14.310 14.150 60.060 59.070 6.793 6.432 13.520 13.620 11.710 10.050 0.218 0.241 0.232 0.543 699.00 0.00 0.00 1.3480 206.80 50.27 1 1 1 14.560 14.780 14.970 14.540 14.630 8.410 7.240 14.300 14.120 14.150 13.520 14.020 5.802 5.428 3.1880 16.457 9.876 6.573 16.309 9.634 6.675
VANMET_231 2016-09-30 12:50:00 231 53281.0 14.510 14.280 14.220 13.980 13.890 60.070 59.910 6.858 6.325 13.500 13.620 11.710 10.050 0.218 0.241 0.232 0.543 702.70 0.00 0.00 1.6710 237.00 25.26 1 1 1 14.700 14.590 14.590 14.370 14.210 7.856 7.297 14.260 13.860 13.750 13.060 13.750 5.854 5.350 2.6260 16.521 9.921 6.597 15.964 9.563 6.400
VANMET_231 2016-09-30 12:45:00 231 53281.0 14.570 14.410 14.500 14.300 13.850 59.190 57.440 6.696 6.016 13.480 13.630 11.710 10.050 0.218 0.242 0.232 0.543 699.80 0.00 0.00 1.7160 221.00 24.79 1 1 1 14.790 14.740 14.880 14.280 14.510 8.120 6.935 14.290 13.930 13.840 13.220 13.840 5.729 5.457 3.1100 16.586 9.811 6.769 16.298 9.361 6.937
VANMET_231 2016-09-30 12:40:00 231 53281.0 14.310 14.120 14.220 13.870 13.820 61.180 61.390 6.928 6.571 13.470 13.630 11.710 10.050 0.218 0.242 0.232 0.543 714.40 0.00 0.00 1.3220 214.50 39.15 1 1 1 14.490 14.460 14.670 14.270 14.280 8.110 7.586 14.110 13.860 13.920 13.510 13.600 5.582 5.330 1.9860 16.309 9.969 6.331 15.850 9.727 6.120
VANMET_231 2016-09-30 12:35:00 231 53281.0 14.230 13.920 13.920 13.820 13.530 59.090 59.060 6.355 5.964 13.450 13.640 11.710 10.050 0.218 0.242 0.232 0.543 676.40 0.00 0.00 1.9920 228.80 28.05 1 1 1 14.560 14.340 14.440 13.930 14.270 7.313 6.595 14.080 13.710 13.690 13.230 13.570 5.421 5.194 3.7760 16.225 9.583 6.638 15.799 9.327 6.468
VANMET_231 2016-09-30 12:30:00 231 53281.0 14.520 14.460 14.600 14.360 14.030 61.110 59.630 7.112 6.610 13.430 13.640 11.710 10.050 0.218 0.242 0.232 0.543 711.10 0.00 0.00 1.3880 204.50 50.26 1 1 1 14.720 14.640 14.780 14.520 14.480 8.130 7.446 14.300 14.270 14.420 13.790 14.260 5.724 5.659 3.3450 16.532 10.095 6.429 16.362 9.753 6.605
VANMET_231 2016-09-30 12:25:00 231 53281.0 14.270 14.320 14.460 14.170 14.000 63.770 61.640 7.503 6.915 13.410 13.650 11.710 10.050 0.218 0.242 0.232 0.543 716.00 0.00 0.00 1.2140 202.60 30.31 1 1 1 14.460 14.590 14.710 14.530 14.360 8.330 7.807 13.990 14.040 14.180 13.740 13.860 6.260 5.899 2.7830 16.267 10.369 5.893 16.162 9.960 6.200
VANMET_231 2016-09-30 12:20:00 231 53281.0 13.620 13.470 13.590 13.360 13.220 64.970 64.090 7.163 6.712 13.400 13.660 11.710 10.050 0.218 0.242 0.232 0.543 728.50 0.00 0.00 1.2790 207.10 32.34 1 1 1 13.970 14.010 14.150 13.950 13.820 8.320 8.100 13.400 13.090 13.170 12.570 13.050 5.760 5.633 2.0380 15.595 10.131 5.463 15.333 9.822 5.506
VANMET_231 2016-09-30 12:15:00 231 53281.0 13.710 13.360 13.330 13.190 12.660 62.220 62.380 6.620 6.164 13.380 13.660 11.710 10.050 0.218 0.242 0.232 0.543 640.80 0.00 0.00 1.3340 200.40 30.76 1 1 1 13.850 13.550 13.500 13.030 13.250 7.615 6.847 13.460 13.060 13.090 12.300 13.030 5.823 5.553 2.5220 15.686 9.760 5.926 15.164 9.457 5.705
VANMET_231 2016-09-30 12:10:00 231 53281.0 13.780 13.520 13.610 13.330 12.990 64.550 63.240 7.217 6.489 13.370 13.670 11.710 10.050 0.218 0.242 0.232 0.543 602.20 0.00 0.00 1.4130 193.50 28.43 1 1 1 13.830 13.640 13.800 13.300 13.430 7.921 7.401 13.690 13.370 13.340 12.690 13.240 6.109 5.620 2.8750 15.758 10.168 5.586 15.303 9.672 5.625
VANMET_231 2016-09-30 12:05:00 231 53281.0 13.460 13.120 13.230 12.940 12.580 64.300 63.820 6.864 6.258 13.360 13.670 11.710 10.050 0.218 0.242 0.232 0.543 713.90 0.00 0.00 0.8990 185.20 40.76 1 1 1 13.670 13.430 13.560 13.000 13.200 7.609 7.160 13.360 12.930 13.020 12.210 12.800 6.204 5.690 2.2020 15.433 9.925 5.510 14.918 9.519 5.397
VANMET_231 2016-09-30 12:00:00 231 53281.0 13.290 13.160 13.310 12.860 12.790 65.970 65.420 7.068 6.544 13.340 13.680 11.710 10.050 0.218 0.242 0.232 0.543 570.80 0.00 0.00 0.8830 170.50 42.69 1 1 1 13.450 13.330 13.460 13.020 12.980 8.240 7.236 13.120 13.010 13.110 12.380 12.730 6.064 5.804 1.3650 15.263 10.065 5.194 14.840 9.709 5.132
VANMET_231 2016-09-30 11:55:00 231 53281.0 12.920 12.760 12.770 12.460 12.380 64.780 64.540 6.450 5.966 13.330 13.690 11.710 10.050 0.218 0.242 0.232 0.543 715.70 0.00 0.00 1.4090 257.10 37.79 1 1 1 13.150 13.030 13.100 12.790 12.690 7.506 6.548 12.660 12.490 12.550 11.990 12.290 5.849 5.446 2.4500 14.898 9.646 5.247 14.456 9.329 5.126
VANMET_231 2016-09-30 11:50:00 231 53281.0 12.440 12.230 12.290 12.170 12.010 67.110 66.060 6.513 6.031 13.320 13.690 11.710 10.050 0.218 0.242 0.232 0.543 585.40 0.00 0.00 1.4130 238.40 37.58 1 1 1 12.620 12.430 12.490 12.400 12.270 7.269 6.656 12.310 12.060 12.110 11.640 12.060 5.798 5.582 2.9860 14.437 9.688 4.748 14.182 9.371 4.814
VANMET_231 2016-09-30 11:45:00 231 53281.0 12.580 12.260 12.310 12.270 12.100 66.120 66.000 6.429 6.110 13.310 13.700 11.710 10.050 0.218 0.242 0.232 0.543 692.10 0.00 0.00 1.4300 248.40 22.34 1 1 1 12.660 12.460 12.560 12.540 12.380 7.196 6.746 12.440 12.060 12.070 11.560 12.150 5.675 5.453 2.4170 14.570 9.632 4.936 14.276 9.422 4.854
VANMET_231 2016-09-30 11:40:00 231 53281.0 12.990 12.690 12.730 12.630 12.340 65.350 65.340 6.647 6.302 13.300 13.710 11.710 10.050 0.218 0.242 0.232 0.543 630.80 0.00 0.00 1.5630 237.30 23.46 1 1 1 13.210 13.050 13.180 13.080 12.930 7.541 7.099 12.610 12.080 12.090 11.550 12.240 5.488 5.312 4.3120 14.967 9.778 5.186 14.618 9.548 5.067
VANMET_231 2016-09-30 11:35:00 231 53281.0 13.130 12.970 13.090 12.930 12.430 64.450 63.900 6.585 6.271 13.300 13.720 11.710 10.050 0.218 0.242 0.232 0.543 621.00 0.00 0.00 1.4700 222.20 28.42 1 1 1 13.270 13.250 13.460 13.100 13.220 7.263 6.759 12.950 12.600 12.590 11.640 12.560 5.684 5.737 2.7900 15.104 9.736 5.370 14.908 9.527 5.382
VANMET_231 2016-09-30 11:30:00 231 53281.0 13.090 12.940 13.080 12.850 12.730 66.330 65.430 6.960 6.538 13.290 13.720 11.710 10.050 0.218 0.242 0.232 0.543 661.20 0.00 0.00 1.3110 222.30 41.31 1 1 1 13.180 13.190 13.360 13.110 12.990 7.826 7.193 13.030 12.700 12.790 12.270 12.700 6.048 5.559 2.3060 15.065 9.990 5.072 14.830 9.705 5.127
VANMET_231 2016-09-30 11:25:00 231 53281.0 13.110 12.890 13.020 12.870 12.520 65.080 64.250 6.704 6.291 13.280 13.730 11.710 10.050 0.218 0.242 0.232 0.543 703.90 0.00 0.00 1.4170 254.30 26.64 1 1 1 13.260 13.010 13.220 12.850 13.020 7.534 7.135 12.910 12.710 12.740 12.060 12.670 5.773 5.627 2.3000 15.085 9.816 5.268 14.850 9.541 5.309
VANMET_231 2016-09-30 11:20:00 231 53281.0 12.790 12.560 12.670 12.410 12.060 65.730 65.790 6.547 6.192 13.280 13.740 11.710 10.050 0.218 0.242 0.232 0.543 668.20 0.00 0.00 1.1590 216.50 47.92 1 1 1 12.900 12.810 12.940 12.880 12.630 7.369 7.192 12.740 12.390 12.450 11.530 12.230 5.635 5.226 1.7970 14.772 9.711 5.062 14.408 9.476 4.929
VANMET_231 2016-09-30 11:15:00 231 53281.0 12.720 12.510 12.570 12.360 12.180 65.920 64.800 6.517 5.936 13.270 13.740 11.710 10.050 0.218 0.242 0.232 0.543 616.50 0.00 0.00 1.2560 253.40 29.74 1 1 1 12.790 12.620 12.710 12.400 12.480 7.060 6.426 12.580 12.310 12.330 11.800 12.250 5.848 5.310 2.1170 14.704 9.691 5.011 14.361 9.309 5.055
VANMET_231 2016-09-30 11:10:00 231 53281.0 12.690 12.530 12.670 12.510 12.120 64.510 63.940 6.174 5.881 13.270 13.750 11.710 10.050 0.218 0.242 0.232 0.543 575.30 0.00 0.00 1.1380 253.00 29.25 1 1 1 12.900 12.880 12.960 12.700 12.640 6.550 6.430 12.550 12.380 12.430 11.890 12.340 5.598 5.540 1.9990 14.675 9.464 5.208 14.503 9.274 5.230
VANMET_231 2016-09-30 11:05:00 231 53281.0 12.600 12.550 12.640 12.400 12.280 67.570 66.590 6.771 6.366 13.270 13.760 11.710 10.050 0.218 0.242 0.232 0.543 655.20 0.00 0.00 1.3140 241.80 52.48 1 1 1 12.910 12.850 12.920 12.720 12.610 7.306 6.850 12.350 12.210 12.270 11.850 12.110 6.392 5.856 2.5150 14.589 9.862 4.731 14.399 9.590 4.811
VANMET_231 2016-09-30 11:00:00 231 53281.0 12.410 12.310 12.420 12.200 12.110 66.590 66.450 6.374 6.144 13.270 13.770 11.710 10.050 0.218 0.242 0.232 0.543 570.90 0.00 0.00 1.4630 215.00 20.27 1 1 1 12.530 12.530 12.710 12.680 12.350 7.137 7.111 12.330 12.150 12.220 11.680 12.090 5.869 5.437 3.7370 14.408 9.595 4.814 14.211 9.444 4.768
VANMET_231 2016-09-30 10:55:00 231 53281.0 12.140 12.000 12.160 12.070 11.830 68.120 66.720 6.448 6.073 13.270 13.770 11.710 10.050 0.218 0.242 0.232 0.543 672.30 0.00 0.00 1.3130 256.20 23.32 1 1 1 12.380 12.280 12.350 12.220 12.180 7.048 6.685 12.000 11.820 12.010 11.460 12.000 5.914 5.560 2.2670 14.154 9.645 4.512 14.089 9.398 4.689
VANMET_231 2016-09-30 10:50:00 231 53281.0 12.470 12.370 12.580 12.420 12.090 66.860 65.890 6.489 6.227 13.270 13.780 11.710 10.050 0.218 0.242 0.232 0.543 440.80 0.00 0.00 1.5190 255.60 32.84 1 1 1 12.610 12.560 12.820 12.450 12.580 7.191 6.767 12.190 11.980 12.140 11.670 12.100 5.674 5.689 3.2270 14.465 9.672 4.794 14.418 9.499 4.918
VANMET_231 2016-09-30 10:45:00 231 53281.0 12.360 12.250 12.440 12.210 12.050 66.000 65.960 6.197 6.050 13.270 13.790 11.710 10.050 0.218 0.242 0.232 0.543 695.00 0.00 0.00 1.2530 257.40 20.69 1 1 1 12.480 12.380 12.590 12.310 12.450 6.949 6.803 12.210 12.080 12.150 11.890 11.910 5.403 5.661 2.1230 14.361 9.479 4.883 14.220 9.383 4.840
VANMET_231 2016-09-30 10:40:00 231 53281.0 12.100 11.840 11.900 11.800 11.600 66.030 65.290 5.956 5.504 13.280 13.800 11.710 10.050 0.218 0.242 0.232 0.543 549.20 0.00 0.00 1.3420 239.10 34.06 1 1 1 12.230 12.040 12.100 11.850 11.970 6.561 6.206 12.020 11.730 11.790 11.370 11.690 5.314 5.039 2.2740 14.117 9.322 4.796 13.841 9.034 4.804
VANMET_231 2016-09-30 10:35:00 231 53281.0 12.440 12.200 12.320 12.210 11.850 66.040 65.260 6.275 5.881 13.280 13.800 11.710 10.050 0.218 0.242 0.232 0.543 534.40 0.00 0.00 1.3560 223.80 44.24 1 1 1 12.520 12.290 12.470 12.150 12.340 7.382 6.950 12.270 11.940 12.000 11.470 11.990 5.256 5.010 3.4230 14.437 9.530 4.903 14.220 9.274 4.940
VANMET_231 2016-09-30 10:30:00 231 53281.0 12.600 12.440 12.590 12.390 12.100 65.460 64.210 6.301 5.823 13.290 13.810 11.710 10.050 0.218 0.242 0.232 0.543 625.50 0.00 0.00 1.4270 238.10 28.60 1 1 1 12.630 12.510 12.680 12.330 12.450 7.075 6.510 12.550 12.340 12.450 11.830 12.330 5.489 5.125 2.4430 14.589 9.547 5.039 14.389 9.237 5.150
VANMET_231 2016-09-30 10:25:00 231 53281.0 12.460 12.380 12.520 12.310 12.100 65.150 64.120 6.106 5.735 13.290 13.820 11.710 10.050 0.218 0.242 0.232 0.543 618.70 0.00 0.00 1.2000 244.20 27.82 1 1 1 12.560 12.490 12.620 12.330 12.370 7.245 6.257 12.360 12.280 12.390 11.900 12.240 5.367 5.270 2.0780 14.456 9.419 5.038 14.314 9.180 5.136
VANMET_231 2016-09-30 10:20:00 231 53281.0 12.340 12.220 12.430 12.210 11.940 64.690 64.510 5.885 5.722 13.300 13.830 11.700 10.050 0.218 0.242 0.232 0.543 646.40 0.00 0.00 1.2160 247.30 30.31 1 1 1 12.390 12.310 12.500 12.180 12.290 6.425 6.172 12.310 12.180 12.340 11.760 12.130 5.205 5.141 1.8420 14.342 9.276 5.064 14.220 9.172 5.047
VANMET_231 2016-09-30 10:15:00 231 53281.0 12.390 12.380 12.530 12.320 11.880 64.950 64.180 5.990 5.758 13.310 13.830 11.700 10.050 0.218 0.242 0.232 0.543 626.00 0.00 0.00 1.2900 248.50 21.14 1 1 1 12.430 12.450 12.640 12.010 12.380 6.449 6.252 12.330 12.210 12.390 11.760 12.200 5.252 5.130 2.5810 14.389 9.344 5.043 14.323 9.195 5.131
VANMET_231 2016-09-30 10:10:00 231 53281.0 12.240 12.260 12.410 12.140 11.690 67.750 66.330 6.453 6.057 13.320 13.840 11.710 10.050 0.218 0.242 0.232 0.543 619.60 0.00 0.00 0.8810 213.60 32.05 1 1 1 12.330 12.370 12.520 11.930 12.320 7.244 6.718 12.010 12.020 12.150 11.500 11.900 5.786 5.504 1.5680 14.248 9.648 4.595 14.154 9.388 4.766
VANMET_231 2016-09-30 10:05:00 231 53281.0 11.780 11.780 11.920 11.680 11.490 68.420 67.260 6.167 5.821 13.330 13.850 11.700 10.050 0.218 0.242 0.232 0.543 603.70 0.00 0.00 0.8550 221.30 29.49 1 1 1 12.000 12.020 12.160 11.730 11.900 6.925 6.704 11.570 11.550 11.680 11.260 11.440 5.237 5.084 1.2410 13.822 9.459 4.365 13.731 9.235 4.496
VANMET_231 2016-09-30 10:00:00 231 53281.0 11.340 11.260 11.360 11.080 10.930 69.720 69.450 6.012 5.715 13.340 13.860 11.700 10.050 0.218 0.242 0.232 0.543 591.00 0.00 0.00 1.0650 224.80 32.43 1 1 1 11.540 11.500 11.630 11.170 11.390 6.515 6.178 11.160 11.000 11.070 10.630 10.830 5.580 5.282 1.8550 13.426 9.358 4.065 13.196 9.168 4.031
VANMET_231 2016-09-30 09:55:00 231 53281.0 10.990 10.840 10.940 10.830 10.530 70.660 70.000 5.877 5.585 13.350 13.860 11.700 10.050 0.219 0.242 0.232 0.543 589.80 0.00 0.00 1.1620 226.00 23.15 1 1 1 11.120 11.020 11.120 10.860 10.960 6.397 6.020 10.880 10.660 10.760 10.200 10.720 5.292 5.124 2.0190 13.117 9.271 3.849 12.979 9.085 3.894
VANMET_231 2016-09-30 09:50:00 231 53281.0 10.960 10.910 11.000 10.780 10.600 75.610 74.420 6.826 6.417 13.360 13.870 11.700 10.050 0.219 0.242 0.232 0.543 495.40 0.00 0.00 1.0960 210.40 26.85 1 1 1 11.040 11.010 11.100 10.890 10.920 7.222 6.998 10.800 10.760 10.890 10.490 10.600 6.229 5.475 2.0190 13.091 9.899 3.193 12.935 9.624 3.309
VANMET_231 2016-09-30 09:45:00 231 53281.0 10.630 10.590 10.750 10.540 10.500 74.860 74.160 6.363 6.136 13.370 13.880 11.700 10.050 0.219 0.242 0.232 0.543 438.90 0.00 0.00 1.1210 227.00 24.40 1 1 1 10.770 10.730 10.890 10.720 10.650 6.810 6.491 10.380 10.280 10.420 10.250 10.330 5.953 5.720 1.8750 12.807 9.588 3.220 12.730 9.439 3.289
VANMET_231 2016-09-30 09:40:00 231 53281.0 10.240 10.160 10.310 10.220 10.040 75.390 74.580 6.084 5.908 13.390 13.890 11.700 10.050 0.219 0.242 0.232 0.543 492.70 0.00 0.00 1.1540 225.80 24.61 1 1 1 10.370 10.300 10.440 10.290 10.340 6.376 6.254 10.090 9.990 10.140 9.750 10.100 5.527 5.370 1.9140 12.478 9.405 3.071 12.461 9.291 3.168
VANMET_231 2016-09-30 09:35:00 231 53281.0 10.300 10.180 10.390 10.400 10.110 76.000 74.020 6.262 5.977 13.400 13.890 11.700 10.050 0.219 0.242 0.232 0.543 462.40 0.00 0.00 1.5250 231.30 15.92 1 1 1 10.400 10.280 10.590 10.450 10.560 6.923 6.204 10.240 10.090 10.290 9.920 10.260 5.589 5.538 2.0250 12.528 9.522 3.007 12.612 9.336 3.277
VANMET_231 2016-09-30 09:30:00 231 53281.0 10.420 10.230 10.490 10.710 10.250 74.850 72.700 6.164 6.014 13.410 13.900 11.700 10.050 0.219 0.242 0.232 0.543 523.40 0.00 0.00 1.5280 234.30 14.58 1 1 1 10.500 10.330 10.570 10.430 10.920 6.671 6.342 10.320 10.130 10.400 10.110 10.550 5.812 5.734 2.2470 12.629 9.457 3.176 12.875 9.360 3.515
VANMET_231 2016-09-30 09:25:00 231 53281.0 10.440 10.310 10.590 10.890 10.280 75.440 71.780 6.287 6.008 13.430 13.910 11.700 10.050 0.219 0.242 0.232 0.543 509.30 0.00 0.00 1.0130 208.50 32.93 1 1 1 10.520 10.380 10.650 10.500 10.980 6.667 6.367 10.350 10.230 10.510 10.040 10.770 5.877 5.789 1.9990 12.645 9.538 3.106 13.030 9.356 3.677
VANMET_231 2016-09-30 09:20:00 231 53281.0 10.440 10.270 10.670 10.890 10.170 75.160 71.310 6.235 5.908 13.440 13.920 11.700 10.050 0.219 0.242 0.232 0.543 504.20 0.00 0.00 1.0960 191.00 32.01 1 1 1 10.510 10.320 10.750 10.340 10.960 7.009 6.494 10.340 10.200 10.530 9.990 10.780 5.539 5.394 1.7770 12.645 9.504 3.141 13.030 9.291 3.738
VANMET_231 2016-09-30 09:15:00 231 53281.0 10.390 10.130 10.600 10.610 9.950 76.700 74.400 6.479 6.258 13.460 13.920 11.700 10.050 0.219 0.242 0.232 0.543 500.80 0.00 0.00 0.7820 181.20 36.14 1 1 1 10.520 10.230 10.690 10.070 10.860 6.825 6.727 10.190 10.050 10.490 9.850 10.500 6.150 5.903 1.1690 12.603 9.665 2.937 12.790 9.519 3.274
VANMET_231 2016-09-30 09:10:00 231 53281.0 9.930 9.960 10.380 10.440 9.940 78.270 75.030 6.336 6.209 13.470 13.930 11.700 10.050 0.219 0.242 0.232 0.543 483.50 0.00 0.00 1.0530 220.90 19.29 1 1 1 10.200 10.060 10.530 10.000 10.470 6.801 6.599 9.730 9.880 10.300 9.850 10.400 5.787 5.778 1.4500 12.221 9.570 2.656 12.645 9.487 3.158
VANMET_231 2016-09-30 09:05:00 231 53281.0 9.720 9.890 10.270 10.460 9.870 76.950 72.860 5.878 5.809 13.490 13.940 11.700 10.050 0.219 0.242 0.232 0.543 465.00 0.00 0.00 1.2220 211.20 15.51 1 1 1 9.740 9.940 10.300 10.000 10.510 6.207 6.066 9.690 9.830 10.230 9.740 10.420 5.496 5.543 1.7570 12.050 9.272 2.778 12.662 9.228 3.437
VANMET_231 2016-09-30 09:00:00 231 53281.0 9.770 10.020 10.510 10.520 9.590 76.390 71.510 5.821 5.591 13.500 13.940 11.700 10.050 0.219 0.242 0.232 0.543 452.60 0.00 0.00 0.9020 195.80 28.28 1 1 1 9.820 10.090 10.690 9.730 10.560 6.165 5.875 9.730 9.940 10.310 9.520 10.460 5.411 5.174 1.3520 12.091 9.235 2.855 12.713 9.089 3.622
VANMET_231 2016-09-30 08:55:00 231 53281.0 9.690 9.870 10.370 10.410 9.660 75.220 71.430 5.526 5.470 13.520 13.950 11.700 10.050 0.219 0.242 0.232 0.543 446.00 0.00 0.00 0.9600 203.00 25.31 1 1 1 9.760 10.040 10.610 9.850 10.480 5.782 5.863 9.630 9.730 10.170 9.550 10.300 5.271 5.250 1.5750 12.026 9.048 2.980 12.620 9.013 3.606
VANMET_231 2016-09-30 08:50:00 231 53281.0 9.630 9.600 10.060 10.300 9.420 76.020 72.410 5.619 5.566 13.530 13.960 11.700 10.050 0.219 0.242 0.232 0.543 429.30 0.00 0.00 0.7020 201.30 41.12 1 1 1 9.720 9.810 10.350 9.550 10.470 5.952 5.892 9.550 9.490 9.880 9.350 10.200 5.316 5.270 1.2670 11.978 9.107 2.872 12.528 9.073 3.456
VANMET_231 2016-09-30 08:45:00 231 53281.0 9.850 9.730 10.240 10.400 9.350 75.200 71.540 5.671 5.487 13.550 13.970 11.700 10.050 0.219 0.242 0.231 0.543 415.90 0.00 0.00 0.8370 195.70 29.43 1 1 1 9.920 9.820 10.320 9.450 10.470 6.031 5.999 9.710 9.610 10.040 9.290 10.320 5.318 5.233 1.2020 12.156 9.140 3.015 12.612 9.024 3.589
VANMET_231 2016-09-30 08:40:00 231 53281.0 9.940 9.880 10.370 10.350 9.350 73.160 71.050 5.366 5.341 13.570 13.970 11.700 10.050 0.219 0.242 0.231 0.543 403.50 0.00 0.00 0.6900 203.00 19.18 1 1 1 10.050 9.940 10.450 9.510 10.440 5.592 5.635 9.890 9.840 10.300 9.220 10.280 5.176 5.140 1.0910 12.229 8.948 3.282 12.570 8.932 3.639
VANMET_231 2016-09-30 08:35:00 231 53281.0 10.360 10.190 10.810 10.590 9.270 71.940 70.500 5.532 5.455 13.580 13.980 11.700 10.050 0.219 0.242 0.231 0.543 393.60 0.00 0.00 0.6330 200.50 17.94 1 1 1 10.580 10.320 10.910 9.350 10.680 5.786 5.731 10.090 9.950 10.510 9.200 10.470 5.298 5.091 1.0190 12.578 9.052 3.529 12.773 9.004 3.768
VANMET_231 2016-09-30 08:30:00 231 53281.0 10.820 10.460 10.840 10.570 9.080 70.270 70.990 5.634 5.536 13.600 13.990 11.700 10.050 0.219 0.242 0.231 0.543 376.30 0.00 0.00 0.5380 187.20 24.84 1 1 1 10.990 10.630 10.990 9.310 10.660 5.924 5.827 10.590 10.290 10.680 8.930 10.450 5.273 5.160 0.9210 12.970 9.116 3.856 12.756 9.054 3.700
VANMET_231 2016-09-30 08:25:00 231 53281.0 11.240 10.880 11.100 10.810 9.040 67.650 68.530 5.486 5.262 13.610 13.990 11.700 10.050 0.219 0.242 0.231 0.543 356.30 0.00 0.00 0.6270 201.00 23.84 1 1 1 11.470 11.220 11.440 9.150 11.000 5.864 5.468 10.980 10.520 10.800 8.950 10.670 5.096 5.044 1.1110 13.337 9.023 4.315 12.961 8.883 4.079
VANMET_231 2016-09-30 08:20:00 231 53281.0 10.950 10.860 11.130 10.640 9.120 69.100 68.770 5.511 5.147 13.630 14.000 11.700 10.050 0.219 0.242 0.231 0.543 339.40 0.00 0.00 0.5220 179.80 24.74 1 1 1 11.270 11.110 11.350 9.220 10.750 6.630 5.804 10.790 10.670 10.930 9.000 10.560 4.831 4.835 0.8820 13.083 9.039 4.043 12.815 8.813 4.002
VANMET_231 2016-09-30 08:15:00 231 53281.0 11.040 11.130 11.390 10.820 9.070 69.450 68.220 5.663 5.204 13.640 14.010 11.700 10.050 0.219 0.242 0.231 0.543 323.80 0.00 0.00 0.3610 206.50 22.09 1 1 1 11.240 11.340 11.530 9.270 10.930 6.457 5.853 10.750 10.900 11.120 8.900 10.670 4.784 4.754 0.7450 13.161 9.135 4.021 12.970 8.848 4.122
VANMET_231 2016-09-30 08:10:00 231 53281.0 10.680 10.990 11.300 10.970 8.950 70.380 67.450 5.514 5.179 13.660 14.010 11.700 10.050 0.219 0.242 0.231 0.543 309.50 0.00 0.00 0.6730 201.10 26.92 1 1 1 10.810 11.440 11.820 9.090 11.510 6.262 5.426 10.610 10.710 11.020 8.850 10.650 5.064 4.897 1.1040 12.850 9.041 3.806 13.100 8.832 4.264
VANMET_231 2016-09-30 08:05:00 231 53281.0 10.250 11.220 11.940 11.570 9.040 75.310 68.050 6.081 5.885 13.680 14.020 11.700 10.050 0.219 0.242 0.231 0.543 293.70 0.00 0.00 0.3430 209.20 10.30 1 1 1 10.640 11.450 12.120 9.200 11.690 6.552 6.284 9.810 10.820 11.690 8.890 11.370 5.753 5.365 0.8820 12.486 9.403 3.083 13.632 9.276 4.355
VANMET_231 2016-09-30 08:00:00 231 53281.0 9.460 10.330 11.190 10.810 8.910 77.870 67.970 5.795 5.145 13.690 14.030 11.700 10.050 0.219 0.242 0.231 0.543 279.70 0.00 0.00 0.0080 221.20 0.00 1 1 1 9.760 10.760 11.670 9.090 11.330 6.279 5.728 9.240 9.970 10.700 8.800 10.370 5.415 4.931 0.1500 11.841 9.219 2.621 12.961 8.811 4.151
VANMET_231 2016-09-30 07:55:00 231 53281.0 8.990 9.790 10.440 10.140 8.940 79.780 69.000 5.688 4.716 13.710 14.030 11.700 10.050 0.219 0.242 0.232 0.543 260.30 0.00 0.00 0.0000 0.00 0.00 1 1 1 9.220 9.970 10.650 9.120 10.370 6.068 5.094 8.730 9.580 10.270 8.640 10.000 5.067 4.456 0.0000 11.472 9.151 2.320 12.394 8.551 3.842
VANMET_231 2016-09-30 07:50:00 231 53281.0 8.350 9.340 10.180 9.920 8.600 80.800 71.150 5.250 4.947 13.730 14.040 11.700 10.050 0.219 0.242 0.232 0.543 249.60 0.00 0.00 0.0000 0.00 0.00 1 1 1 8.710 9.600 10.310 8.690 10.060 5.675 5.127 7.897 8.930 9.950 8.490 9.700 4.948 4.718 0.0000 10.985 8.876 2.109 12.213 8.690 3.523
VANMET_231 2016-09-30 07:45:00 231 53281.0 7.485 8.310 9.390 9.300 8.300 86.600 75.520 5.395 5.199 13.740 14.050 11.700 10.050 0.219 0.242 0.232 0.543 220.80 0.00 0.00 0.2000 166.10 3.69 1 1 1 7.847 8.860 9.900 8.460 9.690 5.603 5.351 7.216 7.889 8.840 8.140 8.860 5.164 5.055 0.4180 10.357 8.966 1.388 11.715 8.845 2.868
VANMET_231 2016-09-30 07:40:00 231 53281.0 6.954 7.710 8.360 8.580 8.120 89.100 77.630 5.282 4.897 13.760 14.050 11.700 10.050 0.219 0.242 0.232 0.543 56.02 0.00 0.00 0.1200 155.50 4.35 1 1 1 7.203 7.867 8.770 8.320 8.800 5.442 5.035 6.748 7.463 8.110 7.829 8.390 5.127 4.719 0.4250 9.986 8.896 1.089 11.158 8.660 2.496
VANMET_231 2016-09-30 07:35:00 231 53281.0 6.755 7.512 8.190 8.230 7.894 89.900 78.750 5.216 4.770 13.770 14.060 11.690 10.050 0.219 0.242 0.232 0.543 81.40 0.00 0.00 0.0000 0.00 0.00 1 1 1 6.795 7.539 8.240 7.977 8.370 5.325 4.940 6.665 7.444 8.120 7.751 8.140 4.941 4.641 0.0000 9.851 8.855 0.995 10.896 8.584 2.315
VANMET_231 2016-09-30 07:30:00 231 53281.0 6.635 7.388 8.200 8.300 7.729 90.300 78.420 5.158 4.780 13.790 14.070 11.690 10.050 0.219 0.242 0.232 0.543 168.30 0.00 0.00 0.1020 110.50 3.12 1 1 1 6.659 7.468 8.260 7.899 8.410 5.227 4.880 6.609 7.348 8.110 7.637 8.160 4.921 4.627 0.4510 9.770 8.819 0.948 10.948 8.590 2.363
VANMET_231 2016-09-30 07:25:00 231 53281.0 6.418 7.226 7.823 7.843 7.465 91.100 81.500 5.083 4.882 13.810 14.070 11.690 10.050 0.219 0.242 0.232 0.542 102.00 0.00 0.00 0.0000 0.00 0.00 1 1 1 6.632 7.399 8.200 7.630 8.310 5.279 5.059 6.180 6.916 7.405 7.266 7.373 4.898 4.653 0.0000 9.625 8.773 0.857 10.613 8.651 1.963
VANMET_231 2016-09-30 07:20:00 231 53281.0 6.091 6.691 7.190 7.132 7.230 91.900 83.700 4.886 4.562 13.820 14.080 11.690 10.050 0.219 0.242 0.232 0.542 140.80 0.00 0.00 0.0000 0.00 0.00 1 1 1 6.163 6.887 7.376 7.372 7.330 4.973 4.677 5.977 6.387 6.922 7.113 6.861 4.832 4.444 0.0000 9.410 8.653 0.762 10.109 8.460 1.648
VANMET_231 2016-09-30 07:15:00 231 53281.0 5.811 6.143 6.563 6.504 6.862 93.700 86.800 4.883 4.468 13.840 14.090 11.690 10.050 0.219 0.242 0.232 0.542 114.10 0.00 0.00 0.0000 0.00 0.00 1 1 1 5.971 6.349 6.891 7.129 6.821 5.007 4.580 5.681 6.006 6.303 6.497 6.246 4.649 4.316 0.0000 9.229 8.652 0.581 9.682 8.404 1.278
VANMET_231 2016-09-30 07:10:00 231 53281.0 5.604 5.836 6.142 6.061 6.399 93.200 87.900 4.590 4.212 13.850 14.090 11.690 10.050 0.219 0.242 0.232 0.542 49.70 0.00 0.00 0.0270 253.00 0.01 1 1 1 5.688 5.969 6.269 6.786 6.206 4.658 4.294 5.562 5.753 6.071 6.268 5.954 4.523 4.121 0.3200 9.097 8.476 0.619 9.390 8.254 1.136
VANMET_231 2016-09-30 07:05:00 231 53281.0 5.549 5.700 5.989 5.869 6.175 94.100 88.800 4.682 4.173 13.870 14.100 11.690 10.050 0.219 0.242 0.232 0.542 23.78 0.00 0.00 0.0870 256.90 1.06 1 1 1 5.572 5.745 6.066 6.299 5.944 4.795 4.218 5.532 5.688 5.925 6.036 5.814 4.609 4.128 0.3660 9.063 8.531 0.535 9.266 8.232 1.038
VANMET_231 2016-09-30 07:00:00 231 53281.0 5.542 5.682 5.911 5.805 5.982 94.800 90.100 4.786 4.319 13.890 14.110 11.690 10.050 0.219 0.242 0.232 0.542 22.24 0.00 0.00 0.0310 0.11 0.01 1 1 1 5.558 5.690 5.921 6.024 5.834 4.808 4.376 5.528 5.674 5.905 5.947 5.788 4.756 4.224 0.2030 9.058 8.593 0.471 9.225 8.317 0.913
VANMET_231 2016-09-30 06:55:00 231 53281.0 5.511 5.672 5.891 5.774 5.946 94.800 90.100 4.748 4.283 13.900 14.110 11.690 10.050 0.219 0.242 0.232 0.542 20.39 0.00 0.00 0.4970 359.90 1.14 1 1 1 5.532 5.680 5.905 5.958 5.801 4.774 4.354 5.488 5.664 5.871 5.924 5.737 4.725 4.173 0.6470 9.039 8.570 0.470 9.205 8.296 0.911
VANMET_231 2016-09-30 06:50:00 231 53281.0 5.492 5.639 5.863 5.735 5.904 94.300 89.400 4.659 4.135 13.920 14.120 11.690 10.050 0.219 0.242 0.232 0.542 18.60 0.00 0.00 0.6100 1.63 0.68 1 1 1 5.508 5.663 5.870 5.920 5.754 4.730 4.166 5.472 5.616 5.852 5.872 5.721 4.573 4.105 0.6860 9.027 8.517 0.515 9.180 8.210 0.973
VANMET_231 2016-09-30 06:45:00 231 53281.0 5.461 5.623 5.867 5.701 5.921 93.000 89.100 4.421 4.058 13.930 14.120 11.690 10.050 0.219 0.242 0.232 0.542 16.79 0.00 0.00 0.5900 1.57 0.50 1 1 1 5.492 5.632 5.881 5.984 5.738 4.592 4.154 5.402 5.604 5.836 5.868 5.634 4.159 3.936 0.7580 9.007 8.376 0.631 9.159 8.165 0.998
VANMET_231 2016-09-30 06:40:00 231 53281.0 5.357 5.499 5.736 5.578 5.868 92.500 89.000 4.250 3.920 13.950 14.130 11.690 10.050 0.219 0.242 0.232 0.542 14.72 0.00 0.00 0.4660 0.76 0.07 1 1 1 5.402 5.596 5.831 5.954 5.661 4.435 3.967 5.309 5.408 5.627 5.730 5.515 4.175 3.885 0.5360 8.942 8.276 0.671 9.081 8.087 0.999
VANMET_231 2016-09-30 06:35:00 231 53281.0 5.321 5.394 5.598 5.502 5.639 93.500 89.700 4.369 3.949 13.960 14.140 11.690 10.050 0.219 0.242 0.232 0.542 11.96 0.00 0.00 0.5210 0.85 0.15 1 1 1 5.335 5.403 5.617 5.708 5.511 4.419 3.994 5.299 5.387 5.585 5.617 5.488 4.325 3.892 0.6790 8.920 8.346 0.580 9.033 8.103 0.930
VANMET_231 2016-09-30 06:30:00 231 53281.0 5.309 5.411 5.610 5.488 5.627 93.000 89.200 4.269 3.856 13.980 14.140 11.690 10.050 0.219 0.242 0.232 0.542 8.94 0.00 0.00 0.6310 2.44 1.25 1 1 1 5.325 5.423 5.623 5.664 5.501 4.355 3.925 5.289 5.400 5.590 5.605 5.461 4.147 3.727 0.8170 8.913 8.287 0.624 9.024 8.050 0.975
VANMET_231 2016-09-30 06:25:00 231 53281.0 5.306 5.399 5.569 5.456 5.621 91.600 88.000 4.059 3.631 14.000 14.150 11.690 10.050 0.219 0.242 0.232 0.542 6.72 0.00 0.00 0.6980 3.74 0.27 1 1 1 5.322 5.401 5.585 5.650 5.475 4.215 3.774 5.282 5.396 5.544 5.599 5.435 3.910 3.517 0.9020 8.911 8.166 0.749 9.004 7.923 1.081
VANMET_231 2016-09-30 06:20:00 231 53281.0 5.316 5.402 5.550 5.466 5.598 92.400 89.000 4.195 3.795 14.010 14.150 11.690 10.050 0.219 0.242 0.232 0.542 5.18 0.00 0.00 0.8610 2.91 0.67 1 1 1 5.332 5.410 5.560 5.643 5.488 4.253 3.926 5.295 5.396 5.541 5.553 5.451 4.052 3.636 0.9800 8.917 8.244 0.678 9.010 8.016 0.991
VANMET_231 2016-09-30 06:15:00 231 53281.0 5.326 5.436 5.557 5.461 5.608 92.700 88.600 4.248 3.740 14.030 14.160 11.690 10.050 0.219 0.242 0.232 0.542 3.38 0.00 0.00 0.8270 5.82 0.93 1 1 1 5.355 5.452 5.563 5.623 5.481 4.343 3.893 5.302 5.416 5.553 5.581 5.441 4.159 3.642 1.1430 8.923 8.275 0.651 9.007 7.985 1.027
VANMET_231 2016-09-30 06:10:00 231 53281.0 5.330 5.435 5.555 5.444 5.617 91.900 88.300 4.124 3.666 14.040 14.170 11.690 10.050 0.219 0.242 0.232 0.542 1.59 0.00 0.00 0.8710 8.14 1.44 1 1 1 5.375 5.483 5.561 5.638 5.471 4.226 3.888 5.305 5.410 5.549 5.595 5.417 4.030 3.498 1.0520 8.926 8.203 0.723 8.997 7.943 1.053
VANMET_231 2016-09-30 06:05:00 231 53281.0 5.383 5.466 5.590 5.493 5.659 90.800 87.500 4.008 3.582 14.060 14.170 11.690 10.050 0.219 0.242 0.232 0.542 0.21 0.00 0.00 0.9090 9.10 0.03 1 1 1 5.397 5.484 5.632 5.695 5.550 4.259 3.672 5.367 5.449 5.562 5.630 5.444 3.808 3.500 1.0980 8.959 8.137 0.824 9.027 7.896 1.128
VANMET_231 2016-09-30 06:00:00 231 53281.0 5.416 5.519 5.683 5.617 5.731 91.600 89.300 4.158 4.001 14.080 14.180 11.690 10.050 0.219 0.242 0.232 0.542 0.00 0.00 0.00 0.8100 11.75 2.66 1 1 1 5.440 5.551 5.717 5.754 5.670 4.293 4.263 5.381 5.482 5.634 5.697 5.540 3.917 3.617 0.8890 8.979 8.223 0.754 9.106 8.133 0.974
VANMET_231 2016-09-30 05:55:00 231 53281.0 5.496 5.618 5.770 5.712 5.788 91.200 90.200 4.187 4.234 14.090 14.180 11.690 10.050 0.219 0.242 0.232 0.542 0.00 0.00 0.00 0.4860 14.20 1.54 1 1 1 5.557 5.677 5.829 5.846 5.756 4.323 4.294 5.444 5.552 5.714 5.740 5.667 4.051 4.120 0.7060 9.029 8.240 0.795 9.166 8.267 0.898
VANMET_231 2016-09-30 05:50:00 231 53281.0 5.561 5.692 5.865 5.749 5.934 90.900 87.300 4.195 3.810 14.110 14.190 11.680 10.050 0.219 0.242 0.232 0.542 0.00 0.00 0.00 0.4460 2.70 7.63 1 1 1 5.590 5.708 5.879 5.964 5.766 4.345 4.179 5.540 5.681 5.834 5.859 5.719 4.056 3.587 0.6990 9.070 8.244 0.825 9.189 8.024 1.167
VANMET_231 2016-09-30 05:45:00 231 53281.0 5.584 5.685 5.853 5.738 5.941 91.500 87.600 4.320 3.840 14.120 14.200 11.680 10.050 0.219 0.242 0.232 0.542 0.00 0.00 0.00 0.3040 328.20 23.43 1 1 1 5.616 5.691 5.867 5.972 5.756 4.469 4.110 5.560 5.677 5.847 5.906 5.719 4.107 3.689 0.4770 9.085 8.317 0.772 9.182 8.041 1.139
VANMET_231 2016-09-30 05:40:00 231 53281.0 5.641 5.717 5.888 5.767 5.970 92.100 89.100 4.468 4.121 14.140 14.200 11.680 10.050 0.219 0.242 0.232 0.542 0.00 0.00 0.00 0.6420 357.80 5.05 1 1 1 5.679 5.761 5.912 6.030 5.792 4.552 4.241 5.619 5.692 5.872 5.936 5.746 4.348 3.998 0.7840 9.121 8.404 0.721 9.201 8.202 1.003
VANMET_231 2016-09-30 05:35:00 231 53281.0 5.663 5.778 5.922 5.788 5.990 91.900 88.700 4.460 4.075 14.160 14.210 11.680 10.050 0.219 0.242 0.232 0.542 0.00 0.00 0.00 0.7670 4.10 2.17 1 1 1 5.689 5.792 5.939 6.024 5.802 4.532 4.251 5.642 5.761 5.908 5.971 5.762 4.333 3.880 0.9600 9.135 8.399 0.740 9.214 8.175 1.041
VANMET_231 2016-09-30 05:30:00 231 53281.0 5.656 5.764 5.919 5.797 5.982 92.200 89.100 4.490 4.145 14.170 14.210 11.680 10.050 0.219 0.242 0.232 0.542 0.00 0.00 0.00 0.7880 4.92 0.66 1 1 1 5.676 5.776 5.931 6.023 5.815 4.574 4.253 5.633 5.751 5.910 5.956 5.775 4.370 4.040 0.9670 9.130 8.417 0.712 9.220 8.216 1.005
VANMET_231 2016-09-30 05:25:00 231 53281.0 5.692 5.779 5.952 5.862 6.001 91.100 87.500 4.358 3.952 14.190 14.220 11.680 10.050 0.219 0.242 0.232 0.542 0.00 0.00 0.00 0.6670 8.79 5.98 1 1 1 5.742 5.814 5.986 6.031 5.919 4.473 4.121 5.659 5.761 5.924 5.969 5.809 4.242 3.768 0.8360 9.153 8.339 0.815 9.262 8.105 1.158
VANMET_231 2016-09-30 05:20:00 231 53281.0 5.794 5.874 6.060 5.994 6.083 90.400 87.400 4.351 4.065 14.200 14.220 11.680 10.050 0.219 0.242 0.232 0.542 0.00 0.00 0.00 0.6820 18.70 2.85 1 1 1 5.845 5.927 6.128 6.134 6.075 4.444 4.210 5.736 5.818 5.989 6.040 5.915 4.190 3.846 0.7910 9.218 8.335 0.885 9.347 8.169 1.178
VANMET_231 2016-09-30 05:15:00 231 53281.0 5.912 5.986 6.184 6.118 6.205 89.300 86.400 4.297 4.018 14.220 14.230 11.680 10.050 0.219 0.242 0.232 0.542 0.00 0.00 0.00 0.5920 9.08 2.38 1 1 1 5.968 6.049 6.223 6.243 6.171 4.504 4.195 5.855 5.934 6.137 6.140 6.051 4.156 3.824 0.7380 9.294 8.304 0.994 9.427 8.143 1.282
VANMET_231 2016-09-30 05:10:00 231 53281.0 6.025 6.132 6.311 6.274 6.302 90.000 85.700 4.515 4.056 14.230 14.230 11.680 10.050 0.219 0.242 0.232 0.542 0.00 0.00 0.00 0.4310 3.84 0.68 1 1 1 6.075 6.202 6.395 6.370 6.364 4.607 4.295 5.962 6.057 6.229 6.246 6.198 4.358 3.835 0.7060 9.367 8.432 0.937 9.529 8.164 1.363
VANMET_231 2016-09-30 05:05:00 231 53281.0 6.106 6.273 6.484 6.421 6.514 89.400 85.800 4.494 4.217 14.250 14.240 11.680 10.050 0.219 0.242 0.232 0.542 0.00 0.00 0.00 0.0000 0.00 0.00 1 1 1 6.125 6.314 6.526 6.647 6.457 4.602 4.376 6.081 6.210 6.405 6.364 6.360 4.389 3.889 0.0000 9.419 8.419 0.998 9.627 8.257 1.367
VANMET_231 2016-09-30 05:00:00 231 53281.0 6.104 6.270 6.488 6.377 6.662 89.400 84.300 4.490 3.931 14.270 14.240 11.680 10.050 0.219 0.242 0.232 0.542 0.00 0.00 0.00 0.0000 0.00 0.00 1 1 1 6.128 6.294 6.520 6.761 6.404 4.624 4.027 6.085 6.249 6.444 6.543 6.350 4.348 3.874 0.0000 9.418 8.417 0.998 9.597 8.093 1.507
VANMET_231 2016-09-30 04:55:00 231 53281.0 6.118 6.259 6.418 6.317 6.708 89.200 84.400 4.482 3.882 14.280 14.250 11.680 10.050 0.219 0.242 0.232 0.542 0.00 0.00 0.00 0.2600 271.40 34.89 1 1 1 6.131 6.279 6.453 6.867 6.351 4.597 3.992 6.095 6.242 6.385 6.593 6.277 4.277 3.791 0.5680 9.427 8.412 1.018 9.558 8.065 1.491
VANMET_231 2016-09-30 04:50:00 231 53281.0 6.107 6.264 6.421 6.305 6.548 91.000 86.500 4.758 4.217 14.300 14.250 11.680 10.050 0.219 0.242 0.232 0.542 0.00 0.00 0.00 0.5560 345.00 16.10 1 1 1 6.131 6.275 6.443 6.655 6.324 4.956 4.437 6.075 6.252 6.397 6.487 6.284 4.433 3.928 0.7580 9.420 8.576 0.848 9.550 8.257 1.289
VANMET_231 2016-09-30 04:45:00 231 53281.0 6.060 6.216 6.392 6.258 6.481 91.200 86.000 4.745 4.095 14.310 14.260 11.680 10.050 0.219 0.242 0.232 0.542 0.00 0.00 0.00 0.6150 3.56 0.56 1 1 1 6.108 6.273 6.428 6.534 6.294 4.976 4.240 6.015 6.178 6.364 6.425 6.221 4.623 3.896 0.7190 9.389 8.569 0.826 9.519 8.187 1.333
VANMET_231 2016-09-30 04:40:00 231 53281.0 6.024 6.172 6.361 6.215 6.447 91.600 86.100 4.771 4.068 14.330 14.260 11.680 10.050 0.219 0.242 0.232 0.542 0.00 0.00 0.00 0.8230 6.17 4.24 1 1 1 6.042 6.191 6.388 6.488 6.234 4.924 4.251 6.002 6.143 6.325 6.390 6.191 4.551 3.914 1.0260 9.366 8.584 0.787 9.491 8.171 1.319
VANMET_231 2016-09-30 04:35:00 231 53281.0 6.012 6.157 6.320 6.184 6.403 91.000 85.700 4.656 3.980 14.340 14.270 11.680 10.050 0.219 0.242 0.232 0.542 0.00 0.00 0.00 0.6660 3.18 6.89 1 1 1 6.035 6.168 6.328 6.431 6.201 4.734 4.147 5.991 6.142 6.308 6.379 6.164 4.568 3.859 0.8950 9.358 8.515 0.842 9.470 8.121 1.354
VANMET_231 2016-09-30 04:30:00 231 53281.0 6.034 6.171 6.300 6.178 6.384 91.700 86.600 4.788 4.109 14.360 14.270 11.680 10.050 0.219 0.242 0.232 0.542 0.00 0.00 0.00 0.9420 7.52 3.76 1 1 1 6.055 6.196 6.321 6.402 6.197 4.878 4.216 6.011 6.146 6.280 6.349 6.164 4.656 3.960 1.1040 9.373 8.594 0.778 9.466 8.195 1.268
VANMET_231 2016-09-30 04:25:00 231 53281.0 6.076 6.184 6.292 6.163 6.332 92.200 87.300 4.915 4.221 14.380 14.280 11.680 10.050 0.219 0.242 0.232 0.542 0.00 0.00 0.00 0.6930 3.38 3.04 1 1 1 6.097 6.202 6.302 6.354 6.184 5.019 4.286 6.051 6.147 6.278 6.288 6.140 4.704 4.082 0.8300 9.400 8.671 0.733 9.457 8.260 1.201
VANMET_231 2016-09-30 04:20:00 231 53281.0 6.069 6.200 6.307 6.164 6.345 91.700 87.100 4.823 4.182 14.390 14.280 11.680 10.050 0.219 0.242 0.232 0.542 0.00 0.00 0.00 0.9550 6.46 0.15 1 1 1 6.097 6.234 6.330 6.377 6.191 5.100 4.432 6.041 6.171 6.289 6.330 6.134 4.460 4.019 1.0580 9.395 8.615 0.780 9.457 8.237 1.220
VANMET_231 2016-09-30 04:15:00 231 53281.0 6.061 6.211 6.330 6.181 6.384 92.500 87.700 4.942 4.301 14.410 14.290 11.680 10.050 0.219 0.242 0.232 0.542 0.00 0.00 0.00 0.7920 6.88 1.21 1 1 1 6.091 6.231 6.337 6.417 6.200 5.068 4.461 6.021 6.174 6.320 6.347 6.157 4.665 3.992 0.9930 9.390 8.687 0.704 9.468 8.306 1.165
VANMET_231 2016-09-30 04:10:00 231 53281.0 6.014 6.161 6.289 6.135 6.371 90.800 85.600 4.637 3.904 14.420 14.290 11.680 10.050 0.219 0.242 0.232 0.542 0.00 0.00 0.00 0.9120 8.23 0.66 1 1 1 6.044 6.175 6.316 6.411 6.161 4.861 4.028 5.984 6.140 6.262 6.322 6.114 4.523 3.808 1.0710 9.360 8.504 0.861 9.438 8.077 1.359
VANMET_231 2016-09-30 04:05:00 231 53281.0 5.992 6.123 6.248 6.129 6.306 92.200 87.900 4.835 4.278 14.440 14.300 11.680 10.040 0.219 0.242 0.232 0.542 0.00 0.00 0.00 0.8080 3.06 2.22 1 1 1 6.011 6.151 6.263 6.327 6.150 4.983 4.422 5.971 6.103 6.232 6.277 6.107 4.691 4.074 1.0650 9.345 8.623 0.729 9.434 8.293 1.142
VANMET_231 2016-09-30 04:00:00 231 53281.0 5.994 6.109 6.217 6.089 6.282 92.600 88.200 4.892 4.293 14.450 14.300 11.680 10.040 0.219 0.242 0.232 0.542 0.00 0.00 0.00 0.6940 4.14 0.85 1 1 1 6.007 6.137 6.235 6.322 6.107 4.968 4.357 5.977 6.071 6.192 6.227 6.070 4.733 4.244 0.7910 9.347 8.657 0.692 9.408 8.301 1.110
VANMET_231 2016-09-30 03:55:00 231 53281.0 5.975 6.080 6.208 6.093 6.259 91.100 86.700 4.641 4.041 14.470 14.310 11.670 10.040 0.219 0.242 0.232 0.542 0.00 0.00 0.00 0.7900 8.32 0.38 1 1 1 5.994 6.089 6.226 6.287 6.110 4.722 4.233 5.950 6.071 6.191 6.236 6.077 4.545 3.938 0.9470 9.334 8.506 0.831 9.411 8.156 1.252
VANMET_231 2016-09-30 03:50:00 231 53281.0 5.967 6.087 6.220 6.101 6.311 90.000 86.100 4.453 3.955 14.480 14.310 11.670 10.040 0.219 0.242 0.232 0.542 0.00 0.00 0.00 0.7770 8.62 0.10 1 1 1 5.990 6.099 6.232 6.333 6.127 4.571 4.013 5.950 6.073 6.209 6.279 6.083 4.284 3.926 1.0580 9.329 8.395 0.933 9.416 8.106 1.309
VANMET_231 2016-09-30 03:45:00 231 53281.0 6.008 6.107 6.215 6.115 6.279 91.900 87.100 4.801 4.140 14.500 14.310 11.670 10.040 0.219 0.242 0.232 0.542 0.00 0.00 0.00 0.7720 4.42 1.98 1 1 1 6.034 6.133 6.234 6.317 6.163 4.965 4.378 5.987 6.086 6.201 6.253 6.086 4.558 3.941 0.9470 9.356 8.602 0.758 9.425 8.213 1.216
VANMET_231 2016-09-30 03:40:00 231 53281.0 6.012 6.111 6.233 6.156 6.298 92.200 88.000 4.852 4.325 14.520 14.320 11.670 10.040 0.219 0.242 0.232 0.542 0.00 0.00 0.00 0.6680 0.09 0.02 1 1 1 6.030 6.122 6.240 6.324 6.169 4.919 4.383 5.990 6.093 6.224 6.271 6.133 4.779 4.251 0.8820 9.358 8.633 0.730 9.452 8.320 1.134
VANMET_231 2016-09-30 03:35:00 231 53281.0 5.986 6.083 6.238 6.137 6.302 91.500 86.600 4.718 4.081 14.530 14.320 11.670 10.040 0.219 0.242 0.232 0.542 0.00 0.00 0.00 0.7100 5.34 2.63 1 1 1 6.007 6.092 6.264 6.321 6.166 4.837 4.218 5.966 6.072 6.226 6.280 6.113 4.572 4.021 0.9340 9.341 8.552 0.794 9.440 8.179 1.265
VANMET_231 2016-09-30 03:30:00 231 53281.0 6.015 6.115 6.290 6.160 6.322 91.400 87.300 4.724 4.221 14.550 14.330 11.670 10.040 0.219 0.242 0.232 0.542 0.00 0.00 0.00 0.8580 5.05 2.27 1 1 1 6.053 6.155 6.317 6.348 6.176 4.816 4.325 5.976 6.083 6.266 6.279 6.139 4.585 4.095 1.0780 9.360 8.556 0.805 9.455 8.260 1.201
VANMET_231 2016-09-30 03:25:00 231 53281.0 6.087 6.235 6.350 6.187 6.415 92.400 88.300 4.946 4.399 14.560 14.330 11.670 10.040 0.219 0.242 0.232 0.542 0.00 0.00 0.00 0.6900 1.69 2.77 1 1 1 6.116 6.280 6.361 6.472 6.209 5.161 4.660 6.059 6.163 6.323 6.303 6.172 4.783 4.245 0.8040 9.407 8.690 0.715 9.472 8.363 1.108
VANMET_231 2016-09-30 03:20:00 231 53281.0 6.092 6.217 6.331 6.170 6.436 93.000 89.500 5.051 4.573 14.580 14.340 11.670 10.040 0.219 0.242 0.232 0.542 0.00 0.00 0.00 0.7360 7.69 0.03 1 1 1 6.122 6.266 6.349 6.477 6.199 5.136 4.678 6.076 6.182 6.295 6.350 6.126 4.959 4.400 0.9730 9.410 8.754 0.659 9.461 8.466 0.993
VANMET_231 2016-09-30 03:15:00 231 53281.0 6.087 6.169 6.297 6.145 6.354 91.300 87.400 4.788 4.216 14.590 14.340 11.670 10.040 0.219 0.242 0.232 0.542 0.00 0.00 0.00 0.8370 8.60 0.62 1 1 1 6.122 6.196 6.306 6.373 6.165 4.945 4.377 6.052 6.152 6.284 6.332 6.129 4.593 4.104 1.0850 9.407 8.594 0.818 9.445 8.257 1.190
VANMET_231 2016-09-30 03:10:00 231 53281.0 6.119 6.221 6.325 6.192 6.400 91.400 87.500 4.832 4.285 14.610 14.340 11.670 10.040 0.219 0.242 0.232 0.542 0.00 0.00 0.00 0.8890 11.27 2.64 1 1 1 6.135 6.236 6.338 6.428 6.222 5.030 4.470 6.099 6.201 6.307 6.374 6.155 4.595 4.179 1.0780 9.428 8.621 0.811 9.476 8.297 1.184
VANMET_231 2016-09-30 03:05:00 231 53281.0 6.150 6.232 6.377 6.277 6.413 92.400 89.200 5.022 4.637 14.620 14.350 11.670 10.040 0.219 0.242 0.232 0.542 0.00 0.00 0.00 0.8010 1.72 2.17 1 1 1 6.198 6.282 6.425 6.481 6.318 5.090 4.785 6.112 6.193 6.336 6.359 6.238 4.965 4.567 1.0450 9.448 8.736 0.718 9.531 8.504 1.029
VANMET_231 2016-09-30 03:00:00 231 53281.0 6.194 6.310 6.451 6.334 6.480 92.400 88.700 5.054 4.609 14.640 14.350 11.670 10.040 0.219 0.242 0.231 0.542 0.00 0.00 0.00 0.7690 3.81 4.38 1 1 1 6.211 6.337 6.483 6.530 6.361 5.175 4.692 6.175 6.286 6.414 6.439 6.291 4.900 4.482 0.9600 9.477 8.756 0.720 9.569 8.487 1.081
VANMET_231 2016-09-30 02:55:00 231 53281.0 6.238 6.379 6.501 6.364 6.570 91.200 87.700 4.910 4.477 14.660 14.350 11.670 10.040 0.219 0.242 0.231 0.542 0.00 0.00 0.00 0.9370 11.04 0.34 1 1 1 6.271 6.417 6.516 6.596 6.391 5.074 4.693 6.202 6.339 6.477 6.541 6.337 4.657 4.259 1.0980 9.506 8.668 0.837 9.589 8.409 1.179
VANMET_231 2016-09-30 02:50:00 231 53281.0 6.271 6.445 6.574 6.413 6.647 91.800 88.300 5.044 4.628 14.670 14.360 11.670 10.040 0.219 0.242 0.231 0.542 0.00 0.00 0.00 0.7890 16.38 3.44 1 1 1 6.282 6.467 6.603 6.719 6.438 5.086 4.876 6.255 6.420 6.522 6.567 6.374 4.960 4.322 1.1300 9.527 8.749 0.781 9.621 8.499 1.126
VANMET_231 2016-09-30 02:45:00 231 53281.0 6.278 6.403 6.542 6.407 6.660 91.200 87.300 4.954 4.452 14.690 14.360 11.670 10.040 0.219 0.242 0.231 0.542 0.00 0.00 0.00 0.6490 10.55 10.93 1 1 1 6.298 6.458 6.581 6.716 6.418 5.181 4.723 6.252 6.362 6.525 6.625 6.391 4.646 4.276 0.8820 9.532 8.695 0.839 9.617 8.395 1.221
VANMET_231 2016-09-30 02:40:00 231 53281.0 6.334 6.439 6.583 6.481 6.642 91.300 88.300 5.022 4.686 14.700 14.360 11.670 10.040 0.219 0.242 0.231 0.542 0.00 0.00 0.00 0.5220 19.97 11.30 1 1 1 6.394 6.466 6.625 6.693 6.537 5.139 5.018 6.271 6.409 6.533 6.604 6.417 4.673 4.353 0.7250 9.569 8.736 0.833 9.667 8.533 1.131
VANMET_231 2016-09-30 02:35:00 231 53281.0 6.434 6.515 6.661 6.552 6.705 90.400 87.900 4.987 4.697 14.720 14.370 11.670 10.040 0.219 0.242 0.231 0.542 0.00 0.00 0.00 0.5940 1.67 5.79 1 1 1 6.474 6.550 6.685 6.753 6.590 5.084 4.903 6.397 6.473 6.625 6.640 6.503 4.807 4.414 0.8820 9.635 8.715 0.925 9.714 8.540 1.175
VANMET_231 2016-09-30 02:30:00 231 53281.0 6.502 6.600 6.744 6.633 6.795 90.800 87.900 5.110 4.776 14.740 14.370 11.670 10.040 0.219 0.242 0.231 0.542 0.00 0.00 0.00 0.7190 11.27 3.85 1 1 1 6.550 6.640 6.779 6.821 6.663 5.301 5.032 6.447 6.555 6.684 6.744 6.586 4.750 4.450 0.8690 9.681 8.790 0.891 9.768 8.587 1.182
VANMET_231 2016-09-30 02:25:00 231 53281.0 6.575 6.693 6.828 6.691 6.889 90.600 86.400 5.161 4.593 14.750 14.370 11.670 10.040 0.219 0.242 0.231 0.542 0.00 0.00 0.00 0.4710 41.03 14.96 1 1 1 6.623 6.731 6.866 6.937 6.732 5.295 4.701 6.550 6.648 6.786 6.816 6.659 4.959 4.476 0.7120 9.729 8.821 0.915 9.807 8.478 1.334
VANMET_231 2016-09-30 02:20:00 231 53281.0 6.628 6.711 6.873 6.764 6.981 90.900 87.500 5.261 4.837 14.770 14.380 11.670 10.040 0.219 0.242 0.231 0.542 0.00 0.00 0.00 0.5730 4.07 16.90 1 1 1 6.663 6.740 6.897 7.065 6.805 5.454 5.002 6.606 6.684 6.852 6.940 6.726 5.028 4.721 0.8170 9.765 8.883 0.889 9.857 8.624 1.232
VANMET_231 2016-09-30 02:15:00 231 53281.0 6.697 6.784 6.920 6.824 7.015 91.400 87.600 5.399 4.922 14.790 14.380 11.670 10.040 0.219 0.242 0.231 0.542 0.00 0.00 0.00 0.4830 346.10 4.10 1 1 1 6.736 6.839 6.966 7.059 6.875 5.492 5.076 6.662 6.736 6.893 6.961 6.785 5.240 4.802 0.5880 9.811 8.969 0.844 9.898 8.675 1.227
VANMET_231 2016-09-30 02:10:00 231 53281.0 6.772 6.873 6.999 6.882 7.085 92.200 88.200 5.601 5.078 14.800 14.380 11.660 10.040 0.219 0.242 0.231 0.542 0.00 0.00 0.00 0.7000 7.50 3.86 1 1 1 6.799 6.886 7.018 7.128 6.902 5.708 5.175 6.726 6.845 6.975 7.026 6.859 5.405 4.945 0.9020 9.862 9.095 0.769 9.937 8.770 1.173
VANMET_231 2016-09-30 02:05:00 231 53281.0 6.825 6.885 7.032 6.927 7.093 91.700 88.600 5.571 5.187 14.820 14.390 11.660 10.040 0.219 0.242 0.231 0.542 0.00 0.00 0.00 0.5850 0.22 4.96 1 1 1 6.878 6.928 7.064 7.120 6.972 5.611 5.241 6.785 6.859 7.016 7.061 6.905 5.540 5.104 0.7380 9.898 9.076 0.822 9.968 8.837 1.136
VANMET_231 2016-09-30 02:00:00 231 53281.0 6.887 6.969 7.106 6.982 7.164 91.800 88.700 5.647 5.250 14.830 14.390 11.660 10.040 0.219 0.242 0.231 0.542 0.00 0.00 0.00 0.6320 1.61 0.56 1 1 1 6.908 6.987 7.123 7.195 7.002 5.758 5.360 6.862 6.934 7.067 7.087 6.955 5.530 5.161 0.7380 9.941 9.124 0.815 10.006 8.876 1.131
VANMET_231 2016-09-30 01:55:00 231 53281.0 6.934 7.038 7.161 7.013 7.228 92.000 88.100 5.724 5.188 14.850 14.390 11.660 10.040 0.219 0.242 0.231 0.542 0.00 0.00 0.00 0.6190 6.09 4.84 1 1 1 6.956 7.076 7.190 7.301 7.032 5.875 5.275 6.905 6.991 7.123 7.153 6.985 5.628 5.112 0.8360 9.973 9.173 0.798 10.027 8.838 1.193
VANMET_231 2016-09-30 01:50:00 231 53281.0 6.922 7.026 7.163 7.021 7.262 92.100 88.800 5.740 5.301 14.870 14.390 11.660 10.040 0.219 0.242 0.231 0.542 0.00 0.00 0.00 0.6440 3.45 3.52 1 1 1 6.945 7.045 7.177 7.293 7.038 5.788 5.394 6.902 7.015 7.153 7.231 7.002 5.675 5.254 0.8430 9.964 9.184 0.787 10.032 8.908 1.124
VANMET_231 2016-09-30 01:45:00 231 53281.0 6.935 7.044 7.173 7.009 7.239 92.200 88.400 5.762 5.231 14.880 14.390 11.660 10.040 0.219 0.242 0.231 0.542 0.00 0.00 0.00 0.6670 1.87 1.97 1 1 1 6.955 7.068 7.186 7.266 7.025 5.919 5.292 6.919 7.029 7.161 7.222 6.992 5.656 5.106 0.7970 9.973 9.198 0.778 10.024 8.864 1.163
VANMET_231 2016-09-30 01:40:00 231 53281.0 6.900 7.026 7.163 7.000 7.275 92.600 87.500 5.784 5.079 14.900 14.400 11.660 10.040 0.219 0.242 0.231 0.542 0.00 0.00 0.00 0.7540 11.46 7.38 1 1 1 6.939 7.070 7.188 7.320 7.018 5.924 5.178 6.872 7.010 7.145 7.223 6.982 5.659 4.962 1.1830 9.949 9.212 0.736 10.018 8.771 1.252
VANMET_231 2016-09-30 01:35:00 231 53281.0 6.851 6.978 7.146 7.003 7.249 90.900 87.700 5.474 5.104 14.920 14.400 11.660 10.040 0.219 0.242 0.231 0.542 0.00 0.00 0.00 0.5310 15.47 21.79 1 1 1 6.872 7.015 7.169 7.299 7.021 5.763 5.367 6.835 6.947 7.127 7.211 6.981 5.221 4.893 0.7190 9.916 9.015 0.902 10.020 8.786 1.232
VANMET_231 2016-09-30 01:30:00 231 53281.0 6.871 7.018 7.146 6.990 7.259 91.400 87.900 5.572 5.122 14.930 14.400 11.660 10.040 0.219 0.242 0.231 0.542 0.00 0.00 0.00 0.4850 7.37 7.76 1 1 1 6.919 7.074 7.180 7.328 7.015 5.813 5.402 6.832 6.970 7.125 7.207 6.968 5.156 4.834 0.7770 9.930 9.077 0.854 10.011 8.797 1.211
VANMET_231 2016-09-30 01:25:00 231 53281.0 6.881 7.036 7.149 6.991 7.245 92.500 88.400 5.760 5.211 14.950 14.400 11.660 10.040 0.219 0.242 0.231 0.542 0.00 0.00 0.00 0.7330 8.63 3.66 1 1 1 6.919 7.069 7.168 7.337 7.012 5.841 5.386 6.849 7.015 7.132 7.187 6.958 5.615 5.118 1.0450 9.936 9.196 0.745 10.012 8.852 1.161
VANMET_231 2016-09-30 01:20:00 231 53281.0 6.831 6.996 7.125 6.984 7.267 92.100 88.400 5.644 5.197 14.970 14.410 11.660 10.040 0.219 0.242 0.231 0.542 0.00 0.00 0.00 0.6030 0.40 4.89 1 1 1 6.865 7.027 7.158 7.314 7.018 5.800 5.446 6.805 6.978 7.104 7.230 6.961 5.525 5.068 0.8750 9.902 9.123 0.782 10.007 8.843 1.161
VANMET_231 2016-09-30 01:15:00 231 53281.0 6.788 6.986 7.104 6.974 7.212 91.900 88.300 5.576 5.183 14.980 14.410 11.660 10.040 0.219 0.242 0.231 0.542 0.00 0.00 0.00 0.5950 45.32 11.84 1 1 1 6.822 6.996 7.117 7.241 6.991 5.647 5.426 6.765 6.960 7.089 7.184 6.951 5.518 5.003 0.7580 9.873 9.080 0.800 10.000 8.835 1.170
VANMET_231 2016-09-30 01:10:00 231 53281.0 6.789 6.911 7.043 6.933 7.160 92.000 87.500 5.585 5.006 15.000 14.410 11.660 10.040 0.219 0.242 0.231 0.542 0.00 0.00 0.00 0.1160 30.03 10.98 1 1 1 6.806 6.953 7.078 7.202 6.975 5.652 5.257 6.769 6.889 7.026 7.131 6.908 5.511 4.884 0.3460 9.874 9.085 0.790 9.972 8.726 1.246
VANMET_231 2016-09-30 01:05:00 231 53281.0 6.790 6.875 7.009 6.889 7.108 91.300 87.800 5.473 5.012 15.020 14.410 11.660 10.040 0.219 0.242 0.231 0.542 0.00 0.00 0.00 0.1800 27.56 22.64 1 1 1 6.825 6.896 7.023 7.166 6.915 5.538 5.176 6.766 6.853 6.993 7.046 6.865 5.407 4.874 0.5750 9.874 9.015 0.859 9.942 8.730 1.213
VANMET_231 2016-09-30 01:00:00 231 53281.0 6.881 6.945 7.083 6.960 7.109 91.500 88.200 5.597 5.149 15.030 14.410 11.660 10.040 0.219 0.242 0.231 0.542 0.00 0.00 0.00 0.5550 2.05 2.77 1 1 1 6.925 7.024 7.153 7.238 7.008 5.679 5.239 6.832 6.883 7.021 7.044 6.905 5.471 5.041 0.7380 9.936 9.093 0.845 9.990 8.814 1.179
VANMET_231 2016-09-30 00:55:00 231 53281.0 6.966 7.085 7.215 7.064 7.291 92.100 89.300 5.784 5.433 15.050 14.410 11.660 10.040 0.219 0.242 0.231 0.542 0.00 0.00 0.00 0.6980 353.10 0.73 1 1 1 7.006 7.145 7.271 7.350 7.118 6.037 5.719 6.932 7.028 7.155 7.238 7.018 5.569 5.168 0.9020 9.995 9.212 0.790 10.062 8.990 1.077
VANMET_231 2016-09-30 00:50:00 231 53281.0 7.028 7.210 7.324 7.134 7.387 93.600 91.200 6.079 5.798 15.070 14.410 11.660 10.040 0.219 0.242 0.231 0.542 0.00 0.00 0.00 0.7230 0.14 9.58 1 1 1 7.052 7.259 7.372 7.486 7.165 6.199 5.879 6.995 7.149 7.275 7.336 7.108 5.979 5.711 0.9410 10.037 9.402 0.642 10.111 9.221 0.890
VANMET_231 2016-09-30 00:45:00 231 53281.0 7.050 7.214 7.337 7.139 7.482 94.200 91.500 6.186 5.853 15.080 14.420 11.660 10.040 0.219 0.243 0.231 0.542 0.00 0.00 0.00 0.8530 7.96 4.30 1 1 1 7.075 7.283 7.388 7.608 7.164 6.264 5.969 7.031 7.143 7.277 7.329 7.114 6.046 5.748 1.1110 10.052 9.472 0.583 10.114 9.256 0.860
VANMET_231 2016-09-30 00:40:00 231 53281.0 7.067 7.196 7.324 7.150 7.386 93.500 91.200 6.095 5.814 15.100 14.420 11.660 10.040 0.219 0.243 0.231 0.542 0.00 0.00 0.00 0.6530 8.18 6.98 1 1 1 7.085 7.227 7.359 7.463 7.178 6.166 5.969 7.045 7.155 7.292 7.347 7.128 6.007 5.746 0.8430 10.064 9.412 0.654 10.122 9.231 0.891
VANMET_231 2016-09-30 00:35:00 231 53281.0 7.059 7.234 7.336 7.130 7.449 93.800 91.300 6.136 5.818 15.120 14.420 11.660 10.040 0.219 0.243 0.231 0.542 0.00 0.00 0.00 0.5930 18.73 4.58 1 1 1 7.078 7.252 7.351 7.495 7.168 6.182 5.966 7.031 7.215 7.311 7.398 7.088 6.056 5.721 0.7250 10.059 9.439 0.624 10.108 9.233 0.879
VANMET_231 2016-09-30 00:30:00 231 53281.0 6.990 7.146 7.254 7.035 7.398 94.000 91.600 6.095 5.764 15.130 14.420 11.660 10.040 0.219 0.243 0.231 0.542 0.00 0.00 0.00 0.6740 12.62 5.17 1 1 1 7.015 7.210 7.322 7.504 7.101 6.203 5.948 6.968 7.125 7.219 7.358 6.978 5.993 5.672 0.8750 10.011 9.412 0.601 10.042 9.199 0.844
VANMET_231 2016-09-30 00:25:00 231 53281.0 6.927 7.073 7.168 6.934 7.301 94.500 91.700 6.117 5.685 15.150 14.420 11.660 10.040 0.219 0.243 0.231 0.542 0.00 0.00 0.00 0.5280 10.83 6.88 1 1 1 6.975 7.130 7.217 7.374 6.991 6.215 5.776 6.902 7.052 7.154 7.263 6.905 6.048 5.594 0.6790 9.968 9.427 0.548 9.973 9.149 0.828
VANMET_231 2016-09-30 00:20:00 231 53281.0 6.882 7.019 7.122 6.892 7.257 94.300 92.100 6.043 5.705 15.170 14.420 11.660 10.040 0.219 0.243 0.231 0.542 0.00 0.00 0.00 0.6440 7.89 2.57 1 1 1 6.915 7.051 7.156 7.279 6.928 6.114 5.785 6.851 6.997 7.087 7.204 6.871 5.954 5.654 0.8750 9.937 9.378 0.566 9.944 9.161 0.786
VANMET_231 2016-09-30 00:15:00 231 53281.0 6.837 6.972 7.080 6.873 7.187 95.000 93.300 6.092 5.870 15.180 14.420 11.660 10.040 0.219 0.243 0.231 0.542 0.00 0.00 0.00 0.7080 5.16 2.08 1 1 1 6.881 7.006 7.091 7.223 6.901 6.149 5.966 6.802 6.938 7.065 7.148 6.852 6.011 5.757 0.8620 9.906 9.410 0.495 9.931 9.267 0.665
VANMET_231 2016-09-30 00:10:00 231 53281.0 6.785 6.900 7.015 6.810 7.147 94.700 92.900 5.993 5.742 15.200 14.420 11.660 10.040 0.219 0.243 0.231 0.542 0.00 0.00 0.00 0.8470 4.78 5.98 1 1 1 6.818 6.940 7.060 7.208 6.852 6.087 5.794 6.755 6.855 6.966 7.081 6.778 5.893 5.680 1.0580 9.871 9.346 0.523 9.888 9.185 0.702
VANMET_231 2016-09-30 00:05:00 231 53281.0 6.737 6.854 6.952 6.766 7.088 94.700 92.600 5.946 5.655 15.220 14.420 11.660 10.040 0.219 0.243 0.231 0.542 0.00 0.00 0.00 0.7440 8.64 6.72 1 1 1 6.772 6.878 6.968 7.101 6.792 5.987 5.709 6.679 6.818 6.927 7.075 6.738 5.912 5.625 0.9800 9.838 9.316 0.521 9.858 9.130 0.730
VANMET_231 2016-09-30 00:00:00 231 53281.0 6.668 6.774 6.889 6.721 7.014 94.800 92.300 5.904 5.567 15.230 14.420 11.650 10.040 0.219 0.243 0.231 0.542 0.00 0.00 0.00 0.7360 11.69 0.02 1 1 1 6.695 6.814 6.922 7.076 6.752 5.977 5.631 6.645 6.745 6.864 6.982 6.695 5.838 5.530 0.8890 9.792 9.289 0.509 9.828 9.074 0.757
VANMET_231 2016-09-29 23:55:00 231 53281.0 6.636 6.723 6.873 6.723 6.958 95.200 92.700 5.921 5.637 15.250 14.420 11.650 10.040 0.219 0.243 0.231 0.542 0.00 0.00 0.00 0.7460 4.38 4.98 1 1 1 6.655 6.741 6.878 6.976 6.735 5.971 5.690 6.615 6.718 6.864 6.948 6.705 5.867 5.548 0.9280 9.770 9.300 0.469 9.829 9.118 0.718
VANMET_231 2016-09-29 23:50:00 231 53281.0 6.664 6.766 6.899 6.756 6.971 94.600 92.400 5.867 5.615 15.260 14.420 11.650 10.040 0.219 0.243 0.231 0.542 0.00 0.00 0.00 0.7610 11.01 8.23 1 1 1 6.708 6.803 6.928 7.028 6.795 5.929 5.673 6.635 6.724 6.870 6.932 6.708 5.810 5.536 0.8690 9.789 9.265 0.529 9.851 9.104 0.749
VANMET_231 2016-09-29 23:45:00 231 53281.0 6.713 6.828 6.968 6.830 7.055 94.900 92.200 5.952 5.663 15.280 14.420 11.650 10.040 0.219 0.243 0.231 0.542 0.00 0.00 0.00 0.7700 16.79 9.42 1 1 1 6.738 6.841 7.013 7.140 6.867 6.030 5.783 6.685 6.797 6.918 6.985 6.782 5.889 5.565 0.8560 9.822 9.320 0.501 9.902 9.135 0.772
VANMET_231 2016-09-29 23:40:00 231 53281.0 6.776 6.835 6.979 6.883 7.093 94.100 91.900 5.895 5.662 15.290 14.420 11.650 10.040 0.219 0.243 0.231 0.542 0.00 0.00 0.00 0.6340 1.10 14.77 1 1 1 6.814 6.889 7.023 7.166 6.927 5.938 5.852 6.741 6.805 6.945 7.061 6.837 5.834 5.577 0.8890 9.865 9.283 0.582 9.938 9.134 0.805
VANMET_231 2016-09-29 23:35:00 231 53281.0 6.838 6.953 7.070 6.982 7.134 94.600 92.200 6.039 5.808 15.310 14.420 11.650 10.040 0.219 0.243 0.231 0.542 0.00 0.00 0.00 0.6160 4.13 11.99 1 1 1 6.854 6.988 7.126 7.242 7.030 6.099 5.979 6.814 6.896 7.009 7.046 6.924 5.954 5.623 0.6990 9.907 9.376 0.535 10.006 9.227 0.780
VANMET_231 2016-09-29 23:30:00 231 53281.0 6.852 6.968 7.104 6.991 7.210 94.600 92.700 6.050 5.891 15.330 14.420 11.650 10.040 0.219 0.243 0.231 0.542 0.00 0.00 0.00 0.4280 20.91 19.24 1 1 1 6.867 6.987 7.150 7.309 7.033 6.110 6.054 6.830 6.940 7.058 7.142 6.947 5.984 5.682 0.5680 9.917 9.383 0.535 10.012 9.280 0.731
VANMET_231 2016-09-29 23:25:00 231 53281.0 6.873 6.986 7.108 7.019 7.174 94.400 92.200 6.042 5.850 15.340 14.410 11.650 10.040 0.219 0.243 0.231 0.542 0.00 0.00 0.00 0.3970 12.52 3.97 1 1 1 6.917 7.032 7.167 7.256 7.073 6.106 6.030 6.837 6.940 7.062 7.139 6.953 5.951 5.721 0.6140 9.931 9.378 0.556 10.031 9.254 0.782
VANMET_231 2016-09-29 23:20:00 231 53281.0 6.924 7.022 7.172 7.080 7.257 94.600 92.600 6.116 5.970 15.360 14.410 11.650 10.040 0.219 0.243 0.231 0.542 0.00 0.00 0.00 0.6530 11.39 3.40 1 1 1 6.946 7.034 7.180 7.294 7.106 6.155 6.049 6.897 7.013 7.158 7.204 7.063 6.056 5.881 0.8820 9.966 9.426 0.538 10.073 9.331 0.745
VANMET_231 2016-09-29 23:15:00 231 53281.0 6.943 7.047 7.201 7.101 7.260 94.200 91.500 6.081 5.811 15.370 14.410 11.650 10.040 0.219 0.243 0.231 0.542 0.00 0.00 0.00 0.6150 4.31 12.44 1 1 1 6.960 7.069 7.220 7.331 7.126 6.131 5.909 6.920 7.015 7.175 7.195 7.079 6.044 5.680 0.9080 9.979 9.403 0.579 10.088 9.229 0.857
VANMET_231 2016-09-29 23:10:00 231 53281.0 6.963 7.082 7.240 7.121 7.304 93.800 90.900 6.035 5.745 15.390 14.410 11.650 10.040 0.219 0.243 0.231 0.542 0.00 0.00 0.00 0.5360 357.40 11.64 1 1 1 6.983 7.106 7.262 7.361 7.146 6.081 5.783 6.946 7.062 7.215 7.266 7.096 5.989 5.698 0.7250 9.993 9.373 0.620 10.102 9.187 0.919
VANMET_231 2016-09-29 23:05:00 231 53281.0 6.957 7.071 7.242 7.121 7.368 94.000 91.000 6.063 5.753 15.400 14.410 11.650 10.040 0.219 0.243 0.231 0.542 0.00 0.00 0.00 0.4460 332.00 10.76 1 1 1 6.976 7.102 7.256 7.422 7.145 6.129 5.796 6.939 7.049 7.232 7.313 7.099 6.026 5.704 0.6470 9.988 9.391 0.599 10.102 9.192 0.909
VANMET_231 2016-09-29 23:00:00 231 53281.0 6.951 7.037 7.207 7.083 7.374 94.100 91.300 6.071 5.772 15.420 14.410 11.650 10.040 0.219 0.243 0.231 0.542 0.00 0.00 0.00 0.5480 319.90 20.25 1 1 1 6.966 7.048 7.221 7.424 7.105 6.121 5.845 6.936 7.031 7.194 7.324 7.069 6.026 5.712 0.8560 9.984 9.397 0.589 10.075 9.204 0.877
VANMET_231 2016-09-29 22:55:00 231 53281.0 6.938 7.050 7.217 7.082 7.382 94.600 92.000 6.143 5.875 15.430 14.410 11.650 10.040 0.219 0.243 0.231 0.542 0.00 0.00 0.00 0.5750 344.00 8.05 1 1 1 6.959 7.063 7.230 7.432 7.099 6.184 5.933 6.909 7.030 7.198 7.338 7.058 6.103 5.819 0.8170 9.975 9.444 0.539 10.075 9.270 0.806
VANMET_231 2016-09-29 22:50:00 231 53281.0 6.892 7.001 7.162 7.071 7.286 95.200 92.300 6.178 5.910 15.450 14.400 11.650 10.040 0.219 0.243 0.231 0.542 0.00 0.00 0.00 0.5990 350.50 19.59 1 1 1 6.919 7.026 7.191 7.347 7.095 6.214 5.949 6.869 6.976 7.143 7.238 7.049 6.131 5.866 0.8230 9.944 9.466 0.477 10.067 9.292 0.775
VANMET_231 2016-09-29 22:45:00 231 53281.0 6.892 7.005 7.192 7.135 7.293 95.000 92.000 6.152 5.923 15.460 14.400 11.650 10.040 0.219 0.243 0.231 0.542 0.00 0.00 0.00 0.6120 359.00 8.40 1 1 1 6.919 7.036 7.227 7.460 7.165 6.194 5.948 6.859 6.981 7.153 7.240 7.098 6.123 5.880 0.7640 9.944 9.449 0.497 10.111 9.301 0.809
VANMET_231 2016-09-29 22:40:00 231 53281.0 6.928 7.023 7.199 7.127 7.278 94.900 92.700 6.167 6.028 15.480 14.400 11.650 10.040 0.219 0.243 0.231 0.542 0.00 0.00 0.00 0.5390 17.14 11.03 1 1 1 7.018 7.083 7.224 7.537 7.165 6.257 6.114 6.889 6.989 7.172 7.133 7.095 6.130 5.928 1.0130 9.969 9.459 0.508 10.106 9.369 0.738
VANMET_231 2016-09-29 22:35:00 231 53281.0 7.058 7.114 7.270 7.227 7.338 94.900 92.400 6.296 6.090 15.490 14.400 11.650 10.040 0.219 0.243 0.231 0.542 0.00 0.00 0.00 0.6480 6.74 10.56 1 1 1 7.101 7.158 7.308 7.375 7.267 6.342 6.158 7.008 7.081 7.220 7.273 7.171 6.245 5.959 0.8620 10.058 9.544 0.513 10.175 9.409 0.773
VANMET_231 2016-09-29 22:30:00 231 53281.0 7.134 7.197 7.344 7.300 7.460 94.600 91.900 6.338 6.076 15.510 14.390 11.650 10.040 0.219 0.243 0.231 0.542 0.00 0.00 0.00 0.2170 316.80 41.17 1 1 1 7.178 7.230 7.377 7.561 7.337 6.397 6.127 7.098 7.166 7.313 7.384 7.254 6.302 5.990 0.6470 10.111 9.572 0.546 10.226 9.400 0.828
VANMET_231 2016-09-29 22:25:00 231 53281.0 7.250 7.306 7.465 7.411 7.476 94.100 92.100 6.367 6.213 15.520 14.390 11.650 10.040 0.219 0.243 0.231 0.542 0.00 0.00 0.00 0.3200 0.87 48.53 1 1 1 7.327 7.390 7.550 7.567 7.493 6.460 6.266 7.171 7.234 7.385 7.409 7.340 6.297 6.149 0.7380 10.191 9.591 0.601 10.304 9.489 0.814
VANMET_231 2016-09-29 22:20:00 231 53281.0 7.386 7.455 7.623 7.584 7.649 94.100 91.400 6.505 6.279 15.530 14.390 11.650 10.040 0.219 0.243 0.231 0.542 0.00 0.00 0.00 0.3580 320.60 7.57 1 1 1 7.449 7.524 7.700 7.723 7.665 6.603 6.372 7.330 7.396 7.563 7.574 7.509 6.435 6.198 0.5360 10.287 9.683 0.607 10.427 9.533 0.897
VANMET_231 2016-09-29 22:15:00 231 53281.0 7.473 7.562 7.744 7.700 7.833 94.200 91.200 6.615 6.361 15.550 14.390 11.650 10.040 0.219 0.243 0.231 0.542 0.00 0.00 0.00 0.3850 343.50 21.63 1 1 1 7.509 7.583 7.767 7.936 7.738 6.688 6.464 7.423 7.529 7.709 7.736 7.662 6.563 6.279 0.7510 10.348 9.756 0.600 10.510 9.587 0.925
VANMET_231 2016-09-29 22:10:00 231 53281.0 7.525 7.606 7.809 7.804 7.884 94.200 90.900 6.666 6.421 15.560 14.380 11.650 10.040 0.219 0.243 0.231 0.542 0.00 0.00 0.00 0.4090 319.20 40.71 1 1 1 7.565 7.626 7.861 7.919 7.871 6.707 6.476 7.499 7.589 7.769 7.839 7.745 6.634 6.373 0.5620 10.385 9.791 0.602 10.585 9.627 0.963
VANMET_231 2016-09-29 22:05:00 231 53281.0 7.667 7.731 7.964 7.944 7.948 94.200 90.900 6.796 6.549 15.570 14.380 11.640 10.040 0.219 0.243 0.231 0.542 0.00 0.00 0.00 0.2730 332.20 16.22 1 1 1 7.745 7.840 8.040 8.070 8.020 6.877 6.632 7.565 7.632 7.868 7.853 7.868 6.687 6.354 0.5100 10.486 9.879 0.608 10.686 9.712 0.972
VANMET_231 2016-09-29 22:00:00 231 53281.0 7.779 7.909 8.140 8.100 8.170 93.600 89.800 6.824 6.524 15.590 14.380 11.640 10.040 0.219 0.243 0.231 0.542 0.00 0.00 0.00 0.1850 20.27 9.71 1 1 1 7.811 7.958 8.220 8.220 8.150 6.851 6.688 7.744 7.844 8.050 8.090 8.040 6.766 6.366 0.3920 10.567 9.898 0.676 10.800 9.695 1.102
VANMET_231 2016-09-29 21:55:00 231 53281.0 7.827 7.995 8.250 8.150 8.460 93.400 89.600 6.828 6.540 15.600 14.370 11.640 10.040 0.219 0.243 0.231 0.542 0.00 0.00 0.00 0.1140 55.32 4.94 1 1 1 7.868 8.040 8.300 8.830 8.200 6.873 6.723 7.791 7.943 8.160 8.190 8.080 6.704 6.352 0.6340 10.601 9.900 0.700 10.837 9.706 1.127
VANMET_231 2016-09-29 21:50:00 231 53281.0 7.843 7.992 8.190 8.100 8.310 94.100 90.800 6.965 6.691 15.610 14.370 11.640 10.040 0.219 0.243 0.231 0.542 0.00 0.00 0.00 0.1950 11.53 1.90 1 1 1 7.870 8.030 8.220 8.400 8.130 7.014 6.805 7.807 7.945 8.150 8.240 8.070 6.863 6.523 0.5550 10.613 9.994 0.626 10.800 9.807 0.994
VANMET_231 2016-09-29 21:45:00 231 53281.0 7.860 8.010 8.170 8.080 8.300 94.100 91.000 6.973 6.707 15.630 14.360 11.640 10.040 0.219 0.243 0.231 0.542 0.00 0.00 0.00 0.0210 86.00 0.00 1 1 1 7.887 8.020 8.170 8.420 8.090 6.996 6.787 7.837 8.000 8.160 8.260 8.070 6.942 6.615 0.2090 10.625 9.999 0.627 10.786 9.818 0.971
VANMET_231 2016-09-29 21:40:00 231 53281.0 7.862 8.020 8.190 8.110 8.270 93.900 90.800 6.953 6.699 15.640 14.360 11.640 10.040 0.219 0.243 0.231 0.542 0.00 0.00 0.00 0.0000 0.00 0.00 1 1 1 7.893 8.060 8.220 8.400 8.130 7.007 6.745 7.844 8.010 8.170 8.240 8.090 6.905 6.661 0.0000 10.627 9.986 0.648 10.808 9.813 0.994
VANMET_231 2016-09-29 21:35:00 231 53281.0 7.865 8.030 8.180 8.070 8.320 94.100 91.100 6.980 6.713 15.650 14.360 11.640 10.040 0.219 0.243 0.231 0.542 0.00 0.00 0.00 0.0130 70.04 20.38 1 1 1 7.887 8.060 8.210 8.430 8.100 7.039 6.792 7.840 8.000 8.170 8.260 8.020 6.936 6.656 0.1180 10.629 10.004 0.627 10.778 9.822 0.959
VANMET_231 2016-09-29 21:30:00 231 53281.0 7.851 8.000 8.180 8.060 8.220 94.000 91.200 6.949 6.715 15.660 14.350 11.640 10.040 0.219 0.243 0.231 0.542 0.00 0.00 0.00 0.4000 328.30 11.13 1 1 1 7.873 8.030 8.220 8.310 8.090 6.982 6.761 7.833 7.982 8.140 8.170 8.030 6.909 6.662 0.6270 10.619 9.983 0.637 10.771 9.824 0.948
VANMET_231 2016-09-29 21:25:00 231 53281.0 7.821 8.020 8.230 8.080 8.380 93.800 90.800 6.896 6.680 15.670 14.350 11.640 10.040 0.219 0.243 0.231 0.542 0.00 0.00 0.00 0.2150 268.90 29.39 1 1 1 7.847 8.040 8.260 8.610 8.100 6.933 6.706 7.797 8.000 8.190 8.260 8.050 6.866 6.652 0.4700 10.597 9.947 0.657 10.786 9.800 0.992
VANMET_231 2016-09-29 21:20:00 231 53281.0 7.785 7.944 8.120 7.972 8.320 94.100 91.500 6.898 6.685 15.690 14.340 11.640 10.040 0.219 0.243 0.231 0.542 0.00 0.00 0.00 0.2700 301.40 13.32 1 1 1 7.807 8.000 8.190 8.540 8.020 6.944 6.723 7.750 7.869 8.030 8.190 7.876 6.846 6.620 1.0850 10.571 9.948 0.624 10.707 9.803 0.910
VANMET_231 2016-09-29 21:15:00 231 53281.0 7.742 7.840 7.989 7.871 8.180 93.700 91.500 6.802 6.587 15.700 14.340 11.640 10.040 0.219 0.243 0.231 0.542 0.00 0.00 0.00 0.5250 312.30 23.78 1 1 1 7.763 7.866 8.030 8.260 7.909 6.844 6.662 7.723 7.820 7.967 8.150 7.856 6.775 6.546 0.7580 10.540 9.883 0.664 10.633 9.737 0.904
VANMET_231 2016-09-29 21:10:00 231 53281.0 7.732 7.831 7.984 7.877 8.130 93.900 91.400 6.821 6.573 15.710 14.330 11.640 10.040 0.219 0.243 0.231 0.542 0.00 0.00 0.00 0.2870 327.80 8.53 1 1 1 7.746 7.858 8.010 8.150 7.899 6.865 6.618 7.716 7.814 7.967 8.100 7.846 6.776 6.544 0.5420 10.533 9.896 0.642 10.637 9.728 0.915
VANMET_231 2016-09-29 21:05:00 231 53281.0 7.725 7.852 8.010 7.885 8.150 94.100 91.400 6.845 6.579 15.720 14.330 11.640 10.040 0.219 0.243 0.231 0.542 0.00 0.00 0.00 0.0000 0.00 0.00 1 1 1 7.749 7.861 8.020 8.220 7.902 6.895 6.631 7.706 7.840 7.990 8.110 7.848 6.771 6.537 0.0000 10.528 9.912 0.621 10.643 9.732 0.915
VANMET_231 2016-09-29 21:00:00 231 53281.0 7.702 7.810 7.985 7.855 8.110 93.900 91.600 6.794 6.579 15.730 14.320 11.640 10.030 0.219 0.243 0.231 0.542 0.00 0.00 0.00 0.0670 270.20 10.16 1 1 1 7.729 7.836 8.000 8.150 7.875 6.837 6.615 7.669 7.764 7.951 8.070 7.835 6.740 6.543 0.2810 10.511 9.877 0.641 10.622 9.732 0.892
VANMET_231 2016-09-29 20:55:00 231 53281.0 7.709 7.761 7.946 7.864 8.070 93.700 91.400 6.761 6.552 15.740 14.320 11.640 10.030 0.219 0.243 0.231 0.542 0.00 0.00 0.00 0.4290 318.30 37.54 1 1 1 7.729 7.773 7.961 8.120 7.888 6.789 6.583 7.676 7.745 7.927 8.050 7.839 6.731 6.523 0.8040 10.516 9.855 0.663 10.628 9.714 0.914
VANMET_231 2016-09-29 20:50:00 231 53281.0 7.758 7.800 7.980 7.919 8.110 93.600 91.200 6.796 6.585 15.750 14.310 11.640 10.030 0.219 0.243 0.231 0.542 0.00 0.00 0.00 0.6160 357.90 7.24 1 1 1 7.795 7.827 8.010 8.170 7.954 6.849 6.646 7.719 7.767 7.949 8.060 7.875 6.724 6.523 0.7970 10.551 9.879 0.675 10.668 9.736 0.939
VANMET_231 2016-09-29 20:45:00 231 53281.0 7.839 7.882 8.040 7.979 8.150 93.700 91.300 6.901 6.650 15.760 14.310 11.640 10.030 0.219 0.243 0.231 0.542 0.00 0.00 0.00 0.4610 322.60 29.35 1 1 1 7.881 7.934 8.090 8.260 8.020 6.990 6.718 7.791 7.830 8.010 8.110 7.938 6.836 6.599 0.7120 10.610 9.950 0.668 10.712 9.780 0.932
VANMET_231 2016-09-29 20:40:00 231 53281.0 7.886 7.915 8.060 7.999 8.230 93.700 91.500 6.943 6.702 15.760 14.300 11.640 10.030 0.219 0.243 0.231 0.542 0.00 0.00 0.00 0.5860 323.70 24.64 1 1 1 7.930 7.941 8.090 8.410 8.020 6.992 6.743 7.854 7.888 8.030 8.160 7.957 6.879 6.635 0.7640 10.644 9.979 0.671 10.726 9.815 0.912
VANMET_231 2016-09-29 20:35:00 231 53281.0 7.981 7.995 8.150 8.080 8.300 93.500 91.500 7.009 6.777 15.770 14.290 11.640 10.030 0.219 0.243 0.231 0.542 0.00 0.00 0.00 0.5780 326.90 26.08 1 1 1 8.020 8.020 8.170 8.390 8.110 7.120 6.831 7.933 7.948 8.100 8.210 8.030 6.950 6.737 0.8490 10.713 10.024 0.696 10.786 9.866 0.917
VANMET_231 2016-09-29 20:30:00 231 53281.0 8.030 8.100 8.230 8.160 8.310 94.100 92.300 7.145 6.987 15.780 14.290 11.640 10.030 0.219 0.243 0.231 0.542 0.00 0.00 0.00 0.6960 350.80 16.14 1 1 1 8.080 8.170 8.310 8.400 8.220 7.204 7.130 7.995 8.030 8.160 8.270 8.100 7.099 6.843 0.9020 10.749 10.118 0.634 10.844 10.009 0.835
VANMET_231 2016-09-29 20:25:00 231 53281.0 8.100 8.180 8.320 8.230 8.460 94.200 93.000 7.224 7.166 15.790 14.280 11.630 10.030 0.219 0.243 0.231 0.542 0.00 0.00 0.00 0.7150 19.94 6.04 1 1 1 8.120 8.190 8.330 8.500 8.250 7.281 7.225 8.060 8.170 8.300 8.410 8.210 7.159 7.099 0.9410 10.800 10.173 0.626 10.896 10.133 0.763
VANMET_231 2016-09-29 20:20:00 231 53281.0 8.120 8.180 8.320 8.240 8.440 94.200 92.500 7.254 7.111 15.800 14.280 11.630 10.030 0.219 0.243 0.231 0.542 0.00 0.00 0.00 0.6950 4.29 3.29 1 1 1 8.150 8.210 8.360 8.460 8.290 7.303 7.127 8.090 8.160 8.300 8.420 8.210 7.189 7.089 0.8890 10.815 10.194 0.627 10.904 10.095 0.818
VANMET_231 2016-09-29 20:15:00 231 53281.0 8.190 8.280 8.430 8.310 8.510 93.900 91.800 7.270 7.071 15.800 14.270 11.630 10.030 0.219 0.243 0.231 0.542 0.00 0.00 0.00 0.7190 6.17 7.22 1 1 1 8.240 8.360 8.480 8.590 8.350 7.303 7.118 8.130 8.210 8.370 8.430 8.280 7.243 6.995 0.9800 10.867 10.205 0.663 10.956 10.067 0.898
VANMET_231 2016-09-29 20:10:00 231 53281.0 8.270 8.410 8.520 8.410 8.600 93.600 91.400 7.314 7.097 15.810 14.260 11.630 10.030 0.219 0.243 0.231 0.542 0.00 0.00 0.00 0.6050 31.05 11.08 1 1 1 8.310 8.440 8.560 8.660 8.470 7.360 7.153 8.230 8.370 8.480 8.560 8.350 7.271 7.017 0.8040 10.926 10.236 0.699 11.030 10.085 0.949
VANMET_231 2016-09-29 20:05:00 231 53281.0 8.350 8.480 8.610 8.500 8.700 93.600 91.700 7.384 7.227 15.820 14.260 11.630 10.030 0.219 0.243 0.231 0.542 0.00 0.00 0.00 0.5920 25.55 13.90 1 1 1 8.390 8.510 8.630 8.730 8.540 7.461 7.278 8.290 8.450 8.570 8.650 8.470 7.289 7.182 0.8560 10.985 10.285 0.703 11.098 10.175 0.921
VANMET_231 2016-09-29 20:00:00 231 53281.0 8.420 8.520 8.660 8.580 8.740 93.400 91.500 7.417 7.284 15.820 14.250 11.630 10.030 0.219 0.243 0.231 0.542 0.00 0.00 0.00 0.5500 19.37 7.53 1 1 1 8.520 8.560 8.680 8.780 8.610 7.501 7.349 8.350 8.490 8.620 8.700 8.540 7.344 7.216 0.7060 11.038 10.308 0.728 11.158 10.215 0.948
VANMET_231 2016-09-29 19:55:00 231 53281.0 8.540 8.600 8.730 8.660 8.790 92.900 91.600 7.470 7.372 15.830 14.240 11.630 10.030 0.219 0.243 0.231 0.542 0.00 0.00 0.00 0.3870 11.98 5.06 1 1 1 8.600 8.630 8.770 8.870 8.700 7.504 7.399 8.490 8.560 8.680 8.720 8.600 7.451 7.281 0.5620 11.128 10.346 0.790 11.219 10.277 0.942
VANMET_231 2016-09-29 19:50:00 231 53281.0 8.680 8.670 8.810 8.760 8.890 92.500 91.000 7.539 7.381 15.830 14.240 11.630 10.030 0.219 0.243 0.231 0.542 0.00 0.00 0.00 0.4010 353.40 12.31 1 1 1 8.730 8.700 8.840 8.950 8.810 7.580 7.438 8.600 8.630 8.770 8.810 8.710 7.492 7.318 0.5360 11.234 10.395 0.843 11.295 10.283 1.017
VANMET_231 2016-09-29 19:45:00 231 53281.0 8.760 8.750 8.880 8.850 9.010 92.100 90.200 7.551 7.343 15.830 14.230 11.630 10.030 0.219 0.243 0.231 0.542 0.00 0.00 0.00 0.4490 335.30 1.92 1 1 1 8.790 8.790 8.920 9.070 8.890 7.631 7.375 8.710 8.710 8.840 8.950 8.810 7.504 7.293 0.5550 11.295 10.403 0.892 11.364 10.256 1.114
VANMET_231 2016-09-29 19:40:00 231 53281.0 8.820 8.840 8.970 8.920 9.130 91.500 89.600 7.524 7.312 15.840 14.220 11.630 10.030 0.219 0.243 0.231 0.542 0.00 0.00 0.00 0.3170 318.70 14.98 1 1 1 8.860 8.880 9.010 9.180 8.970 7.566 7.354 8.780 8.800 8.930 9.060 8.880 7.491 7.283 0.5360 11.341 10.384 0.964 11.418 10.235 1.187
VANMET_231 2016-09-29 19:35:00 231 53281.0 8.880 8.930 9.080 8.990 9.190 91.600 90.100 7.599 7.457 15.840 14.210 11.630 10.030 0.220 0.243 0.231 0.542 0.00 0.00 0.00 0.3550 291.80 51.21 1 1 1 8.910 8.970 9.120 9.220 9.010 7.687 7.520 8.850 8.890 9.020 9.170 8.950 7.502 7.338 0.7970 11.387 10.438 0.957 11.472 10.337 1.136
VANMET_231 2016-09-29 19:30:00 231 53281.0 8.930 8.990 9.130 9.020 9.250 91.800 89.500 7.672 7.386 15.840 14.210 11.630 10.030 0.220 0.243 0.231 0.542 0.00 0.00 0.00 0.3780 333.40 24.48 1 1 1 8.960 9.000 9.140 9.300 9.040 7.721 7.485 8.900 8.970 9.120 9.230 9.000 7.623 7.312 0.5620 11.426 10.490 0.937 11.495 10.287 1.207
VANMET_231 2016-09-29 19:25:00 231 53281.0 8.970 9.020 9.160 9.060 9.290 91.600 89.300 7.681 7.397 15.850 14.200 11.630 10.030 0.220 0.243 0.231 0.542 0.00 0.00 0.00 0.4800 352.50 12.16 1 1 1 9.010 9.040 9.180 9.370 9.070 7.730 7.478 8.950 9.010 9.140 9.240 9.030 7.641 7.306 0.6400 11.457 10.496 0.962 11.526 10.294 1.233
VANMET_231 2016-09-29 19:20:00 231 53281.0 9.020 9.070 9.200 9.100 9.330 91.600 89.300 7.727 7.433 15.850 14.190 11.630 10.030 0.220 0.243 0.231 0.542 0.00 0.00 0.00 0.5470 351.50 11.98 1 1 1 9.050 9.080 9.220 9.350 9.130 7.786 7.507 8.980 9.050 9.180 9.310 9.060 7.673 7.350 0.7060 11.495 10.529 0.966 11.558 10.320 1.237
VANMET_231 2016-09-29 19:15:00 231 53281.0 9.070 9.130 9.260 9.150 9.360 91.300 89.500 7.727 7.521 15.850 14.180 11.630 10.030 0.220 0.243 0.231 0.542 0.00 0.00 0.00 0.5640 358.50 3.09 1 1 1 9.100 9.160 9.290 9.420 9.170 7.787 7.570 9.030 9.080 9.220 9.320 9.120 7.661 7.443 0.6270 11.534 10.529 1.003 11.597 10.382 1.218
VANMET_231 2016-09-29 19:10:00 231 53281.0 9.100 9.180 9.310 9.190 9.440 91.900 89.800 7.856 7.621 15.850 14.180 11.630 10.030 0.220 0.243 0.231 0.542 0.00 0.00 0.00 0.6080 358.60 5.79 1 1 1 9.110 9.190 9.330 9.470 9.210 7.897 7.679 9.080 9.160 9.290 9.390 9.170 7.747 7.540 0.7910 11.558 10.622 0.936 11.628 10.453 1.186
VANMET_231 2016-09-29 19:05:00 231 53281.0 9.090 9.190 9.330 9.200 9.450 91.700 89.400 7.829 7.546 15.850 14.170 11.630 10.030 0.220 0.243 0.231 0.542 0.00 0.00 0.00 0.4960 348.30 22.99 1 1 1 9.100 9.200 9.330 9.500 9.210 7.891 7.645 9.080 9.180 9.320 9.430 9.180 7.772 7.438 0.7320 11.550 10.603 0.959 11.636 10.400 1.233
VANMET_231 2016-09-29 19:00:00 231 53281.0 9.120 9.230 9.350 9.230 9.450 91.700 88.900 7.844 7.511 15.850 14.160 11.630 10.030 0.220 0.243 0.231 0.542 0.00 0.00 0.00 0.5370 4.49 6.16 1 1 1 9.150 9.260 9.380 9.470 9.260 7.936 7.587 9.090 9.200 9.330 9.430 9.190 7.756 7.429 0.7120 11.573 10.614 0.961 11.659 10.375 1.294
VANMET_231 2016-09-29 18:55:00 231 53281.0 9.170 9.270 9.410 9.300 9.480 91.900 89.700 7.936 7.710 15.850 14.150 11.620 10.030 0.220 0.243 0.231 0.542 0.00 0.00 0.00 0.3310 8.11 12.50 1 1 1 9.230 9.300 9.440 9.500 9.340 7.969 7.777 9.110 9.260 9.380 9.420 9.270 7.887 7.612 0.7120 11.612 10.680 0.941 11.715 10.517 1.207
VANMET_231 2016-09-29 18:50:00 231 53281.0 9.250 9.320 9.460 9.360 9.560 90.800 88.900 7.843 7.639 15.840 14.150 11.620 10.030 0.220 0.243 0.231 0.542 0.00 0.00 0.00 0.2840 358.20 4.97 1 1 1 9.280 9.350 9.490 9.590 9.390 7.903 7.701 9.220 9.310 9.450 9.530 9.330 7.797 7.549 0.4700 11.675 10.613 1.074 11.762 10.466 1.306
VANMET_231 2016-09-29 18:45:00 231 53281.0 9.300 9.370 9.510 9.410 9.620 91.100 89.200 7.929 7.722 15.840 14.140 11.620 10.030 0.220 0.243 0.231 0.542 0.00 0.00 0.00 0.3870 350.60 15.27 1 1 1 9.330 9.380 9.520 9.660 9.430 7.974 7.820 9.270 9.350 9.490 9.600 9.380 7.843 7.619 0.6140 11.715 10.675 1.043 11.802 10.526 1.275
VANMET_231 2016-09-29 18:40:00 231 53281.0 9.340 9.400 9.540 9.450 9.640 90.900 88.600 7.939 7.678 15.840 14.130 11.620 10.030 0.220 0.243 0.231 0.542 0.00 0.00 0.00 0.3980 358.50 6.24 1 1 1 9.370 9.420 9.560 9.660 9.480 7.976 7.722 9.310 9.380 9.510 9.610 9.420 7.898 7.605 0.5230 11.746 10.683 1.069 11.833 10.494 1.349
VANMET_231 2016-09-29 18:35:00 231 53281.0 9.370 9.430 9.580 9.480 9.690 90.400 88.100 7.894 7.616 15.830 14.120 11.620 10.030 0.220 0.243 0.231 0.542 0.00 0.00 0.00 0.4660 346.70 8.82 1 1 1 9.400 9.450 9.600 9.720 9.520 8.000 7.717 9.350 9.410 9.560 9.650 9.450 7.809 7.533 0.6990 11.770 10.650 1.130 11.857 10.450 1.411
VANMET_231 2016-09-29 18:30:00 231 53281.0 9.410 9.460 9.610 9.520 9.740 90.100 87.700 7.885 7.587 15.830 14.110 11.620 10.030 0.220 0.243 0.231 0.542 0.00 0.00 0.00 0.4840 339.70 9.80 1 1 1 9.440 9.480 9.630 9.770 9.540 7.962 7.658 9.370 9.440 9.590 9.720 9.500 7.777 7.520 0.6210 11.802 10.643 1.168 11.889 10.429 1.462
VANMET_231 2016-09-29 18:25:00 231 53281.0 9.450 9.500 9.640 9.540 9.790 89.800 87.400 7.880 7.562 15.820 14.110 11.620 10.030 0.220 0.243 0.231 0.542 0.00 0.00 0.00 0.4620 335.00 15.59 1 1 1 9.490 9.520 9.650 9.850 9.570 7.978 7.676 9.420 9.480 9.630 9.740 9.520 7.822 7.486 0.6730 11.833 10.640 1.207 11.905 10.411 1.500
VANMET_231 2016-09-29 18:20:00 231 53281.0 9.510 9.550 9.670 9.580 9.770 89.700 87.100 7.913 7.547 15.810 14.100 11.620 10.030 0.220 0.243 0.231 0.542 0.00 0.00 0.00 0.5570 353.80 7.18 1 1 1 9.560 9.590 9.710 9.810 9.620 8.000 7.624 9.470 9.520 9.640 9.750 9.540 7.842 7.508 0.7320 11.881 10.664 1.224 11.937 10.401 1.540
VANMET_231 2016-09-29 18:15:00 231 53281.0 9.580 9.630 9.750 9.650 9.860 89.600 87.400 7.960 7.667 15.800 14.090 11.620 10.030 0.220 0.243 0.231 0.542 0.00 0.00 0.00 0.5590 1.30 4.07 1 1 1 9.610 9.670 9.780 9.890 9.700 8.090 7.904 9.540 9.590 9.710 9.810 9.610 7.874 7.573 0.6860 11.937 10.698 1.241 11.994 10.486 1.511
VANMET_231 2016-09-29 18:10:00 231 53281.0 9.620 9.690 9.810 9.710 9.900 90.200 88.100 8.100 7.842 15.790 14.080 11.620 10.030 0.220 0.243 0.231 0.542 0.00 0.00 0.00 0.6160 1.23 1.11 1 1 1 9.640 9.710 9.830 9.950 9.740 8.180 7.947 9.600 9.670 9.790 9.870 9.680 8.010 7.759 0.7910 11.970 10.800 1.173 12.042 10.612 1.433
VANMET_231 2016-09-29 18:05:00 231 53281.0 9.630 9.720 9.830 9.740 9.950 89.800 87.800 8.050 7.819 15.780 14.080 11.620 10.030 0.220 0.243 0.231 0.542 0.30 0.00 0.00 0.6060 0.28 0.51 1 1 1 9.650 9.730 9.840 9.990 9.760 8.160 7.976 9.610 9.710 9.820 9.920 9.720 7.972 7.670 0.7120 11.978 10.764 1.222 12.066 10.595 1.472
VANMET_231 2016-09-29 18:00:00 231 53281.0 9.670 9.740 9.850 9.790 9.930 89.700 86.700 8.080 7.683 15.770 14.070 11.620 10.030 0.220 0.243 0.231 0.542 1.33 0.00 0.00 0.4580 347.00 10.36 1 1 1 9.710 9.760 9.890 9.970 9.830 8.150 7.740 9.640 9.720 9.830 9.920 9.750 7.957 7.644 0.6470 12.010 10.786 1.237 12.107 10.498 1.610
VANMET_231 2016-09-29 17:55:00 231 53281.0 9.730 9.790 9.920 9.860 10.010 89.700 86.800 8.130 7.783 15.760 14.060 11.620 10.030 0.220 0.243 0.231 0.542 1.25 0.00 0.00 0.3600 344.00 15.14 1 1 1 9.760 9.810 9.950 10.030 9.890 8.190 7.872 9.700 9.760 9.890 9.970 9.830 8.080 7.677 0.5880 12.058 10.822 1.242 12.164 10.569 1.606
VANMET_231 2016-09-29 17:50:00 231 53281.0 9.800 9.850 9.980 9.940 10.070 89.100 86.400 8.090 7.784 15.750 14.050 11.610 10.030 0.220 0.243 0.231 0.542 3.40 0.00 0.00 0.4630 319.00 16.49 1 1 1 9.840 9.890 10.010 10.130 9.990 8.160 7.862 9.760 9.820 9.950 10.020 9.890 7.992 7.703 0.7380 12.115 10.793 1.321 12.229 10.570 1.663
VANMET_231 2016-09-29 17:45:00 231 53281.0 9.850 9.910 10.040 10.040 10.120 89.200 86.400 8.170 7.874 15.730 14.040 11.610 10.030 0.220 0.243 0.231 0.542 5.25 0.00 0.00 0.3310 332.20 30.89 1 1 1 9.890 9.940 10.080 10.140 10.100 8.220 7.982 9.820 9.890 10.010 10.110 9.980 8.150 7.776 0.4640 12.156 10.852 1.313 12.312 10.635 1.674
VANMET_231 2016-09-29 17:40:00 231 53281.0 9.930 9.990 10.140 10.160 10.170 89.000 86.400 8.210 8.010 15.720 14.040 11.610 10.030 0.220 0.243 0.231 0.542 6.43 0.00 0.00 0.4280 347.90 18.94 1 1 1 10.010 10.050 10.210 10.190 10.240 8.330 8.130 9.880 9.940 10.090 10.140 10.090 8.150 7.932 0.7060 12.221 10.881 1.344 12.411 10.734 1.688
VANMET_231 2016-09-29 17:35:00 231 53281.0 10.070 10.130 10.280 10.320 10.270 88.600 85.800 8.280 8.050 15.700 14.030 11.610 10.030 0.220 0.243 0.231 0.542 9.57 0.00 0.00 0.4940 8.19 6.33 1 1 1 10.120 10.200 10.360 10.350 10.400 8.340 8.100 10.000 10.060 10.210 10.220 10.220 8.240 7.977 0.9730 12.336 10.933 1.406 12.545 10.764 1.781
VANMET_231 2016-09-29 17:30:00 231 53281.0 10.180 10.260 10.430 10.470 10.450 88.400 84.300 8.350 7.937 15.690 14.020 11.610 10.030 0.220 0.243 0.231 0.542 12.87 0.00 0.00 0.3360 344.60 25.14 1 1 1 10.220 10.310 10.480 10.580 10.520 8.450 8.090 10.130 10.210 10.370 10.350 10.410 8.280 7.693 0.5880 12.428 10.985 1.442 12.671 10.681 1.989
VANMET_231 2016-09-29 17:25:00 231 53281.0 10.290 10.340 10.540 10.580 10.570 88.200 84.900 8.430 8.170 15.670 14.020 11.610 10.030 0.220 0.243 0.231 0.542 15.44 0.00 0.00 0.3690 353.80 43.95 1 1 1 10.380 10.430 10.600 10.740 10.670 8.630 8.390 10.200 10.290 10.490 10.470 10.510 8.060 7.748 0.6080 12.519 11.045 1.477 12.764 10.852 1.927
VANMET_231 2016-09-29 17:20:00 231 53281.0 10.500 10.520 10.670 10.760 10.640 88.300 85.000 8.650 8.340 15.650 14.010 11.610 10.030 0.220 0.243 0.231 0.542 19.76 0.00 0.00 0.5010 355.70 17.86 1 1 1 10.600 10.630 10.750 10.740 10.860 8.760 8.490 10.390 10.430 10.600 10.580 10.660 8.550 8.040 0.7840 12.696 11.211 1.485 12.918 10.978 1.938
VANMET_231 2016-09-29 17:15:00 231 53281.0 10.670 10.710 10.850 10.920 10.780 87.500 84.400 8.690 8.400 15.630 14.000 11.610 10.030 0.220 0.243 0.231 0.542 24.28 0.00 0.00 0.3630 340.90 17.13 1 1 1 10.740 10.790 10.930 10.900 10.980 8.820 8.450 10.610 10.630 10.760 10.580 10.870 8.640 8.270 0.4830 12.841 11.242 1.605 13.056 11.023 2.037
VANMET_231 2016-09-29 17:10:00 231 53281.0 10.810 10.840 11.000 11.060 10.960 86.300 83.400 8.620 8.360 15.610 13.990 11.610 10.030 0.220 0.243 0.231 0.542 25.92 0.00 0.00 0.4350 328.90 8.48 1 1 1 10.900 10.910 11.080 11.000 11.140 8.700 8.460 10.740 10.790 10.940 10.900 11.000 8.530 8.250 0.6990 12.961 11.188 1.776 13.179 10.993 2.188
VANMET_231 2016-09-29 17:05:00 231 53281.0 10.990 11.010 11.180 11.230 11.070 84.900 82.300 8.570 8.340 15.590 13.990 11.610 10.030 0.220 0.243 0.231 0.542 30.21 0.00 0.00 0.4490 301.00 14.31 1 1 1 11.110 11.100 11.270 11.140 11.350 8.650 8.440 10.890 10.920 11.090 10.980 11.140 8.460 8.210 0.7840 13.117 11.151 1.981 13.328 10.978 2.359
VANMET_231 2016-09-29 17:00:00 231 53281.0 11.270 11.250 11.420 11.510 11.250 83.000 80.400 8.510 8.270 15.570 13.980 11.610 10.030 0.220 0.243 0.231 0.542 33.26 0.00 0.00 0.5150 274.10 15.05 1 1 1 11.430 11.400 11.530 11.350 11.650 8.640 8.390 11.130 11.110 11.280 11.120 11.360 8.380 8.170 0.8230 13.364 11.105 2.272 13.578 10.926 2.661
VANMET_231 2016-09-29 16:55:00 231 53281.0 11.620 11.580 11.710 11.820 11.510 81.700 79.450 8.600 8.390 15.550 13.970 11.610 10.030 0.220 0.243 0.231 0.542 36.69 0.00 0.00 0.4220 265.40 21.78 1 1 1 11.780 11.720 11.870 11.650 11.990 8.700 8.560 11.440 11.420 11.540 11.330 11.670 8.500 8.200 0.6990 13.677 11.173 2.503 13.859 11.015 2.848
VANMET_231 2016-09-29 16:50:00 231 53281.0 11.970 11.920 12.060 12.130 11.810 79.880 77.740 8.620 8.370 15.530 13.970 11.610 10.030 0.220 0.243 0.231 0.542 40.56 0.00 0.00 0.4640 244.00 20.30 1 1 1 12.070 12.050 12.190 11.970 12.250 8.660 8.500 11.830 11.740 11.880 11.640 12.000 8.540 8.120 0.6860 13.997 11.188 2.816 14.145 11.000 3.149
VANMET_231 2016-09-29 16:45:00 231 53281.0 12.200 12.190 12.330 12.370 12.160 77.870 75.440 8.460 8.170 15.500 13.960 11.600 10.030 0.220 0.243 0.231 0.542 51.06 0.00 0.00 0.6830 245.50 15.97 1 1 1 12.300 12.310 12.440 12.340 12.470 8.660 8.350 12.070 12.060 12.210 11.970 12.270 8.180 7.993 1.0450 14.211 11.068 3.145 14.370 10.852 3.529
VANMET_231 2016-09-29 16:40:00 231 53281.0 12.450 12.430 12.550 12.590 12.420 75.040 72.230 8.160 7.730 15.480 13.960 11.600 10.030 0.220 0.243 0.231 0.542 59.99 0.00 0.00 0.9770 236.90 27.73 1 1 1 12.590 12.530 12.650 12.480 12.710 8.530 8.100 12.300 12.320 12.450 12.350 12.470 7.791 7.322 2.0060 14.446 10.844 3.606 14.579 10.531 4.049
VANMET_231 2016-09-29 16:35:00 231 53281.0 12.760 12.680 12.810 12.880 12.660 72.630 70.220 7.982 7.600 15.450 13.950 11.600 10.030 0.220 0.243 0.231 0.542 66.65 0.00 0.00 1.3300 239.20 20.31 1 1 1 12.980 12.860 12.990 12.830 13.090 8.230 7.999 12.610 12.540 12.660 12.500 12.720 7.638 7.352 2.3520 14.743 10.714 4.035 14.859 10.438 4.425
VANMET_231 2016-09-29 16:30:00 231 53281.0 13.250 13.150 13.280 13.390 13.020 70.490 68.360 8.000 7.695 15.430 13.940 11.600 10.020 0.220 0.243 0.231 0.542 60.50 0.00 0.00 1.2650 237.10 12.70 1 1 1 13.500 13.420 13.540 13.230 13.680 8.470 8.190 12.980 12.890 13.010 12.830 13.120 7.574 7.430 2.3590 15.223 10.727 4.492 15.363 10.506 4.861
VANMET_231 2016-09-29 16:25:00 231 53281.0 13.780 13.780 13.970 14.070 13.510 69.290 65.780 8.270 7.776 15.400 13.940 11.600 10.020 0.220 0.243 0.231 0.542 69.00 0.00 0.00 1.0440 245.90 18.59 1 1 1 14.000 14.060 14.270 13.760 14.320 8.770 8.270 13.530 13.450 13.580 13.270 13.740 7.402 7.176 1.9080 15.758 10.926 4.839 16.057 10.564 5.495
VANMET_231 2016-09-29 16:20:00 231 53281.0 14.170 14.230 14.400 14.480 13.860 67.360 62.780 8.220 7.479 15.380 13.930 11.600 10.020 0.220 0.243 0.231 0.542 189.30 0.00 0.00 1.8850 241.50 21.63 1 1 1 14.360 14.420 14.670 13.950 14.700 9.220 8.950 14.030 14.080 14.270 13.760 14.340 7.413 7.102 3.3710 16.162 10.889 5.275 16.489 10.352 6.137
VANMET_231 2016-09-29 16:15:00 231 53281.0 14.700 14.760 14.930 14.860 14.030 65.140 63.310 8.230 7.960 15.350 13.930 11.600 10.020 0.220 0.243 0.231 0.542 238.00 0.00 0.00 1.2710 235.10 25.76 1 1 1 15.080 15.010 15.120 14.150 14.990 9.040 8.920 14.390 14.430 14.660 13.780 14.700 7.494 7.057 1.7770 16.725 10.896 5.830 16.899 10.698 6.200
VANMET_231 2016-09-29 16:10:00 231 53281.0 15.340 15.230 15.260 15.090 14.290 64.080 62.080 8.590 7.890 15.320 13.920 11.600 10.020 0.220 0.243 0.231 0.542 217.80 0.00 0.00 1.0920 237.30 23.67 1 1 1 15.640 15.520 15.500 14.510 15.320 9.750 8.880 15.100 15.020 15.080 14.180 14.960 7.528 7.159 1.9670 17.429 11.166 6.260 17.151 10.647 6.504
VANMET_231 2016-09-29 16:05:00 231 53281.0 15.710 15.620 15.720 15.490 14.530 62.440 60.530 8.560 7.898 15.290 13.920 11.600 10.020 0.220 0.243 0.231 0.542 220.60 0.00 0.00 1.0430 238.20 37.08 1 1 1 15.820 15.710 15.860 14.580 15.660 9.550 8.820 15.660 15.540 15.550 14.450 15.330 7.749 7.072 1.5090 17.847 11.143 6.703 17.597 10.653 6.946
VANMET_231 2016-09-29 16:00:00 231 53281.0 16.020 15.830 15.950 15.760 14.660 59.940 59.030 8.260 7.791 15.260 13.910 11.600 10.020 0.220 0.243 0.231 0.542 269.30 0.00 0.00 1.1640 260.40 15.05 1 1 1 16.350 16.040 16.090 14.740 15.980 8.990 8.370 15.820 15.740 15.900 14.590 15.670 7.258 7.381 2.0910 18.204 10.918 7.293 17.904 10.575 7.335
VANMET_231 2016-09-29 15:55:00 231 53281.0 16.630 16.390 16.410 16.060 15.180 61.430 59.690 9.190 8.230 15.240 13.910 11.600 10.020 0.220 0.243 0.231 0.542 301.30 0.00 0.00 1.1550 237.00 29.29 1 1 1 16.740 16.490 16.520 15.400 16.090 10.040 8.950 16.380 16.070 16.090 14.640 16.000 8.160 7.552 2.2410 18.926 11.628 7.300 18.251 10.896 7.357
VANMET_231 2016-09-29 15:50:00 231 53281.0 16.430 16.250 16.320 15.940 15.300 60.500 58.620 8.770 7.848 15.210 13.900 11.600 10.020 0.220 0.243 0.231 0.542 352.00 0.00 0.00 1.2050 234.30 20.35 1 1 1 16.570 16.420 16.520 15.480 16.060 10.190 8.580 16.190 15.950 16.080 15.130 15.780 7.012 6.656 2.0510 18.686 11.303 7.381 18.112 10.616 7.495
VANMET_231 2016-09-29 15:45:00 231 53281.0 16.310 16.020 16.070 15.770 15.220 58.160 57.370 8.080 7.377 15.180 13.900 11.600 10.020 0.220 0.243 0.231 0.542 384.70 0.00 0.00 1.6690 229.00 24.38 1 1 1 16.380 16.120 16.180 15.290 15.850 9.280 8.370 16.250 15.960 16.000 15.150 15.710 7.023 6.615 2.6390 18.544 10.786 7.759 17.916 10.280 7.637
VANMET_231 2016-09-29 15:40:00 231 53281.0 16.350 16.130 16.150 15.850 15.310 58.220 57.550 8.120 7.494 15.150 13.900 11.600 10.020 0.220 0.243 0.231 0.542 381.60 0.00 0.00 1.5810 243.20 28.55 1 1 1 16.480 16.300 16.380 15.490 15.990 10.080 8.090 16.240 15.960 15.940 15.120 15.690 7.070 6.673 3.0770 18.592 10.815 7.768 18.008 10.363 7.644
VANMET_231 2016-09-29 15:35:00 231 53281.0 16.360 16.200 16.300 15.890 15.320 57.560 57.030 7.968 7.402 15.120 13.890 11.590 10.020 0.220 0.243 0.231 0.542 427.10 0.00 0.00 1.7500 235.80 25.26 1 1 1 16.480 16.340 16.450 15.470 16.010 9.670 8.050 16.270 16.070 16.180 15.230 15.810 7.056 6.455 2.9470 18.603 10.704 7.895 18.054 10.298 7.758
VANMET_231 2016-09-29 15:30:00 231 53281.0 16.420 16.160 16.200 15.900 15.280 56.700 55.770 7.804 7.084 15.090 13.890 11.590 10.020 0.220 0.243 0.231 0.542 368.70 0.00 0.00 1.2700 264.60 38.98 1 1 1 16.540 16.240 16.240 15.410 16.050 9.060 7.693 16.350 16.100 16.140 15.160 15.830 6.813 6.514 1.9340 18.675 10.585 8.086 18.065 10.076 7.990
VANMET_231 2016-09-29 15:25:00 231 53281.0 16.650 16.350 16.370 15.950 15.630 57.690 57.360 8.260 7.537 15.050 13.890 11.590 10.020 0.220 0.243 0.231 0.542 404.90 0.00 0.00 1.3670 231.50 25.03 1 1 1 16.880 16.550 16.550 15.950 16.110 9.960 8.640 16.410 16.110 16.080 15.360 15.740 6.701 6.167 2.2280 18.950 10.918 8.018 18.123 10.393 7.728
VANMET_231 2016-09-29 15:20:00 231 53281.0 16.350 16.030 15.990 15.660 15.450 56.790 55.860 7.760 6.884 15.020 13.890 11.590 10.020 0.221 0.243 0.231 0.542 433.50 0.00 0.00 1.8180 245.40 22.16 1 1 1 16.430 16.130 16.100 15.580 15.710 8.980 7.779 16.270 15.930 15.860 15.300 15.610 6.609 6.022 3.5080 18.592 10.553 8.033 17.790 9.938 7.853
VANMET_231 2016-09-29 15:15:00 231 53281.0 16.270 15.870 15.780 15.560 15.330 57.310 56.400 7.822 6.932 14.990 13.880 11.590 10.020 0.221 0.243 0.231 0.542 389.30 0.00 0.00 1.7980 244.30 24.21 1 1 1 16.390 16.020 15.970 15.540 15.720 9.430 7.941 16.150 15.660 15.550 15.120 15.450 6.871 6.286 3.1430 18.497 10.598 7.896 17.676 9.971 7.707
VANMET_231 2016-09-29 15:10:00 231 53281.0 16.610 16.220 16.110 15.860 15.680 56.580 55.990 7.945 7.104 14.960 13.880 11.590 10.020 0.221 0.244 0.231 0.542 390.10 0.00 0.00 1.8270 236.10 26.79 1 1 1 16.770 16.380 16.220 15.880 15.970 9.210 7.778 16.430 16.000 15.910 15.460 15.740 6.348 6.220 2.5810 18.902 10.687 8.207 18.019 10.090 7.930
VANMET_231 2016-09-29 15:05:00 231 53281.0 16.810 16.330 16.190 16.040 15.710 55.550 54.890 7.867 6.984 14.930 13.880 11.590 10.020 0.221 0.244 0.231 0.542 472.70 0.00 0.00 2.0740 241.50 35.15 1 1 1 17.200 16.680 16.570 15.920 16.340 8.950 8.290 16.660 16.230 16.050 15.610 15.910 6.702 6.457 3.8220 19.143 10.630 8.509 18.228 10.007 8.222
VANMET_231 2016-09-29 15:00:00 231 53281.0 17.320 16.830 16.760 16.440 16.120 56.570 56.480 8.610 7.767 14.890 13.880 11.590 10.020 0.221 0.244 0.231 0.542 489.10 0.00 0.00 1.8130 234.70 24.74 1 1 1 17.440 16.980 16.940 16.400 16.500 10.090 9.240 17.220 16.710 16.560 15.970 16.350 7.162 6.800 3.6910 19.772 11.181 8.587 18.698 10.558 8.138
VANMET_231 2016-09-29 14:55:00 231 53281.0 17.490 16.930 16.950 16.620 15.910 56.310 56.730 8.700 8.010 14.860 13.870 11.590 10.020 0.221 0.244 0.231 0.542 493.70 0.00 0.00 1.5420 231.10 21.55 1 1 1 17.680 17.170 17.090 16.000 16.740 9.950 8.660 17.350 16.730 16.820 15.800 16.480 7.876 7.537 2.6850 19.985 11.249 8.732 18.914 10.734 8.184
VANMET_231 2016-09-29 14:50:00 231 53281.0 17.750 17.280 17.250 16.900 16.160 56.500 55.870 8.990 8.040 14.830 13.870 11.590 10.020 0.221 0.244 0.231 0.542 488.10 0.00 0.00 1.1560 257.10 27.09 1 1 1 17.920 17.480 17.450 16.590 17.030 10.530 9.880 17.660 17.100 17.060 15.740 16.760 7.845 7.146 1.5810 20.316 11.472 8.837 19.253 10.756 8.496
VANMET_231 2016-09-29 14:45:00 231 53281.0 17.590 17.310 17.350 16.800 16.550 58.480 57.170 9.360 8.280 14.800 13.870 11.590 10.020 0.221 0.244 0.231 0.542 491.30 0.00 0.00 1.2400 216.20 43.32 1 1 1 17.770 17.380 17.470 16.720 16.920 10.820 9.430 17.400 17.180 17.220 16.410 16.630 7.829 7.150 2.0780 20.112 11.762 8.350 19.131 10.933 8.194
VANMET_231 2016-09-29 14:40:00 231 53281.0 16.990 16.640 16.680 16.270 16.190 58.990 58.810 8.930 8.210 14.760 13.870 11.590 10.020 0.221 0.244 0.231 0.542 534.80 0.00 0.00 1.4350 234.30 37.78 1 1 1 17.350 17.160 17.180 16.610 16.580 9.910 9.320 16.710 16.180 16.250 15.660 16.070 7.664 7.236 2.7830 19.363 11.426 7.941 18.497 10.881 7.619
VANMET_231 2016-09-29 14:35:00 231 53281.0 17.230 16.820 16.870 16.660 16.080 56.630 55.780 8.520 7.783 14.730 13.870 11.590 10.020 0.221 0.244 0.231 0.542 485.20 0.00 0.00 1.7320 217.20 40.09 1 1 1 17.600 17.270 17.340 16.670 17.010 10.940 9.680 16.870 16.350 16.400 15.470 16.200 6.815 6.566 3.1750 19.660 11.113 8.526 18.962 10.569 8.385
VANMET_231 2016-09-29 14:30:00 231 53281.0 17.580 17.320 17.380 17.000 16.600 56.800 55.600 8.920 8.060 14.700 13.870 11.590 10.020 0.221 0.244 0.231 0.542 525.10 0.00 0.00 1.3090 227.20 31.33 1 1 1 17.740 17.540 17.610 16.900 17.140 9.820 8.940 17.400 17.040 17.150 16.360 16.800 7.524 7.163 2.5940 20.099 11.418 8.683 19.375 10.771 8.603
VANMET_231 2016-09-29 14:25:00 231 53281.0 17.390 17.020 17.120 16.750 16.380 58.480 56.140 9.140 7.966 14.670 13.870 11.590 10.020 0.221 0.244 0.231 0.542 551.20 0.00 0.00 1.3490 225.60 17.99 1 1 1 17.520 17.290 17.390 16.810 16.960 11.290 9.080 17.230 16.730 16.830 15.940 16.460 7.017 6.665 2.6530 19.859 11.589 8.246 19.071 10.702 8.364
VANMET_231 2016-09-29 14:20:00 231 53281.0 17.130 16.620 16.680 16.370 15.770 56.560 55.930 8.430 7.567 14.640 13.870 11.590 10.020 0.221 0.244 0.231 0.542 571.20 0.00 0.00 0.9450 192.30 27.77 1 1 1 17.180 16.690 16.780 15.960 16.450 9.660 8.720 17.070 16.560 16.620 15.530 16.320 7.500 6.617 1.6730 19.536 11.045 8.486 18.615 10.415 8.204
VANMET_231 2016-09-29 14:15:00 231 53281.0 17.150 16.590 16.610 16.380 15.780 57.720 56.080 8.750 7.615 14.600 13.870 11.590 10.020 0.221 0.244 0.231 0.542 517.80 0.00 0.00 1.1560 194.60 30.64 1 1 1 17.310 16.710 16.720 16.000 16.480 10.200 8.340 17.050 16.510 16.500 15.510 16.350 7.301 6.842 2.0840 19.560 11.287 8.270 18.627 10.449 8.181
VANMET_231 2016-09-29 14:10:00 231 53281.0 17.640 16.960 17.020 16.650 16.080 58.820 59.810 9.480 8.810 14.570 13.870 11.590 10.020 0.221 0.244 0.231 0.542 502.90 0.00 0.00 1.1390 219.30 45.68 1 1 1 17.880 17.290 17.270 16.710 16.760 11.660 10.210 17.330 16.690 16.770 15.580 16.540 7.916 7.620 1.9670 20.175 11.857 8.308 18.950 11.333 7.616
VANMET_231 2016-09-29 14:05:00 231 53281.0 17.750 17.190 17.090 16.680 16.370 59.170 60.870 9.680 9.100 14.540 13.870 11.580 10.020 0.221 0.244 0.231 0.542 543.60 0.00 0.00 1.2950 217.60 33.83 1 1 1 17.830 17.310 17.230 16.630 16.780 11.370 9.930 17.640 17.100 16.940 16.120 16.600 8.890 8.460 1.8820 20.316 12.018 8.295 18.986 11.558 7.429
VANMET_231 2016-09-29 14:00:00 231 53281.0 17.480 16.970 16.850 16.560 16.360 61.750 62.430 10.070 9.360 14.510 13.870 11.580 10.020 0.221 0.244 0.231 0.542 585.80 0.00 0.00 1.4920 250.30 27.33 1 1 1 17.650 17.200 17.110 16.690 16.720 10.910 10.070 17.340 16.710 16.580 16.040 16.470 9.210 8.840 2.7180 19.973 12.336 7.640 18.842 11.762 7.079
VANMET_231 2016-09-29 13:55:00 231 53281.0 17.910 17.470 17.400 17.140 16.650 59.370 60.700 9.880 9.480 14.480 13.870 11.580 10.020 0.221 0.244 0.231 0.542 584.90 0.00 0.00 1.6020 248.00 27.29 1 1 1 18.160 17.830 17.800 17.300 17.310 11.240 11.270 17.390 16.710 16.600 15.780 16.610 8.540 8.480 2.8620 20.521 12.180 8.338 19.548 11.857 7.682
VANMET_231 2016-09-29 13:50:00 231 53281.0 18.210 17.800 17.600 17.200 16.920 60.530 61.660 10.460 9.790 14.450 13.880 11.580 10.020 0.221 0.244 0.231 0.542 617.00 0.00 0.00 1.5840 221.80 22.40 1 1 1 18.330 17.970 17.730 17.150 17.300 11.650 10.690 18.110 17.600 17.410 16.570 17.050 9.450 9.270 2.4110 20.912 12.662 8.254 19.622 12.107 7.523
VANMET_231 2016-09-29 13:45:00 231 53281.0 18.150 17.750 17.770 17.280 16.910 64.470 64.130 11.350 10.450 14.420 13.880 11.580 10.020 0.221 0.244 0.231 0.542 585.10 0.00 0.00 1.1860 203.20 31.69 1 1 1 18.200 17.830 17.900 17.070 17.380 12.180 10.990 18.040 17.660 17.610 16.540 17.090 10.240 9.310 2.3450 20.833 13.435 7.402 19.722 12.654 7.074
VANMET_231 2016-09-29 13:40:00 231 53281.0 17.810 17.430 17.380 16.860 16.740 64.830 65.070 11.120 10.270 14.390 13.880 11.580 10.020 0.221 0.244 0.231 0.542 604.20 0.00 0.00 1.2010 224.00 29.44 1 1 1 18.010 17.620 17.560 17.080 17.060 12.050 11.050 17.540 17.180 17.220 16.550 16.670 10.550 9.730 1.8750 20.393 13.231 7.172 19.204 12.503 6.708
VANMET_231 2016-09-29 13:35:00 231 53281.0 17.450 17.010 16.940 16.490 16.330 63.650 64.870 10.500 9.870 14.370 13.880 11.580 10.020 0.221 0.244 0.231 0.542 609.70 0.00 0.00 1.1930 220.20 45.97 1 1 1 17.610 17.230 17.220 16.820 16.620 11.830 10.820 17.230 16.710 16.590 15.840 16.360 9.230 9.040 2.5680 19.935 12.696 7.246 18.758 12.172 6.590
VANMET_231 2016-09-29 13:30:00 231 53281.0 17.190 16.670 16.580 16.360 16.040 63.610 64.800 10.240 9.730 14.340 13.880 11.580 10.020 0.221 0.244 0.231 0.542 636.80 0.00 0.00 1.7870 250.50 26.14 1 1 1 17.250 16.810 16.760 16.360 16.600 11.220 10.270 17.130 16.560 16.410 15.600 16.220 9.370 9.120 2.9600 19.610 12.478 7.136 18.603 12.058 6.548
VANMET_231 2016-09-29 13:25:00 231 53281.0 17.350 17.050 16.960 16.630 16.530 65.010 65.680 10.710 10.180 14.310 13.890 11.580 10.020 0.221 0.244 0.231 0.542 685.70 0.00 0.00 1.5600 249.70 21.70 1 1 1 17.570 17.270 17.140 16.960 16.720 11.710 10.890 17.060 16.720 16.640 16.200 16.490 9.260 9.320 2.5150 19.809 12.875 6.931 18.926 12.428 6.495
VANMET_231 2016-09-29 13:20:00 231 53281.0 17.140 16.920 16.960 16.830 16.400 66.330 65.570 10.820 10.350 14.290 13.890 11.580 10.020 0.221 0.244 0.231 0.542 608.40 0.00 0.00 1.8160 251.70 30.67 1 1 1 17.300 17.260 17.370 16.790 17.100 12.270 11.700 16.990 16.650 16.590 15.990 16.540 9.630 9.450 3.1690 19.548 12.970 6.582 19.168 12.570 6.599
VANMET_231 2016-09-29 13:15:00 231 53281.0 17.160 17.080 17.190 16.840 16.650 67.250 66.550 11.050 10.580 14.260 13.890 11.580 10.020 0.221 0.244 0.231 0.542 652.80 0.00 0.00 0.9870 199.50 32.20 1 1 1 17.290 17.290 17.410 17.070 16.980 11.830 11.480 16.950 16.840 16.900 15.930 16.580 10.010 9.790 1.6400 19.573 13.170 6.410 19.180 12.764 6.416
VANMET_231 2016-09-29 13:10:00 231 53281.0 16.870 16.700 16.670 16.430 16.140 67.930 68.200 10.930 10.570 14.230 13.900 11.580 10.020 0.221 0.244 0.231 0.542 689.50 0.00 0.00 1.4360 224.20 31.61 1 1 1 16.930 16.790 16.820 16.490 16.560 11.550 11.200 16.710 16.600 16.500 15.810 16.360 10.170 9.930 2.5550 19.216 13.065 6.163 18.686 12.756 5.942
VANMET_231 2016-09-29 13:05:00 231 53281.0 16.650 16.560 16.610 16.400 15.990 68.600 68.480 10.860 10.590 14.210 13.900 11.580 10.020 0.222 0.244 0.231 0.542 614.00 0.00 0.00 1.3040 223.10 21.83 1 1 1 16.840 16.900 16.970 16.500 16.660 11.720 11.400 16.510 16.320 16.310 15.520 16.200 10.000 10.020 2.1300 18.950 13.004 5.950 18.651 12.773 5.879
VANMET_231 2016-09-29 13:00:00 231 53281.0 16.790 16.830 16.850 16.590 16.300 69.710 69.460 11.230 10.990 14.190 13.900 11.580 10.020 0.222 0.244 0.231 0.542 620.20 0.00 0.00 1.0440 202.30 32.42 1 1 1 16.860 16.960 17.000 16.710 16.650 12.000 11.660 16.750 16.700 16.730 15.810 16.540 10.350 10.150 2.0190 19.119 13.328 5.791 18.878 13.117 5.765
VANMET_231 2016-09-29 12:55:00 231 53281.0 16.680 16.620 16.680 16.310 16.190 71.200 70.680 11.450 10.990 14.160 13.910 11.580 10.020 0.222 0.244 0.231 0.542 677.40 0.00 0.00 0.9880 228.90 33.37 1 1 1 16.890 17.030 17.040 16.830 16.620 12.630 11.710 16.510 16.240 16.290 15.700 16.000 10.840 10.480 1.9470 18.986 13.524 5.468 18.544 13.117 5.437
VANMET_231 2016-09-29 12:50:00 231 53281.0 16.550 16.330 16.390 16.270 15.900 70.250 70.410 11.120 10.890 14.140 13.910 11.580 10.020 0.222 0.244 0.231 0.542 649.70 0.00 0.00 1.6920 231.10 33.98 1 1 1 16.630 16.490 16.690 16.220 16.500 11.700 11.620 16.480 16.200 16.210 15.620 15.980 10.640 10.400 2.7050 18.830 13.231 5.602 18.497 13.030 5.473
VANMET_231 2016-09-29 12:45:00 231 53281.0 16.450 16.440 16.620 16.270 16.240 72.350 72.130 11.470 11.250 14.120 13.920 11.580 10.020 0.222 0.244 0.231 0.542 636.00 0.00 0.00 0.9810 214.40 50.23 1 1 1 16.700 16.780 17.040 16.770 16.600 12.140 11.850 16.090 16.030 16.150 15.770 15.920 10.900 10.850 1.8950 18.710 13.542 5.173 18.497 13.346 5.155
VANMET_231 2016-09-29 12:40:00 231 53281.0 15.930 15.740 15.830 15.740 15.680 72.430 72.700 10.980 10.860 14.100 13.920 11.580 10.020 0.222 0.244 0.231 0.542 704.00 0.00 0.00 1.5790 257.00 20.11 1 1 1 16.080 16.050 16.110 16.200 15.890 11.710 11.360 15.790 15.480 15.590 15.310 15.640 10.380 10.340 2.8030 18.100 13.109 4.990 17.881 13.004 4.882
VANMET_231 2016-09-29 12:35:00 231 53281.0 16.170 15.900 15.990 15.910 15.460 70.750 71.000 10.870 10.670 14.080 13.930 11.580 10.020 0.222 0.244 0.231 0.542 575.20 0.00 0.00 1.4200 231.30 20.90 1 1 1 16.540 16.320 16.430 15.930 16.160 11.800 11.330 15.970 15.730 15.760 15.210 15.710 10.380 10.290 1.9210 18.379 13.013 5.376 18.077 12.841 5.242
VANMET_231 2016-09-29 12:30:00 231 53281.0 16.440 16.220 16.280 16.030 15.780 69.810 70.020 10.930 10.580 14.060 13.930 11.580 10.020 0.222 0.244 0.231 0.542 657.50 0.00 0.00 1.0200 203.80 31.07 1 1 1 16.540 16.320 16.420 15.990 16.150 11.570 11.120 16.330 16.120 16.150 15.450 15.940 10.470 10.270 1.5610 18.698 13.065 5.645 18.216 12.764 5.461
VANMET_231 2016-09-29 12:25:00 231 53281.0 16.220 15.830 15.890 15.860 15.130 69.400 69.770 10.620 10.360 14.040 13.940 11.580 10.020 0.222 0.244 0.231 0.542 650.40 0.00 0.00 1.1990 217.90 28.04 1 1 1 16.500 16.140 16.180 16.000 16.100 11.420 11.020 16.020 15.540 15.610 14.490 15.700 9.950 9.900 2.9200 18.438 12.798 5.642 18.019 12.578 5.447
VANMET_231 2016-09-29 12:20:00 231 53281.0 16.850 16.570 16.610 16.490 15.950 67.660 67.600 10.850 10.490 14.020 13.940 11.570 10.020 0.222 0.244 0.231 0.542 625.30 0.00 0.00 1.6830 230.90 20.23 1 1 1 17.030 16.830 16.930 16.310 16.700 11.650 11.040 16.540 16.160 16.160 15.550 16.160 10.120 9.890 2.3390 19.192 12.996 6.207 18.758 12.688 6.078
VANMET_231 2016-09-29 12:15:00 231 53281.0 16.860 16.700 16.850 16.650 16.040 67.960 67.650 10.920 10.650 14.010 13.950 11.570 10.020 0.222 0.244 0.231 0.542 716.20 0.00 0.00 1.0020 216.70 53.10 1 1 1 16.990 16.830 16.980 16.280 16.740 11.880 11.220 16.690 16.570 16.720 15.790 16.540 10.290 9.910 1.6200 19.204 13.056 6.153 18.950 12.824 6.130
VANMET_231 2016-09-29 12:10:00 231 53281.0 16.610 16.510 16.610 16.370 16.040 69.240 68.970 10.960 10.680 13.990 13.950 11.570 10.020 0.222 0.244 0.231 0.542 666.60 0.00 0.00 0.8090 190.10 37.61 1 1 1 16.720 16.610 16.730 16.250 16.550 11.620 11.110 16.370 16.320 16.410 15.820 16.200 10.140 9.970 1.1760 18.902 13.091 5.814 18.615 12.850 5.776
VANMET_231 2016-09-29 12:05:00 231 53281.0 16.160 16.060 16.180 15.990 15.910 70.200 69.610 10.740 10.450 13.980 13.960 11.570 10.020 0.222 0.244 0.231 0.542 639.20 0.00 0.00 1.0190 249.00 22.46 1 1 1 16.370 16.390 16.510 16.290 16.240 11.460 11.040 15.960 15.680 15.740 15.220 15.710 10.110 9.920 1.4110 18.368 12.901 5.474 18.170 12.654 5.522
VANMET_231 2016-09-29 12:00:00 231 53281.0 16.380 16.160 16.200 16.090 15.600 67.050 66.850 10.250 9.940 13.960 13.960 11.570 10.020 0.222 0.244 0.231 0.542 633.20 0.00 0.00 1.4450 227.10 24.43 1 1 1 16.600 16.530 16.590 16.260 16.320 11.440 11.170 16.000 15.720 15.780 14.920 15.790 9.110 9.080 2.5940 18.627 12.486 6.138 18.286 12.229 6.062
VANMET_231 2016-09-29 11:55:00 231 53281.0 16.320 16.030 16.140 15.930 15.440 69.210 68.550 10.670 10.160 13.950 13.970 11.570 10.020 0.222 0.245 0.231 0.542 671.60 0.00 0.00 0.9910 189.90 23.87 1 1 1 16.580 16.350 16.450 15.920 16.180 11.830 11.210 16.110 15.740 15.850 14.900 15.770 9.480 9.070 2.0120 18.556 12.841 5.713 18.100 12.411 5.692
VANMET_231 2016-09-29 11:50:00 231 53281.0 16.340 15.990 16.080 15.850 15.210 67.700 67.480 10.360 9.850 13.940 13.970 11.570 10.020 0.222 0.245 0.231 0.542 653.80 0.00 0.00 0.8540 169.60 28.25 1 1 1 16.430 16.090 16.190 15.480 15.940 11.280 10.430 16.250 15.880 15.960 14.870 15.730 9.620 9.260 1.5750 18.580 12.578 6.001 18.008 12.156 5.856
VANMET_231 2016-09-29 11:45:00 231 53281.0 16.220 15.920 15.950 15.740 15.250 70.000 69.260 10.750 10.130 13.930 13.980 11.570 10.020 0.222 0.245 0.231 0.542 622.80 0.00 0.00 0.7790 163.30 31.60 1 1 1 16.350 16.050 16.050 15.620 15.820 11.500 10.750 16.070 15.820 15.870 14.990 15.660 9.570 9.200 1.5220 18.438 12.910 5.531 17.881 12.386 5.497
VANMET_231 2016-09-29 11:40:00 231 53281.0 15.800 15.640 15.770 15.580 15.040 71.270 69.210 10.620 9.970 13.920 13.990 11.570 10.020 0.222 0.245 0.231 0.542 607.90 0.00 0.00 0.7610 185.80 41.13 1 1 1 16.060 15.770 15.850 15.320 15.620 11.450 10.650 15.530 15.510 15.710 14.690 15.540 9.990 9.540 1.3000 17.950 12.798 5.157 17.699 12.254 5.450
VANMET_231 2016-09-29 11:35:00 231 53281.0 15.550 15.510 15.700 15.550 15.180 70.200 69.530 10.160 10.020 13.910 13.990 11.570 10.020 0.222 0.245 0.231 0.542 635.10 0.00 0.00 1.1700 224.30 27.19 1 1 1 15.660 15.620 15.790 15.430 15.640 10.620 10.640 15.490 15.430 15.620 14.980 15.490 9.520 9.630 2.3520 17.665 12.411 5.264 17.665 12.295 5.383
VANMET_231 2016-09-29 11:30:00 231 53281.0 15.950 15.900 16.120 15.890 15.570 70.000 69.420 10.490 10.310 13.900 14.000 11.570 10.020 0.222 0.245 0.231 0.542 549.50 0.00 0.00 1.2720 224.90 25.10 1 1 1 16.090 16.110 16.330 15.960 16.020 11.300 11.120 15.650 15.560 15.740 15.040 15.640 9.280 9.440 1.8880 18.123 12.688 5.437 18.054 12.536 5.521
VANMET_231 2016-09-29 11:25:00 231 53281.0 16.080 16.000 16.210 16.000 15.440 68.710 67.440 10.340 9.990 13.890 14.010 11.570 10.020 0.222 0.245 0.231 0.542 776.60 0.00 0.00 1.3990 219.40 26.27 1 1 1 16.220 16.200 16.420 15.810 16.120 11.200 10.670 15.980 15.850 16.100 15.010 15.910 9.550 9.270 2.6260 18.274 12.561 5.718 18.181 12.271 5.920
VANMET_231 2016-09-29 11:20:00 231 53281.0 15.660 15.670 15.910 15.590 15.320 71.780 70.410 10.590 10.240 13.880 14.010 11.570 10.020 0.222 0.245 0.231 0.542 752.40 0.00 0.00 0.9750 193.60 42.59 1 1 1 16.070 16.030 16.290 15.580 15.920 11.400 10.690 15.330 15.320 15.540 15.020 15.210 9.780 9.490 2.0250 17.790 12.773 5.020 17.710 12.478 5.241
VANMET_231 2016-09-29 11:15:00 231 53281.0 15.010 14.910 15.100 14.880 14.720 73.110 72.310 10.240 9.950 13.880 14.020 11.570 10.020 0.222 0.245 0.231 0.542 684.40 0.00 0.00 1.1420 199.70 26.68 1 1 1 15.300 15.280 15.510 15.090 15.180 11.190 10.930 14.830 14.630 14.750 14.280 14.650 9.300 9.250 1.7970 17.063 12.478 4.588 16.921 12.238 4.685
VANMET_231 2016-09-29 11:10:00 231 53281.0 14.790 14.750 14.860 14.680 14.490 73.260 72.760 10.060 9.850 13.870 14.030 11.570 10.020 0.222 0.245 0.231 0.542 603.70 0.00 0.00 1.6200 231.00 24.57 1 1 1 14.850 14.830 14.940 14.730 14.720 10.730 10.540 14.720 14.650 14.760 14.360 14.630 9.580 9.290 2.6260 16.823 12.328 4.498 16.704 12.156 4.550
VANMET_231 2016-09-29 11:05:00 231 53281.0 14.700 14.670 14.770 14.550 14.420 75.120 74.910 10.340 10.160 13.870 14.030 11.570 10.020 0.222 0.245 0.231 0.542 621.10 0.00 0.00 1.3120 213.20 19.00 1 1 1 14.770 14.790 14.920 14.690 14.660 11.060 10.990 14.620 14.500 14.550 14.200 14.380 9.650 9.610 1.7380 16.725 12.561 4.161 16.564 12.411 4.156
VANMET_231 2016-09-29 11:00:00 231 53281.0 14.490 14.380 14.510 14.250 14.280 76.540 76.460 10.430 10.180 13.870 14.040 11.570 10.020 0.222 0.245 0.231 0.542 581.50 0.00 0.00 1.4030 228.00 18.31 1 1 1 14.680 14.580 14.740 14.740 14.370 10.860 10.730 14.240 13.990 14.120 13.670 14.060 9.740 9.750 1.7640 16.500 12.637 3.871 16.246 12.428 3.824
VANMET_231 2016-09-29 10:55:00 231 53281.0 14.350 14.070 14.130 13.960 13.760 75.720 77.180 10.140 10.040 13.870 14.050 11.570 10.020 0.222 0.245 0.231 0.542 676.00 0.00 0.00 1.4520 239.90 22.43 1 1 1 14.420 14.220 14.310 14.140 14.130 10.630 10.430 14.220 13.900 13.880 13.260 13.780 9.360 9.520 2.3780 16.351 12.394 3.970 15.943 12.312 3.638
VANMET_231 2016-09-29 10:50:00 231 53281.0 14.830 14.470 14.490 14.430 13.760 73.730 74.390 10.190 9.940 13.870 14.050 11.570 10.020 0.222 0.245 0.231 0.542 461.50 0.00 0.00 1.4650 227.30 18.96 1 1 1 15.370 15.160 15.280 14.700 14.940 11.790 10.790 14.340 13.910 13.870 13.130 13.820 9.750 9.620 2.2280 16.866 12.436 4.431 16.436 12.229 4.209
VANMET_231 2016-09-29 10:45:00 231 53281.0 15.150 14.910 15.060 14.770 14.450 77.260 77.230 11.210 10.830 13.870 14.060 11.570 10.020 0.222 0.245 0.231 0.542 625.40 0.00 0.00 1.1920 198.90 29.32 1 1 1 15.260 15.100 15.250 14.700 14.940 11.680 11.180 14.950 14.650 14.790 14.130 14.540 10.570 10.410 2.0970 17.217 13.310 3.915 16.801 12.979 3.826
VANMET_231 2016-09-29 10:40:00 231 53281.0 15.260 14.900 14.990 14.750 14.220 73.300 74.280 10.520 10.230 13.870 14.070 11.560 10.020 0.222 0.245 0.231 0.542 583.80 0.00 0.00 1.3440 235.50 30.23 1 1 1 15.420 15.090 15.130 14.400 14.830 11.360 10.710 14.980 14.640 14.770 13.980 14.580 10.020 9.880 2.0450 17.339 12.713 4.630 16.779 12.469 4.316
VANMET_231 2016-09-29 10:35:00 231 53281.0 15.020 14.700 14.760 14.440 13.830 74.190 74.750 10.470 10.030 13.870 14.080 11.560 10.020 0.222 0.245 0.231 0.542 623.30 0.00 0.00 0.8120 178.80 31.03 1 1 1 15.240 14.960 15.030 14.140 14.700 10.860 10.520 14.830 14.520 14.580 13.650 14.320 9.850 9.430 1.4240 17.074 12.671 4.407 16.447 12.303 4.153
VANMET_231 2016-09-29 10:30:00 231 53281.0 14.700 14.460 14.520 14.100 13.730 74.910 75.030 10.310 9.750 13.870 14.080 11.560 10.020 0.222 0.245 0.231 0.542 636.80 0.00 0.00 0.6410 167.70 43.86 1 1 1 14.960 14.720 14.740 13.910 14.420 10.730 10.100 14.330 14.090 14.170 13.440 13.720 9.650 9.420 1.5480 16.725 12.536 4.196 16.089 12.075 4.017
VANMET_231 2016-09-29 10:25:00 231 53281.0 13.880 13.590 13.710 13.470 13.170 77.260 77.230 9.970 9.570 13.880 14.090 11.560 10.020 0.222 0.245 0.231 0.542 665.00 0.00 0.00 1.1590 191.80 40.05 1 1 1 14.270 14.040 14.110 13.600 13.650 11.080 9.960 13.660 13.360 13.500 12.930 13.360 9.290 9.250 2.2800 15.861 12.254 3.607 15.443 11.929 3.516
VANMET_231 2016-09-29 10:20:00 231 53281.0 13.990 13.620 13.730 13.530 12.890 75.610 76.910 9.760 9.570 13.880 14.100 11.560 10.020 0.222 0.245 0.231 0.542 594.70 0.00 0.00 1.0380 209.20 19.07 1 1 1 14.170 13.820 13.920 13.170 13.680 10.340 9.930 13.850 13.400 13.570 12.710 13.440 9.380 9.330 1.9400 15.974 12.083 3.896 15.504 11.929 3.580
VANMET_231 2016-09-29 10:15:00 231 53281.0 13.960 13.610 13.760 13.550 12.900 78.280 78.790 10.250 9.950 13.890 14.100 11.560 10.020 0.222 0.245 0.231 0.542 609.40 0.00 0.00 0.5910 181.00 64.83 1 1 1 14.230 13.890 14.040 13.200 13.690 10.780 10.350 13.720 13.330 13.480 12.580 13.450 9.480 9.640 1.3330 15.943 12.486 3.463 15.524 12.238 3.293
VANMET_231 2016-09-29 10:10:00 231 53281.0 14.010 13.670 13.770 13.580 12.930 78.100 78.720 10.260 9.960 13.890 14.110 11.560 10.020 0.222 0.245 0.231 0.542 595.80 0.00 0.00 0.8150 203.50 42.24 1 1 1 14.250 13.900 13.990 13.150 13.720 11.010 10.410 13.800 13.500 13.630 12.690 13.510 9.500 9.500 1.8030 15.995 12.494 3.503 15.554 12.246 3.310
VANMET_231 2016-09-29 10:05:00 231 53281.0 13.770 13.600 13.740 13.500 12.770 80.000 79.830 10.390 10.100 13.900 14.120 11.560 10.020 0.222 0.245 0.231 0.542 546.70 0.00 0.00 0.7540 199.60 36.33 1 1 1 13.950 13.700 13.890 13.050 13.630 11.070 10.520 13.640 13.450 13.590 12.520 13.400 9.830 9.770 1.5090 15.748 12.603 3.150 15.473 12.361 3.121
VANMET_231 2016-09-29 10:00:00 231 53281.0 13.530 13.400 13.520 13.350 12.840 80.700 80.600 10.290 10.100 13.910 14.120 11.560 10.020 0.222 0.245 0.231 0.542 606.50 0.00 0.00 1.1600 191.20 47.80 1 1 1 13.680 13.560 13.740 13.070 13.400 10.730 10.470 13.470 13.320 13.400 12.610 13.310 10.000 9.860 2.1430 15.504 12.519 2.992 15.323 12.361 2.973
VANMET_231 2016-09-29 09:55:00 231 53281.0 13.360 13.280 13.390 13.200 12.910 81.500 81.100 10.270 10.040 13.920 14.130 11.560 10.020 0.222 0.245 0.231 0.542 566.80 0.00 0.00 0.9550 195.30 33.88 1 1 1 13.590 13.500 13.620 13.010 13.330 10.710 10.410 13.140 13.090 13.190 12.780 13.080 10.020 9.870 1.7970 15.333 12.503 2.837 15.173 12.312 2.868
VANMET_231 2016-09-29 09:50:00 231 53281.0 12.990 12.990 13.060 12.940 12.660 83.200 81.900 10.210 9.920 13.930 14.140 11.560 10.020 0.222 0.245 0.231 0.542 522.30 0.00 0.00 1.0670 199.30 33.12 1 1 1 13.220 13.170 13.260 12.870 13.130 10.880 10.430 12.770 12.790 12.860 12.550 12.770 9.630 9.480 1.7380 14.967 12.453 2.514 14.918 12.213 2.700
VANMET_231 2016-09-29 09:45:00 231 53281.0 12.760 12.870 13.070 12.850 12.670 82.900 81.500 9.930 9.760 13.940 14.150 11.560 10.020 0.222 0.245 0.231 0.542 425.70 0.00 0.00 1.0780 222.20 14.90 1 1 1 12.850 12.930 13.110 12.760 12.890 10.190 10.010 12.670 12.820 12.980 12.560 12.790 9.710 9.450 1.7310 14.743 12.221 2.521 14.830 12.083 2.744
VANMET_231 2016-09-29 09:40:00 231 53281.0 12.560 12.660 12.890 12.740 12.420 81.200 79.720 9.430 9.330 13.950 14.150 11.560 10.020 0.222 0.245 0.231 0.542 432.30 0.00 0.00 0.6390 202.90 42.28 1 1 1 12.640 12.790 13.040 12.630 12.780 9.980 9.690 12.470 12.580 12.810 12.200 12.710 8.900 8.790 1.5220 14.551 11.818 2.736 14.724 11.738 2.986
VANMET_231 2016-09-29 09:35:00 231 53281.0 12.430 12.530 12.800 12.780 12.370 82.500 79.730 9.530 9.370 13.960 14.160 11.560 10.020 0.222 0.245 0.231 0.542 607.10 0.00 0.00 1.1040 219.60 15.62 1 1 1 12.530 12.660 12.920 12.570 12.850 10.210 9.830 12.360 12.480 12.700 12.230 12.700 9.190 9.000 1.6990 14.427 11.897 2.525 14.762 11.770 2.992
VANMET_231 2016-09-29 09:30:00 231 53281.0 12.080 12.140 12.370 12.440 12.120 84.700 82.100 9.590 9.480 13.970 14.170 11.560 10.020 0.222 0.245 0.231 0.542 558.30 0.00 0.00 0.8740 199.10 37.71 1 1 1 12.300 12.460 12.740 12.490 12.640 10.070 9.860 11.880 11.930 12.150 11.900 12.280 9.120 9.100 1.5030 14.099 11.945 2.157 14.437 11.857 2.584
VANMET_231 2016-09-29 09:25:00 231 53281.0 11.680 11.810 12.010 12.030 11.770 88.600 85.000 9.860 9.600 13.980 14.170 11.550 10.020 0.222 0.245 0.231 0.542 540.90 0.00 0.00 0.8130 178.60 63.82 1 1 1 11.860 11.960 12.170 11.950 12.290 10.130 9.840 11.480 11.620 11.860 11.530 11.820 9.520 9.180 1.3070 13.731 12.164 1.565 14.052 11.953 2.108
VANMET_231 2016-09-29 09:20:00 231 53281.0 11.390 11.560 11.800 11.800 11.500 89.900 86.700 9.790 9.670 13.990 14.180 11.550 10.020 0.222 0.245 0.231 0.542 451.00 0.00 0.00 0.8250 213.80 14.49 1 1 1 11.470 11.610 11.870 11.590 11.840 9.990 9.810 11.330 11.500 11.750 11.420 11.780 9.580 9.530 1.4050 13.470 12.107 1.360 13.841 12.010 1.841
VANMET_231 2016-09-29 09:15:00 231 53281.0 11.300 11.410 11.670 11.620 11.350 89.900 88.100 9.720 9.720 14.010 14.190 11.550 10.020 0.222 0.245 0.231 0.542 449.20 0.00 0.00 0.6180 235.90 39.18 1 1 1 11.360 11.500 11.790 11.570 11.760 10.050 9.990 11.210 11.290 11.520 11.140 11.470 9.500 9.550 1.1500 13.390 12.050 1.352 13.677 12.050 1.628
VANMET_231 2016-09-29 09:10:00 231 53281.0 11.270 11.320 11.530 11.530 11.210 89.400 87.400 9.610 9.520 14.020 14.200 11.550 10.020 0.222 0.245 0.231 0.542 416.40 0.00 0.00 1.2250 220.00 9.04 1 1 1 11.360 11.390 11.620 11.420 11.610 9.830 9.690 11.220 11.280 11.480 11.060 11.480 9.450 9.390 1.8290 13.364 11.962 1.417 13.596 11.889 1.713
VANMET_231 2016-09-29 09:05:00 231 53281.0 11.350 11.410 11.610 11.680 11.330 89.100 86.300 9.630 9.470 14.030 14.200 11.550 10.020 0.222 0.245 0.231 0.542 406.40 0.00 0.00 1.2900 223.00 15.32 1 1 1 11.420 11.550 11.780 11.460 11.910 9.930 9.640 11.280 11.300 11.530 11.180 11.590 9.280 9.300 2.0380 13.435 11.978 1.464 13.731 11.849 1.881
VANMET_231 2016-09-29 09:00:00 231 53281.0 11.640 11.950 12.260 12.230 11.480 87.800 83.600 9.700 9.550 14.050 14.210 11.550 10.020 0.222 0.245 0.231 0.542 394.40 0.00 0.00 1.2560 220.00 20.09 1 1 1 11.750 12.150 12.500 11.590 12.400 9.900 9.800 11.470 11.620 11.850 11.320 11.940 9.380 9.340 2.0320 13.695 12.034 1.671 14.239 11.913 2.335
VANMET_231 2016-09-29 08:55:00 231 53281.0 11.450 11.760 12.060 12.030 11.380 90.000 84.900 9.880 9.570 14.060 14.220 11.550 10.020 0.222 0.245 0.231 0.542 473.70 0.00 0.00 0.6670 182.90 40.90 1 1 1 11.600 11.990 12.320 11.450 12.140 10.250 9.820 11.270 11.550 11.870 11.300 11.950 9.550 9.120 1.3130 13.524 12.180 1.352 14.052 11.929 2.122
VANMET_231 2016-09-29 08:50:00 231 53281.0 11.120 11.390 11.720 11.820 11.260 91.800 87.500 9.850 9.820 14.070 14.220 11.550 10.020 0.222 0.245 0.231 0.542 449.10 0.00 0.00 0.7050 192.40 28.00 1 1 1 11.260 11.530 11.880 11.390 12.000 10.090 9.920 10.990 11.250 11.540 11.010 11.620 9.650 9.690 1.2280 13.231 12.156 1.085 13.859 12.131 1.732
VANMET_231 2016-09-29 08:45:00 231 53281.0 10.990 11.250 11.620 11.540 10.960 91.500 88.600 9.660 9.730 14.090 14.230 11.550 10.020 0.222 0.245 0.231 0.542 409.50 0.00 0.00 0.7420 196.60 11.18 1 1 1 11.050 11.340 11.700 11.090 11.650 9.830 9.930 10.920 11.160 11.530 10.800 11.420 9.510 9.510 1.3130 13.117 12.002 1.115 13.605 12.058 1.551
VANMET_231 2016-09-29 08:40:00 231 53281.0 10.950 11.180 11.580 11.420 10.780 90.300 88.000 9.450 9.510 14.100 14.240 11.550 10.020 0.222 0.245 0.231 0.542 328.70 0.00 0.00 0.5630 202.30 14.92 1 1 1 11.050 11.260 11.640 10.820 11.480 9.660 9.710 10.900 11.140 11.530 10.740 11.370 9.350 9.370 1.0910 13.083 11.833 1.269 13.497 11.881 1.620
VANMET_231 2016-09-29 08:35:00 231 53281.0 11.030 11.160 11.390 11.260 10.650 90.900 90.200 9.610 9.720 14.120 14.240 11.550 10.020 0.222 0.245 0.231 0.542 335.60 0.00 0.00 0.4770 195.20 23.65 1 1 1 11.090 11.340 11.650 10.730 11.500 9.760 9.930 10.980 11.020 11.190 10.590 11.140 9.410 9.490 0.8820 13.152 11.962 1.197 13.355 12.050 1.309
VANMET_231 2016-09-29 08:30:00 231 53281.0 11.430 11.420 11.560 11.380 10.570 88.700 88.600 9.650 9.570 14.130 14.250 11.550 10.020 0.222 0.245 0.231 0.542 296.30 0.00 0.00 0.7710 193.70 21.61 1 1 1 11.580 11.660 11.840 10.670 11.500 9.860 9.730 11.130 11.050 11.210 10.500 11.190 9.390 9.430 1.3130 13.506 11.994 1.526 13.461 11.929 1.535
VANMET_231 2016-09-29 08:25:00 231 53281.0 11.430 11.450 11.780 11.500 10.610 89.300 89.000 9.730 9.750 14.150 14.260 11.550 10.020 0.222 0.245 0.231 0.542 342.90 0.00 0.00 0.7080 189.00 27.59 1 1 1 11.500 11.630 11.860 10.670 11.560 9.850 9.950 11.380 11.300 11.640 10.540 11.410 9.610 9.560 1.0320 13.506 12.058 1.445 13.569 12.075 1.493
VANMET_231 2016-09-29 08:20:00 231 53281.0 11.570 11.520 11.830 11.560 10.630 88.400 88.600 9.730 9.760 14.160 14.260 11.550 10.020 0.222 0.245 0.231 0.542 338.10 0.00 0.00 0.7190 202.20 13.27 1 1 1 11.700 11.690 12.020 10.730 11.670 9.930 9.960 11.370 11.290 11.620 10.590 11.440 9.550 9.570 1.2670 13.632 12.058 1.581 13.623 12.083 1.553
VANMET_231 2016-09-29 08:15:00 231 53281.0 11.690 11.560 11.810 11.570 10.780 88.000 88.200 9.780 9.700 14.180 14.270 11.540 10.020 0.222 0.245 0.231 0.542 317.70 0.00 0.00 0.6700 197.70 23.97 1 1 1 11.820 11.680 11.910 10.850 11.670 9.920 9.890 11.600 11.480 11.730 10.710 11.510 9.560 9.570 1.0260 13.740 12.099 1.649 13.632 12.034 1.609
VANMET_231 2016-09-29 08:10:00 231 53281.0 12.130 11.980 12.210 11.860 10.810 85.500 86.400 9.780 9.670 14.190 14.280 11.540 10.020 0.222 0.245 0.231 0.542 284.80 0.00 0.00 0.7410 203.60 10.01 1 1 1 12.460 12.320 12.600 10.960 12.120 9.960 9.780 11.840 11.690 11.900 10.730 11.670 9.610 9.600 0.9540 14.145 12.099 2.051 13.896 12.010 1.890
VANMET_231 2016-09-29 08:05:00 231 53281.0 12.680 12.720 13.070 12.430 10.720 84.500 85.500 10.150 10.070 14.210 14.280 11.540 10.020 0.222 0.245 0.231 0.542 273.60 0.00 0.00 0.4840 208.30 8.94 1 1 1 12.860 13.110 13.580 10.820 12.680 10.810 10.970 12.490 12.370 12.660 10.610 12.150 9.890 9.800 0.7380 14.666 12.403 2.273 14.427 12.336 2.092
VANMET_231 2016-09-29 08:00:00 231 53281.0 12.290 12.750 13.190 12.320 10.570 89.600 90.700 10.640 10.860 14.220 14.290 11.540 10.020 0.222 0.245 0.231 0.542 280.60 0.00 0.00 0.1270 209.70 20.37 1 1 1 12.760 13.090 13.570 10.680 12.640 10.980 11.170 11.780 12.360 12.870 10.390 11.990 10.200 10.670 0.4120 14.295 12.815 1.487 14.323 13.004 1.332
VANMET_231 2016-09-29 07:55:00 231 53281.0 11.320 11.880 12.380 11.550 10.290 94.100 95.900 10.410 10.920 14.240 14.300 11.540 10.020 0.222 0.245 0.231 0.542 241.70 0.00 0.00 0.0000 0.00 0.00 1 1 1 11.740 12.290 12.820 10.430 11.970 10.560 11.280 10.860 11.370 11.800 10.100 11.040 10.210 10.510 0.0000 13.408 12.620 0.791 13.614 13.056 0.558
VANMET_231 2016-09-29 07:50:00 231 53281.0 10.490 10.790 11.190 10.600 10.040 95.500 95.700 9.810 9.950 14.250 14.300 11.540 10.020 0.222 0.245 0.231 0.542 208.30 0.00 0.00 0.0000 0.00 0.00 1 1 1 10.810 11.300 11.720 10.150 10.990 10.190 10.430 10.230 10.380 10.730 9.850 10.300 9.650 9.630 0.0000 12.688 12.123 0.571 12.781 12.238 0.550
VANMET_231 2016-09-29 07:45:00 231 53281.0 10.020 10.140 10.520 10.060 9.650 96.600 96.400 9.500 9.530 14.270 14.310 11.540 10.020 0.222 0.245 0.231 0.542 147.00 0.00 0.00 0.0170 127.90 0.01 1 1 1 10.200 10.360 10.710 9.830 10.270 9.640 9.690 9.890 9.890 10.360 9.560 9.870 9.340 9.240 0.2220 12.295 11.873 0.418 12.328 11.897 0.444
VANMET_231 2016-09-29 07:40:00 231 53281.0 9.850 9.840 10.240 9.900 9.500 96.700 95.800 9.370 9.260 14.290 14.320 11.540 10.020 0.222 0.245 0.231 0.542 79.55 0.00 0.00 0.2410 131.20 33.13 1 1 1 9.910 9.870 10.350 9.580 9.930 9.430 9.360 9.810 9.810 10.110 9.430 9.850 9.310 9.190 0.5880 12.156 11.770 0.401 12.197 11.683 0.512
VANMET_231 2016-09-29 07:35:00 231 53281.0 9.980 9.960 10.450 10.160 9.450 97.800 94.900 9.650 9.380 14.300 14.320 11.540 10.020 0.222 0.245 0.231 0.542 109.80 0.00 0.00 0.3430 210.40 1.94 1 1 1 10.210 10.180 10.870 9.510 10.440 10.180 9.700 9.840 9.830 10.130 9.410 9.930 9.340 9.200 0.6400 12.262 11.994 0.270 12.411 11.778 0.633
VANMET_231 2016-09-29 07:30:00 231 53281.0 10.370 10.380 11.000 10.560 9.580 99.900 97.800 10.370 10.230 14.320 14.330 11.540 10.020 0.222 0.245 0.231 0.542 160.90 0.00 0.00 0.0000 0.00 0.00 1 1 1 10.520 10.450 11.090 9.630 10.630 10.530 10.510 10.120 10.210 10.810 9.520 10.440 10.110 9.740 0.0000 12.586 12.586 0.013 12.747 12.469 0.280
VANMET_231 2016-09-29 07:25:00 231 53281.0 9.720 9.990 10.370 10.240 9.650 99.900 99.500 9.700 10.180 14.330 14.340 11.540 10.020 0.222 0.245 0.231 0.542 125.80 0.00 0.00 0.0000 0.00 0.00 1 1 1 10.060 10.330 10.750 9.690 10.470 10.040 10.380 9.510 9.790 10.180 9.620 10.120 9.510 10.110 0.0000 12.050 12.034 0.012 12.478 12.428 0.062
VANMET_231 2016-09-29 07:20:00 231 53281.0 9.380 9.660 9.990 9.940 9.720 100.000 100.000 9.390 9.950 14.350 14.340 11.540 10.020 0.222 0.245 0.231 0.542 154.00 0.00 0.00 0.0000 0.00 0.00 1 1 1 9.490 9.790 10.180 9.750 10.140 9.500 10.150 9.230 9.490 9.760 9.680 9.660 9.230 9.670 0.0000 11.778 11.786 0.000 12.229 12.238 0.000
VANMET_231 2016-09-29 07:15:00 231 53281.0 9.100 9.320 9.550 9.440 9.660 100.000 100.000 9.110 9.450 14.370 14.350 11.540 10.020 0.222 0.245 0.231 0.542 163.70 0.00 0.00 0.0000 0.00 0.00 1 1 1 9.210 9.480 9.740 9.740 9.630 9.210 9.640 9.010 9.200 9.390 9.550 9.270 9.020 9.280 0.0000 11.558 11.565 0.000 11.826 11.833 0.000
VANMET_231 2016-09-29 07:10:00 231 53281.0 8.940 9.140 9.320 9.200 9.470 100.000 100.000 8.950 9.210 14.380 14.350 11.540 10.020 0.222 0.245 0.231 0.542 106.50 0.00 0.00 0.0000 0.00 0.00 1 1 1 9.000 9.200 9.380 9.530 9.280 9.000 9.280 8.910 9.110 9.280 9.440 9.150 8.910 9.150 0.0000 11.433 11.441 0.000 11.636 11.644 0.000
VANMET_231 2016-09-29 07:05:00 231 53281.0 8.860 9.060 9.230 9.090 9.390 100.000 100.000 8.860 9.100 14.400 14.360 11.530 10.020 0.222 0.245 0.231 0.542 60.08 0.00 0.00 0.0000 0.00 0.00 1 1 1 8.910 9.110 9.280 9.480 9.150 8.910 9.150 8.820 9.030 9.180 9.320 9.040 8.830 9.050 0.0000 11.372 11.372 0.000 11.550 11.558 0.000
VANMET_231 2016-09-29 07:00:00 231 53281.0 8.800 9.000 9.140 9.010 9.290 100.000 100.000 8.810 9.020 14.410 14.370 11.530 10.020 0.222 0.245 0.231 0.542 54.85 0.00 0.00 0.1680 7.52 0.00 1 1 1 8.830 9.030 9.180 9.320 9.050 8.840 9.060 8.760 8.970 9.110 9.250 8.980 8.770 8.980 0.4120 11.326 11.333 0.000 11.488 11.495 -0.000
VANMET_231 2016-09-29 06:55:00 231 53281.0 8.720 8.940 9.090 8.940 9.220 100.000 100.000 8.730 8.950 14.430 14.370 11.530 10.020 0.222 0.245 0.231 0.542 48.11 0.00 0.00 0.3750 7.92 0.48 1 1 1 8.780 8.970 9.110 9.250 8.980 8.790 8.980 8.670 8.890 9.050 9.190 8.900 8.680 8.900 0.4700 11.264 11.272 0.000 11.433 11.441 0.000
VANMET_231 2016-09-29 06:50:00 231 53281.0 8.610 8.820 9.000 8.850 9.140 100.000 100.000 8.620 8.860 14.450 14.380 11.530 10.020 0.222 0.245 0.231 0.542 42.58 0.00 0.00 0.0050 8.50 0.00 1 1 1 8.660 8.880 9.040 9.180 8.890 8.670 8.900 8.570 8.760 8.960 9.100 8.810 8.580 8.820 0.0980 11.181 11.188 0.000 11.364 11.372 0.000
VANMET_231 2016-09-29 06:45:00 231 53281.0 8.530 8.720 8.910 8.750 9.070 100.000 100.000 8.540 8.760 14.460 14.380 11.530 10.020 0.222 0.245 0.231 0.542 37.27 0.00 0.00 0.2350 9.84 2.02 1 1 1 8.580 8.760 8.950 9.130 8.810 8.590 8.820 8.480 8.670 8.860 9.000 8.710 8.490 8.710 0.3660 11.120 11.128 0.000 11.287 11.295 0.000
VANMET_231 2016-09-29 06:40:00 231 53281.0 8.470 8.640 8.830 8.680 8.960 100.000 100.000 8.470 8.680 14.480 14.390 11.530 10.020 0.222 0.245 0.231 0.542 33.28 0.00 0.00 0.4590 14.90 0.14 1 1 1 8.490 8.670 8.860 8.990 8.720 8.500 8.730 8.450 8.630 8.800 8.910 8.650 8.450 8.650 0.5750 11.075 11.075 0.000 11.234 11.234 0.000
VANMET_231 2016-09-29 06:35:00 231 53281.0 8.450 8.620 8.770 8.620 8.900 100.000 100.000 8.450 8.620 14.500 14.400 11.530 10.020 0.222 0.245 0.231 0.542 29.32 0.00 0.00 0.5830 15.10 0.95 1 1 1 8.470 8.640 8.800 8.920 8.660 8.480 8.660 8.430 8.590 8.740 8.880 8.580 8.440 8.590 0.6660 11.060 11.060 0.000 11.188 11.188 0.000
VANMET_231 2016-09-29 06:30:00 231 53281.0 8.400 8.570 8.720 8.580 8.870 100.000 100.000 8.410 8.590 14.510 14.400 11.530 10.020 0.222 0.245 0.231 0.542 23.61 0.00 0.00 0.5900 15.09 0.61 1 1 1 8.440 8.590 8.740 8.880 8.590 8.440 8.600 8.360 8.550 8.700 8.840 8.560 8.370 8.570 0.7120 11.023 11.030 0.000 11.158 11.166 0.000
VANMET_231 2016-09-29 06:25:00 231 53281.0 8.290 8.460 8.640 8.500 8.810 100.000 100.000 8.300 8.500 14.530 14.410 11.530 10.020 0.222 0.245 0.231 0.542 17.95 0.00 0.00 0.6070 11.21 11.09 1 1 1 8.360 8.540 8.690 8.850 8.570 8.360 8.570 8.240 8.390 8.560 8.730 8.430 8.250 8.430 0.7580 10.941 10.948 0.000 11.098 11.098 -0.000
VANMET_231 2016-09-29 06:20:00 231 53281.0 8.220 8.350 8.520 8.400 8.660 100.000 99.900 8.220 8.400 14.540 14.410 11.530 10.020 0.222 0.245 0.231 0.542 12.76 0.00 0.00 0.5900 2.91 4.43 1 1 1 8.250 8.390 8.550 8.710 8.430 8.250 8.440 8.190 8.310 8.480 8.560 8.380 8.190 8.370 0.8300 10.889 10.889 0.000 11.023 11.023 0.011
VANMET_231 2016-09-29 06:15:00 231 53281.0 8.230 8.370 8.520 8.400 8.630 100.000 99.900 8.230 8.380 14.560 14.420 11.530 10.020 0.222 0.245 0.231 0.542 8.65 0.00 0.00 0.5340 358.20 4.68 1 1 1 8.250 8.390 8.530 8.680 8.420 8.250 8.410 8.200 8.350 8.480 8.560 8.380 8.210 8.360 0.7190 10.896 10.896 0.000 11.023 11.008 0.011
VANMET_231 2016-09-29 06:10:00 231 53281.0 8.240 8.390 8.540 8.410 8.660 100.000 99.800 8.240 8.390 14.580 14.420 11.530 10.020 0.222 0.245 0.231 0.542 4.47 0.00 0.00 0.0690 348.30 0.00 1 1 1 8.270 8.410 8.550 8.680 8.430 8.270 8.420 8.200 8.380 8.530 8.640 8.390 8.200 8.380 0.4640 10.904 10.904 0.000 11.030 11.015 0.022
VANMET_231 2016-09-29 06:05:00 231 53281.0 8.240 8.400 8.550 8.410 8.690 99.900 99.800 8.240 8.380 14.590 14.430 11.520 10.020 0.222 0.245 0.231 0.542 2.45 0.00 0.00 0.0150 347.00 0.00 1 1 1 8.270 8.420 8.560 8.710 8.430 8.270 8.420 8.210 8.370 8.540 8.670 8.390 8.200 8.360 0.1370 10.904 10.904 0.011 11.030 11.008 0.022
VANMET_231 2016-09-29 06:00:00 231 53281.0 8.240 8.400 8.550 8.420 8.680 99.900 99.700 8.230 8.380 14.610 14.440 11.520 10.020 0.222 0.245 0.231 0.542 0.74 0.00 0.00 0.3020 347.10 0.07 1 1 1 8.270 8.410 8.560 8.690 8.440 8.260 8.390 8.210 8.380 8.540 8.660 8.410 8.200 8.360 0.4570 10.904 10.896 0.011 11.038 11.008 0.033
VANMET_231 2016-09-29 05:55:00 231 53281.0 8.270 8.400 8.570 8.450 8.700 99.900 99.600 8.260 8.390 14.630 14.440 11.520 10.020 0.222 0.245 0.231 0.542 0.00 0.00 0.00 0.4840 345.20 2.06 1 1 1 8.300 8.420 8.590 8.720 8.480 8.290 8.420 8.230 8.380 8.550 8.680 8.420 8.220 8.370 0.5420 10.926 10.918 0.011 11.060 11.015 0.044
VANMET_231 2016-09-29 05:50:00 231 53281.0 8.310 8.450 8.610 8.490 8.750 99.800 99.500 8.290 8.430 14.640 14.450 11.520 10.020 0.222 0.245 0.231 0.542 0.00 0.00 0.00 0.3840 344.10 5.32 1 1 1 8.340 8.480 8.630 8.770 8.530 8.330 8.470 8.280 8.420 8.590 8.720 8.460 8.260 8.400 0.4700 10.956 10.941 0.022 11.090 11.045 0.055
VANMET_231 2016-09-29 05:45:00 231 53281.0 8.390 8.510 8.660 8.570 8.770 99.800 99.500 8.370 8.510 14.660 14.450 11.520 10.020 0.222 0.245 0.231 0.542 0.00 0.00 0.00 0.2810 0.28 0.04 1 1 1 8.430 8.550 8.710 8.810 8.630 8.420 8.570 8.350 8.480 8.630 8.750 8.530 8.330 8.460 0.4830 11.015 11.000 0.022 11.151 11.105 0.056
VANMET_231 2016-09-29 05:40:00 231 53281.0 8.460 8.590 8.750 8.670 8.860 99.800 99.600 8.450 8.610 14.680 14.460 11.520 10.020 0.222 0.245 0.231 0.542 0.00 0.00 0.00 0.0000 0.00 0.00 1 1 1 8.510 8.620 8.780 8.900 8.700 8.490 8.640 8.420 8.560 8.720 8.810 8.630 8.410 8.570 0.0000 11.068 11.060 0.022 11.226 11.181 0.045
VANMET_231 2016-09-29 05:35:00 231 53281.0 8.510 8.640 8.800 8.740 8.940 99.800 99.600 8.490 8.680 14.690 14.460 11.520 10.020 0.222 0.245 0.231 0.542 0.00 0.00 0.00 0.0000 0.00 0.00 1 1 1 8.540 8.650 8.810 8.970 8.770 8.520 8.710 8.490 8.620 8.790 8.900 8.720 8.470 8.660 0.0000 11.105 11.090 0.022 11.280 11.234 0.045
VANMET_231 2016-09-29 05:30:00 231 53281.0 8.590 8.680 8.840 8.770 9.010 99.800 99.500 8.560 8.690 14.710 14.470 11.520 10.020 0.222 0.245 0.231 0.542 0.00 0.00 0.00 0.0000 0.00 0.00 1 1 1 8.630 8.700 8.850 9.080 8.790 8.610 8.710 8.540 8.640 8.820 8.950 8.750 8.510 8.670 0.0000 11.166 11.143 0.022 11.303 11.242 0.057
VANMET_231 2016-09-29 05:25:00 231 53281.0 8.640 8.720 8.860 8.790 9.040 99.700 99.300 8.610 8.700 14.730 14.470 11.520 10.020 0.222 0.245 0.231 0.542 0.00 0.00 0.00 0.0000 0.00 0.00 1 1 1 8.670 8.760 8.900 9.080 8.830 8.630 8.730 8.620 8.690 8.830 9.020 8.750 8.590 8.660 0.0000 11.204 11.181 0.034 11.318 11.249 0.079
VANMET_231 2016-09-29 05:20:00 231 53281.0 8.680 8.780 8.930 8.870 9.040 99.700 99.300 8.640 8.770 14.740 14.480 11.520 10.020 0.222 0.245 0.231 0.542 0.00 0.00 0.00 0.2070 13.09 2.12 1 1 1 8.710 8.810 8.970 9.060 8.910 8.670 8.810 8.640 8.750 8.900 9.010 8.820 8.600 8.720 0.5230 11.234 11.204 0.034 11.379 11.303 0.080
VANMET_231 2016-09-29 05:15:00 231 53281.0 8.750 8.870 9.030 8.970 9.110 99.700 99.200 8.710 8.860 14.760 14.480 11.520 10.020 0.222 0.245 0.231 0.542 0.00 0.00 0.00 0.4450 20.57 1.30 1 1 1 8.800 8.930 9.090 9.180 9.010 8.760 8.910 8.710 8.810 8.970 9.050 8.920 8.660 8.810 0.5290 11.287 11.257 0.034 11.457 11.372 0.092
VANMET_231 2016-09-29 05:10:00 231 53281.0 8.850 8.980 9.130 9.060 9.250 99.800 99.200 8.820 8.950 14.780 14.490 11.520 10.020 0.222 0.245 0.231 0.542 0.00 0.00 0.00 0.2820 21.44 0.10 1 1 1 8.890 9.000 9.160 9.300 9.090 8.860 8.980 8.790 8.940 9.090 9.190 9.020 8.760 8.920 0.5880 11.364 11.341 0.023 11.526 11.441 0.092
VANMET_231 2016-09-29 05:05:00 231 53281.0 8.930 9.040 9.200 9.140 9.340 99.800 99.200 8.910 9.040 14.790 14.490 11.520 10.020 0.222 0.245 0.231 0.542 0.00 0.00 0.00 0.0000 0.00 0.00 1 1 1 8.980 9.090 9.260 9.370 9.200 8.960 9.110 8.880 9.000 9.160 9.300 9.090 8.860 8.970 0.0000 11.426 11.410 0.023 11.589 11.511 0.093
VANMET_231 2016-09-29 05:00:00 231 53281.0 9.000 9.130 9.310 9.260 9.430 99.800 99.400 8.980 9.180 14.810 14.500 11.510 10.020 0.222 0.245 0.231 0.542 0.00 0.00 0.00 0.0000 0.00 0.00 1 1 1 9.030 9.160 9.350 9.520 9.310 9.010 9.260 8.980 9.100 9.260 9.370 9.200 8.960 9.110 0.0000 11.480 11.464 0.023 11.683 11.620 0.070
VANMET_231 2016-09-29 04:55:00 231 53281.0 9.040 9.170 9.360 9.280 9.590 99.900 99.600 9.030 9.230 14.830 14.500 11.510 10.020 0.222 0.245 0.231 0.542 0.00 0.00 0.00 0.0820 251.00 9.94 1 1 1 9.060 9.200 9.370 9.710 9.320 9.050 9.270 9.010 9.150 9.330 9.500 9.250 9.000 9.190 0.3790 11.511 11.503 0.012 11.699 11.659 0.047
VANMET_231 2016-09-29 04:50:00 231 53281.0 9.110 9.190 9.360 9.290 9.560 99.900 99.600 9.100 9.240 14.840 14.510 11.510 10.020 0.222 0.245 0.231 0.542 0.00 0.00 0.00 0.3730 310.70 26.73 1 1 1 9.140 9.220 9.390 9.620 9.340 9.140 9.300 9.060 9.150 9.340 9.510 9.250 9.050 9.200 0.5230 11.565 11.558 0.012 11.707 11.667 0.047
VANMET_231 2016-09-29 04:45:00 231 53281.0 9.140 9.240 9.420 9.330 9.640 99.900 99.700 9.130 9.290 14.860 14.510 11.510 10.020 0.222 0.245 0.231 0.542 0.00 0.00 0.00 0.4490 343.70 4.85 1 1 1 9.160 9.250 9.440 9.670 9.350 9.160 9.310 9.110 9.220 9.390 9.610 9.310 9.110 9.270 0.5750 11.589 11.581 0.012 11.738 11.707 0.035
VANMET_231 2016-09-29 04:40:00 231 53281.0 9.120 9.250 9.450 9.350 9.580 99.900 99.700 9.120 9.300 14.880 14.520 11.510 10.020 0.222 0.245 0.231 0.542 0.00 0.00 0.00 0.5000 354.40 0.31 1 1 1 9.160 9.260 9.460 9.660 9.370 9.160 9.330 9.090 9.230 9.430 9.560 9.320 9.090 9.280 0.5680 11.573 11.573 0.012 11.754 11.715 0.035
VANMET_231 2016-09-29 04:35:00 231 53281.0 9.180 9.300 9.480 9.360 9.590 100.000 99.600 9.180 9.320 14.900 14.520 11.510 10.020 0.222 0.245 0.231 0.542 0.00 0.00 0.00 0.4920 359.80 1.26 1 1 1 9.210 9.350 9.500 9.620 9.400 9.220 9.360 9.150 9.260 9.460 9.580 9.340 9.160 9.290 0.5810 11.620 11.620 0.000 11.762 11.730 0.047
VANMET_231 2016-09-29 04:30:00 231 53281.0 9.240 9.370 9.530 9.420 9.630 100.000 99.700 9.240 9.390 14.910 14.520 11.510 10.020 0.222 0.245 0.231 0.542 0.00 0.00 0.00 0.4630 0.10 0.01 1 1 1 9.270 9.410 9.560 9.660 9.460 9.270 9.430 9.210 9.350 9.500 9.620 9.380 9.210 9.340 0.5230 11.667 11.667 -0.000 11.810 11.786 0.035
VANMET_231 2016-09-29 04:25:00 231 53281.0 9.270 9.430 9.580 9.470 9.700 100.000 99.800 9.280 9.440 14.930 14.530 11.510 10.020 0.222 0.245 0.231 0.542 0.00 0.00 0.00 0.0350 0.10 0.00 1 1 1 9.280 9.430 9.600 9.730 9.500 9.290 9.470 9.250 9.420 9.560 9.670 9.450 9.260 9.420 0.4250 11.691 11.699 0.000 11.849 11.826 0.024
VANMET_231 2016-09-29 04:20:00 231 53281.0 9.260 9.400 9.600 9.500 9.730 100.000 99.800 9.260 9.480 14.950 14.530 11.510 10.020 0.222 0.245 0.231 0.542 0.00 0.00 0.00 0.0000 0.00 0.00 1 1 1 9.280 9.430 9.600 9.740 9.530 9.290 9.500 9.230 9.380 9.600 9.720 9.480 9.230 9.450 0.0000 11.683 11.683 0.000 11.873 11.857 0.024
VANMET_231 2016-09-29 04:15:00 231 53281.0 9.300 9.440 9.630 9.550 9.770 100.000 99.800 9.310 9.530 14.960 14.540 11.510 10.020 0.222 0.245 0.231 0.542 0.00 0.00 0.00 0.0300 330.10 0.97 1 1 1 9.330 9.510 9.690 9.870 9.580 9.340 9.560 9.270 9.400 9.600 9.720 9.510 9.280 9.480 0.1830 11.715 11.722 0.000 11.913 11.897 0.024
VANMET_231 2016-09-29 04:10:00 231 53281.0 9.290 9.480 9.690 9.570 9.900 100.000 99.800 9.300 9.540 14.980 14.540 11.510 10.020 0.222 0.245 0.231 0.542 0.00 0.00 0.00 0.3190 330.50 17.55 1 1 1 9.320 9.510 9.690 9.940 9.610 9.330 9.590 9.270 9.450 9.670 9.860 9.530 9.270 9.500 0.5420 11.707 11.715 0.000 11.929 11.905 0.024
VANMET_231 2016-09-29 04:05:00 231 53281.0 9.270 9.430 9.620 9.520 9.810 99.900 99.700 9.270 9.480 15.000 14.540 11.510 10.020 0.222 0.245 0.231 0.542 0.00 0.00 0.00 0.5090 350.40 25.33 1 1 1 9.300 9.460 9.660 9.940 9.540 9.300 9.510 9.240 9.420 9.600 9.730 9.500 9.230 9.460 0.8040 11.691 11.691 0.012 11.889 11.857 0.036
VANMET_231 2016-09-29 04:00:00 231 53281.0 9.300 9.470 9.660 9.560 9.740 99.900 99.700 9.300 9.530 15.020 14.550 11.510 10.020 0.222 0.245 0.231 0.542 0.00 0.00 0.00 0.5480 4.46 3.31 1 1 1 9.340 9.530 9.710 9.820 9.590 9.330 9.560 9.260 9.420 9.620 9.700 9.530 9.250 9.500 0.6470 11.715 11.715 0.012 11.921 11.897 0.036
VANMET_231 2016-09-29 03:55:00 231 53281.0 9.280 9.510 9.690 9.560 9.830 99.800 99.700 9.260 9.530 15.030 14.550 11.500 10.020 0.222 0.245 0.231 0.542 0.00 0.00 0.00 0.6000 12.05 0.24 1 1 1 9.320 9.520 9.700 9.840 9.590 9.300 9.560 9.240 9.490 9.660 9.810 9.540 9.210 9.500 0.7640 11.699 11.683 0.023 11.921 11.897 0.036
VANMET_231 2016-09-29 03:50:00 231 53281.0 9.200 9.420 9.630 9.500 9.790 99.700 99.700 9.150 9.460 15.050 14.560 11.500 10.020 0.222 0.245 0.231 0.542 0.00 0.00 0.00 0.3410 6.87 10.76 1 1 1 9.250 9.480 9.660 9.820 9.540 9.210 9.510 9.170 9.390 9.610 9.770 9.470 9.120 9.430 0.6140 11.636 11.597 0.035 11.873 11.841 0.036
VANMET_231 2016-09-29 03:45:00 231 53281.0 9.180 9.360 9.560 9.450 9.740 99.600 99.600 9.130 9.400 15.070 14.560 11.500 10.020 0.222 0.245 0.231 0.542 0.00 0.00 0.00 0.3970 4.31 6.88 1 1 1 9.200 9.390 9.610 9.780 9.490 9.150 9.440 9.160 9.330 9.520 9.700 9.430 9.110 9.360 0.6470 11.620 11.581 0.046 11.833 11.794 0.047
VANMET_231 2016-09-29 03:40:00 231 53281.0 9.190 9.320 9.510 9.430 9.670 99.600 99.400 9.140 9.350 15.090 14.560 11.500 10.020 0.222 0.245 0.231 0.542 0.00 0.00 0.00 0.5770 3.79 2.00 1 1 1 9.220 9.330 9.530 9.720 9.450 9.170 9.370 9.160 9.310 9.500 9.630 9.400 9.110 9.320 0.6660 11.628 11.589 0.047 11.818 11.754 0.071
VANMET_231 2016-09-29 03:35:00 231 53281.0 9.250 9.370 9.560 9.460 9.660 99.600 99.400 9.200 9.380 15.100 14.570 11.500 10.020 0.222 0.245 0.231 0.542 0.00 0.00 0.00 0.5920 5.31 0.01 1 1 1 9.270 9.400 9.600 9.710 9.490 9.220 9.410 9.210 9.340 9.530 9.640 9.430 9.170 9.350 0.7380 11.675 11.636 0.047 11.841 11.778 0.071
VANMET_231 2016-09-29 03:30:00 231 53281.0 9.250 9.390 9.590 9.480 9.680 99.600 99.400 9.190 9.390 15.120 14.570 11.500 10.020 0.222 0.245 0.231 0.542 0.00 0.00 0.00 0.6510 5.56 0.41 1 1 1 9.270 9.410 9.610 9.720 9.500 9.220 9.410 9.230 9.370 9.580 9.650 9.460 9.180 9.380 0.9150 11.675 11.628 0.047 11.857 11.786 0.071
VANMET_231 2016-09-29 03:25:00 231 53281.0 9.240 9.400 9.600 9.490 9.720 99.500 99.300 9.180 9.390 15.140 14.570 11.500 10.020 0.222 0.245 0.231 0.542 0.00 0.00 0.00 0.5670 6.07 0.05 1 1 1 9.260 9.410 9.600 9.730 9.500 9.190 9.410 9.230 9.390 9.600 9.700 9.470 9.160 9.380 0.7710 11.667 11.620 0.058 11.865 11.786 0.083
VANMET_231 2016-09-29 03:20:00 231 53281.0 9.240 9.380 9.590 9.490 9.690 99.500 99.200 9.180 9.380 15.160 14.580 11.500 10.020 0.222 0.245 0.231 0.542 0.00 0.00 0.00 0.5870 6.44 0.58 1 1 1 9.270 9.400 9.600 9.720 9.510 9.200 9.410 9.220 9.360 9.590 9.680 9.480 9.150 9.370 0.7450 11.667 11.620 0.058 11.865 11.778 0.095
VANMET_231 2016-09-29 03:15:00 231 53281.0 9.280 9.430 9.600 9.510 9.710 99.500 99.100 9.210 9.390 15.170 14.580 11.500 10.020 0.222 0.245 0.231 0.542 0.00 0.00 0.00 0.5600 2.98 2.76 1 1 1 9.320 9.450 9.620 9.730 9.530 9.260 9.400 9.240 9.400 9.590 9.690 9.490 9.180 9.370 0.6930 11.699 11.644 0.058 11.881 11.786 0.107
VANMET_231 2016-09-29 03:10:00 231 53281.0 9.280 9.450 9.630 9.510 9.740 99.500 99.100 9.210 9.380 15.190 14.580 11.500 10.020 0.222 0.245 0.231 0.542 0.00 0.00 0.00 0.5960 3.43 4.65 1 1 1 9.300 9.460 9.640 9.750 9.520 9.240 9.400 9.260 9.440 9.620 9.720 9.500 9.190 9.370 0.7970 11.699 11.644 0.058 11.881 11.778 0.107
VANMET_231 2016-09-29 03:05:00 231 53281.0 9.290 9.450 9.640 9.520 9.740 99.500 99.000 9.230 9.380 15.210 14.590 11.500 10.020 0.222 0.245 0.231 0.542 0.00 0.00 0.00 0.4770 354.90 0.02 1 1 1 9.320 9.490 9.650 9.760 9.530 9.260 9.400 9.270 9.430 9.630 9.730 9.500 9.200 9.360 0.5880 11.707 11.659 0.059 11.889 11.778 0.119
VANMET_231 2016-09-29 03:00:00 231 53281.0 9.330 9.500 9.660 9.530 9.770 99.600 99.100 9.270 9.420 15.230 14.590 11.500 10.020 0.222 0.245 0.231 0.542 0.00 0.00 0.00 0.2750 354.90 0.02 1 1 1 9.350 9.520 9.670 9.790 9.560 9.290 9.450 9.320 9.490 9.650 9.750 9.510 9.260 9.380 0.5490 11.738 11.691 0.047 11.897 11.810 0.107
VANMET_231 2016-09-29 02:55:00 231 53281.0 9.340 9.530 9.690 9.560 9.810 99.600 99.400 9.290 9.470 15.240 14.590 11.500 10.020 0.222 0.245 0.231 0.542 0.00 0.00 0.00 0.0000 0.00 0.00 1 1 1 9.360 9.540 9.700 9.850 9.580 9.310 9.490 9.320 9.520 9.670 9.790 9.540 9.260 9.450 0.0000 11.746 11.707 0.047 11.921 11.849 0.072
VANMET_231 2016-09-29 02:50:00 231 53281.0 9.310 9.500 9.670 9.540 9.810 99.500 99.400 9.240 9.460 15.260 14.590 11.500 10.020 0.223 0.246 0.231 0.542 0.00 0.00 0.00 0.0240 2.89 0.00 1 1 1 9.340 9.540 9.700 9.840 9.560 9.280 9.480 9.270 9.450 9.640 9.790 9.520 9.190 9.430 0.2030 11.722 11.667 0.059 11.905 11.841 0.071
VANMET_231 2016-09-29 02:45:00 231 53281.0 9.260 9.390 9.590 9.480 9.730 99.300 99.200 9.160 9.370 15.280 14.600 11.490 10.020 0.223 0.246 0.231 0.542 0.00 0.00 0.00 0.4110 1.67 1.32 1 1 1 9.280 9.440 9.630 9.780 9.510 9.200 9.410 9.230 9.350 9.550 9.680 9.430 9.130 9.300 0.5680 11.683 11.604 0.082 11.857 11.770 0.095
VANMET_231 2016-09-29 02:40:00 231 53281.0 9.240 9.350 9.530 9.420 9.660 99.200 99.000 9.130 9.290 15.300 14.600 11.490 10.020 0.222 0.246 0.231 0.542 0.00 0.00 0.00 0.5710 0.79 0.52 1 1 1 9.270 9.350 9.540 9.680 9.450 9.160 9.330 9.230 9.340 9.520 9.640 9.400 9.120 9.250 0.6530 11.667 11.581 0.093 11.810 11.707 0.118
VANMET_231 2016-09-29 02:35:00 231 53281.0 9.250 9.360 9.530 9.410 9.650 99.200 98.800 9.140 9.240 15.310 14.600 11.490 10.020 0.222 0.246 0.231 0.542 0.00 0.00 0.00 0.5720 0.98 0.19 1 1 1 9.260 9.370 9.540 9.670 9.430 9.170 9.270 9.220 9.340 9.520 9.640 9.400 9.110 9.220 0.6930 11.675 11.589 0.093 11.802 11.667 0.142
VANMET_231 2016-09-29 02:30:00 231 53281.0 9.290 9.400 9.570 9.460 9.700 99.400 98.900 9.200 9.300 15.330 14.610 11.490 10.020 0.223 0.246 0.231 0.542 0.00 0.00 0.00 0.6170 3.54 2.23 1 1 1 9.310 9.440 9.600 9.730 9.510 9.230 9.370 9.250 9.370 9.540 9.660 9.420 9.150 9.240 0.7380 11.707 11.636 0.070 11.841 11.715 0.130
VANMET_231 2016-09-29 02:25:00 231 53281.0 9.300 9.460 9.610 9.510 9.750 99.300 99.000 9.210 9.370 15.350 14.610 11.490 10.020 0.223 0.246 0.231 0.542 0.00 0.00 0.00 0.7000 14.91 2.32 1 1 1 9.320 9.470 9.610 9.750 9.540 9.230 9.390 9.280 9.450 9.600 9.730 9.500 9.180 9.350 0.7640 11.715 11.644 0.082 11.881 11.770 0.119
VANMET_231 2016-09-29 02:20:00 231 53281.0 9.300 9.470 9.620 9.540 9.760 99.200 99.000 9.200 9.390 15.370 14.610 11.490 10.020 0.223 0.246 0.231 0.542 0.00 0.00 0.00 0.3750 17.54 0.43 1 1 1 9.330 9.490 9.640 9.790 9.570 9.220 9.430 9.270 9.450 9.610 9.750 9.510 9.170 9.370 0.6140 11.715 11.636 0.094 11.905 11.786 0.119
VANMET_231 2016-09-29 02:15:00 231 53281.0 9.330 9.470 9.650 9.540 9.830 99.100 98.900 9.210 9.390 15.380 14.610 11.490 10.020 0.223 0.246 0.231 0.542 0.00 0.00 0.00 0.1050 290.10 0.29 1 1 1 9.350 9.480 9.660 9.860 9.570 9.220 9.420 9.320 9.440 9.620 9.790 9.520 9.190 9.360 0.4050 11.738 11.644 0.106 11.905 11.786 0.131
VANMET_231 2016-09-29 02:10:00 231 53281.0 9.360 9.450 9.620 9.530 9.810 98.900 98.700 9.210 9.350 15.400 14.610 11.490 10.020 0.223 0.246 0.231 0.542 0.00 0.00 0.00 0.5130 325.00 29.32 1 1 1 9.380 9.460 9.630 9.870 9.550 9.230 9.380 9.340 9.440 9.600 9.780 9.510 9.180 9.330 0.6860 11.762 11.644 0.129 11.897 11.754 0.155
VANMET_231 2016-09-29 02:05:00 231 53281.0 9.380 9.490 9.630 9.540 9.750 98.900 98.600 9.220 9.330 15.420 14.610 11.490 10.020 0.223 0.246 0.231 0.542 0.00 0.00 0.00 0.4820 2.62 1.23 1 1 1 9.410 9.520 9.650 9.780 9.560 9.250 9.360 9.360 9.450 9.610 9.700 9.510 9.190 9.310 0.5750 11.778 11.652 0.130 11.905 11.738 0.167
VANMET_231 2016-09-29 02:00:00 231 53281.0 9.420 9.540 9.660 9.570 9.790 99.000 98.500 9.270 9.350 15.440 14.620 11.490 10.020 0.223 0.246 0.231 0.542 0.00 0.00 0.00 0.7240 7.82 2.27 1 1 1 9.440 9.540 9.660 9.800 9.580 9.290 9.380 9.390 9.520 9.650 9.780 9.550 9.240 9.320 0.9210 11.810 11.691 0.118 11.929 11.754 0.179
VANMET_231 2016-09-29 01:55:00 231 53281.0 9.410 9.540 9.670 9.590 9.810 99.000 98.500 9.270 9.370 15.450 14.620 11.490 10.020 0.223 0.246 0.231 0.542 0.00 0.00 0.00 0.7940 8.50 0.35 1 1 1 9.430 9.550 9.690 9.830 9.610 9.300 9.400 9.390 9.540 9.650 9.800 9.550 9.260 9.330 0.8890 11.802 11.691 0.118 11.945 11.770 0.179
VANMET_231 2016-09-29 01:50:00 231 53281.0 9.420 9.560 9.700 9.610 9.830 99.100 98.500 9.290 9.400 15.470 14.620 11.490 10.020 0.223 0.246 0.231 0.542 0.00 0.00 0.00 0.6670 8.86 0.31 1 1 1 9.430 9.560 9.710 9.840 9.630 9.300 9.420 9.400 9.550 9.690 9.830 9.600 9.280 9.390 0.8360 11.810 11.707 0.106 11.962 11.794 0.179
VANMET_231 2016-09-29 01:45:00 231 53281.0 9.400 9.540 9.720 9.610 9.860 99.000 98.400 9.260 9.380 15.490 14.620 11.490 10.020 0.223 0.246 0.231 0.542 0.00 0.00 0.00 0.6310 5.76 1.81 1 1 1 9.440 9.560 9.720 9.880 9.630 9.310 9.410 9.370 9.510 9.710 9.840 9.600 9.220 9.360 0.8230 11.794 11.683 0.118 11.962 11.778 0.191
VANMET_231 2016-09-29 01:40:00 231 53281.0 9.370 9.480 9.710 9.620 9.860 98.900 98.400 9.210 9.390 15.510 14.620 11.490 10.020 0.223 0.246 0.231 0.542 0.00 0.00 0.00 0.4410 341.70 17.62 1 1 1 9.380 9.500 9.710 9.890 9.640 9.220 9.420 9.350 9.470 9.700 9.830 9.600 9.180 9.370 0.5810 11.770 11.644 0.129 11.970 11.786 0.192
VANMET_231 2016-09-29 01:35:00 231 53281.0 9.400 9.500 9.720 9.630 9.890 98.800 98.400 9.230 9.410 15.520 14.620 11.490 10.020 0.223 0.246 0.231 0.542 0.00 0.00 0.00 0.4420 3.63 12.15 1 1 1 9.430 9.520 9.730 9.960 9.650 9.260 9.420 9.380 9.470 9.720 9.840 9.620 9.210 9.390 0.6140 11.794 11.659 0.142 11.978 11.802 0.192
VANMET_231 2016-09-29 01:30:00 231 53281.0 9.390 9.510 9.710 9.610 9.850 98.700 98.300 9.200 9.370 15.540 14.620 11.480 10.020 0.223 0.246 0.231 0.542 0.00 0.00 0.00 0.5490 10.97 8.87 1 1 1 9.430 9.530 9.720 9.940 9.630 9.240 9.400 9.360 9.500 9.710 9.820 9.590 9.160 9.340 0.6400 11.786 11.636 0.153 11.962 11.770 0.203
VANMET_231 2016-09-29 01:25:00 231 53281.0 9.440 9.560 9.730 9.620 9.840 98.700 98.200 9.250 9.360 15.560 14.630 11.480 10.020 0.223 0.246 0.231 0.542 0.00 0.00 0.00 0.5830 2.12 1.50 1 1 1 9.460 9.570 9.740 9.870 9.630 9.270 9.380 9.410 9.530 9.720 9.820 9.600 9.230 9.340 0.7320 11.826 11.675 0.154 11.970 11.762 0.215
VANMET_231 2016-09-29 01:20:00 231 53281.0 9.450 9.560 9.720 9.610 9.870 98.600 98.100 9.250 9.340 15.580 14.630 11.480 10.020 0.223 0.246 0.231 0.542 0.00 0.00 0.00 0.5780 357.90 5.95 1 1 1 9.470 9.570 9.740 9.920 9.650 9.270 9.390 9.420 9.550 9.710 9.830 9.600 9.210 9.290 0.8040 11.833 11.675 0.166 11.962 11.746 0.227
VANMET_231 2016-09-29 01:15:00 231 53281.0 9.490 9.580 9.730 9.640 9.850 98.600 97.900 9.280 9.330 15.590 14.630 11.480 10.020 0.223 0.246 0.231 0.542 0.00 0.00 0.00 0.5960 2.92 1.21 1 1 1 9.510 9.620 9.760 9.860 9.690 9.310 9.390 9.470 9.560 9.710 9.840 9.610 9.260 9.300 0.7120 11.865 11.699 0.166 11.986 11.738 0.252
VANMET_231 2016-09-29 01:10:00 231 53281.0 9.550 9.660 9.800 9.710 9.890 98.600 97.900 9.350 9.390 15.610 14.630 11.480 10.020 0.223 0.246 0.231 0.542 0.00 0.00 0.00 0.7900 7.67 0.10 1 1 1 9.590 9.680 9.830 9.930 9.740 9.400 9.410 9.510 9.620 9.770 9.870 9.680 9.300 9.370 0.9020 11.913 11.754 0.167 12.042 11.786 0.253
VANMET_231 2016-09-29 01:05:00 231 53281.0 9.590 9.720 9.860 9.770 9.970 98.700 97.800 9.400 9.440 15.630 14.630 11.480 10.020 0.223 0.246 0.231 0.542 0.00 0.00 0.00 0.6590 6.20 1.16 1 1 1 9.620 9.750 9.890 10.000 9.800 9.440 9.470 9.570 9.690 9.830 9.930 9.730 9.370 9.400 0.8490 11.945 11.794 0.155 12.091 11.826 0.266
VANMET_231 2016-09-29 01:00:00 231 53281.0 9.630 9.770 9.920 9.820 10.030 98.800 97.800 9.450 9.490 15.650 14.630 11.480 10.020 0.223 0.246 0.231 0.542 0.00 0.00 0.00 0.3390 3.09 3.18 1 1 1 9.650 9.780 9.930 10.050 9.840 9.480 9.520 9.610 9.750 9.890 10.000 9.790 9.430 9.450 0.6210 11.978 11.833 0.144 12.131 11.865 0.267
VANMET_231 2016-09-29 00:55:00 231 53281.0 9.660 9.800 9.950 9.860 10.060 98.800 98.000 9.490 9.560 15.660 14.630 11.480 10.020 0.223 0.246 0.231 0.542 0.00 0.00 0.00 0.3030 5.68 0.34 1 1 1 9.690 9.820 9.980 10.090 9.890 9.530 9.590 9.630 9.770 9.930 10.040 9.830 9.460 9.540 0.4970 12.002 11.865 0.144 12.164 11.921 0.243
VANMET_231 2016-09-29 00:50:00 231 53281.0 9.670 9.820 10.000 9.900 10.120 98.800 98.100 9.500 9.630 15.680 14.630 11.480 10.020 0.223 0.246 0.231 0.542 0.00 0.00 0.00 0.2920 340.30 26.05 1 1 1 9.690 9.830 10.010 10.150 9.920 9.530 9.670 9.640 9.800 9.980 10.090 9.870 9.470 9.570 0.5680 12.010 11.873 0.144 12.197 11.978 0.232
VANMET_231 2016-09-29 00:45:00 231 53281.0 9.680 9.780 10.000 9.910 10.160 98.900 98.400 9.520 9.670 15.700 14.630 11.480 10.020 0.223 0.246 0.231 0.542 0.00 0.00 0.00 0.3710 325.50 19.26 1 1 1 9.720 9.800 10.010 10.250 9.930 9.580 9.690 9.640 9.770 9.990 10.140 9.890 9.460 9.650 0.4900 12.018 11.889 0.132 12.205 12.010 0.195
VANMET_231 2016-09-29 00:40:00 231 53281.0 9.690 9.790 10.000 9.890 10.210 99.000 98.400 9.540 9.660 15.720 14.630 11.480 10.020 0.223 0.246 0.231 0.542 0.00 0.00 0.00 0.4990 348.30 10.19 1 1 1 9.720 9.800 10.000 10.280 9.910 9.580 9.680 9.660 9.790 9.980 10.110 9.880 9.510 9.650 0.6400 12.026 11.905 0.120 12.189 12.002 0.195
VANMET_231 2016-09-29 00:35:00 231 53281.0 9.670 9.810 10.020 9.890 10.130 98.900 98.300 9.520 9.650 15.730 14.630 11.480 10.020 0.223 0.246 0.231 0.542 0.00 0.00 0.00 0.6540 7.08 3.99 1 1 1 9.680 9.820 10.020 10.150 9.900 9.530 9.660 9.650 9.790 10.010 10.110 9.870 9.500 9.620 0.8170 12.010 11.889 0.132 12.189 11.994 0.207
VANMET_231 2016-09-29 00:30:00 231 53281.0 9.630 9.780 9.990 9.870 10.110 98.800 98.200 9.460 9.620 15.750 14.630 11.480 10.020 0.223 0.246 0.231 0.542 0.00 0.00 0.00 0.6690 2.99 2.76 1 1 1 9.660 9.820 10.010 10.140 9.890 9.500 9.650 9.600 9.760 9.980 10.090 9.850 9.430 9.590 0.7910 11.978 11.841 0.144 12.172 11.970 0.219
VANMET_231 2016-09-29 00:25:00 231 53281.0 9.610 9.750 9.960 9.850 10.080 98.700 98.200 9.430 9.580 15.770 14.620 11.480 10.020 0.223 0.246 0.231 0.542 0.00 0.00 0.00 0.5770 4.45 3.78 1 1 1 9.630 9.770 9.970 10.100 9.860 9.450 9.600 9.590 9.740 9.950 10.060 9.820 9.400 9.560 0.7320 11.962 11.818 0.156 12.156 11.937 0.219
VANMET_231 2016-09-29 00:20:00 231 53281.0 9.600 9.730 9.940 9.840 10.080 98.600 98.200 9.390 9.570 15.780 14.630 11.480 10.020 0.223 0.246 0.231 0.542 0.00 0.00 0.00 0.5800 2.38 8.91 1 1 1 9.620 9.770 9.950 10.090 9.860 9.430 9.600 9.570 9.690 9.910 10.050 9.820 9.350 9.550 0.7320 11.953 11.786 0.167 12.148 11.929 0.219
VANMET_231 2016-09-29 00:15:00 231 53281.0 9.590 9.700 9.890 9.800 10.030 98.400 98.000 9.360 9.510 15.800 14.620 11.480 10.020 0.223 0.246 0.231 0.542 0.00 0.00 0.00 0.4760 344.90 4.55 1 1 1 9.630 9.730 9.900 10.070 9.820 9.390 9.540 9.570 9.690 9.880 10.000 9.790 9.340 9.480 0.6530 11.945 11.762 0.191 12.115 11.881 0.242
VANMET_231 2016-09-29 00:10:00 231 53281.0 9.630 9.760 9.920 9.800 10.040 98.400 97.900 9.410 9.490 15.820 14.620 11.470 10.020 0.223 0.246 0.231 0.542 0.00 0.00 0.00 0.6070 5.39 5.34 1 1 1 9.650 9.780 9.930 10.060 9.820 9.430 9.510 9.620 9.730 9.900 10.020 9.780 9.380 9.460 0.7580 11.978 11.802 0.192 12.115 11.865 0.254
VANMET_231 2016-09-29 00:05:00 231 53281.0 9.620 9.740 9.920 9.800 10.040 98.300 97.800 9.380 9.470 15.840 14.620 11.470 10.020 0.223 0.246 0.231 0.542 0.00 0.00 0.00 0.6830 7.37 3.23 1 1 1 9.650 9.770 9.930 10.050 9.820 9.410 9.500 9.600 9.720 9.920 10.010 9.780 9.350 9.440 0.8430 11.970 11.778 0.203 12.115 11.849 0.267
VANMET_231 2016-09-29 00:00:00 231 53281.0 9.630 9.740 9.930 9.810 10.050 98.400 97.700 9.390 9.470 15.850 14.620 11.470 10.020 0.223 0.246 0.231 0.542 0.00 0.00 0.00 0.6050 5.74 1.16 1 1 1 9.640 9.750 9.940 10.080 9.840 9.420 9.500 9.610 9.720 9.920 10.010 9.790 9.360 9.450 0.8230 11.978 11.786 0.192 12.123 11.849 0.279
VANMET_231 2016-09-28 23:55:00 231 53281.0 9.620 9.740 9.930 9.820 10.050 98.400 97.800 9.380 9.500 15.870 14.620 11.470 10.020 0.223 0.246 0.231 0.542 0.00 0.00 0.00 0.6200 1.38 8.27 1 1 1 9.640 9.760 9.940 10.090 9.830 9.410 9.510 9.600 9.720 9.910 10.020 9.800 9.360 9.470 0.7320 11.970 11.778 0.192 12.131 11.873 0.267
VANMET_231 2016-09-28 23:50:00 231 53281.0 9.630 9.730 9.920 9.810 10.050 98.200 97.700 9.370 9.470 15.890 14.620 11.470 10.020 0.223 0.246 0.231 0.542 0.00 0.00 0.00 0.6250 2.35 1.26 1 1 1 9.650 9.740 9.930 10.060 9.830 9.400 9.500 9.610 9.720 9.910 10.030 9.790 9.350 9.450 0.8100 11.978 11.770 0.216 12.123 11.849 0.279
VANMET_231 2016-09-28 23:45:00 231 53281.0 9.640 9.740 9.920 9.800 10.050 98.200 97.600 9.370 9.450 15.900 14.610 11.470 10.020 0.223 0.246 0.231 0.542 0.00 0.00 0.00 0.6040 7.05 1.04 1 1 1 9.660 9.750 9.920 10.060 9.830 9.400 9.480 9.610 9.730 9.910 10.030 9.770 9.350 9.420 0.7840 11.986 11.770 0.216 12.115 11.833 0.291
VANMET_231 2016-09-28 23:40:00 231 53281.0 9.620 9.720 9.880 9.770 10.030 98.000 97.500 9.330 9.410 15.920 14.610 11.470 10.020 0.223 0.246 0.231 0.542 0.00 0.00 0.00 0.6040 359.10 8.41 1 1 1 9.640 9.740 9.910 10.050 9.800 9.360 9.440 9.590 9.700 9.850 9.990 9.740 9.290 9.340 0.8360 11.970 11.738 0.239 12.091 11.802 0.302
VANMET_231 2016-09-28 23:35:00 231 53281.0 9.650 9.710 9.870 9.770 9.980 97.800 97.200 9.330 9.350 15.930 14.610 11.470 10.020 0.223 0.246 0.231 0.542 0.00 0.00 0.00 0.4590 357.70 4.65 1 1 1 9.680 9.740 9.890 9.990 9.790 9.360 9.370 9.620 9.690 9.840 9.970 9.740 9.290 9.330 0.6270 11.994 11.738 0.264 12.091 11.754 0.339
VANMET_231 2016-09-28 23:30:00 231 53281.0 9.690 9.760 9.920 9.810 10.020 97.700 97.000 9.360 9.370 15.950 14.610 11.470 10.020 0.223 0.246 0.231 0.542 0.00 0.00 0.00 0.5390 0.70 0.00 1 1 1 9.710 9.780 9.930 10.050 9.830 9.380 9.380 9.680 9.740 9.900 9.990 9.790 9.330 9.350 0.6340 12.026 11.762 0.277 12.123 11.770 0.364
VANMET_231 2016-09-28 23:25:00 231 53281.0 9.720 9.800 9.950 9.860 10.060 97.700 97.000 9.380 9.400 15.970 14.600 11.470 10.020 0.223 0.246 0.231 0.542 0.00 0.00 0.00 0.5840 0.58 0.14 1 1 1 9.750 9.830 9.980 10.070 9.900 9.430 9.460 9.690 9.780 9.930 10.050 9.820 9.330 9.350 0.6930 12.050 11.778 0.277 12.164 11.794 0.365
VANMET_231 2016-09-28 23:20:00 231 53281.0 9.790 9.870 10.030 9.930 10.130 97.900 97.200 9.480 9.520 15.980 14.600 11.470 10.020 0.223 0.246 0.230 0.542 0.00 0.00 0.00 0.6710 5.78 5.12 1 1 1 9.810 9.890 10.050 10.170 9.950 9.510 9.540 9.750 9.840 9.980 10.070 9.890 9.440 9.450 0.7510 12.107 11.857 0.254 12.221 11.889 0.342
VANMET_231 2016-09-28 23:15:00 231 53281.0 9.800 9.900 10.050 9.960 10.190 98.000 97.300 9.510 9.550 16.000 14.600 11.470 10.020 0.223 0.246 0.230 0.542 0.00 0.00 0.00 0.5300 10.60 2.40 1 1 1 9.820 9.910 10.050 10.210 9.990 9.520 9.590 9.780 9.890 10.040 10.170 9.930 9.480 9.530 0.6860 12.115 11.881 0.242 12.246 11.913 0.331
VANMET_231 2016-09-28 23:10:00 231 53281.0 9.810 9.870 10.020 9.960 10.270 98.100 97.500 9.530 9.590 16.010 14.600 11.470 10.020 0.223 0.246 0.230 0.542 0.00 0.00 0.00 0.4490 350.40 11.81 1 1 1 9.830 9.890 10.040 10.330 9.980 9.560 9.620 9.790 9.850 10.010 10.220 9.940 9.510 9.570 0.6080 12.123 11.897 0.230 12.246 11.945 0.306
VANMET_231 2016-09-28 23:05:00 231 53281.0 9.790 9.850 10.020 9.960 10.200 97.700 97.400 9.450 9.560 16.030 14.590 11.470 10.020 0.223 0.246 0.230 0.542 0.00 0.00 0.00 0.5790 350.00 0.20 1 1 1 9.800 9.870 10.040 10.300 9.970 9.500 9.600 9.770 9.840 10.010 10.130 9.940 9.420 9.540 0.6860 12.107 11.833 0.278 12.246 11.921 0.318
VANMET_231 2016-09-28 23:00:00 231 53281.0 9.840 9.900 10.060 9.970 10.150 97.600 97.100 9.480 9.540 16.040 14.590 11.460 10.020 0.223 0.246 0.230 0.542 0.00 0.00 0.00 0.7160 6.26 3.48 1 1 1 9.870 9.940 10.090 10.180 9.990 9.520 9.560 9.800 9.870 10.040 10.140 9.950 9.450 9.520 0.7840 12.148 11.857 0.292 12.254 11.905 0.355
VANMET_231 2016-09-28 22:55:00 231 53281.0 9.870 9.960 10.100 9.990 10.200 97.500 96.900 9.500 9.530 16.060 14.590 11.460 10.020 0.223 0.246 0.230 0.542 0.00 0.00 0.00 0.8360 9.88 1.97 1 1 1 9.890 9.980 10.110 10.220 10.020 9.520 9.580 9.840 9.950 10.090 10.180 9.970 9.470 9.500 0.9540 12.172 11.873 0.304 12.271 11.897 0.380
VANMET_231 2016-09-28 22:50:00 231 53281.0 9.880 9.970 10.100 10.010 10.210 97.400 96.600 9.490 9.500 16.070 14.580 11.460 10.020 0.223 0.246 0.230 0.542 0.00 0.00 0.00 0.7310 5.49 0.09 1 1 1 9.900 9.980 10.100 10.230 10.030 9.520 9.520 9.860 9.950 10.090 10.200 9.990 9.450 9.480 0.9020 12.180 11.865 0.317 12.287 11.873 0.418
VANMET_231 2016-09-28 22:45:00 231 53281.0 9.860 9.960 10.100 10.020 10.220 97.500 96.600 9.490 9.520 16.090 14.580 11.460 10.020 0.223 0.246 0.230 0.542 0.00 0.00 0.00 0.6890 5.59 1.35 1 1 1 9.890 9.970 10.120 10.230 10.050 9.530 9.550 9.840 9.940 10.100 10.210 10.000 9.470 9.490 0.8690 12.164 11.865 0.304 12.295 11.889 0.418
VANMET_231 2016-09-28 22:40:00 231 53281.0 9.870 9.970 10.140 10.050 10.230 97.500 96.500 9.500 9.530 16.100 14.570 11.460 10.020 0.223 0.246 0.230 0.542 0.00 0.00 0.00 0.5850 359.90 1.14 1 1 1 9.890 9.980 10.160 10.260 10.080 9.510 9.560 9.850 9.940 10.120 10.200 10.020 9.470 9.500 0.6860 12.172 11.873 0.304 12.320 11.897 0.431
VANMET_231 2016-09-28 22:35:00 231 53281.0 9.880 9.970 10.150 10.080 10.240 97.500 96.600 9.510 9.570 16.120 14.570 11.460 10.020 0.223 0.246 0.230 0.542 0.00 0.00 0.00 0.5140 0.32 3.45 1 1 1 9.910 9.990 10.160 10.270 10.090 9.520 9.580 9.860 9.960 10.150 10.220 10.050 9.490 9.540 0.6470 12.180 11.881 0.305 12.345 11.929 0.420
VANMET_231 2016-09-28 22:30:00 231 53281.0 9.920 9.990 10.180 10.110 10.270 97.200 96.100 9.510 9.530 16.130 14.570 11.460 10.020 0.223 0.246 0.230 0.542 0.00 0.00 0.00 0.5890 1.22 0.28 1 1 1 9.960 10.020 10.200 10.320 10.130 9.540 9.580 9.900 9.970 10.150 10.220 10.080 9.480 9.490 0.7970 12.213 11.881 0.342 12.370 11.897 0.482
VANMET_231 2016-09-28 22:25:00 231 53281.0 9.980 10.040 10.220 10.160 10.330 97.200 96.000 9.570 9.570 16.150 14.560 11.460 10.020 0.223 0.246 0.230 0.542 0.00 0.00 0.00 0.6350 0.35 0.28 1 1 1 10.020 10.060 10.230 10.350 10.200 9.600 9.610 9.960 10.020 10.210 10.320 10.120 9.540 9.510 0.7910 12.262 11.929 0.343 12.411 11.929 0.496
VANMET_231 2016-09-28 22:20:00 231 53281.0 10.060 10.110 10.280 10.230 10.420 97.100 96.000 9.630 9.630 16.160 14.560 11.460 10.020 0.223 0.246 0.230 0.542 0.00 0.00 0.00 0.6270 359.30 9.25 1 1 1 10.090 10.140 10.300 10.520 10.250 9.660 9.650 10.000 10.060 10.230 10.330 10.210 9.580 9.610 0.8040 12.328 11.978 0.358 12.469 11.978 0.499
VANMET_231 2016-09-28 22:15:00 231 53281.0 10.120 10.180 10.340 10.270 10.430 97.000 95.800 9.670 9.640 16.180 14.550 11.460 10.020 0.223 0.246 0.230 0.542 0.00 0.00 0.00 0.5470 6.85 11.20 1 1 1 10.170 10.210 10.380 10.470 10.320 9.720 9.660 10.080 10.140 10.300 10.410 10.240 9.630 9.620 0.6860 12.378 12.010 0.371 12.503 11.986 0.525
VANMET_231 2016-09-28 22:10:00 231 53281.0 10.170 10.240 10.420 10.360 10.520 97.000 95.500 9.720 9.670 16.190 14.550 11.460 10.020 0.223 0.246 0.230 0.542 0.00 0.00 0.00 0.5770 3.23 0.03 1 1 1 10.200 10.260 10.460 10.560 10.410 9.760 9.740 10.140 10.220 10.380 10.480 10.310 9.670 9.610 0.7910 12.419 12.050 0.373 12.578 12.010 0.566
VANMET_231 2016-09-28 22:05:00 231 53281.0 10.220 10.290 10.490 10.440 10.590 97.100 95.600 9.800 9.780 16.200 14.540 11.460 10.020 0.223 0.246 0.230 0.542 0.00 0.00 0.00 0.7100 2.55 0.77 1 1 1 10.270 10.320 10.530 10.630 10.490 9.830 9.820 10.180 10.270 10.460 10.570 10.410 9.760 9.740 0.8890 12.461 12.115 0.361 12.645 12.099 0.556
VANMET_231 2016-09-28 22:00:00 231 53281.0 10.290 10.360 10.560 10.500 10.720 97.000 95.400 9.840 9.810 16.220 14.540 11.460 10.020 0.223 0.246 0.230 0.542 0.00 0.00 0.00 0.4310 336.90 11.69 1 1 1 10.320 10.390 10.580 10.790 10.530 9.880 9.830 10.240 10.320 10.540 10.650 10.480 9.800 9.780 0.5490 12.519 12.148 0.376 12.696 12.123 0.584
VANMET_231 2016-09-28 21:55:00 231 53281.0 10.330 10.410 10.600 10.540 10.730 97.000 95.700 9.890 9.890 16.230 14.530 11.460 10.020 0.223 0.246 0.230 0.542 0.00 0.00 0.00 0.4830 356.80 6.92 1 1 1 10.360 10.420 10.630 10.750 10.570 9.910 9.930 10.300 10.400 10.580 10.710 10.510 9.860 9.820 0.6270 12.553 12.189 0.377 12.730 12.189 0.547
VANMET_231 2016-09-28 21:50:00 231 53281.0 10.400 10.440 10.640 10.590 10.810 96.900 95.800 9.940 9.960 16.240 14.520 11.460 10.020 0.223 0.246 0.230 0.542 0.00 0.00 0.00 0.3800 351.10 8.79 1 1 1 10.440 10.460 10.650 10.880 10.610 9.990 9.980 10.350 10.420 10.630 10.750 10.560 9.890 9.940 0.6080 12.612 12.229 0.391 12.773 12.246 0.536
VANMET_231 2016-09-28 21:45:00 231 53281.0 10.470 10.500 10.670 10.620 10.840 96.900 95.800 10.010 9.980 16.260 14.520 11.450 10.020 0.223 0.246 0.230 0.542 0.00 0.00 0.00 0.4350 353.80 7.73 1 1 1 10.500 10.540 10.700 10.920 10.660 10.040 10.030 10.430 10.460 10.640 10.780 10.580 9.960 9.950 0.6010 12.671 12.287 0.393 12.798 12.262 0.538
VANMET_231 2016-09-28 21:40:00 231 53281.0 10.520 10.570 10.720 10.660 10.880 96.800 95.800 10.040 10.020 16.270 14.510 11.450 10.020 0.223 0.246 0.230 0.542 0.00 0.00 0.00 0.5920 353.00 9.27 1 1 1 10.560 10.610 10.750 10.940 10.680 10.080 10.040 10.490 10.540 10.710 10.810 10.630 10.010 10.000 0.7060 12.713 12.312 0.407 12.832 12.295 0.539
VANMET_231 2016-09-28 21:35:00 231 53281.0 10.590 10.670 10.790 10.710 10.890 96.900 95.900 10.120 10.090 16.280 14.510 11.450 10.020 0.223 0.246 0.230 0.542 0.00 0.00 0.00 0.7450 6.73 2.95 1 1 1 10.620 10.700 10.830 10.930 10.740 10.170 10.140 10.530 10.620 10.750 10.830 10.670 10.030 10.030 0.8890 12.773 12.378 0.396 12.875 12.353 0.528
VANMET_231 2016-09-28 21:30:00 231 53281.0 10.620 10.720 10.860 10.770 10.970 97.000 95.700 10.180 10.110 16.290 14.500 11.450 10.020 0.223 0.246 0.230 0.542 0.00 0.00 0.00 0.8420 8.75 1.35 1 1 1 10.640 10.730 10.880 11.000 10.800 10.200 10.130 10.590 10.710 10.830 10.930 10.740 10.150 10.080 0.9210 12.798 12.428 0.384 12.927 12.370 0.556
VANMET_231 2016-09-28 21:25:00 231 53281.0 10.630 10.730 10.900 10.820 11.010 96.900 95.500 10.170 10.140 16.300 14.490 11.450 10.020 0.223 0.246 0.230 0.542 0.00 0.00 0.00 0.6250 2.12 1.14 1 1 1 10.660 10.750 10.910 11.030 10.840 10.200 10.160 10.590 10.710 10.870 10.980 10.790 10.130 10.110 0.8170 12.807 12.419 0.397 12.970 12.394 0.584
VANMET_231 2016-09-28 21:20:00 231 53281.0 10.650 10.740 10.920 10.860 11.050 96.800 95.500 10.180 10.180 16.320 14.490 11.450 10.020 0.223 0.246 0.230 0.542 0.00 0.00 0.00 0.6170 359.40 12.14 1 1 1 10.670 10.760 10.930 11.100 10.880 10.210 10.200 10.630 10.730 10.910 11.040 10.830 10.150 10.150 0.7190 12.824 12.428 0.410 13.004 12.428 0.585
VANMET_231 2016-09-28 21:15:00 231 53281.0 10.690 10.790 10.940 10.870 11.090 96.900 95.600 10.230 10.210 16.330 14.480 11.450 10.020 0.223 0.246 0.230 0.542 0.00 0.00 0.00 0.5130 8.20 6.34 1 1 1 10.710 10.810 10.950 11.130 10.910 10.260 10.260 10.670 10.750 10.930 11.040 10.850 10.190 10.170 0.6530 12.858 12.469 0.399 13.013 12.453 0.573
VANMET_231 2016-09-28 21:10:00 231 53281.0 10.710 10.770 10.930 10.890 11.100 96.800 95.300 10.220 10.180 16.340 14.470 11.450 10.020 0.223 0.246 0.230 0.542 0.00 0.00 0.00 0.4960 339.40 23.20 1 1 1 10.760 10.800 10.950 11.150 10.930 10.250 10.230 10.670 10.760 10.910 11.030 10.860 10.200 10.140 0.7190 12.875 12.461 0.412 13.030 12.428 0.612
VANMET_231 2016-09-28 21:05:00 231 53281.0 10.770 10.850 11.000 10.960 11.110 96.700 95.300 10.280 10.240 16.350 14.460 11.450 10.020 0.223 0.246 0.230 0.542 0.00 0.00 0.00 0.7360 357.40 13.81 1 1 1 10.800 10.880 11.030 11.150 10.990 10.320 10.270 10.720 10.800 10.960 11.060 10.930 10.210 10.200 0.8750 12.927 12.511 0.427 13.091 12.478 0.615
VANMET_231 2016-09-28 21:00:00 231 53281.0 10.800 10.850 11.030 11.000 11.130 96.600 95.100 10.290 10.250 16.360 14.460 11.450 10.020 0.223 0.246 0.230 0.542 0.00 0.00 0.00 0.6130 2.15 2.73 1 1 1 10.840 10.880 11.060 11.160 11.040 10.330 10.300 10.780 10.830 11.020 11.080 10.980 10.250 10.220 0.7580 12.953 12.519 0.440 13.126 12.486 0.643
VANMET_231 2016-09-28 20:55:00 231 53281.0 10.870 10.960 11.120 11.060 11.200 96.300 94.600 10.320 10.250 16.370 14.450 11.450 10.020 0.223 0.246 0.230 0.542 0.00 0.00 0.00 0.6450 3.44 3.00 1 1 1 10.890 11.010 11.150 11.270 11.100 10.340 10.270 10.830 10.890 11.060 11.130 11.030 10.280 10.230 0.7450 13.013 12.545 0.481 13.179 12.486 0.712
VANMET_231 2016-09-28 20:50:00 231 53281.0 10.890 11.000 11.160 11.100 11.280 96.300 94.400 10.340 10.250 16.380 14.440 11.450 10.020 0.223 0.246 0.230 0.542 0.00 0.00 0.00 0.6950 5.19 1.87 1 1 1 10.900 11.020 11.170 11.290 11.130 10.360 10.280 10.870 10.990 11.150 11.270 11.070 10.310 10.230 0.9210 13.030 12.561 0.482 13.214 12.486 0.740
VANMET_231 2016-09-28 20:45:00 231 53281.0 10.910 11.020 11.200 11.140 11.300 96.300 94.400 10.350 10.280 16.390 14.430 11.450 10.020 0.223 0.246 0.230 0.542 0.00 0.00 0.00 0.6640 2.37 2.56 1 1 1 10.940 11.060 11.240 11.360 11.180 10.410 10.320 10.890 11.000 11.180 11.280 11.110 10.320 10.250 0.8360 13.048 12.570 0.483 13.249 12.511 0.742
VANMET_231 2016-09-28 20:40:00 231 53281.0 10.920 11.050 11.260 11.200 11.370 96.400 94.300 10.380 10.320 16.400 14.420 11.440 10.020 0.223 0.246 0.230 0.542 0.00 0.00 0.00 0.7310 7.09 3.55 1 1 1 10.940 11.060 11.270 11.390 11.220 10.410 10.340 10.900 11.030 11.250 11.350 11.170 10.360 10.300 0.8820 13.056 12.595 0.470 13.302 12.545 0.758
VANMET_231 2016-09-28 20:35:00 231 53281.0 10.930 11.050 11.290 11.220 11.370 96.300 94.200 10.380 10.330 16.400 14.420 11.440 10.020 0.223 0.246 0.230 0.542 0.00 0.00 0.00 0.5090 350.30 20.26 1 1 1 10.950 11.070 11.300 11.400 11.240 10.400 10.360 10.920 11.030 11.260 11.340 11.200 10.360 10.310 0.6530 13.065 12.595 0.483 13.319 12.553 0.773
VANMET_231 2016-09-28 20:30:00 231 53281.0 10.960 11.050 11.300 11.230 11.410 96.200 94.000 10.390 10.310 16.410 14.410 11.440 10.020 0.223 0.246 0.230 0.542 0.00 0.00 0.00 0.5910 356.90 10.95 1 1 1 10.980 11.070 11.300 11.420 11.240 10.410 10.330 10.920 11.050 11.290 11.390 11.210 10.350 10.300 0.6990 13.091 12.603 0.497 13.328 12.536 0.800
VANMET_231 2016-09-28 20:25:00 231 53281.0 10.990 11.090 11.310 11.250 11.440 96.100 94.100 10.400 10.340 16.420 14.400 11.440 10.020 0.223 0.246 0.230 0.542 0.00 0.00 0.00 0.5850 1.62 1.44 1 1 1 11.020 11.110 11.320 11.460 11.280 10.420 10.380 10.960 11.070 11.310 11.420 11.230 10.380 10.320 0.7060 13.117 12.612 0.512 13.346 12.561 0.787
VANMET_231 2016-09-28 20:20:00 231 53281.0 11.050 11.130 11.320 11.300 11.480 95.900 94.000 10.430 10.380 16.430 14.390 11.440 10.020 0.223 0.246 0.230 0.542 0.00 0.00 0.00 0.5470 355.10 9.42 1 1 1 11.080 11.170 11.340 11.570 11.330 10.470 10.410 11.010 11.100 11.300 11.430 11.250 10.400 10.350 0.6210 13.170 12.637 0.540 13.390 12.595 0.803
VANMET_231 2016-09-28 20:15:00 231 53281.0 11.100 11.190 11.370 11.340 11.510 95.900 94.000 10.480 10.420 16.430 14.380 11.440 10.020 0.223 0.246 0.230 0.542 0.00 0.00 0.00 0.6350 355.70 11.42 1 1 1 11.150 11.240 11.420 11.560 11.380 10.530 10.460 11.060 11.170 11.340 11.460 11.310 10.440 10.380 0.8490 13.214 12.679 0.542 13.426 12.629 0.806
VANMET_231 2016-09-28 20:10:00 231 53281.0 11.160 11.260 11.430 11.380 11.550 95.700 93.700 10.510 10.410 16.440 14.370 11.440 10.020 0.223 0.246 0.230 0.542 0.00 0.00 0.00 0.5940 2.50 3.27 1 1 1 11.170 11.270 11.460 11.560 11.400 10.530 10.460 11.130 11.240 11.420 11.510 11.360 10.490 10.370 0.7450 13.266 12.705 0.570 13.461 12.620 0.848
VANMET_231 2016-09-28 20:05:00 231 53281.0 11.180 11.300 11.480 11.430 11.600 95.600 93.400 10.510 10.410 16.440 14.360 11.440 10.020 0.223 0.246 0.230 0.542 0.00 0.00 0.00 0.6390 9.10 0.26 1 1 1 11.190 11.310 11.510 11.620 11.460 10.540 10.430 11.150 11.270 11.460 11.550 11.390 10.490 10.380 0.7910 13.284 12.705 0.584 13.506 12.620 0.891
VANMET_231 2016-09-28 20:00:00 231 53281.0 11.160 11.310 11.520 11.470 11.650 95.700 93.300 10.520 10.430 16.450 14.350 11.440 10.020 0.223 0.246 0.230 0.542 0.00 0.00 0.00 0.7370 7.38 3.25 1 1 1 11.180 11.320 11.530 11.680 11.500 10.540 10.450 11.140 11.280 11.510 11.620 11.450 10.490 10.410 0.8430 13.266 12.713 0.570 13.542 12.637 0.907
VANMET_231 2016-09-28 19:55:00 231 53281.0 11.180 11.300 11.540 11.510 11.650 95.700 93.200 10.520 10.460 16.450 14.350 11.440 10.020 0.223 0.246 0.230 0.542 0.00 0.00 0.00 0.6270 3.34 4.57 1 1 1 11.200 11.320 11.550 11.700 11.530 10.550 10.490 11.150 11.270 11.520 11.610 11.480 10.500 10.430 0.8430 13.284 12.713 0.571 13.578 12.662 0.923
VANMET_231 2016-09-28 19:50:00 231 53281.0 11.220 11.350 11.560 11.510 11.720 95.500 93.300 10.540 10.470 16.460 14.340 11.440 10.020 0.223 0.246 0.230 0.542 0.00 0.00 0.00 0.5620 352.30 8.89 1 1 1 11.240 11.370 11.560 11.760 11.530 10.570 10.500 11.200 11.320 11.550 11.680 11.490 10.510 10.450 0.6730 13.319 12.730 0.599 13.578 12.671 0.910
VANMET_231 2016-09-28 19:45:00 231 53281.0 11.220 11.320 11.520 11.490 11.700 95.300 93.200 10.510 10.440 16.460 14.330 11.440 10.020 0.223 0.246 0.230 0.542 0.00 0.00 0.00 0.4550 354.10 15.43 1 1 1 11.240 11.360 11.550 11.750 11.510 10.540 10.470 11.200 11.300 11.500 11.680 11.470 10.490 10.410 0.5950 13.319 12.705 0.626 13.560 12.645 0.922
VANMET_231 2016-09-28 19:40:00 231 53281.0 11.250 11.310 11.510 11.480 11.650 95.300 93.200 10.530 10.430 16.460 14.320 11.440 10.020 0.223 0.246 0.230 0.542 0.00 0.00 0.00 0.6220 359.60 2.38 1 1 1 11.290 11.320 11.510 11.680 11.500 10.570 10.480 11.210 11.300 11.510 11.630 11.460 10.490 10.400 0.7320 13.346 12.722 0.627 13.551 12.637 0.921
VANMET_231 2016-09-28 19:35:00 231 53281.0 11.310 11.360 11.550 11.530 11.630 95.300 93.300 10.600 10.500 16.470 14.310 11.430 10.020 0.223 0.246 0.230 0.542 0.00 0.00 0.00 0.5860 0.12 0.00 1 1 1 11.330 11.400 11.600 11.650 11.560 10.640 10.530 11.270 11.320 11.510 11.620 11.500 10.550 10.470 0.6600 13.399 12.781 0.630 13.596 12.696 0.911
VANMET_231 2016-09-28 19:30:00 231 53281.0 11.340 11.420 11.620 11.560 11.700 95.200 92.800 10.610 10.450 16.470 14.300 11.430 10.020 0.223 0.246 0.230 0.542 0.00 0.00 0.00 0.6210 0.37 0.32 1 1 1 11.370 11.440 11.630 11.740 11.580 10.670 10.510 11.300 11.400 11.610 11.650 11.540 10.570 10.390 0.7510 13.426 12.790 0.644 13.623 12.654 0.981
VANMET_231 2016-09-28 19:25:00 231 53281.0 11.330 11.460 11.640 11.580 11.770 95.000 92.500 10.570 10.420 16.470 14.290 11.430 10.020 0.223 0.246 0.230 0.542 0.00 0.00 0.00 0.7640 5.80 0.57 1 1 1 11.360 11.470 11.650 11.790 11.600 10.600 10.440 11.320 11.440 11.640 11.740 11.570 10.540 10.400 0.8890 13.417 12.756 0.671 13.641 12.629 1.023
VANMET_231 2016-09-28 19:20:00 231 53281.0 11.320 11.420 11.630 11.590 11.770 95.000 92.400 10.560 10.410 16.470 14.280 11.430 10.020 0.223 0.246 0.230 0.542 0.00 0.00 0.00 0.7140 2.69 1.89 1 1 1 11.340 11.440 11.640 11.790 11.610 10.580 10.450 11.300 11.400 11.620 11.750 11.570 10.530 10.380 0.9150 13.408 12.747 0.670 13.650 12.620 1.037
VANMET_231 2016-09-28 19:15:00 231 53281.0 11.330 11.390 11.600 11.580 11.750 94.600 92.400 10.510 10.400 16.470 14.270 11.430 10.020 0.223 0.246 0.230 0.542 0.00 0.00 0.00 0.5820 357.80 7.02 1 1 1 11.340 11.410 11.620 11.770 11.600 10.540 10.420 11.310 11.380 11.590 11.730 11.560 10.480 10.380 0.7120 13.417 12.705 0.725 13.641 12.612 1.037
VANMET_231 2016-09-28 19:10:00 231 53281.0 11.360 11.420 11.610 11.580 11.750 94.400 92.200 10.500 10.380 16.460 14.260 11.430 10.020 0.223 0.246 0.230 0.542 0.00 0.00 0.00 0.6050 4.99 10.72 1 1 1 11.380 11.440 11.630 11.760 11.600 10.520 10.400 11.330 11.410 11.600 11.730 11.560 10.480 10.350 0.6930 13.444 12.696 0.753 13.641 12.595 1.064
VANMET_231 2016-09-28 19:05:00 231 53281.0 11.390 11.470 11.660 11.600 11.760 94.400 92.000 10.530 10.360 16.460 14.250 11.430 10.020 0.223 0.246 0.230 0.542 0.00 0.00 0.00 0.6190 0.65 3.48 1 1 1 11.420 11.500 11.690 11.790 11.630 10.560 10.380 11.360 11.450 11.630 11.750 11.580 10.490 10.340 0.7250 13.470 12.722 0.754 13.659 12.578 1.093
VANMET_231 2016-09-28 19:00:00 231 53281.0 11.430 11.510 11.690 11.600 11.860 94.100 92.000 10.520 10.360 16.460 14.240 11.430 10.020 0.224 0.246 0.230 0.542 0.00 0.00 0.00 0.5150 358.90 8.01 1 1 1 11.450 11.520 11.700 11.960 11.630 10.560 10.390 11.410 11.500 11.670 11.780 11.560 10.480 10.340 0.7910 13.506 12.713 0.797 13.659 12.578 1.093
VANMET_231 2016-09-28 18:55:00 231 53281.0 11.470 11.520 11.680 11.620 11.790 94.100 92.200 10.560 10.400 16.450 14.230 11.430 10.020 0.224 0.246 0.230 0.542 0.00 0.00 0.00 0.5690 356.60 9.02 1 1 1 11.510 11.550 11.690 11.800 11.650 10.660 10.460 11.450 11.510 11.670 11.770 11.590 10.510 10.350 0.6860 13.542 12.747 0.799 13.677 12.612 1.067
VANMET_231 2016-09-28 18:50:00 231 53281.0 11.510 11.570 11.720 11.670 11.810 94.300 92.300 10.640 10.480 16.450 14.220 11.430 10.020 0.223 0.246 0.230 0.542 0.00 0.00 0.00 0.7180 2.53 2.26 1 1 1 11.540 11.610 11.760 11.850 11.690 10.660 10.510 11.480 11.550 11.690 11.780 11.650 10.610 10.420 0.8360 13.578 12.815 0.774 13.722 12.679 1.057
VANMET_231 2016-09-28 18:45:00 231 53281.0 11.550 11.630 11.780 11.710 11.900 94.200 91.500 10.660 10.380 16.440 14.210 11.430 10.020 0.224 0.246 0.230 0.542 0.00 0.00 0.00 0.8500 7.97 0.86 1 1 1 11.570 11.670 11.800 11.930 11.730 10.720 10.420 11.530 11.610 11.760 11.860 11.680 10.620 10.350 1.0060 13.614 12.832 0.790 13.759 12.595 1.169
VANMET_231 2016-09-28 18:40:00 231 53281.0 11.560 11.650 11.820 11.770 11.950 94.100 91.500 10.660 10.430 16.440 14.190 11.420 10.020 0.224 0.246 0.230 0.542 0.00 0.00 0.00 0.7830 7.11 1.74 1 1 1 11.610 11.670 11.840 12.010 11.800 10.710 10.470 11.530 11.630 11.800 11.920 11.730 10.620 10.400 1.0650 13.623 12.832 0.804 13.813 12.637 1.174
VANMET_231 2016-09-28 18:35:00 231 53281.0 11.620 11.690 11.880 11.820 11.990 93.800 91.200 10.670 10.440 16.430 14.180 11.420 10.020 0.224 0.246 0.230 0.542 0.00 0.00 0.00 0.7300 3.95 4.09 1 1 1 11.670 11.710 11.920 12.100 11.860 10.700 10.470 11.590 11.670 11.840 11.920 11.780 10.650 10.410 0.9600 13.677 12.841 0.848 13.859 12.645 1.220
VANMET_231 2016-09-28 18:30:00 231 53281.0 11.730 11.780 11.920 11.890 12.030 93.200 90.700 10.670 10.440 16.420 14.170 11.420 10.020 0.224 0.246 0.230 0.542 0.00 0.00 0.00 0.8020 5.08 6.24 1 1 1 11.770 11.840 11.980 12.110 11.950 10.700 10.480 11.660 11.720 11.900 11.960 11.850 10.630 10.390 1.0710 13.777 12.841 0.937 13.923 12.645 1.295
VANMET_231 2016-09-28 18:25:00 231 53281.0 11.800 11.890 12.030 12.010 12.110 93.200 90.200 10.740 10.460 16.410 14.160 11.420 10.020 0.224 0.246 0.230 0.542 0.00 0.00 0.00 0.7930 6.50 4.03 1 1 1 11.840 11.910 12.050 12.130 12.080 10.800 10.530 11.770 11.850 11.990 12.060 11.940 10.680 10.400 1.0060 13.841 12.901 0.941 14.034 12.662 1.375
VANMET_231 2016-09-28 18:20:00 231 53281.0 11.890 11.990 12.120 12.110 12.220 92.600 89.600 10.740 10.470 16.400 14.150 11.420 10.020 0.224 0.246 0.230 0.542 0.00 0.00 0.00 0.7260 0.05 7.24 1 1 1 11.990 12.050 12.170 12.300 12.170 10.810 10.550 11.820 11.920 12.060 12.120 12.060 10.680 10.410 0.9870 13.923 12.901 1.030 14.127 12.671 1.469
VANMET_231 2016-09-28 18:15:00 231 53281.0 12.070 12.080 12.190 12.250 12.270 92.300 89.600 10.860 10.590 16.390 14.140 11.420 10.020 0.224 0.246 0.230 0.542 0.00 0.00 0.00 0.8290 2.01 6.89 1 1 1 12.130 12.130 12.250 12.320 12.320 10.880 10.670 12.010 12.050 12.160 12.240 12.170 10.820 10.490 1.0000 14.089 13.004 1.085 14.257 12.773 1.483
VANMET_231 2016-09-28 18:10:00 231 53281.0 12.190 12.210 12.350 12.470 12.380 91.800 87.900 10.900 10.530 16.380 14.130 11.420 10.020 0.224 0.246 0.230 0.542 0.00 0.00 0.00 0.7720 4.67 2.38 1 1 1 12.240 12.260 12.440 12.450 12.620 10.970 10.580 12.120 12.140 12.250 12.280 12.330 10.820 10.470 0.9150 14.201 13.039 1.164 14.465 12.722 1.750
VANMET_231 2016-09-28 18:05:00 231 53281.0 12.320 12.380 12.600 12.760 12.550 91.600 87.600 11.000 10.760 16.360 14.120 11.420 10.020 0.224 0.246 0.230 0.542 0.00 0.00 0.00 0.7410 1.42 4.07 1 1 1 12.390 12.470 12.740 12.720 12.870 11.080 10.810 12.240 12.270 12.450 12.440 12.640 10.950 10.630 0.9470 14.323 13.126 1.203 14.743 12.918 1.828
VANMET_231 2016-09-28 18:00:00 231 53281.0 12.460 12.570 12.800 12.920 12.870 91.200 85.700 11.080 10.580 16.350 14.110 11.420 10.020 0.224 0.246 0.230 0.542 0.00 0.00 0.00 0.5740 326.40 34.38 1 1 1 12.530 12.650 12.850 12.980 13.000 11.110 10.770 12.390 12.480 12.760 12.770 12.880 11.050 10.380 0.8300 14.456 13.196 1.272 14.898 12.764 2.130
VANMET_231 2016-09-28 17:55:00 231 53281.0 12.600 12.700 12.900 13.060 13.020 90.500 85.100 11.100 10.620 16.330 14.100 11.420 10.010 0.224 0.247 0.230 0.542 0.24 0.00 0.00 0.5190 330.70 32.69 1 1 1 12.680 12.740 12.950 13.370 13.140 11.180 10.770 12.530 12.660 12.860 12.880 13.010 10.940 10.290 0.8620 14.589 13.214 1.386 15.035 12.798 2.240
VANMET_231 2016-09-28 17:50:00 231 53281.0 12.740 12.820 13.040 13.250 13.080 90.000 85.200 11.160 10.820 16.320 14.090 11.410 10.010 0.224 0.247 0.230 0.542 2.03 0.00 0.00 0.4900 335.20 22.22 1 1 1 12.810 12.890 13.110 13.180 13.350 11.260 10.990 12.670 12.740 12.950 13.000 13.140 11.100 10.660 0.7510 14.724 13.266 1.472 15.223 12.970 2.253
VANMET_231 2016-09-28 17:45:00 231 53281.0 12.910 12.990 13.210 13.420 13.280 89.600 84.100 11.250 10.810 16.300 14.080 11.410 10.010 0.224 0.247 0.230 0.542 3.93 0.00 0.00 0.4580 313.40 59.06 1 1 1 13.000 13.060 13.270 13.540 13.470 11.310 11.000 12.820 12.900 13.120 13.100 13.360 11.200 10.490 0.9670 14.889 13.346 1.548 15.393 12.961 2.447
VANMET_231 2016-09-28 17:40:00 231 53281.0 13.080 13.150 13.330 13.600 13.330 88.900 84.600 11.310 11.060 16.280 14.070 11.410 10.010 0.224 0.247 0.230 0.542 5.86 0.00 0.00 0.0590 309.60 17.77 1 1 1 13.160 13.240 13.450 13.400 13.790 11.340 11.160 13.020 13.070 13.240 13.280 13.460 11.260 10.860 0.4380 15.055 13.399 1.671 15.574 13.179 2.398
VANMET_231 2016-09-28 17:35:00 231 53281.0 13.260 13.380 13.630 14.020 13.530 87.500 81.500 11.250 10.920 16.260 14.060 11.410 10.010 0.224 0.247 0.230 0.542 7.83 0.00 0.00 0.0200 2.64 4.04 1 1 1 13.370 13.500 13.800 13.820 14.250 11.320 11.010 13.160 13.250 13.460 13.370 13.810 11.130 10.550 0.2030 15.233 13.346 1.904 16.005 13.056 2.961
VANMET_231 2016-09-28 17:30:00 231 53281.0 13.480 13.650 13.980 14.440 13.880 85.900 79.220 11.180 10.900 16.240 14.050 11.410 10.010 0.224 0.247 0.230 0.542 9.78 0.00 0.00 0.1130 256.30 33.11 1 1 1 13.620 13.780 14.120 14.030 14.590 11.240 11.050 13.360 13.520 13.830 13.710 14.260 11.150 10.750 0.4050 15.453 13.284 2.179 16.447 13.039 3.418
VANMET_231 2016-09-28 17:25:00 231 53281.0 13.840 14.010 14.330 14.740 14.090 84.500 77.980 11.280 10.960 16.220 14.040 11.410 10.010 0.224 0.247 0.230 0.542 12.01 0.00 0.00 0.3220 267.80 29.60 1 1 1 14.070 14.240 14.560 14.380 14.900 11.340 11.040 13.620 13.800 14.130 13.880 14.580 11.180 10.800 0.5420 15.819 13.372 2.452 16.769 13.091 3.692
VANMET_231 2016-09-28 17:20:00 231 53281.0 14.260 14.440 14.720 15.030 14.700 82.300 75.560 11.300 10.760 16.190 14.030 11.410 10.020 0.224 0.247 0.230 0.542 19.09 0.00 0.00 0.4200 271.00 25.60 1 1 1 14.450 14.580 14.830 14.970 15.150 11.520 11.060 14.090 14.270 14.600 14.440 14.920 10.990 10.530 0.6790 16.256 13.390 2.877 17.085 12.918 4.176
VANMET_231 2016-09-28 17:15:00 231 53281.0 14.640 14.740 14.980 15.290 14.820 81.000 74.940 11.430 10.880 16.170 14.020 11.410 10.020 0.224 0.247 0.230 0.542 26.16 0.00 0.00 0.4360 219.30 16.36 1 1 1 14.780 14.920 15.130 14.930 15.410 11.560 11.060 14.460 14.580 14.840 14.680 15.150 11.180 10.710 0.6930 16.661 13.506 3.166 17.373 13.022 4.354
VANMET_231 2016-09-28 17:10:00 231 53281.0 14.900 15.080 15.280 15.520 15.270 77.930 72.820 11.090 10.670 16.140 14.010 11.410 10.020 0.224 0.247 0.230 0.542 61.37 0.00 0.00 0.6840 233.60 26.98 1 1 1 14.960 15.150 15.340 15.530 15.580 11.790 11.200 14.790 14.940 15.160 14.900 15.440 10.430 10.310 1.3920 16.942 13.205 3.739 17.631 12.841 4.792
VANMET_231 2016-09-28 17:05:00 231 53281.0 14.960 15.140 15.380 15.570 15.470 75.900 71.680 10.760 10.490 16.120 14.000 11.400 10.010 0.224 0.247 0.230 0.542 103.20 0.00 0.00 0.8880 206.90 21.08 1 1 1 15.020 15.170 15.440 15.560 15.610 11.040 10.630 14.920 15.130 15.350 15.390 15.540 10.590 10.300 1.3590 17.008 12.918 4.099 17.688 12.688 5.009
VANMET_231 2016-09-28 17:00:00 231 53281.0 15.090 15.210 15.470 15.740 15.410 79.590 72.510 11.590 10.820 16.090 13.990 11.400 10.010 0.224 0.247 0.230 0.542 123.30 0.00 0.00 0.9040 233.10 26.22 1 1 1 15.270 15.360 15.600 15.560 15.900 12.430 11.600 15.000 15.130 15.400 15.210 15.610 10.460 10.250 1.5350 17.151 13.650 3.501 17.881 12.970 4.916
VANMET_231 2016-09-28 16:55:00 231 53281.0 15.430 15.550 15.770 16.070 15.600 78.460 72.720 11.710 11.180 16.070 13.980 11.400 10.010 0.224 0.247 0.230 0.542 138.50 0.00 0.00 0.5630 247.50 30.68 1 1 1 15.540 15.670 15.880 15.860 16.190 12.370 11.780 15.290 15.380 15.600 15.330 15.930 10.900 10.430 0.9470 17.530 13.759 3.776 18.263 13.284 4.982
VANMET_231 2016-09-28 16:50:00 231 53281.0 15.700 15.860 16.030 16.380 15.880 75.140 71.320 11.320 11.190 16.040 13.980 11.400 10.010 0.224 0.247 0.230 0.542 154.70 0.00 0.00 0.6070 231.90 24.04 1 1 1 15.780 15.990 16.100 16.090 16.480 11.650 11.590 15.560 15.680 15.890 15.580 16.210 10.880 10.720 1.1690 17.836 13.408 4.434 18.627 13.293 5.342
VANMET_231 2016-09-28 16:45:00 231 53281.0 15.900 16.220 16.280 16.720 15.900 75.430 70.630 11.580 11.370 16.010 13.970 11.400 10.010 0.224 0.247 0.230 0.542 163.60 0.00 0.00 0.8610 238.50 36.53 1 1 1 16.110 16.560 16.520 16.140 16.930 12.080 12.090 15.770 16.000 16.100 15.690 16.500 11.190 10.910 1.7120 18.065 13.641 4.439 19.034 13.452 5.590
VANMET_231 2016-09-28 16:40:00 231 53281.0 16.300 16.910 16.820 17.300 16.270 72.630 67.560 11.380 11.260 15.980 13.960 11.400 10.010 0.224 0.247 0.230 0.542 183.60 0.00 0.00 1.2370 230.50 24.40 1 1 1 16.440 17.110 17.090 16.420 17.590 11.880 12.040 16.120 16.580 16.530 16.130 16.980 10.930 10.860 2.0710 18.532 13.461 5.072 19.747 13.355 6.406
VANMET_231 2016-09-28 16:35:00 231 53281.0 16.670 17.170 17.470 17.680 16.620 72.400 67.320 11.690 11.560 15.950 13.950 11.400 10.010 0.224 0.247 0.230 0.542 201.70 0.00 0.00 0.9630 212.30 22.58 1 1 1 16.770 17.240 17.640 16.720 17.730 12.110 12.110 16.470 17.080 17.150 16.530 17.620 11.300 11.020 1.6920 18.974 13.740 5.237 20.226 13.623 6.610
VANMET_231 2016-09-28 16:30:00 231 53281.0 16.920 17.360 17.720 17.800 16.820 70.310 65.760 11.490 11.320 15.920 13.940 11.400 10.010 0.224 0.247 0.230 0.542 218.30 0.00 0.00 1.3360 209.70 30.76 1 1 1 17.060 17.450 17.810 16.930 17.900 11.790 11.670 16.770 17.200 17.620 16.750 17.680 11.260 10.870 2.2470 19.277 13.560 5.723 20.380 13.408 6.978
VANMET_231 2016-09-28 16:25:00 231 53281.0 17.150 17.540 17.980 18.170 16.750 71.210 65.230 11.910 11.550 15.890 13.930 11.400 10.010 0.224 0.247 0.230 0.542 232.70 0.00 0.00 1.1420 222.10 25.91 1 1 1 17.310 17.970 18.430 16.950 18.500 12.410 12.290 17.050 17.340 17.730 16.620 17.860 11.340 10.880 1.9990 19.560 13.941 5.631 20.859 13.614 7.253
VANMET_231 2016-09-28 16:20:00 231 53281.0 17.360 17.920 18.370 18.380 16.960 70.960 65.180 12.050 11.740 15.850 13.930 11.400 10.010 0.224 0.247 0.230 0.542 229.30 0.00 0.00 0.8710 225.40 14.11 1 1 1 17.490 17.990 18.490 17.080 18.480 12.470 12.210 17.250 17.830 18.230 16.840 18.260 11.510 11.250 1.5810 19.822 14.071 5.756 21.136 13.786 7.360
VANMET_231 2016-09-28 16:15:00 231 53281.0 17.620 17.820 18.240 18.210 17.030 69.890 66.660 12.070 11.920 15.820 13.920 11.400 10.010 0.224 0.247 0.230 0.542 263.90 0.00 0.00 0.6700 200.30 49.41 1 1 1 17.870 17.930 18.280 17.110 18.270 13.000 12.550 17.520 17.730 18.180 16.900 18.120 11.450 11.460 1.3590 20.150 14.089 6.067 20.912 13.951 6.972
VANMET_231 2016-09-28 16:10:00 231 53281.0 18.420 18.340 18.550 18.480 17.300 65.130 64.050 11.770 11.570 15.790 13.910 11.390 10.010 0.224 0.247 0.230 0.542 281.20 0.00 0.00 1.3990 225.20 21.10 1 1 1 18.850 18.760 18.960 17.530 18.760 12.580 12.380 17.930 17.890 18.250 17.070 18.230 11.260 11.130 2.6980 21.189 13.813 7.389 21.269 13.632 7.646
VANMET_231 2016-09-28 16:05:00 231 53281.0 19.110 18.980 19.120 18.890 17.460 66.630 66.050 12.760 12.420 15.750 13.900 11.390 10.010 0.224 0.247 0.230 0.542 294.30 0.00 0.00 1.1220 225.60 38.92 1 1 1 19.260 19.200 19.260 17.650 18.940 13.650 13.140 18.790 18.700 18.880 17.270 18.760 11.850 11.830 1.8950 22.123 14.743 7.382 21.821 14.418 7.408
VANMET_231 2016-09-28 16:00:00 231 53281.0 19.370 19.040 19.150 18.860 17.630 64.950 65.710 12.630 12.320 15.720 13.900 11.390 10.010 0.224 0.247 0.230 0.542 310.70 0.00 0.00 0.9460 252.20 27.28 1 1 1 19.470 19.130 19.230 17.890 18.940 13.210 12.890 19.200 18.930 19.080 17.310 18.820 12.100 11.540 1.6790 22.484 14.618 7.881 21.780 14.323 7.469
VANMET_231 2016-09-28 15:55:00 231 53281.0 19.850 19.500 19.490 19.050 18.010 64.180 65.580 12.890 12.460 15.690 13.890 11.390 10.010 0.224 0.247 0.230 0.542 325.00 0.00 0.00 1.1600 197.10 25.35 1 1 1 19.990 19.650 19.600 18.250 19.170 14.080 13.600 19.430 19.090 19.200 17.740 18.950 11.950 11.660 2.3910 23.164 14.869 8.297 22.040 14.456 7.586
VANMET_231 2016-09-28 15:50:00 231 53281.0 19.950 19.720 19.740 19.220 18.100 65.640 67.000 13.340 12.960 15.650 13.880 11.390 10.010 0.224 0.247 0.230 0.542 340.00 0.00 0.00 1.0570 210.80 33.19 1 1 1 20.120 19.860 19.880 18.360 19.290 14.460 13.740 19.830 19.560 19.560 17.820 19.120 12.390 12.140 1.8100 23.308 15.313 8.009 22.275 14.937 7.351
VANMET_231 2016-09-28 15:45:00 231 53281.0 19.680 19.380 19.480 19.110 18.080 67.760 68.070 13.560 13.090 15.610 13.880 11.390 10.010 0.224 0.247 0.230 0.542 355.00 0.00 0.00 0.8450 204.20 34.65 1 1 1 19.910 19.640 19.640 18.380 19.210 14.600 13.920 19.480 19.170 19.330 17.860 19.030 12.550 12.470 1.8950 22.921 15.534 7.390 22.123 15.065 7.064
VANMET_231 2016-09-28 15:40:00 231 53281.0 19.900 19.490 19.510 19.150 18.230 67.960 68.920 13.810 13.330 15.580 13.870 11.390 10.010 0.224 0.247 0.230 0.542 369.80 0.00 0.00 1.0340 211.60 26.50 1 1 1 20.120 19.730 19.780 18.430 19.300 14.720 14.060 19.620 19.290 19.200 17.950 19.040 12.320 12.540 1.7970 23.236 15.789 7.445 22.178 15.303 6.893
VANMET_231 2016-09-28 15:35:00 231 53281.0 19.860 19.550 19.460 19.250 18.300 66.270 67.000 13.390 12.980 15.540 13.870 11.390 10.010 0.224 0.247 0.230 0.542 384.80 0.00 0.00 1.2530 234.00 44.77 1 1 1 20.080 19.820 19.670 18.590 19.340 14.220 13.690 19.550 19.270 19.190 18.030 19.060 12.370 12.130 2.6460 23.178 15.363 7.818 22.317 14.957 7.364
VANMET_231 2016-09-28 15:30:00 231 53281.0 20.040 19.710 19.640 19.370 18.320 65.580 67.750 13.410 13.270 15.500 13.860 11.390 10.010 0.225 0.247 0.230 0.542 398.50 0.00 0.00 0.9180 212.50 29.00 1 1 1 20.190 19.830 19.830 18.550 19.450 14.350 13.870 19.880 19.580 19.500 18.120 19.320 12.670 12.640 1.9860 23.438 15.383 8.067 22.484 15.243 7.251
VANMET_231 2016-09-28 15:25:00 231 53281.0 20.330 19.880 19.810 19.500 18.490 64.400 66.070 13.390 13.010 15.470 13.860 11.390 10.010 0.225 0.247 0.230 0.542 412.60 0.00 0.00 1.2430 229.10 28.09 1 1 1 20.550 19.960 19.890 18.700 19.550 14.450 13.810 20.180 19.790 19.640 18.190 19.400 12.550 12.150 1.8100 23.862 15.363 8.495 22.666 14.986 7.691
VANMET_231 2016-09-28 15:20:00 231 53281.0 20.580 20.180 20.220 19.740 18.870 62.980 64.600 13.300 12.900 15.430 13.850 11.390 10.010 0.225 0.247 0.230 0.542 425.50 0.00 0.00 0.8810 221.10 48.89 1 1 1 20.770 20.410 20.500 19.170 19.900 13.830 13.690 20.450 19.820 19.860 18.410 19.530 12.570 12.080 1.4960 24.233 15.273 8.971 23.007 14.879 8.144
VANMET_231 2016-09-28 15:15:00 231 53281.0 20.570 20.250 20.260 19.730 18.770 66.390 67.000 14.090 13.440 15.390 13.850 11.390 10.010 0.225 0.247 0.230 0.542 437.90 0.00 0.00 0.9550 213.50 28.66 1 1 1 20.680 20.330 20.350 18.980 19.820 15.200 14.140 20.460 20.130 20.150 18.320 19.640 12.910 12.350 1.7250 24.218 16.078 8.140 22.992 15.413 7.587
VANMET_231 2016-09-28 15:10:00 231 53281.0 20.490 19.850 19.860 19.470 18.420 66.190 67.420 13.980 13.290 15.350 13.850 11.390 10.010 0.225 0.247 0.230 0.542 450.60 0.00 0.00 0.7700 184.40 36.01 1 1 1 20.600 20.130 20.170 18.870 19.590 14.970 13.930 20.410 19.680 19.670 18.010 19.320 13.420 12.740 1.6200 24.099 15.964 8.148 22.624 15.263 7.371
VANMET_231 2016-09-28 15:05:00 231 53281.0 20.610 20.080 20.040 19.640 18.660 64.700 66.280 13.740 13.190 15.310 13.840 11.380 10.010 0.225 0.247 0.230 0.542 463.90 0.00 0.00 0.9540 208.70 47.99 1 1 1 20.790 20.270 20.260 18.900 19.710 14.540 13.760 20.420 19.890 19.820 18.340 19.560 12.600 12.490 1.8160 24.278 15.717 8.570 22.864 15.164 7.710
VANMET_231 2016-09-28 15:00:00 231 53281.0 20.630 20.060 20.090 19.730 18.690 64.000 65.240 13.590 13.030 15.280 13.840 11.380 10.010 0.225 0.247 0.230 0.542 476.80 0.00 0.00 0.7370 180.70 27.63 1 1 1 20.780 20.250 20.290 18.870 19.960 14.570 14.050 20.560 19.920 19.930 18.390 19.600 12.670 12.250 1.0580 24.308 15.564 8.751 22.992 15.006 7.992
VANMET_231 2016-09-28 14:55:00 231 53281.0 21.200 20.760 20.740 20.310 19.460 62.760 64.040 13.830 13.300 15.240 13.830 11.380 10.010 0.225 0.247 0.230 0.542 490.10 0.00 0.00 1.2270 213.80 24.59 1 1 1 21.400 21.080 21.030 19.870 20.470 14.570 13.930 20.820 20.220 20.240 18.810 20.030 12.650 12.270 1.8750 25.174 15.809 9.375 23.833 15.273 8.570
VANMET_231 2016-09-28 14:50:00 231 53281.0 21.210 20.740 20.730 20.260 19.490 63.260 65.090 13.960 13.500 15.200 13.830 11.380 10.010 0.225 0.247 0.230 0.542 502.30 0.00 0.00 1.2000 238.60 36.09 1 1 1 21.340 20.960 21.010 19.840 20.430 14.580 14.290 21.060 20.580 20.530 19.110 20.150 13.220 12.810 1.9930 25.190 15.943 9.255 23.759 15.473 8.294
VANMET_231 2016-09-28 14:45:00 231 53281.0 21.160 20.540 20.520 20.040 19.160 60.790 63.380 13.300 12.880 15.160 13.830 11.380 10.010 0.225 0.247 0.230 0.542 513.90 0.00 0.00 0.8720 216.70 41.38 1 1 1 21.350 20.750 20.750 19.600 20.230 14.370 13.530 21.040 20.340 20.320 18.720 19.890 12.510 12.130 2.3000 25.113 15.273 9.847 23.438 14.859 8.583
VANMET_231 2016-09-28 14:40:00 231 53281.0 21.340 20.900 20.870 20.300 19.600 62.610 64.300 13.930 13.350 15.120 13.830 11.380 10.010 0.225 0.247 0.230 0.542 526.20 0.00 0.00 1.1570 226.20 31.55 1 1 1 21.480 21.090 21.000 19.870 20.380 15.200 14.180 21.220 20.670 20.670 19.150 20.220 13.180 12.810 1.8550 25.391 15.912 9.494 23.818 15.323 8.503
VANMET_231 2016-09-28 14:35:00 231 53281.0 20.910 20.500 20.500 19.920 19.260 63.670 65.310 13.780 13.240 15.080 13.820 11.380 10.010 0.225 0.247 0.230 0.542 536.30 0.00 0.00 0.7480 220.90 35.81 1 1 1 21.230 20.930 20.950 19.780 20.280 14.760 13.920 20.490 19.980 20.060 18.800 19.700 12.260 12.330 1.5550 24.730 15.758 8.984 23.265 15.213 8.071
VANMET_231 2016-09-28 14:30:00 231 53281.0 20.370 19.940 20.000 19.620 19.110 64.210 64.920 13.380 12.840 15.040 13.820 11.380 10.010 0.225 0.247 0.230 0.542 549.30 0.00 0.00 1.0920 219.50 44.68 1 1 1 20.640 20.280 20.350 19.560 19.850 14.550 13.710 19.970 19.570 19.630 18.790 19.400 11.860 11.650 2.4760 23.921 15.353 8.561 22.836 14.820 8.011
VANMET_231 2016-09-28 14:25:00 231 53281.0 20.220 19.960 20.070 19.720 19.070 64.680 65.670 13.360 13.130 15.000 13.820 11.380 10.010 0.225 0.247 0.230 0.542 560.60 0.00 0.00 1.5500 222.40 26.57 1 1 1 20.460 20.280 20.310 19.490 19.870 14.490 13.930 19.930 19.530 19.600 18.660 19.430 12.310 12.340 2.3390 23.701 15.333 8.371 22.978 15.104 7.888
VANMET_231 2016-09-28 14:20:00 231 53281.0 20.390 20.030 20.060 19.800 19.180 63.440 65.070 13.230 13.060 14.960 13.820 11.380 10.010 0.225 0.247 0.230 0.542 569.70 0.00 0.00 1.0140 249.10 44.71 1 1 1 20.670 20.390 20.410 19.750 19.970 14.260 13.900 20.190 19.750 19.800 18.750 19.680 12.400 12.440 1.7640 23.951 15.203 8.756 23.092 15.035 8.066
VANMET_231 2016-09-28 14:15:00 231 53281.0 20.520 20.170 20.200 19.880 19.330 64.900 65.350 13.700 13.210 14.920 13.820 11.380 10.010 0.225 0.248 0.230 0.542 580.70 0.00 0.00 0.9930 231.80 24.20 1 1 1 20.690 20.420 20.470 19.710 20.060 14.880 13.790 20.370 19.990 20.030 18.990 19.750 12.590 12.540 1.7710 24.143 15.676 8.474 23.207 15.183 8.041
VANMET_231 2016-09-28 14:10:00 231 53281.0 20.560 20.260 20.210 19.790 19.520 65.290 67.270 13.830 13.560 14.880 13.820 11.380 10.010 0.225 0.248 0.230 0.542 590.00 0.00 0.00 1.1260 223.70 27.63 1 1 1 20.710 20.390 20.460 19.810 20.030 14.630 14.110 20.420 20.030 19.920 19.230 19.510 13.060 12.940 2.1430 24.203 15.809 8.401 23.078 15.534 7.553
VANMET_231 2016-09-28 14:05:00 231 53281.0 20.470 20.010 19.860 19.570 19.210 64.300 66.150 13.510 13.100 14.850 13.820 11.380 10.010 0.225 0.248 0.230 0.542 601.10 0.00 0.00 1.3530 225.80 28.11 1 1 1 20.610 20.180 20.040 19.490 19.750 14.230 13.510 20.310 19.760 19.590 18.790 19.390 12.720 12.650 2.1360 24.069 15.483 8.593 22.765 15.075 7.706
VANMET_231 2016-09-28 14:00:00 231 53281.0 20.880 20.410 20.300 20.000 19.440 63.450 65.210 13.690 13.280 14.810 13.820 11.370 10.010 0.225 0.248 0.230 0.542 608.30 0.00 0.00 1.4000 231.10 32.77 1 1 1 21.180 20.860 20.710 20.160 20.140 15.160 14.700 20.370 19.900 19.820 18.700 19.730 12.450 12.600 1.9930 24.685 15.666 9.022 23.380 15.253 8.134
VANMET_231 2016-09-28 13:55:00 231 53281.0 20.610 20.180 20.220 19.830 19.260 64.660 65.770 13.730 13.250 14.770 13.820 11.370 10.010 0.225 0.248 0.230 0.542 616.20 0.00 0.00 0.9270 215.90 36.89 1 1 1 20.900 20.360 20.460 19.590 19.940 14.720 14.120 20.430 19.970 19.940 18.790 19.700 12.860 12.580 1.6860 24.278 15.707 8.580 23.135 15.223 7.919
VANMET_231 2016-09-28 13:50:00 231 53281.0 20.450 20.040 20.020 19.560 19.290 65.410 67.210 13.760 13.330 14.740 13.820 11.370 10.010 0.225 0.248 0.230 0.542 624.80 0.00 0.00 0.9250 207.70 34.59 1 1 1 20.710 20.370 20.450 19.660 19.850 15.170 13.760 20.270 19.760 19.680 19.000 19.350 13.040 12.760 1.6330 24.039 15.737 8.315 22.751 15.303 7.460
VANMET_231 2016-09-28 13:45:00 231 53281.0 20.530 20.010 19.930 19.740 19.100 63.860 65.750 13.460 13.160 14.700 13.820 11.370 10.010 0.225 0.248 0.230 0.542 633.90 0.00 0.00 1.4490 255.10 28.45 1 1 1 20.930 20.590 20.530 19.700 20.150 14.620 14.030 20.110 19.520 19.410 18.640 19.300 12.660 12.530 3.2410 24.158 15.433 8.731 23.007 15.134 7.880
VANMET_231 2016-09-28 13:40:00 231 53281.0 20.770 20.250 20.330 19.960 19.300 63.670 66.060 13.640 13.440 14.660 13.820 11.370 10.010 0.226 0.248 0.230 0.542 640.50 0.00 0.00 0.9970 258.70 30.77 1 1 1 20.830 20.370 20.420 19.680 20.020 14.290 14.010 20.700 20.090 20.150 18.740 19.890 12.990 12.750 1.6010 24.518 15.615 8.907 23.322 15.413 7.916
VANMET_231 2016-09-28 13:35:00 231 53281.0 20.870 20.420 20.410 19.910 19.490 64.260 66.860 13.890 13.580 14.630 13.820 11.370 10.010 0.226 0.248 0.230 0.542 647.70 0.00 0.00 1.2930 243.80 33.16 1 1 1 20.930 20.540 20.540 19.840 19.980 14.940 14.060 20.730 20.260 20.300 18.980 19.830 13.090 13.120 2.2870 24.669 15.871 8.817 23.250 15.554 7.705
VANMET_231 2016-09-28 13:30:00 231 53281.0 20.680 20.380 20.350 19.920 19.810 66.290 66.970 14.180 13.620 14.600 13.820 11.370 10.010 0.226 0.248 0.230 0.542 654.60 0.00 0.00 1.2620 262.60 26.15 1 1 1 20.840 20.520 20.540 20.000 19.980 15.320 14.200 20.500 20.220 20.160 19.590 19.880 13.330 13.050 1.8230 24.383 16.172 8.219 23.265 15.595 7.684
VANMET_231 2016-09-28 13:25:00 231 53281.0 20.490 20.170 20.190 19.870 19.650 67.430 68.450 14.270 13.900 14.560 13.820 11.370 10.010 0.226 0.248 0.230 0.542 660.10 0.00 0.00 1.3130 220.00 27.67 1 1 1 20.600 20.310 20.310 20.060 19.950 15.110 14.780 20.380 20.080 20.040 19.230 19.770 13.400 13.200 2.1300 24.099 16.267 7.849 23.193 15.881 7.317
VANMET_231 2016-09-28 13:20:00 231 53281.0 20.440 20.150 20.120 19.810 19.650 68.400 69.020 14.440 13.980 14.530 13.820 11.370 10.010 0.226 0.248 0.230 0.542 666.90 0.00 0.00 1.5060 222.60 30.36 1 1 1 20.580 20.390 20.360 20.100 19.960 15.530 14.850 20.320 19.890 19.860 19.090 19.700 13.640 13.110 2.2740 24.025 16.447 7.592 23.107 15.964 7.158
VANMET_231 2016-09-28 13:15:00 231 53281.0 20.350 20.170 20.100 19.770 19.430 67.880 69.010 14.230 13.940 14.500 13.830 11.370 10.010 0.226 0.248 0.230 0.542 672.10 0.00 0.00 1.4340 210.00 20.11 1 1 1 20.520 20.420 20.310 19.770 19.880 14.890 14.340 20.140 20.010 19.910 19.020 19.700 13.550 13.350 2.3450 23.892 16.225 7.674 23.049 15.923 7.143
VANMET_231 2016-09-28 13:10:00 231 53281.0 20.230 20.130 20.180 19.880 19.440 67.590 67.990 14.050 13.810 14.470 13.830 11.370 10.010 0.226 0.248 0.230 0.542 677.30 0.00 0.00 1.0670 233.20 49.84 1 1 1 20.470 20.390 20.440 19.760 20.030 14.810 14.390 20.050 19.930 20.000 18.740 19.710 13.150 13.270 2.0320 23.715 16.037 7.686 23.207 15.789 7.429
VANMET_231 2016-09-28 13:05:00 231 53281.0 19.790 19.710 19.830 19.540 19.200 69.280 69.230 14.010 13.760 14.440 13.830 11.370 10.010 0.226 0.248 0.230 0.542 681.30 0.00 0.00 1.1960 204.70 31.35 1 1 1 20.060 19.930 20.000 19.490 19.690 14.640 14.270 19.550 19.450 19.580 18.890 19.350 13.430 13.250 2.0780 23.078 15.995 7.090 22.723 15.737 6.992
VANMET_231 2016-09-28 13:00:00 231 53281.0 19.380 19.370 19.520 19.290 18.760 70.860 70.050 13.970 13.700 14.410 13.830 11.370 10.010 0.226 0.248 0.230 0.542 685.20 0.00 0.00 1.1310 206.60 40.97 1 1 1 19.520 19.530 19.710 19.190 19.430 14.770 14.690 19.300 19.170 19.300 18.030 19.120 13.280 13.170 2.7370 22.498 15.954 6.556 22.372 15.676 6.700
VANMET_231 2016-09-28 12:55:00 231 53281.0 19.150 19.090 19.200 18.970 18.480 71.290 70.660 13.840 13.540 14.380 13.840 11.370 10.010 0.226 0.248 0.230 0.542 688.60 0.00 0.00 0.8550 177.30 44.46 1 1 1 19.300 19.430 19.580 18.670 19.260 14.200 13.970 19.050 18.890 18.920 18.040 18.760 13.390 12.980 1.4440 22.178 15.819 6.367 21.930 15.514 6.434
VANMET_231 2016-09-28 12:50:00 231 53281.0 18.850 18.790 18.970 18.680 18.620 73.090 73.140 13.940 13.780 14.350 13.840 11.370 10.020 0.226 0.248 0.230 0.542 692.50 0.00 0.00 1.1210 215.30 29.04 1 1 1 19.160 19.230 19.410 19.100 19.090 14.570 14.400 18.500 18.260 18.390 18.100 18.270 13.320 13.160 1.9340 21.767 15.923 5.857 21.537 15.758 5.785
VANMET_231 2016-09-28 12:45:00 231 53281.0 18.780 18.360 18.420 18.490 17.680 70.960 71.750 13.410 13.300 14.320 13.840 11.370 10.010 0.226 0.248 0.230 0.542 697.20 0.00 0.00 1.3450 210.20 26.81 1 1 1 19.270 18.980 18.980 18.290 19.040 14.060 13.860 18.500 18.100 18.230 17.210 18.270 12.890 13.030 2.2610 21.672 15.383 6.294 21.282 15.273 6.012
VANMET_231 2016-09-28 12:40:00 231 53281.0 19.390 19.220 19.330 19.170 18.880 70.210 70.470 13.840 13.690 14.300 13.850 11.360 10.010 0.226 0.248 0.230 0.542 700.90 0.00 0.00 1.3390 269.80 36.62 1 1 1 19.490 19.400 19.490 19.210 19.260 14.450 14.260 19.280 18.940 19.070 18.380 19.060 13.330 13.220 2.3520 22.512 15.819 6.706 22.206 15.666 6.557
VANMET_231 2016-09-28 12:35:00 231 53281.0 19.460 19.280 19.420 19.180 18.890 71.010 71.540 14.080 13.920 14.270 13.850 11.360 10.020 0.226 0.248 0.230 0.542 702.10 0.00 0.00 1.3630 213.40 45.91 1 1 1 19.640 19.640 19.790 19.460 19.460 14.750 14.770 19.240 18.940 19.030 18.250 18.870 13.360 13.240 2.4500 22.610 16.068 6.555 22.220 15.902 6.324
VANMET_231 2016-09-28 12:30:00 231 53281.0 19.030 18.760 18.930 18.750 18.290 72.020 72.250 13.890 13.670 14.250 13.850 11.360 10.010 0.226 0.248 0.230 0.542 703.50 0.00 0.00 1.0280 187.40 44.21 1 1 1 19.270 18.960 19.120 18.690 18.880 14.210 14.200 18.720 18.500 18.700 17.950 18.680 13.310 13.150 1.9670 22.013 15.871 6.159 21.631 15.646 6.003
VANMET_231 2016-09-28 12:25:00 231 53281.0 18.930 18.680 18.910 18.800 18.200 71.630 72.130 13.700 13.690 14.220 13.860 11.360 10.010 0.226 0.248 0.230 0.542 706.70 0.00 0.00 1.2650 218.70 24.66 1 1 1 19.200 18.960 19.190 18.630 18.990 14.160 14.340 18.690 18.400 18.650 17.690 18.630 13.060 13.170 2.1490 21.876 15.676 6.206 21.699 15.666 6.047
VANMET_231 2016-09-28 12:20:00 231 53281.0 19.080 18.880 19.050 18.810 18.580 72.540 72.900 14.040 13.860 14.200 13.860 11.360 10.010 0.226 0.248 0.230 0.542 707.80 0.00 0.00 1.1820 209.60 32.71 1 1 1 19.310 19.150 19.220 18.800 18.960 14.780 14.520 18.770 18.540 18.770 18.180 18.590 13.220 13.370 2.7110 22.081 16.026 6.064 21.713 15.840 5.884
VANMET_231 2016-09-28 12:15:00 231 53281.0 18.890 18.540 18.560 18.250 17.960 71.800 73.270 13.710 13.400 14.180 13.870 11.360 10.020 0.226 0.248 0.230 0.542 708.90 0.00 0.00 1.0920 193.80 32.36 1 1 1 19.130 18.810 18.830 18.290 18.560 14.710 13.860 18.540 18.210 18.290 17.740 18.000 13.310 13.110 2.4430 21.821 15.686 6.154 20.964 15.373 5.604
VANMET_231 2016-09-28 12:10:00 231 53281.0 18.520 18.090 18.180 18.050 17.570 72.660 74.130 13.530 13.380 14.160 13.870 11.360 10.010 0.226 0.248 0.230 0.542 712.40 0.00 0.00 1.3880 217.30 26.97 1 1 1 18.850 18.420 18.530 17.980 18.280 14.280 13.890 18.270 17.790 17.840 17.180 17.780 13.050 13.080 2.2870 21.322 15.504 5.829 20.703 15.353 5.356
VANMET_231 2016-09-28 12:05:00 231 53281.0 18.700 18.360 18.480 18.490 17.810 72.440 72.630 13.660 13.500 14.140 13.880 11.360 10.010 0.226 0.248 0.230 0.542 710.90 0.00 0.00 1.3270 196.70 33.77 1 1 1 18.970 18.770 18.960 18.500 18.820 14.330 14.070 18.500 18.050 18.170 17.280 18.170 13.040 13.040 2.1360 21.564 15.635 5.943 21.282 15.473 5.825
VANMET_231 2016-09-28 12:00:00 231 53281.0 18.850 18.450 18.530 18.520 17.920 72.580 73.640 13.830 13.730 14.120 13.880 11.360 10.010 0.226 0.248 0.230 0.542 709.30 0.00 0.00 0.9890 233.00 17.64 1 1 1 18.960 18.750 18.930 18.590 18.750 14.450 14.430 18.780 18.290 18.290 17.260 18.420 13.270 13.030 1.6070 21.767 15.809 5.968 21.322 15.707 5.621
VANMET_231 2016-09-28 11:55:00 231 53281.0 18.790 18.430 18.550 18.440 17.660 72.460 73.030 13.750 13.540 14.110 13.890 11.360 10.020 0.226 0.248 0.230 0.542 708.00 0.00 0.00 0.8780 205.60 36.46 1 1 1 18.970 18.580 18.690 18.110 18.580 14.520 13.980 18.680 18.300 18.440 17.130 18.280 13.220 13.140 1.5160 21.685 15.727 5.972 21.216 15.514 5.722
VANMET_231 2016-09-28 11:50:00 231 53281.0 18.660 18.400 18.560 18.320 17.910 73.550 73.820 13.850 13.580 14.090 13.890 11.360 10.010 0.226 0.248 0.230 0.542 707.40 0.00 0.00 1.1320 196.50 30.39 1 1 1 18.840 18.640 18.770 18.110 18.480 14.430 13.880 18.380 18.210 18.360 17.690 18.030 13.280 13.240 1.9340 21.510 15.830 5.689 21.057 15.554 5.513
VANMET_231 2016-09-28 11:45:00 231 53281.0 18.130 17.940 18.060 17.850 17.430 74.610 75.350 13.570 13.450 14.080 13.900 11.360 10.010 0.226 0.248 0.230 0.542 706.50 0.00 0.00 1.1600 191.10 23.29 1 1 1 18.310 18.190 18.340 17.930 17.980 14.250 13.760 18.020 17.770 17.850 16.940 17.750 13.070 13.040 1.9210 20.807 15.544 5.283 20.444 15.423 5.039
VANMET_231 2016-09-28 11:40:00 231 53281.0 17.950 17.940 18.150 17.970 17.400 75.770 74.800 13.620 13.440 14.060 13.900 11.360 10.010 0.226 0.248 0.230 0.542 705.60 0.00 0.00 1.1120 198.90 30.47 1 1 1 18.210 18.100 18.320 17.830 18.060 14.390 14.090 17.640 17.610 17.860 16.900 17.850 13.160 13.030 2.0190 20.573 15.595 4.985 20.599 15.413 5.191
VANMET_231 2016-09-28 11:35:00 231 53281.0 17.710 17.750 17.990 17.870 17.040 76.410 75.220 13.530 13.430 14.050 13.910 11.360 10.010 0.226 0.248 0.230 0.542 702.40 0.00 0.00 0.9170 195.60 25.19 1 1 1 17.880 17.990 18.220 17.450 17.940 13.980 13.740 17.600 17.580 17.810 16.560 17.710 12.940 13.100 1.6530 20.264 15.504 4.780 20.470 15.403 5.072
VANMET_231 2016-09-28 11:30:00 231 53281.0 17.790 17.640 17.770 17.620 17.190 76.210 76.130 13.560 13.370 14.040 13.920 11.350 10.010 0.226 0.248 0.230 0.542 700.80 0.00 0.00 1.0020 193.40 24.64 1 1 1 17.860 17.740 17.890 17.450 17.690 13.970 13.860 17.670 17.540 17.620 17.030 17.530 13.050 12.980 1.8360 20.367 15.534 4.845 20.150 15.343 4.810
VANMET_231 2016-09-28 11:25:00 231 53281.0 17.690 17.320 17.520 17.380 16.660 76.540 77.450 13.530 13.410 14.030 13.920 11.350 10.010 0.226 0.248 0.230 0.542 697.60 0.00 0.00 0.7920 204.40 44.84 1 1 1 17.790 17.610 17.790 17.320 17.570 14.240 13.800 17.510 16.990 17.230 16.060 17.250 13.160 13.010 1.4050 20.239 15.504 4.748 19.847 15.383 4.475
VANMET_231 2016-09-28 11:20:00 231 53281.0 17.600 17.180 17.420 17.280 16.530 76.590 77.460 13.450 13.320 14.020 13.930 11.350 10.010 0.226 0.248 0.230 0.542 695.20 0.00 0.00 0.7240 180.10 39.26 1 1 1 17.810 17.450 17.680 16.880 17.460 13.810 13.620 17.330 16.870 17.090 16.150 17.090 13.050 13.020 1.4700 20.124 15.423 4.711 19.722 15.293 4.445
VANMET_231 2016-09-28 11:15:00 231 53281.0 17.610 17.310 17.520 17.370 16.740 76.560 76.600 13.460 13.230 14.010 13.930 11.350 10.010 0.226 0.248 0.230 0.542 692.20 0.00 0.00 1.2770 204.80 31.55 1 1 1 17.770 17.540 17.710 17.140 17.490 14.360 13.520 17.320 16.860 17.110 16.240 17.130 12.920 12.990 2.1950 20.137 15.433 4.720 19.834 15.203 4.641
VANMET_231 2016-09-28 11:10:00 231 53281.0 17.160 17.030 17.240 17.050 16.770 79.000 79.020 13.500 13.390 14.000 13.940 11.350 10.020 0.226 0.248 0.230 0.542 688.50 0.00 0.00 1.0260 199.20 27.74 1 1 1 17.510 17.380 17.570 17.050 17.220 13.810 13.630 16.960 16.820 17.030 16.490 16.950 13.010 13.080 2.1100 19.573 15.473 4.110 19.437 15.363 4.078
VANMET_231 2016-09-28 11:05:00 231 53281.0 17.130 16.960 17.140 17.050 16.590 78.400 78.080 13.360 13.210 14.000 13.950 11.350 10.010 0.226 0.248 0.230 0.542 685.20 0.00 0.00 1.2790 225.60 27.27 1 1 1 17.220 17.100 17.280 16.850 17.160 13.910 13.430 16.950 16.760 16.950 16.220 16.940 12.880 12.980 2.0650 19.536 15.333 4.220 19.437 15.183 4.261
VANMET_231 2016-09-28 11:00:00 231 53281.0 17.240 17.060 17.230 17.020 16.570 78.630 78.600 13.500 13.290 13.990 13.950 11.350 10.020 0.226 0.248 0.230 0.542 679.30 0.00 0.00 0.8870 183.70 29.31 1 1 1 17.460 17.240 17.370 16.750 17.140 14.020 13.820 16.950 16.730 16.890 16.380 16.730 13.110 12.820 1.6460 19.672 15.473 4.204 19.400 15.263 4.152
VANMET_231 2016-09-28 10:55:00 231 53281.0 16.850 16.580 16.710 16.700 16.140 79.240 79.180 13.240 13.090 13.990 13.960 11.350 10.020 0.226 0.248 0.230 0.542 675.40 0.00 0.00 1.1420 209.70 22.47 1 1 1 16.920 16.670 16.820 16.440 16.820 13.940 13.420 16.770 16.500 16.630 15.910 16.640 12.870 12.830 1.6140 19.192 15.213 3.984 19.010 15.065 3.958
VANMET_231 2016-09-28 10:50:00 231 53281.0 17.200 16.930 17.090 16.940 16.140 77.580 78.220 13.260 13.130 13.990 13.960 11.350 10.020 0.226 0.248 0.230 0.542 668.60 0.00 0.00 0.9820 199.70 34.41 1 1 1 17.410 17.140 17.290 16.280 17.030 13.660 13.430 16.910 16.620 16.800 16.020 16.810 12.840 12.890 1.6730 19.622 15.233 4.399 19.302 15.104 4.204
VANMET_231 2016-09-28 10:45:00 231 53281.0 17.180 16.780 16.890 16.710 16.010 78.080 79.320 13.340 13.130 13.980 13.970 11.350 10.020 0.226 0.248 0.230 0.542 664.70 0.00 0.00 0.8510 199.10 38.34 1 1 1 17.310 16.910 16.990 16.210 16.820 13.890 13.380 17.070 16.660 16.820 15.800 16.650 12.970 12.900 1.5350 19.597 15.313 4.296 19.022 15.104 3.934
VANMET_231 2016-09-28 10:40:00 231 53281.0 17.240 16.820 16.900 16.690 15.940 78.340 79.470 13.450 13.140 13.980 13.980 11.350 10.020 0.226 0.248 0.230 0.542 658.70 0.00 0.00 0.8060 183.80 31.57 1 1 1 17.350 16.950 16.990 16.120 16.810 14.060 13.510 17.050 16.690 16.800 15.720 16.530 12.960 12.850 1.7120 19.672 15.423 4.261 18.998 15.114 3.900
VANMET_231 2016-09-28 10:35:00 231 53281.0 16.760 16.520 16.680 16.410 15.940 80.800 81.000 13.460 13.160 13.990 13.980 11.350 10.020 0.226 0.248 0.230 0.542 651.30 0.00 0.00 0.7810 188.90 37.38 1 1 1 17.030 16.720 16.840 16.170 16.530 14.180 13.560 16.560 16.300 16.520 15.660 16.330 12.900 12.830 1.3460 19.083 15.433 3.664 18.663 15.134 3.546
VANMET_231 2016-09-28 10:30:00 231 53281.0 16.200 16.030 16.190 16.010 15.710 82.200 81.700 13.180 12.890 13.990 13.990 11.340 10.020 0.226 0.248 0.230 0.542 646.50 0.00 0.00 1.1020 192.60 35.95 1 1 1 16.620 16.420 16.600 15.870 16.300 13.740 13.180 15.940 15.790 15.940 15.490 15.910 12.790 12.580 1.8620 18.415 15.154 3.278 18.193 14.869 3.329
VANMET_231 2016-09-28 10:25:00 231 53281.0 16.030 15.840 16.040 15.920 15.470 81.200 81.300 12.820 12.730 13.990 14.000 11.340 10.020 0.226 0.248 0.230 0.542 639.30 0.00 0.00 1.0790 201.20 17.47 1 1 1 16.090 15.900 16.130 15.680 16.020 13.170 12.930 15.950 15.770 15.950 15.350 15.790 12.530 12.580 1.8690 18.216 14.801 3.425 18.088 14.714 3.383
VANMET_231 2016-09-28 10:20:00 231 53281.0 15.920 15.690 15.840 15.630 15.460 82.100 82.400 12.880 12.660 14.000 14.000 11.340 10.020 0.227 0.248 0.229 0.542 632.90 0.00 0.00 1.3860 204.60 23.63 1 1 1 16.000 15.800 15.960 15.690 15.750 13.350 12.940 15.760 15.470 15.670 15.240 15.470 12.570 12.450 2.0120 18.088 14.859 3.238 17.756 14.647 3.125
VANMET_231 2016-09-28 10:15:00 231 53281.0 15.590 15.410 15.560 15.390 15.180 83.300 83.100 12.770 12.550 14.000 14.010 11.340 10.020 0.226 0.248 0.230 0.542 625.00 0.00 0.00 1.1610 205.70 13.47 1 1 1 15.720 15.500 15.650 15.290 15.460 13.160 12.740 15.450 15.260 15.430 14.980 15.260 12.510 12.370 1.8420 17.710 14.753 2.958 17.485 14.541 2.955
VANMET_231 2016-09-28 10:10:00 231 53281.0 15.390 15.170 15.300 15.160 14.910 83.000 83.600 12.540 12.410 14.010 14.020 11.340 10.020 0.225 0.248 0.230 0.542 617.60 0.00 0.00 1.2890 205.60 16.58 1 1 1 15.440 15.250 15.410 15.020 15.240 12.860 12.540 15.320 15.060 15.180 14.720 15.090 12.290 12.260 1.6920 17.485 14.532 2.972 17.228 14.408 2.825
VANMET_231 2016-09-28 10:05:00 231 53281.0 15.450 15.130 15.230 15.120 14.820 82.200 83.300 12.440 12.320 14.010 14.020 11.340 10.020 0.225 0.248 0.230 0.542 610.20 0.00 0.00 1.3650 208.80 13.43 1 1 1 15.530 15.220 15.310 14.880 15.170 12.780 12.560 15.320 15.040 15.130 14.710 15.080 12.140 12.140 1.8690 17.552 14.437 3.124 17.184 14.323 2.870
VANMET_231 2016-09-28 10:00:00 231 53281.0 15.550 15.260 15.410 15.310 14.790 82.500 82.700 12.590 12.400 14.020 14.030 11.340 10.020 0.226 0.248 0.230 0.542 600.10 0.00 0.00 1.1650 220.30 17.48 1 1 1 15.640 15.440 15.620 14.950 15.470 12.870 12.570 15.460 15.140 15.260 14.670 15.180 12.300 12.250 2.0060 17.665 14.579 3.091 17.395 14.399 3.009
VANMET_231 2016-09-28 09:55:00 231 53281.0 15.480 15.330 15.470 15.330 14.830 83.400 83.400 12.700 12.560 14.030 14.030 11.340 10.020 0.225 0.248 0.230 0.542 590.00 0.00 0.00 0.9560 212.40 22.51 1 1 1 15.630 15.490 15.600 14.990 15.440 13.000 12.750 15.250 15.090 15.260 14.600 15.200 12.210 12.310 1.3200 17.586 14.685 2.919 17.418 14.551 2.891
VANMET_231 2016-09-28 09:50:00 231 53281.0 15.250 15.100 15.260 15.120 14.840 85.100 84.800 12.780 12.590 14.040 14.040 11.340 10.020 0.226 0.249 0.230 0.542 580.40 0.00 0.00 0.9440 208.90 17.06 1 1 1 15.360 15.210 15.360 14.980 15.190 13.180 12.800 15.040 14.900 15.100 14.710 15.000 12.290 12.380 1.4240 17.328 14.762 2.582 17.184 14.579 2.612
VANMET_231 2016-09-28 09:45:00 231 53281.0 14.950 14.710 14.920 14.890 14.550 84.800 84.700 12.430 12.340 14.050 14.050 11.340 10.020 0.226 0.249 0.230 0.542 570.90 0.00 0.00 1.0630 208.90 20.30 1 1 1 15.030 14.870 15.070 14.670 15.000 12.820 12.640 14.880 14.640 14.840 14.400 14.830 12.110 12.120 1.5160 16.997 14.427 2.584 16.932 14.342 2.591
VANMET_231 2016-09-28 09:40:00 231 53281.0 14.900 14.660 14.890 14.910 14.500 85.600 83.700 12.510 12.190 14.060 14.050 11.340 10.020 0.226 0.249 0.230 0.542 560.70 0.00 0.00 1.0780 211.00 14.90 1 1 1 15.030 14.710 14.960 14.640 15.010 13.260 12.530 14.810 14.560 14.810 14.340 14.850 12.090 11.970 1.5350 16.942 14.503 2.440 16.953 14.201 2.763
VANMET_231 2016-09-28 09:35:00 231 53281.0 14.660 14.640 14.920 15.000 14.610 86.800 84.000 12.500 12.340 14.070 14.060 11.340 10.020 0.226 0.249 0.230 0.542 549.00 0.00 0.00 0.9560 204.50 16.43 1 1 1 14.830 14.700 14.980 14.700 15.050 12.720 12.580 14.420 14.460 14.760 14.530 14.910 12.290 12.080 1.3070 16.682 14.494 2.202 17.052 14.342 2.728
VANMET_231 2016-09-28 09:30:00 231 53281.0 14.350 14.410 14.610 14.910 14.440 88.100 84.100 12.410 12.260 14.080 14.070 11.330 10.020 0.226 0.249 0.230 0.542 537.30 0.00 0.00 0.9400 207.50 14.35 1 1 1 14.420 14.490 14.730 14.530 14.990 12.810 12.650 14.270 14.340 14.480 14.330 14.850 12.030 11.870 1.5290 16.351 14.408 1.946 16.953 14.267 2.696
VANMET_231 2016-09-28 09:25:00 231 53281.0 14.310 14.430 14.590 14.910 14.280 88.900 84.200 12.510 12.270 14.100 14.070 11.330 10.020 0.226 0.249 0.230 0.542 526.10 0.00 0.00 0.9230 210.30 13.86 1 1 1 14.360 14.540 14.750 14.380 15.030 12.930 12.660 14.280 14.360 14.500 14.220 14.840 12.240 12.090 1.2740 16.309 14.503 1.810 16.953 14.276 2.679
VANMET_231 2016-09-28 09:20:00 231 53281.0 14.280 14.560 14.760 15.080 14.280 88.500 83.600 12.420 12.340 14.110 14.080 11.330 10.020 0.226 0.249 0.230 0.542 514.60 0.00 0.00 0.8210 211.70 15.46 1 1 1 14.340 14.620 14.850 14.450 15.250 12.620 12.630 14.250 14.510 14.690 14.210 15.000 12.100 12.110 1.1690 16.277 14.418 1.872 17.140 14.342 2.811
VANMET_231 2016-09-28 09:15:00 231 53281.0 14.430 14.910 15.390 15.810 14.220 87.200 79.900 12.340 12.360 14.120 14.080 11.330 10.020 0.226 0.249 0.230 0.542 501.70 0.00 0.00 0.8410 217.20 10.92 1 1 1 14.590 15.290 15.930 14.290 16.250 12.570 12.690 14.280 14.590 14.870 14.160 15.310 11.990 12.140 1.3650 16.436 14.342 2.104 17.962 14.361 3.610
VANMET_231 2016-09-28 09:10:00 231 53281.0 14.600 15.390 16.070 16.080 14.030 87.700 81.200 12.600 12.870 14.140 14.090 11.330 10.020 0.226 0.249 0.230 0.542 487.60 0.00 0.00 0.3890 187.20 23.96 1 1 1 14.710 15.590 16.300 14.210 16.340 12.860 13.040 14.440 15.150 15.770 13.860 15.690 12.450 12.590 0.7710 16.618 14.589 2.044 18.274 14.850 3.436
VANMET_231 2016-09-28 09:05:00 231 53281.0 14.250 15.070 15.820 15.390 13.580 88.400 83.400 12.370 12.600 14.150 14.100 11.330 10.020 0.226 0.249 0.230 0.542 474.50 0.00 0.00 0.2550 154.50 34.69 1 1 1 14.430 15.160 15.960 13.860 15.660 12.530 12.750 14.050 14.880 15.650 13.280 15.100 12.250 12.470 0.6400 16.246 14.370 1.885 17.485 14.589 2.902
VANMET_231 2016-09-28 09:00:00 231 53281.0 13.690 14.520 15.180 14.670 13.230 91.100 86.800 12.280 12.500 14.160 14.100 11.330 10.020 0.226 0.249 0.230 0.542 463.40 0.00 0.00 0.1250 162.30 16.58 1 1 1 14.010 14.940 15.620 13.300 15.060 12.400 12.650 13.330 13.910 14.490 13.100 14.160 12.100 12.370 0.5490 15.666 14.286 1.394 16.693 14.494 2.203
VANMET_231 2016-09-28 08:55:00 231 53281.0 13.080 13.410 13.930 13.880 13.180 92.200 88.800 11.860 12.070 14.180 14.110 11.330 10.020 0.226 0.249 0.230 0.542 452.00 0.00 0.00 0.4500 192.00 19.59 1 1 1 13.280 13.850 14.410 13.360 14.120 12.040 12.280 12.930 13.100 13.580 13.000 13.610 11.720 11.900 0.6930 15.055 13.896 1.174 15.861 14.089 1.776
VANMET_231 2016-09-28 08:50:00 231 53281.0 12.960 13.050 13.450 13.520 12.800 91.300 88.700 11.580 11.700 14.190 14.120 11.330 10.020 0.226 0.249 0.230 0.542 440.00 0.00 0.00 0.7990 199.90 21.36 1 1 1 13.070 13.190 13.600 13.010 13.640 11.740 11.980 12.880 12.950 13.340 12.600 13.440 11.440 11.540 1.1370 14.937 13.641 1.300 15.494 13.749 1.751
VANMET_231 2016-09-28 08:45:00 231 53281.0 13.290 13.520 13.930 13.800 12.610 89.300 87.200 11.580 11.720 14.210 14.120 11.330 10.020 0.226 0.249 0.230 0.542 425.00 0.00 0.00 0.6990 204.00 21.23 1 1 1 13.530 13.820 14.260 12.680 13.940 11.670 11.850 13.090 13.220 13.650 12.560 13.670 11.490 11.570 1.1560 15.263 13.641 1.633 15.778 13.768 2.020
VANMET_231 2016-09-28 08:40:00 231 53281.0 13.710 13.840 14.240 14.000 12.580 87.300 86.600 11.660 11.810 14.220 14.130 11.330 10.020 0.225 0.249 0.230 0.542 411.90 0.00 0.00 0.5220 208.20 13.84 1 1 1 13.930 13.980 14.350 12.690 14.100 11.760 11.990 13.560 13.710 14.100 12.470 13.930 11.570 11.660 0.9470 15.686 13.713 1.992 15.985 13.850 2.142
VANMET_231 2016-09-28 08:35:00 231 53281.0 14.050 14.010 14.160 13.870 12.510 86.200 87.200 11.800 11.800 14.230 14.130 11.330 10.020 0.225 0.249 0.230 0.542 399.10 0.00 0.00 0.2780 180.00 31.67 1 1 1 14.170 14.160 14.280 12.770 14.060 12.040 11.970 13.920 13.830 13.970 12.320 13.700 11.450 11.670 0.6860 16.037 13.841 2.213 15.850 13.841 2.029
VANMET_231 2016-09-28 08:30:00 231 53281.0 14.120 13.800 14.040 13.940 12.600 86.100 87.300 11.840 11.880 14.250 14.140 11.320 10.020 0.225 0.249 0.230 0.542 389.10 0.00 0.00 0.7520 200.10 19.12 1 1 1 14.450 14.100 14.390 12.740 14.200 11.950 11.960 13.970 13.650 13.880 12.300 13.730 11.710 11.810 1.0260 16.110 13.877 2.239 15.923 13.914 2.022
VANMET_231 2016-09-28 08:25:00 231 53281.0 14.880 14.580 14.970 14.680 12.670 81.500 83.600 11.750 11.940 14.260 14.140 11.320 10.020 0.225 0.249 0.230 0.542 378.60 0.00 0.00 0.7760 211.00 7.30 1 1 1 15.560 15.350 15.900 12.750 15.270 11.940 12.090 14.460 14.130 14.450 12.580 14.250 11.650 11.840 1.0190 16.921 13.795 3.130 16.704 13.969 2.739
VANMET_231 2016-09-28 08:20:00 231 53281.0 15.710 15.690 16.130 15.000 12.540 80.600 88.200 12.400 13.070 14.280 14.150 11.320 10.020 0.225 0.249 0.230 0.542 363.50 0.00 0.00 0.1690 194.80 19.01 1 1 1 15.860 15.800 16.330 12.610 15.330 12.730 13.390 15.480 15.460 15.960 12.490 14.550 11.720 12.290 0.4700 17.847 14.399 3.462 17.052 15.045 2.012
VANMET_231 2016-09-28 08:15:00 231 53281.0 14.960 15.270 15.490 14.130 12.380 84.300 90.800 12.330 12.660 14.290 14.160 11.320 10.020 0.226 0.249 0.230 0.542 345.10 0.00 0.00 0.0000 0.00 0.00 1 1 1 15.430 15.680 15.950 12.510 14.520 12.660 12.960 14.470 14.770 15.010 12.250 13.690 12.090 12.260 0.0000 17.008 14.333 2.670 16.120 14.647 1.483
VANMET_231 2016-09-28 08:10:00 231 53281.0 14.010 14.380 14.690 13.530 12.020 88.700 91.000 12.190 12.100 14.310 14.160 11.320 10.020 0.226 0.249 0.230 0.542 321.20 0.00 0.00 0.3170 217.80 5.28 1 1 1 14.410 14.750 14.980 12.250 13.680 12.490 12.510 13.610 14.080 14.530 11.810 13.310 11.820 11.750 0.6010 15.995 14.201 1.807 15.504 14.117 1.395
VANMET_231 2016-09-28 08:05:00 231 53281.0 13.210 13.680 13.980 12.990 11.830 91.200 93.800 11.810 12.020 14.320 14.170 11.320 10.020 0.226 0.249 0.230 0.542 316.80 0.00 0.00 0.1210 206.60 2.24 1 1 1 13.540 14.040 14.470 11.970 13.280 12.220 12.420 12.930 13.350 13.470 11.710 12.680 11.280 11.630 0.6270 15.183 13.850 1.336 14.967 14.043 0.928
VANMET_231 2016-09-28 08:00:00 231 53281.0 12.870 13.420 13.520 12.560 11.450 92.300 95.400 11.660 11.840 14.340 14.170 11.320 10.020 0.226 0.249 0.230 0.542 278.60 0.00 0.00 0.0350 107.30 0.01 1 1 1 13.010 13.550 13.610 11.630 12.690 12.010 12.150 12.540 13.180 13.240 11.130 12.230 11.280 11.550 0.3010 14.850 13.713 1.143 14.551 13.877 0.669
VANMET_231 2016-09-28 07:55:00 231 53281.0 12.110 12.740 12.780 11.860 11.120 98.300 97.700 11.870 11.520 14.350 14.180 11.320 10.020 0.225 0.249 0.230 0.542 222.10 0.00 0.00 0.3370 191.50 31.69 1 1 1 12.500 13.140 13.210 11.240 12.200 12.050 11.880 11.770 12.350 12.440 11.030 11.680 11.680 11.240 0.6600 14.127 13.905 0.240 13.896 13.587 0.320
VANMET_231 2016-09-28 07:50:00 231 53281.0 11.310 11.760 11.900 11.440 11.040 99.500 99.400 11.250 11.350 14.370 14.190 11.320 10.020 0.225 0.249 0.230 0.542 229.40 0.00 0.00 0.4790 206.20 7.68 1 1 1 11.710 12.260 12.390 11.090 11.680 11.610 11.560 11.010 11.390 11.460 10.990 11.150 11.000 11.090 0.8100 13.399 13.346 0.067 13.515 13.435 0.081
VANMET_231 2016-09-28 07:45:00 231 53281.0 10.790 11.310 11.440 11.100 10.840 100.000 99.900 10.790 11.090 14.380 14.190 11.320 10.020 0.225 0.249 0.230 0.542 98.60 0.00 0.00 0.3610 191.50 26.48 1 1 1 10.970 11.400 11.470 11.040 11.190 10.970 11.190 10.640 11.020 11.370 10.690 10.870 10.640 10.850 0.5880 12.944 12.944 0.000 13.214 13.205 0.013
VANMET_231 2016-09-28 07:40:00 231 53281.0 10.560 10.890 11.220 10.800 10.680 100.000 99.800 10.570 10.780 14.400 14.200 11.320 10.020 0.225 0.249 0.230 0.542 60.51 0.00 0.00 0.3110 207.50 22.94 1 1 1 10.650 10.980 11.380 10.730 10.850 10.660 10.830 10.490 10.860 11.120 10.630 10.780 10.500 10.760 0.6270 12.747 12.756 0.000 12.953 12.935 0.026
VANMET_231 2016-09-28 07:35:00 231 53281.0 10.480 10.950 11.320 10.830 10.690 100.000 100.000 10.480 10.830 14.410 14.200 11.310 10.020 0.225 0.249 0.230 0.542 143.20 0.00 0.00 0.2150 221.50 2.36 1 1 1 10.510 11.020 11.480 10.760 10.850 10.520 10.860 10.450 10.910 11.180 10.570 10.800 10.460 10.810 0.6990 12.679 12.679 0.000 12.979 12.979 -0.000
VANMET_231 2016-09-28 07:30:00 231 53281.0 10.430 10.780 11.170 10.860 10.420 100.000 100.000 10.440 10.870 14.430 14.210 11.310 10.020 0.225 0.249 0.230 0.542 162.90 0.00 0.00 0.0010 205.70 0.01 1 1 1 10.510 11.030 11.470 10.600 10.910 10.520 10.920 10.380 10.680 11.060 10.290 10.810 10.390 10.820 0.0130 12.637 12.645 0.000 13.004 13.013 0.000
VANMET_231 2016-09-28 07:25:00 231 53281.0 10.330 10.680 11.010 10.800 10.330 100.000 100.000 10.340 10.810 14.440 14.210 11.310 10.020 0.225 0.249 0.230 0.542 132.80 0.00 0.00 0.0910 198.70 0.75 1 1 1 10.440 10.740 11.070 10.450 10.860 10.450 10.870 10.230 10.600 10.920 10.290 10.750 10.240 10.760 0.3720 12.553 12.561 -0.000 12.953 12.961 0.000
VANMET_231 2016-09-28 07:20:00 231 53281.0 10.110 10.500 10.800 10.780 10.800 100.000 100.000 10.120 10.790 14.460 14.220 11.310 10.020 0.225 0.249 0.230 0.542 144.40 0.00 0.00 0.4650 222.80 13.88 1 1 1 10.220 10.630 10.940 10.970 10.900 10.230 10.910 9.980 10.300 10.550 10.490 10.610 9.990 10.620 0.7970 12.370 12.378 0.000 12.935 12.944 0.000
VANMET_231 2016-09-28 07:15:00 231 53281.0 9.850 10.080 10.300 10.410 10.470 100.000 100.000 9.860 10.420 14.470 14.220 11.310 10.020 0.225 0.249 0.230 0.542 151.10 0.00 0.00 0.0000 0.00 0.00 1 1 1 9.960 10.270 10.530 10.680 10.610 9.970 10.610 9.800 9.970 10.110 10.280 10.200 9.810 10.210 0.0000 12.156 12.164 0.000 12.620 12.629 0.000
VANMET_231 2016-09-28 07:10:00 231 53281.0 9.820 9.970 10.070 10.010 10.220 100.000 100.000 9.820 10.020 14.490 14.230 11.310 10.020 0.225 0.249 0.230 0.542 81.20 0.00 0.00 0.1150 76.36 6.60 1 1 1 9.830 9.990 10.100 10.280 10.170 9.840 10.180 9.780 9.960 10.070 10.160 9.960 9.790 9.970 0.4050 12.131 12.131 0.000 12.287 12.295 0.000
VANMET_231 2016-09-28 07:05:00 231 53281.0 9.770 9.930 10.060 10.000 10.230 100.000 100.000 9.770 10.010 14.500 14.230 11.310 10.020 0.225 0.249 0.230 0.542 24.80 0.00 0.00 0.1890 95.70 4.76 1 1 1 9.790 9.960 10.070 10.260 10.020 9.800 10.030 9.750 9.920 10.050 10.180 9.970 9.760 9.980 0.5100 12.091 12.091 0.000 12.279 12.287 0.000
VANMET_231 2016-09-28 07:00:00 231 53281.0 9.790 9.960 10.080 10.060 10.260 100.000 100.000 9.800 10.070 14.520 14.240 11.310 10.020 0.225 0.249 0.230 0.542 21.92 0.00 0.00 0.0000 0.00 0.00 1 1 1 9.810 9.990 10.120 10.360 10.090 9.820 10.100 9.770 9.920 10.050 10.190 10.010 9.780 10.020 0.0000 12.107 12.115 0.000 12.328 12.336 0.000
VANMET_231 2016-09-28 06:55:00 231 53281.0 9.780 9.970 10.140 10.060 10.320 100.000 100.000 9.790 10.070 14.530 14.240 11.310 10.020 0.225 0.249 0.230 0.542 20.31 0.00 0.00 0.0000 0.00 0.00 1 1 1 9.800 9.990 10.140 10.360 10.090 9.810 10.100 9.760 9.940 10.120 10.260 10.040 9.770 10.050 0.0000 12.099 12.107 -0.000 12.328 12.336 0.000
VANMET_231 2016-09-28 06:50:00 231 53281.0 9.780 9.960 10.110 10.020 10.280 100.000 100.000 9.780 10.030 14.550 14.250 11.310 10.020 0.225 0.249 0.230 0.542 18.63 0.00 0.00 0.1740 75.88 9.75 1 1 1 9.790 9.980 10.140 10.330 10.070 9.800 10.080 9.750 9.930 10.050 10.220 9.930 9.760 9.940 0.3720 12.099 12.099 -0.000 12.295 12.303 0.000
VANMET_231 2016-09-28 06:45:00 231 53281.0 9.760 9.920 10.050 9.930 10.220 100.000 100.000 9.770 9.940 14.560 14.250 11.300 10.020 0.225 0.249 0.230 0.542 17.02 0.00 0.00 0.1400 348.20 16.13 1 1 1 9.780 9.940 10.070 10.250 9.950 9.790 9.960 9.730 9.870 10.030 10.170 9.890 9.740 9.900 0.2160 12.083 12.091 0.000 12.221 12.229 0.000
VANMET_231 2016-09-28 06:40:00 231 53281.0 9.760 9.840 9.970 9.870 10.190 100.000 100.000 9.770 9.880 14.580 14.260 11.300 10.020 0.225 0.249 0.230 0.542 15.08 0.00 0.00 0.3100 342.80 2.24 1 1 1 9.780 9.860 10.020 10.210 9.900 9.790 9.910 9.740 9.820 9.950 10.130 9.850 9.750 9.860 0.4770 12.083 12.091 0.000 12.172 12.180 0.000
VANMET_231 2016-09-28 06:35:00 231 53281.0 9.800 9.840 9.970 9.930 10.090 100.000 100.000 9.810 9.940 14.600 14.260 11.300 10.020 0.225 0.249 0.230 0.542 12.85 0.00 0.00 0.3900 353.80 1.62 1 1 1 9.870 9.880 10.000 10.160 9.980 9.880 9.990 9.770 9.820 9.960 10.030 9.890 9.780 9.900 0.5620 12.115 12.123 0.000 12.221 12.229 0.000
VANMET_231 2016-09-28 06:30:00 231 53281.0 9.960 9.980 10.100 10.080 10.120 100.000 100.000 9.960 10.090 14.610 14.270 11.300 10.020 0.225 0.249 0.230 0.542 11.02 0.00 0.00 0.0000 0.00 0.00 1 1 1 10.050 10.070 10.200 10.220 10.160 10.050 10.170 9.880 9.890 10.010 10.060 9.980 9.890 9.990 0.0000 12.246 12.246 0.000 12.345 12.353 0.000
VANMET_231 2016-09-28 06:25:00 231 53281.0 10.120 10.170 10.300 10.240 10.340 100.000 100.000 10.130 10.240 14.630 14.270 11.300 10.020 0.225 0.249 0.230 0.542 9.73 0.00 0.00 0.0000 0.00 0.00 1 1 1 10.170 10.250 10.370 10.440 10.300 10.180 10.310 10.070 10.080 10.210 10.230 10.180 10.070 10.180 0.0000 12.378 12.386 0.000 12.478 12.478 0.000
VANMET_231 2016-09-28 06:20:00 231 53281.0 10.160 10.300 10.410 10.310 10.500 100.000 100.000 10.170 10.320 14.640 14.280 11.300 10.020 0.225 0.249 0.230 0.542 6.92 0.00 0.00 0.0000 0.00 0.00 1 1 1 10.190 10.320 10.440 10.580 10.340 10.200 10.350 10.120 10.260 10.370 10.450 10.280 10.130 10.290 0.0000 12.411 12.419 -0.000 12.536 12.545 0.000
VANMET_231 2016-09-28 06:15:00 231 53281.0 10.080 10.200 10.340 10.290 10.570 100.000 100.000 10.090 10.300 14.660 14.280 11.300 10.020 0.225 0.249 0.230 0.542 4.28 0.00 0.00 0.0000 0.00 0.00 1 1 1 10.140 10.300 10.410 10.630 10.320 10.140 10.320 10.040 10.150 10.300 10.500 10.270 10.050 10.280 0.0000 12.345 12.353 0.000 12.519 12.528 0.000
VANMET_231 2016-09-28 06:10:00 231 53281.0 10.110 10.230 10.390 10.330 10.580 100.000 100.000 10.120 10.340 14.670 14.290 11.300 10.020 0.225 0.249 0.230 0.542 2.90 0.00 0.00 0.0000 0.00 0.00 1 1 1 10.140 10.260 10.420 10.650 10.350 10.150 10.360 10.080 10.190 10.330 10.520 10.310 10.090 10.320 0.0000 12.370 12.378 0.000 12.553 12.561 -0.000
VANMET_231 2016-09-28 06:05:00 231 53281.0 10.140 10.270 10.460 10.380 10.590 100.000 100.000 10.150 10.390 14.690 14.290 11.300 10.020 0.225 0.249 0.230 0.542 1.57 0.00 0.00 0.2140 4.60 2.94 1 1 1 10.190 10.320 10.500 10.610 10.400 10.190 10.410 10.110 10.240 10.400 10.530 10.350 10.110 10.350 0.4250 12.394 12.403 0.000 12.595 12.603 0.000
VANMET_231 2016-09-28 06:00:00 231 53281.0 10.210 10.390 10.530 10.430 10.650 100.000 100.000 10.220 10.440 14.700 14.300 11.300 10.020 0.225 0.249 0.230 0.542 0.17 0.00 0.00 0.3930 8.65 1.74 1 1 1 10.240 10.430 10.580 10.710 10.470 10.250 10.480 10.180 10.330 10.500 10.600 10.400 10.180 10.410 0.6080 12.453 12.461 0.000 12.637 12.645 0.000
VANMET_231 2016-09-28 05:55:00 231 53281.0 10.210 10.410 10.580 10.470 10.720 100.000 100.000 10.220 10.480 14.720 14.300 11.290 10.020 0.225 0.249 0.230 0.542 0.00 0.00 0.00 0.0300 346.20 5.54 1 1 1 10.250 10.430 10.590 10.750 10.480 10.260 10.490 10.190 10.390 10.570 10.680 10.440 10.200 10.450 0.2740 12.453 12.461 0.000 12.671 12.679 0.000
VANMET_231 2016-09-28 05:50:00 231 53281.0 10.250 10.430 10.630 10.530 10.730 100.000 100.000 10.260 10.540 14.730 14.310 11.290 10.020 0.225 0.249 0.230 0.542 0.00 0.00 0.00 0.4140 2.82 6.25 1 1 1 10.300 10.460 10.680 10.770 10.570 10.300 10.580 10.220 10.410 10.580 10.680 10.490 10.230 10.500 0.5160 12.486 12.494 0.000 12.722 12.730 0.000
VANMET_231 2016-09-28 05:45:00 231 53281.0 10.300 10.530 10.720 10.600 10.830 100.000 100.000 10.300 10.610 14.750 14.310 11.290 10.020 0.225 0.249 0.230 0.542 0.00 0.00 0.00 0.4590 0.18 0.10 1 1 1 10.310 10.560 10.740 10.870 10.630 10.320 10.640 10.280 10.470 10.680 10.780 10.570 10.290 10.580 0.5160 12.528 12.528 0.000 12.781 12.790 0.000
VANMET_231 2016-09-28 05:40:00 231 53281.0 10.310 10.560 10.760 10.640 10.890 100.000 100.000 10.320 10.650 14.770 14.310 11.290 10.020 0.225 0.249 0.230 0.542 0.00 0.00 0.00 0.3730 357.40 8.01 1 1 1 10.330 10.590 10.770 10.920 10.660 10.340 10.670 10.280 10.540 10.750 10.860 10.600 10.290 10.610 0.4900 12.536 12.545 0.000 12.815 12.824 0.000
VANMET_231 2016-09-28 05:35:00 231 53281.0 10.360 10.600 10.790 10.680 10.930 100.000 100.000 10.370 10.690 14.780 14.320 11.290 10.020 0.225 0.249 0.230 0.542 0.00 0.00 0.00 0.4320 354.10 1.13 1 1 1 10.380 10.630 10.810 10.970 10.690 10.390 10.700 10.330 10.560 10.770 10.900 10.660 10.340 10.670 0.5100 12.578 12.586 0.000 12.850 12.858 0.000
VANMET_231 2016-09-28 05:30:00 231 53281.0 10.400 10.660 10.810 10.680 11.030 100.000 100.000 10.410 10.690 14.800 14.320 11.290 10.020 0.226 0.249 0.230 0.542 0.00 0.00 0.00 0.4070 345.20 4.33 1 1 1 10.420 10.690 10.830 11.070 10.710 10.430 10.720 10.360 10.610 10.790 10.970 10.670 10.370 10.680 0.6010 12.612 12.620 0.000 12.850 12.858 0.000
VANMET_231 2016-09-28 05:25:00 231 53281.0 10.370 10.570 10.780 10.680 10.930 100.000 100.000 10.380 10.690 14.810 14.330 11.290 10.020 0.225 0.249 0.230 0.542 0.00 0.00 0.00 0.5090 1.42 3.75 1 1 1 10.420 10.610 10.810 11.060 10.720 10.430 10.730 10.320 10.530 10.740 10.860 10.660 10.330 10.670 0.6530 12.586 12.595 0.000 12.850 12.858 0.000
VANMET_231 2016-09-28 05:20:00 231 53281.0 10.450 10.670 10.840 10.740 10.980 100.000 100.000 10.460 10.750 14.830 14.330 11.290 10.020 0.225 0.249 0.230 0.542 0.00 0.00 0.00 0.5590 3.14 1.86 1 1 1 10.480 10.710 10.860 11.030 10.770 10.490 10.780 10.410 10.610 10.810 10.940 10.700 10.420 10.710 0.6530 12.654 12.662 0.000 12.901 12.910 0.000
VANMET_231 2016-09-28 05:15:00 231 53281.0 10.400 10.620 10.840 10.730 11.000 100.000 100.000 10.410 10.740 14.840 14.330 11.290 10.020 0.226 0.249 0.230 0.542 0.00 0.00 0.00 0.2910 338.70 6.97 1 1 1 10.440 10.690 10.860 11.030 10.750 10.450 10.760 10.370 10.580 10.830 10.980 10.710 10.380 10.720 0.4180 12.612 12.620 0.000 12.892 12.901 0.000
VANMET_231 2016-09-28 05:10:00 231 53281.0 10.390 10.610 10.830 10.720 11.010 100.000 100.000 10.400 10.730 14.860 14.340 11.290 10.020 0.226 0.249 0.230 0.542 0.00 0.00 0.00 0.3750 342.10 6.77 1 1 1 10.430 10.650 10.850 11.090 10.740 10.440 10.750 10.370 10.590 10.820 10.980 10.700 10.380 10.710 0.4570 12.603 12.612 0.000 12.884 12.892 0.000
VANMET_231 2016-09-28 05:05:00 231 53281.0 10.380 10.580 10.800 10.710 11.010 100.000 100.000 10.390 10.720 14.880 14.340 11.280 10.020 0.226 0.249 0.230 0.542 0.00 0.00 0.00 0.3870 331.20 3.12 1 1 1 10.430 10.630 10.840 11.130 10.730 10.440 10.740 10.340 10.540 10.770 10.950 10.700 10.350 10.710 0.4640 12.595 12.603 0.000 12.875 12.884 0.000
VANMET_231 2016-09-28 05:00:00 231 53281.0 10.370 10.540 10.760 10.670 10.950 100.000 100.000 10.380 10.680 14.890 14.350 11.280 10.020 0.226 0.249 0.230 0.542 0.00 0.00 0.00 0.4480 347.20 10.90 1 1 1 10.400 10.560 10.810 11.060 10.710 10.410 10.720 10.350 10.530 10.720 10.870 10.640 10.360 10.650 0.5290 12.586 12.595 0.000 12.841 12.850 0.000
VANMET_231 2016-09-28 04:55:00 231 53281.0 10.380 10.550 10.700 10.650 10.890 100.000 100.000 10.390 10.660 14.910 14.350 11.280 10.020 0.226 0.249 0.230 0.542 0.00 0.00 0.00 0.4040 18.50 10.15 1 1 1 10.400 10.570 10.720 10.920 10.670 10.410 10.680 10.350 10.540 10.680 10.870 10.640 10.360 10.650 0.5810 12.595 12.603 0.000 12.824 12.832 0.000
VANMET_231 2016-09-28 04:50:00 231 53281.0 10.440 10.580 10.750 10.670 10.890 100.000 100.000 10.450 10.680 14.920 14.350 11.280 10.020 0.226 0.249 0.230 0.542 0.00 0.00 0.00 0.5550 4.14 3.79 1 1 1 10.470 10.610 10.790 10.920 10.690 10.480 10.700 10.400 10.540 10.690 10.850 10.620 10.410 10.630 0.7510 12.645 12.654 0.000 12.841 12.850 0.000
VANMET_231 2016-09-28 04:45:00 231 53281.0 10.470 10.640 10.810 10.690 10.950 100.000 100.000 10.470 10.700 14.940 14.360 11.280 10.020 0.226 0.249 0.230 0.542 0.00 0.00 0.00 0.4790 1.96 0.26 1 1 1 10.490 10.670 10.820 11.000 10.710 10.500 10.720 10.430 10.600 10.790 10.890 10.670 10.440 10.680 0.7190 12.671 12.671 0.000 12.858 12.867 0.000
VANMET_231 2016-09-28 04:40:00 231 53281.0 10.450 10.580 10.760 10.640 10.950 100.000 100.000 10.460 10.650 14.960 14.360 11.280 10.020 0.226 0.249 0.230 0.542 0.00 0.00 0.00 0.5570 357.10 4.96 1 1 1 10.480 10.600 10.780 11.010 10.660 10.490 10.670 10.390 10.560 10.730 10.910 10.630 10.400 10.640 0.6270 12.654 12.662 0.000 12.815 12.824 0.000
VANMET_231 2016-09-28 04:35:00 231 53281.0 10.440 10.570 10.740 10.650 10.890 100.000 100.000 10.450 10.660 14.970 14.360 11.280 10.020 0.226 0.249 0.230 0.542 0.00 0.00 0.00 0.5640 1.97 0.17 1 1 1 10.470 10.600 10.760 10.910 10.680 10.480 10.690 10.400 10.560 10.730 10.880 10.640 10.410 10.650 0.6600 12.645 12.654 0.000 12.824 12.832 0.000
VANMET_231 2016-09-28 04:30:00 231 53281.0 10.490 10.650 10.780 10.690 10.910 100.000 100.000 10.500 10.700 14.990 14.370 11.280 10.020 0.226 0.249 0.230 0.542 0.00 0.00 0.00 0.6100 10.04 4.93 1 1 1 10.520 10.680 10.810 10.940 10.720 10.530 10.730 10.460 10.600 10.760 10.890 10.660 10.470 10.670 0.6990 12.688 12.696 0.000 12.858 12.867 0.000
VANMET_231 2016-09-28 04:25:00 231 53281.0 10.530 10.680 10.830 10.740 10.950 100.000 100.000 10.540 10.740 15.000 14.370 11.280 10.020 0.226 0.249 0.230 0.542 0.00 0.00 0.00 0.6310 10.98 0.87 1 1 1 10.540 10.690 10.840 10.960 10.770 10.550 10.780 10.510 10.660 10.810 10.930 10.700 10.520 10.710 0.7380 12.722 12.730 0.000 12.901 12.901 0.000
VANMET_231 2016-09-28 04:20:00 231 53281.0 10.510 10.680 10.840 10.760 10.960 100.000 100.000 10.520 10.760 15.020 14.370 11.280 10.020 0.226 0.249 0.230 0.542 0.00 0.00 0.00 0.5440 13.78 1.83 1 1 1 10.560 10.690 10.850 10.980 10.780 10.570 10.790 10.480 10.660 10.830 10.950 10.740 10.480 10.750 0.7320 12.705 12.713 0.000 12.918 12.918 -0.000
VANMET_231 2016-09-28 04:15:00 231 53281.0 10.440 10.660 10.820 10.780 10.970 100.000 100.000 10.450 10.780 15.040 14.380 11.280 10.020 0.226 0.249 0.230 0.542 0.00 0.00 0.00 0.3870 44.93 14.93 1 1 1 10.490 10.680 10.840 11.020 10.790 10.500 10.800 10.420 10.630 10.790 10.930 10.750 10.420 10.760 0.5550 12.645 12.654 0.000 12.935 12.935 0.000
VANMET_231 2016-09-28 04:10:00 231 53281.0 10.500 10.660 10.850 10.780 11.000 100.000 100.000 10.500 10.790 15.050 14.380 11.270 10.020 0.226 0.249 0.230 0.542 0.00 0.00 0.00 0.1700 357.50 2.68 1 1 1 10.530 10.680 10.870 11.040 10.800 10.540 10.810 10.460 10.640 10.810 10.940 10.760 10.460 10.770 0.3530 12.696 12.696 0.000 12.935 12.944 0.000
VANMET_231 2016-09-28 04:05:00 231 53281.0 10.550 10.680 10.880 10.780 11.030 100.000 100.000 10.560 10.790 15.070 14.380 11.270 10.020 0.226 0.249 0.230 0.542 0.00 0.00 0.00 0.3550 0.10 0.02 1 1 1 10.580 10.730 10.900 11.060 10.800 10.580 10.810 10.500 10.650 10.880 10.990 10.770 10.510 10.780 0.5030 12.739 12.747 0.000 12.935 12.944 0.000
VANMET_231 2016-09-28 04:00:00 231 53281.0 10.600 10.780 10.920 10.810 11.060 99.900 100.000 10.600 10.820 15.080 14.390 11.270 10.020 0.226 0.249 0.230 0.542 0.00 0.00 0.00 0.4770 359.50 5.48 1 1 1 10.630 10.790 10.940 11.080 10.830 10.630 10.840 10.540 10.740 10.900 11.020 10.790 10.540 10.800 0.6860 12.781 12.781 0.013 12.961 12.970 0.000
VANMET_231 2016-09-28 03:55:00 231 53281.0 10.540 10.740 10.930 10.810 11.060 99.900 100.000 10.530 10.820 15.100 14.390 11.270 10.020 0.226 0.249 0.230 0.542 0.00 0.00 0.00 0.3600 359.40 9.20 1 1 1 10.560 10.760 10.940 11.080 10.830 10.550 10.830 10.520 10.730 10.920 11.040 10.800 10.510 10.810 0.4900 12.730 12.722 0.013 12.961 12.970 0.000
VANMET_231 2016-09-28 03:50:00 231 53281.0 10.570 10.740 10.930 10.820 11.060 99.900 100.000 10.560 10.830 15.120 14.390 11.270 10.020 0.226 0.249 0.230 0.542 0.00 0.00 0.00 0.4090 0.81 5.17 1 1 1 10.600 10.760 10.940 11.060 10.830 10.590 10.840 10.550 10.730 10.930 11.050 10.810 10.540 10.810 0.5100 12.756 12.747 0.013 12.970 12.979 0.000
VANMET_231 2016-09-28 03:45:00 231 53281.0 10.580 10.740 10.920 10.830 11.050 99.900 100.000 10.580 10.840 15.130 14.400 11.270 10.020 0.226 0.249 0.230 0.542 0.00 0.00 0.00 0.4530 10.89 8.68 1 1 1 10.610 10.770 10.950 11.070 10.840 10.600 10.850 10.550 10.710 10.900 11.030 10.810 10.530 10.810 0.5620 12.764 12.764 0.013 12.979 12.987 -0.000
VANMET_231 2016-09-28 03:40:00 231 53281.0 10.620 10.790 10.960 10.840 11.070 99.900 100.000 10.610 10.850 15.150 14.400 11.270 10.020 0.226 0.249 0.230 0.542 0.00 0.00 0.00 0.4440 1.21 0.97 1 1 1 10.640 10.810 10.960 11.100 10.870 10.640 10.870 10.590 10.770 10.950 11.050 10.830 10.590 10.830 0.5230 12.798 12.790 0.013 12.987 12.996 0.000
VANMET_231 2016-09-28 03:35:00 231 53281.0 10.630 10.780 10.940 10.840 11.080 99.900 100.000 10.620 10.850 15.170 14.400 11.270 10.020 0.226 0.249 0.230 0.542 0.00 0.00 0.00 0.4700 5.97 3.33 1 1 1 10.640 10.790 10.960 11.090 10.870 10.640 10.880 10.610 10.770 10.920 11.060 10.820 10.600 10.830 0.5360 12.807 12.798 0.013 12.987 12.996 0.000
VANMET_231 2016-09-28 03:30:00 231 53281.0 10.650 10.810 10.960 10.860 11.090 99.900 100.000 10.650 10.870 15.180 14.400 11.270 10.020 0.226 0.249 0.230 0.542 0.00 0.00 0.00 0.3080 5.47 4.65 1 1 1 10.690 10.830 10.980 11.120 10.880 10.680 10.890 10.620 10.780 10.930 11.050 10.830 10.620 10.830 0.4050 12.824 12.824 0.013 13.004 13.013 0.000
VANMET_231 2016-09-28 03:25:00 231 53281.0 10.670 10.810 10.960 10.870 11.120 99.900 100.000 10.660 10.880 15.200 14.400 11.270 10.020 0.226 0.249 0.230 0.542 0.00 0.00 0.00 0.3700 6.83 3.68 1 1 1 10.690 10.820 10.970 11.130 10.900 10.690 10.910 10.650 10.800 10.940 11.100 10.850 10.640 10.860 0.4770 12.841 12.832 0.013 13.013 13.022 -0.000
VANMET_231 2016-09-28 03:20:00 231 53281.0 10.680 10.790 10.980 10.890 11.180 99.800 100.000 10.660 10.900 15.210 14.410 11.270 10.020 0.226 0.249 0.230 0.542 0.00 0.00 0.00 0.4080 0.09 0.00 1 1 1 10.710 10.810 10.990 11.220 10.910 10.700 10.910 10.640 10.770 10.960 11.130 10.860 10.620 10.870 0.5360 12.850 12.832 0.026 13.030 13.039 -0.000
VANMET_231 2016-09-28 03:15:00 231 53281.0 10.660 10.780 10.980 10.890 11.110 99.800 100.000 10.650 10.900 15.230 14.410 11.260 10.020 0.226 0.249 0.230 0.542 0.00 0.00 0.00 0.4900 5.29 5.63 1 1 1 10.700 10.810 11.000 11.130 10.910 10.690 10.920 10.630 10.760 10.960 11.100 10.870 10.610 10.870 0.5810 12.832 12.824 0.026 13.030 13.039 -0.000
VANMET_231 2016-09-28 03:10:00 231 53281.0 10.670 10.810 10.990 10.930 11.130 99.800 100.000 10.660 10.940 15.250 14.410 11.260 10.020 0.226 0.249 0.230 0.542 0.00 0.00 0.00 0.4200 18.44 2.45 1 1 1 10.700 10.830 11.000 11.160 10.960 10.680 10.970 10.640 10.800 10.980 11.100 10.910 10.630 10.920 0.5360 12.841 12.832 0.026 13.065 13.074 0.000
VANMET_231 2016-09-28 03:05:00 231 53281.0 10.710 10.860 11.040 10.960 11.180 99.900 100.000 10.700 10.970 15.260 14.410 11.260 10.020 0.226 0.249 0.230 0.542 0.00 0.00 0.00 0.2500 22.02 1.05 1 1 1 10.760 10.900 11.060 11.220 10.980 10.750 10.990 10.670 10.810 10.980 11.140 10.930 10.660 10.940 0.5100 12.875 12.867 0.013 13.091 13.100 0.000
VANMET_231 2016-09-28 03:00:00 231 53281.0 10.730 10.890 11.070 10.960 11.230 99.900 100.000 10.710 10.970 15.280 14.420 11.260 10.020 0.226 0.249 0.230 0.542 0.00 0.00 0.00 0.0000 0.00 0.00 1 1 1 10.760 10.910 11.090 11.260 10.990 10.760 11.000 10.690 10.870 11.050 11.190 10.940 10.670 10.950 0.0000 12.892 12.875 0.013 13.091 13.100 0.000
VANMET_231 2016-09-28 02:55:00 231 53281.0 10.710 10.890 11.040 10.920 11.200 99.800 100.000 10.690 10.920 15.300 14.420 11.260 10.020 0.226 0.249 0.230 0.542 0.00 0.00 0.00 0.0000 0.00 0.00 1 1 1 10.740 10.900 11.050 11.230 10.940 10.730 10.950 10.690 10.860 11.010 11.180 10.900 10.670 10.900 0.0000 12.875 12.858 0.026 13.056 13.056 0.000
VANMET_231 2016-09-28 02:50:00 231 53281.0 10.680 10.830 11.020 10.920 11.140 99.700 99.900 10.650 10.920 15.310 14.420 11.260 10.020 0.226 0.249 0.230 0.542 0.00 0.00 0.00 0.4370 359.70 5.46 1 1 1 10.700 10.850 11.040 11.160 10.930 10.680 10.930 10.660 10.820 11.010 11.120 10.910 10.630 10.900 0.6660 12.850 12.824 0.039 13.056 13.056 0.013
VANMET_231 2016-09-28 02:45:00 231 53281.0 10.700 10.850 11.030 10.920 11.150 99.700 99.900 10.670 10.910 15.330 14.420 11.260 10.020 0.226 0.250 0.230 0.542 0.00 0.00 0.00 0.5020 4.37 1.20 1 1 1 10.730 10.870 11.040 11.170 10.930 10.700 10.920 10.690 10.830 11.010 11.140 10.910 10.650 10.890 0.7250 12.867 12.841 0.039 13.056 13.048 0.013
VANMET_231 2016-09-28 02:40:00 231 53281.0 10.700 10.840 11.000 10.920 11.130 99.700 99.800 10.670 10.900 15.340 14.420 11.260 10.020 0.226 0.250 0.230 0.542 0.00 0.00 0.00 0.5470 5.84 2.50 1 1 1 10.740 10.890 11.030 11.160 10.940 10.710 10.930 10.660 10.810 10.990 11.120 10.890 10.630 10.870 0.6990 12.867 12.841 0.039 13.056 13.039 0.026
VANMET_231 2016-09-28 02:35:00 231 53281.0 10.720 10.880 11.030 10.940 11.180 99.700 99.800 10.670 10.920 15.360 14.420 11.260 10.020 0.226 0.250 0.230 0.542 0.00 0.00 0.00 0.5530 3.59 8.74 1 1 1 10.740 10.900 11.050 11.210 10.960 10.700 10.940 10.680 10.840 11.020 11.140 10.920 10.630 10.900 0.7250 12.884 12.841 0.039 13.074 13.056 0.026
VANMET_231 2016-09-28 02:30:00 231 53281.0 10.720 10.880 11.030 10.960 11.170 99.700 99.800 10.680 10.940 15.380 14.420 11.260 10.030 0.226 0.250 0.230 0.542 0.00 0.00 0.00 0.4260 0.73 6.87 1 1 1 10.740 10.890 11.040 11.200 11.000 10.690 10.990 10.690 10.850 11.020 11.150 10.940 10.640 10.920 0.5750 12.884 12.850 0.039 13.091 13.074 0.026
VANMET_231 2016-09-28 02:25:00 231 53281.0 10.700 10.870 11.050 10.960 11.220 99.600 99.800 10.640 10.930 15.390 14.430 11.260 10.020 0.226 0.250 0.230 0.542 0.00 0.00 0.00 0.3970 352.20 4.05 1 1 1 10.740 10.900 11.060 11.240 10.990 10.690 10.980 10.670 10.820 11.020 11.200 10.920 10.610 10.890 0.6080 12.867 12.815 0.051 13.091 13.065 0.026
VANMET_231 2016-09-28 02:20:00 231 53281.0 10.690 10.810 11.010 10.920 11.180 99.500 99.700 10.620 10.880 15.410 14.430 11.250 10.030 0.226 0.250 0.230 0.542 0.00 0.00 0.00 0.4950 351.90 8.54 1 1 1 10.700 10.820 11.020 11.210 10.950 10.630 10.920 10.670 10.800 11.000 11.160 10.900 10.600 10.860 0.6600 12.858 12.798 0.064 13.056 13.022 0.039
VANMET_231 2016-09-28 02:15:00 231 53281.0 10.700 10.800 10.990 10.920 11.150 99.400 99.600 10.620 10.870 15.430 14.430 11.250 10.030 0.226 0.250 0.230 0.542 0.00 0.00 0.00 0.4830 13.32 9.46 1 1 1 10.740 10.800 11.000 11.170 10.930 10.660 10.880 10.680 10.790 10.980 11.120 10.900 10.600 10.860 0.5550 12.867 12.798 0.077 13.056 13.013 0.052
VANMET_231 2016-09-28 02:10:00 231 53281.0 10.760 10.840 11.020 10.950 11.170 99.400 99.500 10.680 10.890 15.440 14.430 11.250 10.030 0.226 0.250 0.230 0.542 0.00 0.00 0.00 0.6330 14.88 6.37 1 1 1 10.800 10.870 11.050 11.210 10.970 10.720 10.910 10.720 10.810 10.990 11.120 10.930 10.640 10.870 0.6930 12.918 12.850 0.078 13.083 13.030 0.065
VANMET_231 2016-09-28 02:05:00 231 53281.0 10.800 10.880 11.050 11.000 11.210 99.400 99.500 10.720 10.930 15.460 14.430 11.250 10.030 0.226 0.250 0.230 0.542 0.00 0.00 0.00 0.6160 12.46 1.28 1 1 1 10.830 10.920 11.070 11.220 11.040 10.760 10.970 10.770 10.850 11.040 11.200 10.970 10.680 10.900 0.7710 12.953 12.884 0.078 13.126 13.065 0.066
VANMET_231 2016-09-28 02:00:00 231 53281.0 10.860 10.930 11.080 11.060 11.240 99.500 99.400 10.780 10.980 15.470 14.430 11.250 10.030 0.226 0.250 0.230 0.542 0.00 0.00 0.00 0.5590 6.08 6.62 1 1 1 10.870 10.960 11.100 11.260 11.100 10.810 11.030 10.840 10.910 11.070 11.220 11.030 10.760 10.950 0.6930 13.004 12.935 0.065 13.179 13.109 0.079
VANMET_231 2016-09-28 01:55:00 231 53281.0 10.910 11.030 11.170 11.140 11.300 99.500 99.500 10.840 11.070 15.490 14.430 11.250 10.030 0.226 0.250 0.230 0.542 0.00 0.00 0.00 0.4800 19.05 1.21 1 1 1 10.930 11.050 11.200 11.350 11.180 10.870 11.120 10.860 10.960 11.100 11.220 11.100 10.790 11.030 0.6600 13.048 12.987 0.065 13.249 13.187 0.066
VANMET_231 2016-09-28 01:50:00 231 53281.0 10.920 11.060 11.220 11.190 11.360 99.400 99.500 10.840 11.120 15.510 14.430 11.250 10.030 0.226 0.250 0.230 0.542 0.00 0.00 0.00 0.1540 44.83 10.42 1 1 1 10.970 11.070 11.230 11.390 11.220 10.890 11.150 10.890 11.060 11.210 11.330 11.160 10.810 11.090 0.5100 13.056 12.987 0.078 13.293 13.231 0.066
VANMET_231 2016-09-28 01:45:00 231 53281.0 11.010 11.090 11.270 11.250 11.410 99.500 99.400 10.940 11.180 15.520 14.430 11.250 10.030 0.226 0.250 0.230 0.542 0.00 0.00 0.00 0.0670 353.50 0.58 1 1 1 11.050 11.150 11.340 11.480 11.290 10.990 11.220 10.950 11.060 11.210 11.350 11.200 10.880 11.120 0.3660 13.135 13.074 0.066 13.346 13.284 0.080
VANMET_231 2016-09-28 01:40:00 231 53281.0 11.080 11.210 11.370 11.330 11.490 99.500 99.400 11.020 11.260 15.540 14.430 11.250 10.030 0.226 0.250 0.230 0.542 0.00 0.00 0.00 0.3690 7.30 5.09 1 1 1 11.110 11.230 11.390 11.530 11.370 11.040 11.300 11.040 11.160 11.340 11.460 11.300 10.980 11.220 0.5230 13.196 13.144 0.066 13.417 13.355 0.081
VANMET_231 2016-09-28 01:35:00 231 53281.0 11.100 11.240 11.440 11.440 11.560 99.500 99.600 11.030 11.380 15.560 14.430 11.250 10.030 0.226 0.250 0.230 0.542 0.00 0.00 0.00 0.4150 14.61 3.38 1 1 1 11.140 11.280 11.480 11.600 11.480 11.060 11.440 11.070 11.230 11.400 11.520 11.380 11.000 11.310 0.5160 13.214 13.152 0.066 13.515 13.461 0.054
VANMET_231 2016-09-28 01:30:00 231 53281.0 11.090 11.280 11.490 11.500 11.660 99.400 99.700 11.000 11.470 15.570 14.430 11.250 10.030 0.226 0.250 0.230 0.542 0.00 0.00 0.00 0.1350 43.84 1.25 1 1 1 11.130 11.320 11.520 11.730 11.540 11.060 11.510 11.040 11.210 11.440 11.590 11.450 10.940 11.410 0.4050 13.205 13.126 0.079 13.569 13.542 0.041
VANMET_231 2016-09-28 01:25:00 231 53281.0 11.090 11.240 11.450 11.430 11.620 99.300 99.600 11.000 11.380 15.590 14.430 11.240 10.030 0.226 0.250 0.230 0.542 0.00 0.00 0.00 0.0910 302.30 11.60 1 1 1 11.120 11.290 11.490 11.730 11.450 11.020 11.410 11.050 11.200 11.400 11.510 11.400 10.950 11.350 0.4180 13.205 13.126 0.092 13.506 13.461 0.054
VANMET_231 2016-09-28 01:20:00 231 53281.0 11.150 11.310 11.480 11.420 11.710 99.400 99.600 11.060 11.370 15.600 14.430 11.240 10.030 0.226 0.250 0.230 0.542 0.00 0.00 0.00 0.3460 331.40 2.60 1 1 1 11.190 11.350 11.500 11.770 11.450 11.110 11.400 11.080 11.240 11.450 11.620 11.400 10.980 11.350 0.4570 13.258 13.179 0.080 13.497 13.452 0.054
VANMET_231 2016-09-28 01:15:00 231 53281.0 11.240 11.360 11.500 11.420 11.750 99.500 99.600 11.170 11.370 15.620 14.430 11.240 10.030 0.226 0.250 0.230 0.542 0.00 0.00 0.00 0.4650 339.60 4.40 1 1 1 11.260 11.380 11.510 11.780 11.450 11.190 11.400 11.180 11.340 11.500 11.740 11.410 11.110 11.360 0.5360 13.337 13.275 0.067 13.497 13.452 0.054
VANMET_231 2016-09-28 01:10:00 231 53281.0 11.190 11.350 11.500 11.400 11.750 99.300 99.500 11.090 11.330 15.640 14.430 11.240 10.030 0.226 0.250 0.230 0.542 0.00 0.00 0.00 0.4250 345.80 3.94 1 1 1 11.250 11.360 11.510 11.780 11.440 11.170 11.390 11.130 11.320 11.470 11.710 11.350 11.010 11.280 0.5490 13.293 13.205 0.093 13.479 13.417 0.067
VANMET_231 2016-09-28 01:05:00 231 53281.0 11.130 11.270 11.420 11.340 11.590 99.200 99.400 11.010 11.260 15.650 14.430 11.240 10.030 0.226 0.250 0.230 0.542 0.00 0.00 0.00 0.5280 0.93 7.15 1 1 1 11.170 11.310 11.460 11.720 11.350 11.050 11.280 11.110 11.240 11.410 11.540 11.320 10.980 11.240 0.6930 13.240 13.135 0.106 13.426 13.355 0.081
VANMET_231 2016-09-28 01:00:00 231 53281.0 11.150 11.290 11.420 11.330 11.560 99.200 99.300 11.040 11.240 15.670 14.430 11.240 10.030 0.226 0.250 0.230 0.542 0.00 0.00 0.00 0.6480 7.36 1.37 1 1 1 11.170 11.300 11.430 11.570 11.350 11.060 11.260 11.140 11.280 11.410 11.550 11.320 11.020 11.220 0.7840 13.258 13.161 0.106 13.417 13.337 0.094
VANMET_231 2016-09-28 00:55:00 231 53281.0 11.160 11.270 11.440 11.350 11.570 99.200 99.300 11.050 11.250 15.680 14.430 11.240 10.030 0.226 0.250 0.230 0.542 0.00 0.00 0.00 0.6480 5.23 3.00 1 1 1 11.190 11.300 11.450 11.590 11.390 11.080 11.290 11.140 11.250 11.420 11.550 11.330 11.020 11.230 0.7840 13.266 13.170 0.106 13.435 13.346 0.094
VANMET_231 2016-09-28 00:50:00 231 53281.0 11.200 11.340 11.470 11.390 11.600 99.300 99.300 11.100 11.290 15.700 14.430 11.240 10.030 0.226 0.250 0.230 0.542 0.00 0.00 0.00 0.6470 10.44 0.52 1 1 1 11.220 11.350 11.490 11.630 11.410 11.120 11.320 11.180 11.310 11.450 11.580 11.360 11.080 11.260 0.7640 13.302 13.214 0.093 13.470 13.381 0.094
VANMET_231 2016-09-28 00:45:00 231 53281.0 11.200 11.350 11.520 11.430 11.660 99.200 99.300 11.090 11.330 15.720 14.420 11.240 10.030 0.226 0.250 0.230 0.542 0.00 0.00 0.00 0.5680 1.35 1.45 1 1 1 11.230 11.350 11.530 11.680 11.450 11.120 11.350 11.170 11.330 11.490 11.630 11.410 11.040 11.310 0.7640 13.302 13.205 0.106 13.506 13.417 0.095
VANMET_231 2016-09-28 00:40:00 231 53281.0 11.150 11.300 11.530 11.440 11.670 99.000 99.300 11.010 11.340 15.730 14.420 11.240 10.030 0.226 0.250 0.230 0.542 0.00 0.00 0.00 0.5570 359.30 1.85 1 1 1 11.190 11.330 11.540 11.680 11.460 11.050 11.360 11.140 11.270 11.520 11.670 11.420 10.980 11.320 0.6790 13.258 13.135 0.133 13.515 13.426 0.095
VANMET_231 2016-09-28 00:35:00 231 53281.0 11.170 11.290 11.530 11.460 11.680 98.900 99.300 11.010 11.360 15.750 14.420 11.240 10.030 0.226 0.250 0.230 0.542 0.00 0.00 0.00 0.5260 354.90 0.01 1 1 1 11.190 11.330 11.550 11.690 11.490 11.050 11.390 11.140 11.270 11.520 11.660 11.440 10.980 11.340 0.6140 13.275 13.135 0.146 13.533 13.444 0.095
VANMET_231 2016-09-28 00:30:00 231 53281.0 11.230 11.380 11.570 11.480 11.710 99.100 99.200 11.100 11.370 15.760 14.420 11.240 10.030 0.226 0.250 0.230 0.542 0.00 0.00 0.00 0.4920 350.90 5.10 1 1 1 11.270 11.430 11.570 11.740 11.490 11.160 11.380 11.190 11.330 11.550 11.700 11.460 11.050 11.350 0.5880 13.328 13.214 0.120 13.551 13.452 0.108
VANMET_231 2016-09-28 00:25:00 231 53281.0 11.250 11.410 11.560 11.470 11.710 99.100 99.100 11.120 11.350 15.780 14.420 11.240 10.030 0.226 0.250 0.230 0.542 0.00 0.00 0.00 0.2510 333.70 4.83 1 1 1 11.270 11.440 11.570 11.720 11.480 11.160 11.360 11.220 11.400 11.560 11.700 11.450 11.080 11.330 0.3590 13.346 13.231 0.120 13.542 13.435 0.122
VANMET_231 2016-09-28 00:20:00 231 53281.0 11.220 11.350 11.520 11.450 11.700 98.800 99.000 11.040 11.310 15.790 14.420 11.230 10.030 0.226 0.250 0.230 0.542 0.00 0.00 0.00 0.4020 340.60 12.50 1 1 1 11.260 11.410 11.560 11.740 11.470 11.110 11.350 11.170 11.270 11.480 11.660 11.420 10.950 11.280 0.5680 13.319 13.161 0.160 13.524 13.399 0.135
VANMET_231 2016-09-28 00:15:00 231 53281.0 11.210 11.280 11.480 11.420 11.630 98.500 98.800 10.990 11.250 15.810 14.410 11.230 10.030 0.226 0.250 0.230 0.542 0.00 0.00 0.00 0.5040 349.50 8.68 1 1 1 11.250 11.320 11.490 11.690 11.440 11.040 11.290 11.170 11.270 11.460 11.580 11.390 10.950 11.220 0.6860 13.310 13.117 0.200 13.497 13.346 0.162
VANMET_231 2016-09-28 00:10:00 231 53281.0 11.270 11.360 11.520 11.450 11.650 98.600 98.800 11.060 11.270 15.820 14.410 11.230 10.030 0.226 0.250 0.230 0.542 0.00 0.00 0.00 0.6690 6.78 5.00 1 1 1 11.290 11.390 11.530 11.700 11.470 11.100 11.300 11.240 11.330 11.500 11.610 11.420 11.040 11.240 0.7840 13.364 13.179 0.187 13.524 13.364 0.162
VANMET_231 2016-09-28 00:05:00 231 53281.0 11.300 11.410 11.540 11.460 11.700 98.700 98.800 11.120 11.290 15.840 14.410 11.230 10.030 0.227 0.250 0.230 0.542 0.00 0.00 0.00 0.6240 357.80 10.00 1 1 1 11.330 11.420 11.550 11.710 11.480 11.150 11.310 11.280 11.390 11.520 11.680 11.440 11.090 11.250 0.8170 13.390 13.231 0.174 13.533 13.381 0.162
VANMET_231 2016-09-28 00:00:00 231 53281.0 11.310 11.400 11.520 11.450 11.680 98.700 98.600 11.120 11.250 15.860 14.410 11.230 10.030 0.227 0.250 0.229 0.542 0.00 0.00 0.00 0.6560 0.25 8.48 1 1 1 11.340 11.420 11.530 11.700 11.470 11.150 11.280 11.280 11.390 11.510 11.660 11.430 11.100 11.230 0.8040 13.399 13.231 0.174 13.524 13.346 0.189
VANMET_231 2016-09-27 23:55:00 231 53281.0 11.300 11.410 11.540 11.460 11.690 98.700 98.500 11.100 11.250 15.870 14.400 11.230 10.030 0.227 0.250 0.229 0.542 0.00 0.00 0.00 0.6120 5.13 0.91 1 1 1 11.320 11.420 11.550 11.700 11.470 11.130 11.270 11.280 11.400 11.530 11.680 11.440 11.070 11.230 0.7910 13.390 13.214 0.174 13.533 13.346 0.203
VANMET_231 2016-09-27 23:50:00 231 53281.0 11.270 11.370 11.530 11.470 11.690 98.400 98.300 11.040 11.220 15.890 14.400 11.230 10.030 0.227 0.250 0.229 0.542 0.00 0.00 0.00 0.6160 6.75 3.14 1 1 1 11.290 11.400 11.550 11.710 11.480 11.080 11.250 11.240 11.330 11.510 11.660 11.450 10.990 11.190 0.7320 13.364 13.161 0.214 13.542 13.319 0.230
VANMET_231 2016-09-27 23:45:00 231 53281.0 11.310 11.390 11.530 11.500 11.650 98.100 98.100 11.030 11.220 15.900 14.400 11.230 10.030 0.227 0.250 0.229 0.542 0.00 0.00 0.00 0.6670 5.88 0.18 1 1 1 11.340 11.420 11.570 11.700 11.550 11.060 11.280 11.290 11.370 11.520 11.590 11.470 11.000 11.200 0.8100 13.399 13.152 0.255 13.569 13.319 0.258
VANMET_231 2016-09-27 23:40:00 231 53281.0 11.370 11.460 11.610 11.560 11.750 98.100 98.100 11.080 11.280 15.920 14.400 11.230 10.030 0.227 0.250 0.229 0.542 0.00 0.00 0.00 0.5090 9.99 2.76 1 1 1 11.400 11.500 11.650 11.790 11.590 11.120 11.300 11.330 11.430 11.580 11.690 11.530 11.050 11.250 0.7320 13.452 13.196 0.256 13.623 13.372 0.259
VANMET_231 2016-09-27 23:35:00 231 53281.0 11.420 11.540 11.690 11.620 11.820 98.400 98.100 11.180 11.340 15.930 14.390 11.230 10.030 0.227 0.250 0.229 0.542 0.00 0.00 0.00 0.6290 7.24 3.53 1 1 1 11.450 11.550 11.710 11.850 11.660 11.210 11.390 11.380 11.500 11.660 11.790 11.590 11.130 11.300 0.7710 13.497 13.284 0.216 13.677 13.426 0.260
VANMET_231 2016-09-27 23:30:00 231 53281.0 11.420 11.540 11.710 11.660 11.850 98.200 98.000 11.170 11.360 15.950 14.390 11.230 10.030 0.227 0.250 0.229 0.542 0.00 0.00 0.00 0.5730 10.90 2.44 1 1 1 11.460 11.560 11.730 11.860 11.690 11.210 11.390 11.400 11.530 11.700 11.830 11.620 11.140 11.320 0.6660 13.497 13.275 0.243 13.713 13.444 0.274
VANMET_231 2016-09-27 23:25:00 231 53281.0 11.440 11.560 11.770 11.700 11.890 98.200 98.000 11.180 11.400 15.960 14.380 11.220 10.030 0.227 0.250 0.229 0.542 0.00 0.00 0.00 0.4670 357.30 14.24 1 1 1 11.480 11.590 11.800 11.920 11.730 11.220 11.420 11.420 11.540 11.740 11.850 11.680 11.150 11.370 0.6400 13.515 13.284 0.243 13.749 13.479 0.275
VANMET_231 2016-09-27 23:20:00 231 53281.0 11.460 11.590 11.800 11.740 11.940 98.200 97.900 11.200 11.420 15.970 14.380 11.220 10.030 0.227 0.250 0.229 0.542 0.00 0.00 0.00 0.4350 348.70 5.54 1 1 1 11.480 11.600 11.810 11.970 11.760 11.230 11.450 11.450 11.570 11.790 11.920 11.720 11.180 11.400 0.5100 13.533 13.302 0.244 13.786 13.497 0.290
VANMET_231 2016-09-27 23:15:00 231 53281.0 11.490 11.580 11.820 11.770 11.970 98.000 97.800 11.190 11.450 15.990 14.380 11.220 10.030 0.227 0.250 0.229 0.542 0.00 0.00 0.00 0.3770 343.00 2.11 1 1 1 11.520 11.600 11.840 11.990 11.800 11.220 11.480 11.460 11.560 11.800 11.950 11.740 11.160 11.410 0.4570 13.560 13.293 0.271 13.813 13.524 0.304
VANMET_231 2016-09-27 23:10:00 231 53281.0 11.550 11.640 11.850 11.800 12.040 98.000 97.800 11.260 11.480 16.000 14.370 11.220 10.030 0.227 0.250 0.229 0.542 0.00 0.00 0.00 0.3750 337.80 8.03 1 1 1 11.590 11.670 11.870 12.100 11.820 11.300 11.510 11.530 11.600 11.840 11.980 11.770 11.230 11.450 0.5420 13.614 13.355 0.272 13.841 13.551 0.304
VANMET_231 2016-09-27 23:05:00 231 53281.0 11.600 11.680 11.870 11.820 11.990 98.000 97.700 11.300 11.480 16.020 14.370 11.220 10.030 0.227 0.250 0.229 0.542 0.00 0.00 0.00 0.4570 350.60 16.76 1 1 1 11.640 11.730 11.900 12.050 11.860 11.360 11.520 11.560 11.640 11.850 11.950 11.780 11.240 11.440 0.5880 13.659 13.390 0.273 13.859 13.551 0.319
VANMET_231 2016-09-27 23:00:00 231 53281.0 11.640 11.740 11.900 11.850 12.050 98.000 97.600 11.350 11.500 16.030 14.360 11.220 10.030 0.227 0.250 0.229 0.542 0.00 0.00 0.00 0.5470 11.12 1.15 1 1 1 11.660 11.760 11.910 12.070 11.870 11.380 11.520 11.630 11.730 11.900 12.010 11.830 11.330 11.480 0.6080 13.695 13.435 0.274 13.886 13.569 0.333
VANMET_231 2016-09-27 22:55:00 231 53281.0 11.640 11.750 11.920 11.870 12.070 97.800 97.600 11.320 11.500 16.050 14.360 11.220 10.030 0.227 0.250 0.229 0.542 0.00 0.00 0.00 0.5400 8.05 1.58 1 1 1 11.660 11.760 11.930 12.090 11.880 11.350 11.520 11.620 11.730 11.910 12.060 11.850 11.290 11.490 0.7450 13.695 13.408 0.301 13.905 13.569 0.334
VANMET_231 2016-09-27 22:50:00 231 53281.0 11.670 11.780 11.940 11.890 12.100 97.800 97.500 11.350 11.520 16.060 14.360 11.220 10.030 0.227 0.250 0.229 0.542 0.00 0.00 0.00 0.3190 7.07 2.88 1 1 1 11.700 11.790 11.960 12.120 11.910 11.390 11.540 11.660 11.760 11.920 12.080 11.870 11.320 11.500 0.7190 13.722 13.435 0.302 13.923 13.587 0.348
VANMET_231 2016-09-27 22:45:00 231 53281.0 11.710 11.810 11.970 11.920 12.100 97.700 97.300 11.370 11.520 16.070 14.350 11.220 10.030 0.227 0.250 0.229 0.542 0.00 0.00 0.00 0.4800 4.05 1.78 1 1 1 11.740 11.830 11.990 12.120 11.940 11.420 11.540 11.690 11.780 11.950 12.070 11.900 11.340 11.500 0.6860 13.759 13.452 0.316 13.951 13.587 0.377
VANMET_231 2016-09-27 22:40:00 231 53281.0 11.730 11.820 12.000 11.950 12.130 97.600 97.200 11.380 11.530 16.090 14.350 11.220 10.030 0.227 0.250 0.229 0.542 0.00 0.00 0.00 0.5380 8.76 3.61 1 1 1 11.760 11.850 12.010 12.150 11.970 11.420 11.550 11.690 11.790 11.990 12.110 11.920 11.320 11.510 0.7190 13.777 13.461 0.331 13.978 13.596 0.391
VANMET_231 2016-09-27 22:35:00 231 53281.0 11.770 11.850 12.030 11.980 12.170 97.500 97.100 11.390 11.550 16.100 14.340 11.220 10.030 0.227 0.250 0.229 0.542 0.00 0.00 0.00 0.6270 14.39 4.20 1 1 1 11.800 11.860 12.040 12.180 12.000 11.440 11.570 11.750 11.830 12.010 12.160 11.960 11.350 11.530 0.7910 13.813 13.470 0.345 14.006 13.614 0.406
VANMET_231 2016-09-27 22:30:00 231 53281.0 11.830 11.910 12.060 12.010 12.190 97.500 97.000 11.450 11.560 16.110 14.330 11.210 10.030 0.227 0.250 0.229 0.542 0.00 0.00 0.00 0.4640 26.39 11.27 1 1 1 11.860 11.940 12.090 12.220 12.050 11.490 11.600 11.790 11.860 12.040 12.160 11.990 11.390 11.530 0.6140 13.868 13.524 0.347 14.034 13.623 0.421
VANMET_231 2016-09-27 22:25:00 231 53281.0 11.850 11.940 12.100 12.050 12.240 97.400 96.900 11.450 11.580 16.130 14.330 11.210 10.030 0.227 0.250 0.229 0.542 0.00 0.00 0.00 0.2950 14.51 4.35 1 1 1 11.890 11.960 12.120 12.270 12.080 11.520 11.630 11.810 11.920 12.090 12.210 12.020 11.400 11.540 0.4770 13.886 13.524 0.361 14.071 13.641 0.436
VANMET_231 2016-09-27 22:20:00 231 53281.0 11.890 11.950 12.110 12.080 12.250 97.200 96.600 11.470 11.570 16.140 14.320 11.210 10.030 0.227 0.250 0.229 0.542 0.00 0.00 0.00 0.2690 344.90 6.90 1 1 1 11.930 11.980 12.120 12.300 12.120 11.520 11.600 11.850 11.920 12.100 12.210 12.050 11.400 11.540 0.7190 13.923 13.542 0.390 14.099 13.632 0.479
VANMET_231 2016-09-27 22:15:00 231 53281.0 11.940 11.990 12.150 12.140 12.280 97.100 96.300 11.490 11.580 16.150 14.320 11.210 10.030 0.227 0.250 0.229 0.541 0.00 0.00 0.00 0.5820 2.27 4.48 1 1 1 11.970 12.020 12.190 12.300 12.160 11.520 11.600 11.910 11.970 12.130 12.240 12.110 11.460 11.570 0.6470 13.969 13.560 0.405 14.154 13.641 0.524
VANMET_231 2016-09-27 22:10:00 231 53281.0 12.000 12.060 12.220 12.220 12.330 96.700 95.900 11.500 11.590 16.160 14.310 11.210 10.030 0.227 0.250 0.229 0.542 0.00 0.00 0.00 0.6290 15.31 2.37 1 1 1 12.040 12.120 12.260 12.380 12.260 11.570 11.640 11.970 12.020 12.190 12.290 12.170 11.460 11.550 0.7190 14.025 13.569 0.463 14.229 13.650 0.583
VANMET_231 2016-09-27 22:05:00 231 53281.0 12.050 12.140 12.280 12.300 12.400 96.700 96.100 11.560 11.700 16.180 14.300 11.210 10.030 0.227 0.250 0.229 0.541 0.00 0.00 0.00 0.4850 27.61 9.34 1 1 1 12.080 12.170 12.300 12.430 12.330 11.590 11.760 12.020 12.120 12.260 12.360 12.260 11.520 11.630 0.6270 14.071 13.623 0.464 14.304 13.749 0.558
VANMET_231 2016-09-27 22:00:00 231 53281.0 12.060 12.180 12.320 12.320 12.450 96.800 96.100 11.580 11.720 16.190 14.300 11.210 10.030 0.227 0.250 0.229 0.541 0.00 0.00 0.00 0.4010 31.01 3.97 1 1 1 12.090 12.190 12.350 12.470 12.340 11.610 11.780 12.050 12.170 12.300 12.430 12.290 11.560 11.670 0.4970 14.080 13.641 0.451 14.323 13.768 0.559
VANMET_231 2016-09-27 21:55:00 231 53281.0 12.070 12.210 12.380 12.340 12.510 97.100 95.900 11.630 11.720 16.200 14.290 11.210 10.030 0.227 0.250 0.229 0.541 0.00 0.00 0.00 0.0660 40.15 8.01 1 1 1 12.090 12.230 12.390 12.530 12.370 11.670 11.740 12.040 12.190 12.360 12.460 12.330 11.580 11.690 0.5550 14.089 13.686 0.409 14.342 13.768 0.588
VANMET_231 2016-09-27 21:50:00 231 53281.0 12.080 12.210 12.380 12.350 12.560 97.100 95.800 11.640 11.710 16.210 14.280 11.210 10.030 0.228 0.250 0.229 0.541 0.00 0.00 0.00 0.0260 16.21 0.38 1 1 1 12.090 12.230 12.400 12.570 12.360 11.670 11.750 12.040 12.180 12.370 12.540 12.340 11.590 11.640 0.2220 14.099 13.695 0.409 14.351 13.759 0.603
VANMET_231 2016-09-27 21:45:00 231 53281.0 12.070 12.190 12.380 12.350 12.560 96.800 95.300 11.590 11.640 16.220 14.280 11.210 10.030 0.228 0.250 0.229 0.541 0.00 0.00 0.00 0.1170 346.50 5.68 1 1 1 12.090 12.210 12.390 12.590 12.380 11.620 11.670 12.050 12.170 12.360 12.510 12.340 11.560 11.580 0.4770 14.089 13.650 0.451 14.351 13.695 0.675
VANMET_231 2016-09-27 21:40:00 231 53281.0 12.080 12.190 12.370 12.370 12.540 96.600 94.800 11.560 11.580 16.230 14.270 11.210 10.030 0.228 0.250 0.229 0.541 0.00 0.00 0.00 0.5400 359.10 3.84 1 1 1 12.120 12.230 12.400 12.570 12.410 11.590 11.600 12.040 12.160 12.350 12.520 12.350 11.530 11.550 0.7640 14.099 13.623 0.479 14.370 13.641 0.747
VANMET_231 2016-09-27 21:35:00 231 53281.0 12.140 12.240 12.400 12.420 12.620 96.300 94.500 11.580 11.570 16.240 14.260 11.210 10.030 0.228 0.250 0.229 0.541 0.00 0.00 0.00 0.5670 334.40 11.15 1 1 1 12.170 12.250 12.420 12.690 12.460 11.610 11.600 12.110 12.230 12.390 12.570 12.390 11.540 11.530 0.8300 14.154 13.641 0.524 14.418 13.632 0.793
VANMET_231 2016-09-27 21:30:00 231 53281.0 12.190 12.290 12.470 12.480 12.640 96.100 94.200 11.590 11.590 16.260 14.250 11.200 10.030 0.228 0.250 0.230 0.541 0.00 0.00 0.00 0.5780 357.20 19.00 1 1 1 12.210 12.320 12.500 12.670 12.510 11.620 11.630 12.170 12.260 12.430 12.590 12.440 11.550 11.560 0.7510 14.201 13.650 0.554 14.475 13.650 0.840
VANMET_231 2016-09-27 21:25:00 231 53281.0 12.240 12.330 12.510 12.550 12.660 95.800 93.800 11.600 11.590 16.270 14.250 11.200 10.030 0.228 0.250 0.229 0.541 0.00 0.00 0.00 0.7140 1.98 6.32 1 1 1 12.290 12.380 12.550 12.700 12.600 11.640 11.620 12.200 12.300 12.480 12.630 12.510 11.560 11.570 0.8950 14.248 13.659 0.598 14.541 13.650 0.902
VANMET_231 2016-09-27 21:20:00 231 53281.0 12.300 12.420 12.610 12.650 12.730 95.800 93.600 11.660 11.660 16.280 14.240 11.200 10.030 0.228 0.250 0.229 0.541 0.00 0.00 0.00 0.6680 0.61 7.40 1 1 1 12.320 12.460 12.640 12.810 12.710 11.700 11.720 12.280 12.380 12.550 12.640 12.590 11.620 11.600 0.8890 14.304 13.713 0.601 14.637 13.713 0.937
VANMET_231 2016-09-27 21:15:00 231 53281.0 12.340 12.470 12.660 12.720 12.850 95.800 93.600 11.710 11.730 16.280 14.230 11.200 10.030 0.228 0.250 0.229 0.541 0.00 0.00 0.00 0.6510 7.76 7.43 1 1 1 12.380 12.500 12.690 12.950 12.750 11.790 11.800 12.320 12.450 12.630 12.770 12.690 11.680 11.680 0.8490 14.342 13.759 0.602 14.704 13.777 0.941
VANMET_231 2016-09-27 21:10:00 231 53281.0 12.370 12.530 12.720 12.750 12.880 95.900 93.600 11.750 11.760 16.290 14.220 11.200 10.030 0.228 0.250 0.229 0.541 0.00 0.00 0.00 0.6350 357.00 14.91 1 1 1 12.390 12.560 12.760 13.010 12.800 11.810 11.810 12.350 12.500 12.690 12.810 12.710 11.720 11.720 0.8560 14.370 13.795 0.589 14.733 13.804 0.943
VANMET_231 2016-09-27 21:05:00 231 53281.0 12.360 12.550 12.760 12.800 12.910 96.000 93.600 11.750 11.800 16.300 14.210 11.200 10.030 0.228 0.250 0.229 0.541 0.00 0.00 0.00 0.5470 5.15 9.83 1 1 1 12.380 12.570 12.780 12.940 12.820 11.780 11.850 12.340 12.520 12.750 12.880 12.780 11.710 11.760 0.7450 14.361 13.795 0.574 14.782 13.841 0.946
VANMET_231 2016-09-27 21:00:00 231 53281.0 12.360 12.500 12.740 12.790 13.000 96.000 93.900 11.760 11.840 16.310 14.210 11.200 10.030 0.228 0.250 0.229 0.541 0.00 0.00 0.00 0.4890 334.70 9.88 1 1 1 12.380 12.510 12.770 13.150 12.820 11.790 11.920 12.340 12.490 12.680 12.900 12.740 11.730 11.750 0.6600 14.361 13.804 0.574 14.772 13.877 0.901
VANMET_231 2016-09-27 20:55:00 231 53281.0 12.390 12.490 12.680 12.720 12.960 95.900 93.900 11.750 11.770 16.320 14.200 11.200 10.030 0.228 0.250 0.229 0.541 0.00 0.00 0.00 0.5160 331.10 9.65 1 1 1 12.420 12.510 12.700 13.040 12.740 11.790 11.820 12.360 12.470 12.670 12.870 12.700 11.730 11.730 0.7910 14.389 13.795 0.590 14.704 13.813 0.897
VANMET_231 2016-09-27 20:50:00 231 53281.0 12.400 12.510 12.710 12.710 12.920 96.000 94.000 11.790 11.780 16.330 14.190 11.200 10.030 0.228 0.250 0.229 0.541 0.00 0.00 0.00 0.5900 357.90 10.15 1 1 1 12.420 12.530 12.720 12.940 12.730 11.830 11.820 12.370 12.500 12.700 12.900 12.700 11.730 11.750 0.8360 14.399 13.831 0.576 14.695 13.822 0.882
VANMET_231 2016-09-27 20:45:00 231 53281.0 12.400 12.520 12.730 12.720 12.860 96.000 93.800 11.790 11.760 16.340 14.180 11.200 10.030 0.228 0.250 0.230 0.541 0.00 0.00 0.00 0.6740 3.92 5.05 1 1 1 12.430 12.560 12.770 12.890 12.740 11.830 11.790 12.380 12.500 12.710 12.830 12.700 11.760 11.740 0.9540 14.399 13.831 0.576 14.704 13.804 0.912
VANMET_231 2016-09-27 20:40:00 231 53281.0 12.410 12.560 12.790 12.770 12.920 96.100 93.800 11.810 11.800 16.340 14.170 11.190 10.030 0.228 0.250 0.230 0.541 0.00 0.00 0.00 0.5800 5.85 4.48 1 1 1 12.430 12.580 12.810 12.940 12.790 11.860 11.840 12.380 12.540 12.770 12.890 12.750 11.760 11.780 0.8100 14.408 13.850 0.562 14.753 13.841 0.915
VANMET_231 2016-09-27 20:35:00 231 53281.0 12.400 12.560 12.830 12.790 12.990 95.900 93.900 11.770 11.840 16.350 14.160 11.190 10.030 0.228 0.250 0.230 0.541 0.00 0.00 0.00 0.3700 4.36 2.84 1 1 1 12.430 12.600 12.840 13.030 12.810 11.810 11.880 12.380 12.550 12.810 12.950 12.770 11.750 11.810 0.5230 14.399 13.813 0.590 14.772 13.877 0.901
VANMET_231 2016-09-27 20:30:00 231 53281.0 12.410 12.550 12.800 12.760 12.990 96.100 94.000 11.810 11.840 16.350 14.150 11.190 10.030 0.228 0.250 0.230 0.541 0.00 0.00 0.00 0.4330 5.82 3.27 1 1 1 12.430 12.610 12.840 13.050 12.790 11.860 11.880 12.380 12.500 12.760 12.950 12.740 11.750 11.800 0.5420 14.408 13.850 0.562 14.743 13.877 0.885
VANMET_231 2016-09-27 20:25:00 231 53281.0 12.410 12.500 12.740 12.730 13.000 95.800 94.000 11.780 11.800 16.360 14.140 11.190 10.030 0.228 0.250 0.230 0.541 0.00 0.00 0.00 0.4980 339.50 10.40 1 1 1 12.430 12.510 12.760 13.090 12.770 11.820 11.830 12.400 12.490 12.720 12.950 12.680 11.750 11.770 0.6400 14.408 13.822 0.605 14.714 13.841 0.883
VANMET_231 2016-09-27 20:20:00 231 53281.0 12.440 12.490 12.670 12.670 12.900 95.500 93.900 11.750 11.710 16.370 14.130 11.190 10.030 0.228 0.250 0.230 0.541 0.00 0.00 0.00 0.5270 341.60 7.03 1 1 1 12.480 12.520 12.720 13.070 12.680 11.790 11.780 12.410 12.470 12.650 12.790 12.640 11.700 11.680 0.7450 14.437 13.795 0.650 14.656 13.759 0.894
VANMET_231 2016-09-27 20:15:00 231 53281.0 12.490 12.550 12.710 12.680 12.860 95.200 93.600 11.740 11.690 16.370 14.120 11.190 10.030 0.228 0.250 0.230 0.541 0.00 0.00 0.00 0.6080 348.40 13.71 1 1 1 12.520 12.570 12.720 12.940 12.720 11.770 11.720 12.450 12.530 12.690 12.810 12.660 11.720 11.660 0.7710 14.484 13.786 0.695 14.666 13.740 0.939
VANMET_231 2016-09-27 20:10:00 231 53281.0 12.550 12.610 12.760 12.730 12.890 95.000 93.400 11.780 11.700 16.370 14.110 11.190 10.030 0.228 0.250 0.230 0.541 0.00 0.00 0.00 0.5780 2.53 3.04 1 1 1 12.570 12.620 12.770 12.930 12.740 11.810 11.720 12.520 12.570 12.730 12.810 12.700 11.750 11.670 0.7380 14.541 13.822 0.727 14.714 13.749 0.971
VANMET_231 2016-09-27 20:05:00 231 53281.0 12.590 12.640 12.790 12.750 12.910 94.900 93.300 11.810 11.700 16.380 14.100 11.190 10.030 0.228 0.251 0.230 0.541 0.00 0.00 0.00 0.6620 2.92 1.44 1 1 1 12.630 12.660 12.810 12.930 12.780 11.830 11.720 12.560 12.610 12.770 12.870 12.720 11.770 11.690 0.8560 14.579 13.850 0.744 14.733 13.749 0.987
VANMET_231 2016-09-27 20:00:00 231 53281.0 12.660 12.690 12.840 12.790 12.950 94.600 93.100 11.830 11.710 16.380 14.090 11.190 10.030 0.228 0.251 0.230 0.541 0.00 0.00 0.00 0.6360 4.40 2.60 1 1 1 12.700 12.720 12.860 12.980 12.810 11.860 11.740 12.610 12.660 12.810 12.910 12.760 11.810 11.690 0.7970 14.647 13.868 0.791 14.772 13.759 1.019
VANMET_231 2016-09-27 19:55:00 231 53281.0 12.730 12.780 12.880 12.830 13.020 94.400 92.900 11.860 11.730 16.380 14.080 11.190 10.030 0.228 0.251 0.230 0.541 0.00 0.00 0.00 0.7740 7.57 0.28 1 1 1 12.760 12.790 12.890 13.060 12.860 11.890 11.740 12.700 12.730 12.860 12.960 12.810 11.840 11.700 0.8820 14.714 13.896 0.824 14.811 13.777 1.052
VANMET_231 2016-09-27 19:50:00 231 53281.0 12.770 12.810 12.910 12.870 13.050 94.300 92.800 11.890 11.750 16.380 14.070 11.180 10.030 0.228 0.251 0.230 0.541 0.00 0.00 0.00 0.6980 7.54 0.06 1 1 1 12.790 12.830 12.940 13.070 12.900 11.930 11.760 12.750 12.800 12.890 13.040 12.840 11.870 11.730 0.9210 14.753 13.923 0.841 14.850 13.795 1.069
VANMET_231 2016-09-27 19:45:00 231 53281.0 12.780 12.840 12.960 12.920 13.090 94.400 92.600 11.910 11.750 16.390 14.060 11.180 10.030 0.228 0.251 0.230 0.541 0.00 0.00 0.00 0.7760 7.73 0.47 1 1 1 12.800 12.840 12.970 13.120 12.950 11.930 11.770 12.760 12.830 12.940 13.080 12.890 11.900 11.730 0.8360 14.762 13.941 0.827 14.898 13.795 1.102
VANMET_231 2016-09-27 19:40:00 231 53281.0 12.780 12.840 12.990 12.960 13.150 94.400 92.500 11.910 11.790 16.390 14.050 11.180 10.030 0.228 0.251 0.230 0.541 0.00 0.00 0.00 0.6930 5.41 2.88 1 1 1 12.800 12.850 12.990 13.170 12.980 11.940 11.800 12.760 12.820 12.980 13.120 12.940 11.900 11.770 0.8430 14.762 13.941 0.827 14.937 13.831 1.120
VANMET_231 2016-09-27 19:35:00 231 53281.0 12.820 12.860 13.020 12.990 13.140 94.200 92.200 11.920 11.770 16.390 14.040 11.180 10.030 0.228 0.251 0.230 0.541 0.00 0.00 0.00 0.6470 3.54 3.45 1 1 1 12.850 12.890 13.040 13.190 13.020 11.950 11.810 12.780 12.810 12.980 13.070 12.960 11.880 11.730 0.8560 14.801 13.951 0.858 14.967 13.813 1.167
VANMET_231 2016-09-27 19:30:00 231 53281.0 12.830 12.860 13.040 13.020 13.210 94.200 92.200 11.930 11.790 16.390 14.030 11.180 10.030 0.228 0.251 0.230 0.541 0.00 0.00 0.00 0.7060 7.01 2.60 1 1 1 12.850 12.890 13.040 13.230 13.040 11.960 11.810 12.810 12.830 13.040 13.180 13.010 11.890 11.770 0.8300 14.811 13.960 0.859 14.996 13.831 1.170
VANMET_231 2016-09-27 19:25:00 231 53281.0 12.880 12.890 13.090 13.070 13.200 93.900 91.800 11.930 11.790 16.380 14.020 11.180 10.030 0.228 0.251 0.230 0.541 0.00 0.00 0.00 0.5590 1.62 0.60 1 1 1 12.910 12.930 13.130 13.260 13.110 11.960 11.820 12.830 12.850 13.050 13.160 13.030 11.890 11.760 0.6210 14.859 13.960 0.906 15.045 13.831 1.234
VANMET_231 2016-09-27 19:20:00 231 53281.0 12.920 12.930 13.130 13.120 13.290 93.900 91.800 11.970 11.830 16.380 14.010 11.180 10.030 0.228 0.251 0.230 0.541 0.00 0.00 0.00 0.5990 4.05 0.57 1 1 1 12.940 12.940 13.130 13.300 13.150 11.990 11.840 12.890 12.920 13.120 13.250 13.100 11.950 11.810 0.8040 14.898 13.997 0.909 15.094 13.868 1.238
VANMET_231 2016-09-27 19:15:00 231 53281.0 12.970 12.970 13.160 13.170 13.280 93.600 91.500 11.970 11.820 16.380 14.000 11.180 10.030 0.228 0.251 0.230 0.541 0.00 0.00 0.00 0.5720 3.68 0.29 1 1 1 13.010 13.010 13.210 13.330 13.210 12.010 11.850 12.930 12.920 13.120 13.220 13.130 11.940 11.800 0.7840 14.947 13.997 0.957 15.144 13.859 1.287
VANMET_231 2016-09-27 19:10:00 231 53281.0 13.040 13.040 13.230 13.230 13.330 93.400 91.200 12.020 11.850 16.380 13.990 11.180 10.030 0.228 0.251 0.230 0.541 0.00 0.00 0.00 0.6210 3.64 0.71 1 1 1 13.080 13.090 13.270 13.360 13.260 12.040 11.860 13.000 13.010 13.210 13.320 13.210 11.990 11.810 0.8040 15.016 14.043 0.991 15.203 13.886 1.338
VANMET_231 2016-09-27 19:05:00 231 53281.0 13.120 13.140 13.320 13.300 13.440 93.100 91.000 12.050 11.870 16.370 13.970 11.180 10.030 0.228 0.251 0.230 0.541 0.00 0.00 0.00 0.6780 4.18 1.69 1 1 1 13.160 13.170 13.350 13.490 13.340 12.070 11.920 13.080 13.100 13.280 13.360 13.260 12.020 11.830 0.8620 15.094 14.071 1.042 15.273 13.905 1.375
VANMET_231 2016-09-27 19:00:00 231 53281.0 13.170 13.180 13.370 13.360 13.500 93.000 90.800 12.080 11.900 16.370 13.960 11.170 10.030 0.228 0.251 0.230 0.541 0.00 0.00 0.00 0.6450 3.64 0.46 1 1 1 13.190 13.200 13.390 13.530 13.390 12.110 11.950 13.150 13.170 13.360 13.480 13.320 12.040 11.870 0.7510 15.144 14.099 1.060 15.333 13.932 1.411
VANMET_231 2016-09-27 18:55:00 231 53281.0 13.220 13.220 13.400 13.410 13.520 93.000 90.800 12.120 11.950 16.360 13.950 11.170 10.030 0.228 0.251 0.230 0.541 0.00 0.00 0.00 0.6820 6.05 6.78 1 1 1 13.260 13.240 13.430 13.550 13.450 12.150 11.990 13.180 13.200 13.380 13.480 13.380 12.080 11.910 0.8560 15.193